<?xml version='1.0' encoding='UTF-8'?><gpx version="1.1" creator="JPX - https://github.com/jenetics/jpx" xmlns="http://www.topografix.com/GPX/1/1"><trk><trkseg><trkpt lat="49.13373889344992" lon="2.507978806850752"><ele>77.85714285714286</ele><time>2026-03-27T13:34:01.996Z</time></trkpt><trkpt lat="49.13377251858034" lon="2.507894890362776"><ele>77.71428571428571</ele><time>2026-03-27T13:34:03.996Z</time></trkpt><trkpt lat="49.13381271465033" lon="2.5078139863137237"><ele>77.57142857142857</ele><time>2026-03-27T13:34:05.997Z</time></trkpt><trkpt lat="49.13385044410638" lon="2.507709385613028"><ele>77.42857142857143</ele><time>2026-03-27T13:34:07.997Z</time></trkpt><trkpt lat="49.13389374966165" lon="2.5076120506364563"><ele>77.28571428571428</ele><time>2026-03-27T13:34:09.997Z</time></trkpt><trkpt lat="49.13393088960392" lon="2.5075078807368145"><ele>77.14285714285714</ele><time>2026-03-27T13:34:11.998Z</time></trkpt><trkpt lat="49.13395922204726" lon="2.5074084696520798"><ele>77.0</ele><time>2026-03-27T13:34:13.998Z</time></trkpt><trkpt lat="49.13400432573822" lon="2.507314901242653"><ele>77.0</ele><time>2026-03-27T13:34:15.998Z</time></trkpt><trkpt lat="49.1340397470606" lon="2.5072134251353755"><ele>77.0</ele><time>2026-03-27T13:34:17.998Z</time></trkpt><trkpt lat="49.13408303551233" lon="2.507109100919266"><ele>77.0</ele><time>2026-03-27T13:34:19.998Z</time></trkpt><trkpt lat="49.13412714371586" lon="2.507004343144796"><ele>77.0</ele><time>2026-03-27T13:34:21.999Z</time></trkpt><trkpt lat="49.134165401791165" lon="2.50691271399698"><ele>77.0</ele><time>2026-03-27T13:34:23.999Z</time></trkpt><trkpt lat="49.13419642565429" lon="2.506818977973631"><ele>77.0</ele><time>2026-03-27T13:34:25.999Z</time></trkpt><trkpt lat="49.134257109137536" lon="2.5067358601018594"><ele>77.6</ele><time>2026-03-27T13:34:28.999Z</time></trkpt><trkpt lat="49.13434987482777" lon="2.506770780201672"><ele>78.2</ele><time>2026-03-27T13:34:31.999Z</time></trkpt><trkpt lat="49.13441931682043" lon="2.5068266766459093"><ele>78.8</ele><time>2026-03-27T13:34:33.999Z</time></trkpt><trkpt lat="49.1344980450797" lon="2.506893145590039"><ele>79.4</ele><time>2026-03-27T13:34:35.999Z</time></trkpt><trkpt lat="49.134585032791186" lon="2.506932189659647"><ele>80.0</ele><time>2026-03-27T13:34:37.999Z</time></trkpt><trkpt lat="49.13468212520561" lon="2.5069728287344226"><ele>80.0</ele><time>2026-03-27T13:34:39.999Z</time></trkpt><trkpt lat="49.13478120398562" lon="2.5069945035547674"><ele>80.0</ele><time>2026-03-27T13:34:41.999Z</time></trkpt><trkpt lat="49.13489065976501" lon="2.5070346861201833"><ele>80.0</ele><time>2026-03-27T13:34:43.999Z</time></trkpt><trkpt lat="49.1349962057033" lon="2.5070703436151214"><ele>80.0</ele><time>2026-03-27T13:34:45.999Z</time></trkpt><trkpt lat="49.13509499248776" lon="2.5070925596461744"><ele>80.0</ele><time>2026-03-27T13:34:47.999Z</time></trkpt><trkpt lat="49.13520032038736" lon="2.5071168315584527"><ele>79.0</ele><time>2026-03-27T13:34:49.999Z</time></trkpt><trkpt lat="49.13530795465179" lon="2.5071400538685964"><ele>78.0</ele><time>2026-03-27T13:34:51.999Z</time></trkpt><trkpt lat="49.1354149057551" lon="2.5071489981180815"><ele>77.0</ele><time>2026-03-27T13:34:53.999Z</time></trkpt><trkpt lat="49.13552499113105" lon="2.5071919986448554"><ele>76.0</ele><time>2026-03-27T13:34:55.999Z</time></trkpt><trkpt lat="49.135638136715855" lon="2.5072174639552913"><ele>75.0</ele><time>2026-03-27T13:34:57.999Z</time></trkpt><trkpt lat="49.135750232267455" lon="2.507223776420039"><ele>75.0</ele><time>2026-03-27T13:34:59.999Z</time></trkpt><trkpt lat="49.135870466978545" lon="2.507269107198174"><ele>75.0</ele><time>2026-03-27T13:35:01.999Z</time></trkpt><trkpt lat="49.13598342167462" lon="2.507293753814025"><ele>75.0</ele><time>2026-03-27T13:35:03.999Z</time></trkpt><trkpt lat="49.1360345361674" lon="2.507154563260825"><ele>75.0</ele><time>2026-03-27T13:35:04.999Z</time></trkpt><trkpt lat="49.13612088071853" lon="2.5071317369864925"><ele>75.0</ele><time>2026-03-27T13:35:06.998Z</time></trkpt><trkpt lat="49.13619886590985" lon="2.5070945115263745"><ele>75.83333333333333</ele><time>2026-03-27T13:35:08.998Z</time></trkpt><trkpt lat="49.13626830997182" lon="2.5070231232169253"><ele>76.66666666666667</ele><time>2026-03-27T13:35:10.998Z</time></trkpt><trkpt lat="49.13633896868996" lon="2.506950486214589"><ele>77.5</ele><time>2026-03-27T13:35:12.998Z</time></trkpt><trkpt lat="49.13641286831166" lon="2.5068745175566596"><ele>78.33333333333334</ele><time>2026-03-27T13:35:14.998Z</time></trkpt><trkpt lat="49.13647306235521" lon="2.5068126854635833"><ele>79.16666666666667</ele><time>2026-03-27T13:35:16.998Z</time></trkpt><trkpt lat="49.13653669200964" lon="2.50674788265547"><ele>80.0</ele><time>2026-03-27T13:35:18.998Z</time></trkpt><trkpt lat="49.136600000390345" lon="2.506683405813697"><ele>80.0</ele><time>2026-03-27T13:35:20.998Z</time></trkpt><trkpt lat="49.13667072581837" lon="2.506603368779416"><ele>80.0</ele><time>2026-03-27T13:35:23.998Z</time></trkpt><trkpt lat="49.13675001184695" lon="2.506516821293778"><ele>80.0</ele><time>2026-03-27T13:35:25.998Z</time></trkpt><trkpt lat="49.13728114133871" lon="2.506953585513373"><ele>80.0</ele><time>2026-03-27T13:35:32.998Z</time></trkpt><trkpt lat="49.13738570752988" lon="2.506928740782451"><ele>80.0</ele><time>2026-03-27T13:35:34.998Z</time></trkpt><trkpt lat="49.137448467012256" lon="2.5069689332471365"><ele>80.0</ele><time>2026-03-27T13:35:35.998Z</time></trkpt><trkpt lat="49.137531362960814" lon="2.5070696775812698"><ele>80.0</ele><time>2026-03-27T13:35:37.998Z</time></trkpt><trkpt lat="49.137612234747436" lon="2.5071730808442925"><ele>80.0</ele><time>2026-03-27T13:35:39.998Z</time></trkpt><trkpt lat="49.13770143759002" lon="2.5072533573986213"><ele>80.0</ele><time>2026-03-27T13:35:41.997Z</time></trkpt><trkpt lat="49.13779144231638" lon="2.5072926769585018"><ele>80.0</ele><time>2026-03-27T13:35:43.997Z</time></trkpt><trkpt lat="49.1378678366591" lon="2.5073851482692686"><ele>80.0</ele><time>2026-03-27T13:35:45.997Z</time></trkpt><trkpt lat="49.13795000233368" lon="2.5074163880204656"><ele>80.0</ele><time>2026-03-27T13:35:48.997Z</time></trkpt><trkpt lat="49.138035751655735" lon="2.5074365955982056"><ele>80.0</ele><time>2026-03-27T13:35:50.997Z</time></trkpt><trkpt lat="49.13811570006785" lon="2.5074628640517846"><ele>80.0</ele><time>2026-03-27T13:35:53.001Z</time></trkpt><trkpt lat="49.138201228739476" lon="2.5074617358264755"><ele>79.0</ele><time>2026-03-27T13:35:55.001Z</time></trkpt><trkpt lat="49.1382875247477" lon="2.507430909431967"><ele>78.0</ele><time>2026-03-27T13:35:58.001Z</time></trkpt><trkpt lat="49.138344996566026" lon="2.507518648905442"><ele>77.0</ele><time>2026-03-27T13:36:00.001Z</time></trkpt><trkpt lat="49.13841658985812" lon="2.5075412475097933"><ele>76.0</ele><time>2026-03-27T13:36:03Z</time></trkpt><trkpt lat="49.138474269704425" lon="2.5074990023940673"><ele>75.0</ele><time>2026-03-27T13:36:05Z</time></trkpt><trkpt lat="49.13854964406743" lon="2.5074288311041824"><ele>74.0</ele><time>2026-03-27T13:36:08Z</time></trkpt><trkpt lat="49.13860970496267" lon="2.5073425606176647"><ele>74.0</ele><time>2026-03-27T13:36:10Z</time></trkpt><trkpt lat="49.13866238610926" lon="2.507264735308234"><ele>74.0</ele><time>2026-03-27T13:36:12Z</time></trkpt><trkpt lat="49.13872333964266" lon="2.5071886981462"><ele>74.0</ele><time>2026-03-27T13:36:14Z</time></trkpt><trkpt lat="49.13879767931405" lon="2.507164331978125"><ele>74.0</ele><time>2026-03-27T13:36:16Z</time></trkpt><trkpt lat="49.13885046434974" lon="2.5071109594971284"><ele>74.0</ele><time>2026-03-27T13:36:18Z</time></trkpt><trkpt lat="49.13891209042351" lon="2.5070137174141682"><ele>74.0</ele><time>2026-03-27T13:36:20Z</time></trkpt><trkpt lat="49.138948687654086" lon="2.506899663057152"><ele>73.8</ele><time>2026-03-27T13:36:22Z</time></trkpt><trkpt lat="49.139012723710955" lon="2.506793423133542"><ele>73.60000000000001</ele><time>2026-03-27T13:36:24Z</time></trkpt><trkpt lat="49.13906058839799" lon="2.5066657522701465"><ele>73.4</ele><time>2026-03-27T13:36:26Z</time></trkpt><trkpt lat="49.1390904330441" lon="2.5065390725692285"><ele>73.2</ele><time>2026-03-27T13:36:28Z</time></trkpt><trkpt lat="49.1391575847941" lon="2.5064468435690483"><ele>73.0</ele><time>2026-03-27T13:36:30Z</time></trkpt><trkpt lat="49.13919874027172" lon="2.506321004958789"><ele>73.33333333333333</ele><time>2026-03-27T13:36:31.999Z</time></trkpt><trkpt lat="49.13923127136142" lon="2.5062212963511548"><ele>73.66666666666666</ele><time>2026-03-27T13:36:33.999Z</time></trkpt><trkpt lat="49.13930685892157" lon="2.5061733397499575"><ele>74.0</ele><time>2026-03-27T13:36:35.999Z</time></trkpt><trkpt lat="49.139374546331624" lon="2.5061327591063005"><ele>74.33333333333333</ele><time>2026-03-27T13:36:37.999Z</time></trkpt><trkpt lat="49.13944021555406" lon="2.5060832908159942"><ele>74.66666666666667</ele><time>2026-03-27T13:36:39.999Z</time></trkpt><trkpt lat="49.139526481583005" lon="2.5061148412358607"><ele>75.0</ele><time>2026-03-27T13:36:41.999Z</time></trkpt><trkpt lat="49.139608254621095" lon="2.5061667129372274"><ele>75.0</ele><time>2026-03-27T13:36:43.999Z</time></trkpt><trkpt lat="49.13967989162805" lon="2.506227400389004"><ele>75.0</ele><time>2026-03-27T13:36:45.999Z</time></trkpt><trkpt lat="49.13974755977232" lon="2.5062996777100945"><ele>75.0</ele><time>2026-03-27T13:36:47.999Z</time></trkpt><trkpt lat="49.139836830663384" lon="2.5062814556518838"><ele>75.0</ele><time>2026-03-27T13:36:49.999Z</time></trkpt><trkpt lat="49.13990755778327" lon="2.506338125941207"><ele>75.0</ele><time>2026-03-27T13:36:51.999Z</time></trkpt><trkpt lat="49.13997396588453" lon="2.5063869505089365"><ele>75.0</ele><time>2026-03-27T13:36:53.999Z</time></trkpt><trkpt lat="49.140027119634674" lon="2.506443080572855"><ele>74.5</ele><time>2026-03-27T13:36:55.999Z</time></trkpt><trkpt lat="49.140095276116064" lon="2.5065229907330626"><ele>74.0</ele><time>2026-03-27T13:36:58.999Z</time></trkpt><trkpt lat="49.140161058349435" lon="2.506616145116907"><ele>73.5</ele><time>2026-03-27T13:37:00.999Z</time></trkpt><trkpt lat="49.14023182720081" lon="2.5066900160773673"><ele>73.0</ele><time>2026-03-27T13:37:03.998Z</time></trkpt><trkpt lat="49.14029959224468" lon="2.5067809425552814"><ele>72.5</ele><time>2026-03-27T13:37:05.998Z</time></trkpt><trkpt lat="49.140334610492076" lon="2.50688628574968"><ele>72.0</ele><time>2026-03-27T13:37:07.998Z</time></trkpt><trkpt lat="49.14039432289813" lon="2.506958810970288"><ele>72.00000000000001</ele><time>2026-03-27T13:37:09.998Z</time></trkpt><trkpt lat="49.1404676283339" lon="2.5069808718607676"><ele>72.0</ele><time>2026-03-27T13:37:11.998Z</time></trkpt><trkpt lat="49.1405415744254" lon="2.507020085326168"><ele>72.0</ele><time>2026-03-27T13:37:13.998Z</time></trkpt><trkpt lat="49.140597060322726" lon="2.5070863751657275"><ele>72.0</ele><time>2026-03-27T13:37:15.998Z</time></trkpt><trkpt lat="49.140662336952715" lon="2.507137240789764"><ele>72.0</ele><time>2026-03-27T13:37:17.998Z</time></trkpt><trkpt lat="49.140727630658134" lon="2.507121663964424"><ele>72.00000000000001</ele><time>2026-03-27T13:37:19.998Z</time></trkpt><trkpt lat="49.14079104091022" lon="2.507113911990208"><ele>72.0</ele><time>2026-03-27T13:37:21.998Z</time></trkpt><trkpt lat="49.1408745520904" lon="2.50710403924262"><ele>71.5</ele><time>2026-03-27T13:37:24.998Z</time></trkpt><trkpt lat="49.14093834312531" lon="2.5071150567822884"><ele>71.0</ele><time>2026-03-27T13:37:27.998Z</time></trkpt><trkpt lat="49.14102160122189" lon="2.5071240214014505"><ele>70.5</ele><time>2026-03-27T13:37:30.998Z</time></trkpt><trkpt lat="49.14112027343761" lon="2.507120593355431"><ele>70.0</ele><time>2026-03-27T13:37:33.998Z</time></trkpt><trkpt lat="49.141196019757544" lon="2.507100257239825"><ele>69.5</ele><time>2026-03-27T13:37:36.997Z</time></trkpt><trkpt lat="49.14129248457511" lon="2.507101581914077"><ele>69.0</ele><time>2026-03-27T13:37:39.997Z</time></trkpt><trkpt lat="49.14139355992601" lon="2.507105039721855"><ele>69.83333333333333</ele><time>2026-03-27T13:37:42.997Z</time></trkpt><trkpt lat="49.14144411334181" lon="2.5069991300338876"><ele>70.66666666666667</ele><time>2026-03-27T13:37:45.997Z</time></trkpt><trkpt lat="49.14147934818719" lon="2.50687467758497"><ele>71.5</ele><time>2026-03-27T13:37:48.997Z</time></trkpt><trkpt lat="49.14148844460861" lon="2.5067768265351105"><ele>72.33333333333334</ele><time>2026-03-27T13:37:50.997Z</time></trkpt><trkpt lat="49.14149278968772" lon="2.5066739364195323"><ele>73.16666666666667</ele><time>2026-03-27T13:37:53.997Z</time></trkpt><trkpt lat="49.14151435251308" lon="2.5065412047563975"><ele>74.0</ele><time>2026-03-27T13:37:56.997Z</time></trkpt><trkpt lat="49.14154155809179" lon="2.506408020694191"><ele>74.16666666666667</ele><time>2026-03-27T13:38:00Z</time></trkpt><trkpt lat="49.14156092883509" lon="2.5062826219480585"><ele>74.33333333333334</ele><time>2026-03-27T13:38:03Z</time></trkpt><trkpt lat="49.14157332784243" lon="2.50615421809745"><ele>74.5</ele><time>2026-03-27T13:38:06Z</time></trkpt><trkpt lat="49.14159264421616" lon="2.506035325265813"><ele>74.66666666666667</ele><time>2026-03-27T13:38:09Z</time></trkpt><trkpt lat="49.141615120447206" lon="2.5059342667114874"><ele>74.83333333333333</ele><time>2026-03-27T13:38:11Z</time></trkpt><trkpt lat="49.141635086703154" lon="2.505796507877847"><ele>75.0</ele><time>2026-03-27T13:38:14Z</time></trkpt><trkpt lat="49.14164469772066" lon="2.5056997325919776"><ele>75.0</ele><time>2026-03-27T13:38:16Z</time></trkpt><trkpt lat="49.14166570628827" lon="2.5055705872728273"><ele>75.0</ele><time>2026-03-27T13:38:19Z</time></trkpt><trkpt lat="49.14169222479795" lon="2.5054491774244543"><ele>75.0</ele><time>2026-03-27T13:38:22Z</time></trkpt><trkpt lat="49.14170604755904" lon="2.505325168156398"><ele>75.0</ele><time>2026-03-27T13:38:25Z</time></trkpt><trkpt lat="49.14172936297388" lon="2.505198317026056"><ele>75.0</ele><time>2026-03-27T13:38:28Z</time></trkpt><trkpt lat="49.14174390067842" lon="2.5050719421821235"><ele>75.0</ele><time>2026-03-27T13:38:31Z</time></trkpt><trkpt lat="49.14176074046255" lon="2.5049553578075163"><ele>75.16666666666667</ele><time>2026-03-27T13:38:33.999Z</time></trkpt><trkpt lat="49.14178459074024" lon="2.504838691306405"><ele>75.33333333333333</ele><time>2026-03-27T13:38:36.999Z</time></trkpt><trkpt lat="49.14179904938492" lon="2.5047371536858054"><ele>75.5</ele><time>2026-03-27T13:38:38.999Z</time></trkpt><trkpt lat="49.141817188936265" lon="2.5046060984363527"><ele>75.66666666666666</ele><time>2026-03-27T13:38:41.999Z</time></trkpt><trkpt lat="49.141908878458885" lon="2.5046025844664466"><ele>75.83333333333333</ele><time>2026-03-27T13:38:44.999Z</time></trkpt><trkpt lat="49.14199891611266" lon="2.5045903093096915"><ele>76.0</ele><time>2026-03-27T13:38:47.999Z</time></trkpt><trkpt lat="49.14209079480343" lon="2.504571069373987"><ele>76.0</ele><time>2026-03-27T13:38:50.999Z</time></trkpt><trkpt lat="49.14215589833305" lon="2.5045671754920233"><ele>76.0</ele><time>2026-03-27T13:38:52.999Z</time></trkpt><trkpt lat="49.142239331401534" lon="2.504567622644864"><ele>76.0</ele><time>2026-03-27T13:38:55.999Z</time></trkpt><trkpt lat="49.14230582170145" lon="2.504560493831323"><ele>76.0</ele><time>2026-03-27T13:38:57.999Z</time></trkpt><trkpt lat="49.14239058143719" lon="2.504548298183429"><ele>76.0</ele><time>2026-03-27T13:39:00.999Z</time></trkpt><trkpt lat="49.14246469622313" lon="2.5045462438421344"><ele>76.0</ele><time>2026-03-27T13:39:02.999Z</time></trkpt><trkpt lat="49.14254031117646" lon="2.5045412341919646"><ele>76.28571428571428</ele><time>2026-03-27T13:39:04.999Z</time></trkpt><trkpt lat="49.14261541622183" lon="2.5045288978945734"><ele>76.57142857142858</ele><time>2026-03-27T13:39:06.998Z</time></trkpt><trkpt lat="49.14268951843442" lon="2.50452833109518"><ele>76.85714285714286</ele><time>2026-03-27T13:39:08.998Z</time></trkpt><trkpt lat="49.142755677044676" lon="2.504526506948223"><ele>77.14285714285714</ele><time>2026-03-27T13:39:10.998Z</time></trkpt><trkpt lat="49.14282959680981" lon="2.5045203962315323"><ele>77.42857142857142</ele><time>2026-03-27T13:39:12.998Z</time></trkpt><trkpt lat="49.1429068982273" lon="2.504524965602882"><ele>77.71428571428572</ele><time>2026-03-27T13:39:14.998Z</time></trkpt><trkpt lat="49.142982588058956" lon="2.5045245392657614"><ele>78.0</ele><time>2026-03-27T13:39:16.998Z</time></trkpt><trkpt lat="49.14305989116104" lon="2.5045221049054485"><ele>78.0</ele><time>2026-03-27T13:39:18.998Z</time></trkpt><trkpt lat="49.143129524705934" lon="2.5045279262775475"><ele>78.0</ele><time>2026-03-27T13:39:20.998Z</time></trkpt><trkpt lat="49.143215757220794" lon="2.5045324471784753"><ele>78.0</ele><time>2026-03-27T13:39:22.998Z</time></trkpt><trkpt lat="49.1432899377494" lon="2.504529848774168"><ele>78.0</ele><time>2026-03-27T13:39:24.998Z</time></trkpt><trkpt lat="49.14336253688133" lon="2.504508136282785"><ele>78.0</ele><time>2026-03-27T13:39:26.998Z</time></trkpt><trkpt lat="49.14343491500987" lon="2.5044909315046886"><ele>78.0</ele><time>2026-03-27T13:39:28.998Z</time></trkpt><trkpt lat="49.14351231423555" lon="2.5045236356125793"><ele>78.16666666666667</ele><time>2026-03-27T13:39:30.998Z</time></trkpt><trkpt lat="49.14359690169078" lon="2.5045087949886593"><ele>78.33333333333333</ele><time>2026-03-27T13:39:32.998Z</time></trkpt><trkpt lat="49.14367523587426" lon="2.5044989387209053"><ele>78.5</ele><time>2026-03-27T13:39:34.998Z</time></trkpt><trkpt lat="49.14375060371547" lon="2.5044984457673216"><ele>78.66666666666666</ele><time>2026-03-27T13:39:36.998Z</time></trkpt><trkpt lat="49.14383377622725" lon="2.5044893220517865"><ele>78.83333333333333</ele><time>2026-03-27T13:39:38.997Z</time></trkpt><trkpt lat="49.14390708799475" lon="2.5044877043846725"><ele>79.0</ele><time>2026-03-27T13:39:40.997Z</time></trkpt><trkpt lat="49.143986190315026" lon="2.5044828036030053"><ele>78.57142857142858</ele><time>2026-03-27T13:39:42.997Z</time></trkpt><trkpt lat="49.1440650048732" lon="2.5044570068242797"><ele>78.14285714285714</ele><time>2026-03-27T13:39:44.997Z</time></trkpt><trkpt lat="49.14412591493792" lon="2.5045025294158956"><ele>77.71428571428572</ele><time>2026-03-27T13:39:47.997Z</time></trkpt><trkpt lat="49.14420232072964" lon="2.5044913797271455"><ele>77.28571428571429</ele><time>2026-03-27T13:39:49.997Z</time></trkpt><trkpt lat="49.14427477008865" lon="2.5044837420469572"><ele>76.85714285714286</ele><time>2026-03-27T13:39:51.997Z</time></trkpt><trkpt lat="49.14434634740186" lon="2.5044855495243956"><ele>76.42857142857143</ele><time>2026-03-27T13:39:53.997Z</time></trkpt><trkpt lat="49.14441446205704" lon="2.5044840040329643"><ele>76.0</ele><time>2026-03-27T13:39:55.997Z</time></trkpt><trkpt lat="49.144499344038884" lon="2.5044827591079755"><ele>76.0</ele><time>2026-03-27T13:39:57.997Z</time></trkpt><trkpt lat="49.14457085562666" lon="2.504486645308581"><ele>76.0</ele><time>2026-03-27T13:39:59.997Z</time></trkpt><trkpt lat="49.14464714667789" lon="2.5044836224178417"><ele>76.0</ele><time>2026-03-27T13:40:01.997Z</time></trkpt><trkpt lat="49.144737300520056" lon="2.504475238522995"><ele>76.0</ele><time>2026-03-27T13:40:04Z</time></trkpt><trkpt lat="49.14481847774529" lon="2.5044733965631796"><ele>76.0</ele><time>2026-03-27T13:40:06Z</time></trkpt><trkpt lat="49.14491123241062" lon="2.5044673848576022"><ele>76.0</ele><time>2026-03-27T13:40:08Z</time></trkpt><trkpt lat="49.144994690467705" lon="2.504456936390758"><ele>75.5</ele><time>2026-03-27T13:40:10Z</time></trkpt><trkpt lat="49.1450766125486" lon="2.5044564684035997"><ele>75.0</ele><time>2026-03-27T13:40:12Z</time></trkpt><trkpt lat="49.145153383209426" lon="2.504467408461396"><ele>74.5</ele><time>2026-03-27T13:40:14Z</time></trkpt><trkpt lat="49.14524030341577" lon="2.504468918681051"><ele>74.0</ele><time>2026-03-27T13:40:16Z</time></trkpt><trkpt lat="49.145310760840935" lon="2.5044566243392232"><ele>73.5</ele><time>2026-03-27T13:40:18Z</time></trkpt><trkpt lat="49.14539340098513" lon="2.5044523055027703"><ele>73.0</ele><time>2026-03-27T13:40:20Z</time></trkpt><trkpt lat="49.14547870884543" lon="2.504442228302484"><ele>73.0</ele><time>2026-03-27T13:40:22Z</time></trkpt><trkpt lat="49.14550985006458" lon="2.504334436477372"><ele>73.0</ele><time>2026-03-27T13:40:24Z</time></trkpt><trkpt lat="49.14552038453992" lon="2.5042181463955937"><ele>73.0</ele><time>2026-03-27T13:40:26Z</time></trkpt><trkpt lat="49.14554049156244" lon="2.5041108567859958"><ele>73.0</ele><time>2026-03-27T13:40:28Z</time></trkpt><trkpt lat="49.14555553757455" lon="2.5039994808891732"><ele>73.0</ele><time>2026-03-27T13:40:30Z</time></trkpt><trkpt lat="49.14557623707282" lon="2.5038891119069446"><ele>73.0</ele><time>2026-03-27T13:40:32Z</time></trkpt><trkpt lat="49.145596878024094" lon="2.503777102006581"><ele>73.16666666666666</ele><time>2026-03-27T13:40:34Z</time></trkpt><trkpt lat="49.14561278453998" lon="2.5036716219750845"><ele>73.33333333333333</ele><time>2026-03-27T13:40:36Z</time></trkpt><trkpt lat="49.145632915950095" lon="2.5035639460957895"><ele>73.5</ele><time>2026-03-27T13:40:37.999Z</time></trkpt><trkpt lat="49.14564846256247" lon="2.503446097494529"><ele>73.66666666666667</ele><time>2026-03-27T13:40:39.999Z</time></trkpt><trkpt lat="49.14566552927755" lon="2.503333547322365"><ele>73.83333333333334</ele><time>2026-03-27T13:40:41.999Z</time></trkpt><trkpt lat="49.14568188199462" lon="2.503199806855846"><ele>74.0</ele><time>2026-03-27T13:40:43.999Z</time></trkpt><trkpt lat="49.14570158713181" lon="2.503091624029896"><ele>73.0</ele><time>2026-03-27T13:40:45.999Z</time></trkpt><trkpt lat="49.14572042963958" lon="2.5029514024980335"><ele>72.0</ele><time>2026-03-27T13:40:47.999Z</time></trkpt><trkpt lat="49.145736576478214" lon="2.5028238613473515"><ele>71.0</ele><time>2026-03-27T13:40:49.999Z</time></trkpt><trkpt lat="49.14575518583761" lon="2.50269197869327"><ele>70.0</ele><time>2026-03-27T13:40:51.999Z</time></trkpt><trkpt lat="49.145770549994786" lon="2.5025714987191314"><ele>69.0</ele><time>2026-03-27T13:40:53.999Z</time></trkpt><trkpt lat="49.14579540337293" lon="2.5024321951578234"><ele>68.0</ele><time>2026-03-27T13:40:55.999Z</time></trkpt><trkpt lat="49.14581018551933" lon="2.502285886070896"><ele>68.0</ele><time>2026-03-27T13:40:57.999Z</time></trkpt><trkpt lat="49.145843084275185" lon="2.5021694136024264"><ele>68.0</ele><time>2026-03-27T13:40:59.999Z</time></trkpt><trkpt lat="49.145916443157134" lon="2.502143081293374"><ele>68.0</ele><time>2026-03-27T13:41:02.999Z</time></trkpt><trkpt lat="49.14597902134954" lon="2.5022089977338395"><ele>68.0</ele><time>2026-03-27T13:41:04.999Z</time></trkpt><trkpt lat="49.146052677931046" lon="2.502265911021458"><ele>68.0</ele><time>2026-03-27T13:41:06.999Z</time></trkpt><trkpt lat="49.146126115477365" lon="2.5023127107723675"><ele>68.0</ele><time>2026-03-27T13:41:08.999Z</time></trkpt><trkpt lat="49.14621345518479" lon="2.5023909191333207"><ele>68.0</ele><time>2026-03-27T13:41:10.998Z</time></trkpt><trkpt lat="49.14630473869191" lon="2.5024676074998236"><ele>68.0</ele><time>2026-03-27T13:41:12.998Z</time></trkpt><trkpt lat="49.14640429930194" lon="2.5025500466222534"><ele>68.0</ele><time>2026-03-27T13:41:14.998Z</time></trkpt><trkpt lat="49.146504679909" lon="2.502629816565348"><ele>68.0</ele><time>2026-03-27T13:41:16.998Z</time></trkpt><trkpt lat="49.14660413831089" lon="2.502715578183147"><ele>68.0</ele><time>2026-03-27T13:41:18.998Z</time></trkpt><trkpt lat="49.14670998593772" lon="2.5028097145978583"><ele>67.0</ele><time>2026-03-27T13:41:20.998Z</time></trkpt><trkpt lat="49.146813073739146" lon="2.502898314252784"><ele>66.0</ele><time>2026-03-27T13:41:22.998Z</time></trkpt><trkpt lat="49.14691424590202" lon="2.5029774788185484"><ele>65.0</ele><time>2026-03-27T13:41:24.998Z</time></trkpt><trkpt lat="49.147007394356834" lon="2.5030664560133626"><ele>64.0</ele><time>2026-03-27T13:41:26.998Z</time></trkpt><trkpt lat="49.14709882464366" lon="2.5031538585861104"><ele>63.6</ele><time>2026-03-27T13:41:28.998Z</time></trkpt><trkpt lat="49.147187765346565" lon="2.503245261749"><ele>63.2</ele><time>2026-03-27T13:41:30.998Z</time></trkpt><trkpt lat="49.147284897327346" lon="2.5033249167859775"><ele>62.800000000000004</ele><time>2026-03-27T13:41:32.998Z</time></trkpt><trkpt lat="49.14737860151227" lon="2.503411352386263"><ele>62.400000000000006</ele><time>2026-03-27T13:41:34.998Z</time></trkpt><trkpt lat="49.14747277979213" lon="2.503486482339087"><ele>62.0</ele><time>2026-03-27T13:41:36.998Z</time></trkpt><trkpt lat="49.147582373692345" lon="2.503574825046041"><ele>62.2</ele><time>2026-03-27T13:41:38.998Z</time></trkpt><trkpt lat="49.14767096574511" lon="2.5036500354594105"><ele>62.400000000000006</ele><time>2026-03-27T13:41:40.998Z</time></trkpt><trkpt lat="49.14776331801267" lon="2.5037322994663986"><ele>62.599999999999994</ele><time>2026-03-27T13:41:42.997Z</time></trkpt><trkpt lat="49.14785123476533" lon="2.5038084797905964"><ele>62.8</ele><time>2026-03-27T13:41:44.997Z</time></trkpt><trkpt lat="49.14794528749012" lon="2.503894589078931"><ele>63.0</ele><time>2026-03-27T13:41:46.997Z</time></trkpt><trkpt lat="49.14803285683906" lon="2.5039749830086873"><ele>63.0</ele><time>2026-03-27T13:41:48.997Z</time></trkpt><trkpt lat="49.14812657125098" lon="2.504053374599449"><ele>63.0</ele><time>2026-03-27T13:41:50.997Z</time></trkpt><trkpt lat="49.14822045575425" lon="2.504133194148685"><ele>63.0</ele><time>2026-03-27T13:41:52.997Z</time></trkpt><trkpt lat="49.148308151759444" lon="2.5042093695134904"><ele>63.0</ele><time>2026-03-27T13:41:54.997Z</time></trkpt><trkpt lat="49.14839339488117" lon="2.5043060846469256"><ele>63.0</ele><time>2026-03-27T13:41:56.997Z</time></trkpt><trkpt lat="49.148471356364944" lon="2.504375451301196"><ele>64.25</ele><time>2026-03-27T13:41:58.997Z</time></trkpt><trkpt lat="49.148539021958534" lon="2.5044356130725776"><ele>65.5</ele><time>2026-03-27T13:42:00.997Z</time></trkpt><trkpt lat="49.148688373385035" lon="2.5041897760802714"><ele>66.75</ele><time>2026-03-27T13:42:04.997Z</time></trkpt><trkpt lat="49.14876612449422" lon="2.5041626973108593"><ele>68.0</ele><time>2026-03-27T13:42:06.997Z</time></trkpt><trkpt lat="49.148832978534934" lon="2.5041212584929715"><ele>67.99999999999999</ele><time>2026-03-27T13:42:09Z</time></trkpt><trkpt lat="49.148896231297186" lon="2.504082020460397"><ele>68.0</ele><time>2026-03-27T13:42:11Z</time></trkpt><trkpt lat="49.148980425714036" lon="2.5040312085852405"><ele>68.0</ele><time>2026-03-27T13:42:14Z</time></trkpt><trkpt lat="49.14903782160081" lon="2.5039853566334687"><ele>68.0</ele><time>2026-03-27T13:42:16Z</time></trkpt><trkpt lat="49.14910088975994" lon="2.5039449408442773"><ele>68.0</ele><time>2026-03-27T13:42:20Z</time></trkpt><trkpt lat="49.14916911320448" lon="2.5039189885401"><ele>67.99999999999999</ele><time>2026-03-27T13:47:24.998Z</time></trkpt><trkpt lat="49.14923765688442" lon="2.5038657316288027"><ele>68.0</ele><time>2026-03-27T13:47:28.998Z</time></trkpt><trkpt lat="49.14930701036277" lon="2.503830543073122"><ele>68.16666666666667</ele><time>2026-03-27T13:47:31.998Z</time></trkpt><trkpt lat="49.14939119527697" lon="2.5037754724208217"><ele>68.33333333333334</ele><time>2026-03-27T13:47:34.998Z</time></trkpt><trkpt lat="49.14947749065946" lon="2.5037235838780703"><ele>68.5</ele><time>2026-03-27T13:47:37.998Z</time></trkpt><trkpt lat="49.149537322806545" lon="2.5036908689457302"><ele>68.66666666666667</ele><time>2026-03-27T13:47:39.998Z</time></trkpt><trkpt lat="49.14962308805492" lon="2.503643467974382"><ele>68.83333333333333</ele><time>2026-03-27T13:47:42.998Z</time></trkpt><trkpt lat="49.149706384477206" lon="2.503586859482947"><ele>69.0</ele><time>2026-03-27T13:47:45.998Z</time></trkpt><trkpt lat="49.14977832336481" lon="2.503556105856901"><ele>69.16666666666667</ele><time>2026-03-27T13:47:48.998Z</time></trkpt><trkpt lat="49.149840738199714" lon="2.503512023178938"><ele>69.33333333333333</ele><time>2026-03-27T13:47:51.998Z</time></trkpt><trkpt lat="49.14992030950652" lon="2.503460304688262"><ele>69.5</ele><time>2026-03-27T13:47:54.998Z</time></trkpt><trkpt lat="49.150009517351116" lon="2.5034119174087395"><ele>69.66666666666666</ele><time>2026-03-27T13:47:57.997Z</time></trkpt><trkpt lat="49.150092736947784" lon="2.5033599794827075"><ele>69.83333333333333</ele><time>2026-03-27T13:48:00.997Z</time></trkpt><trkpt lat="49.15016040143955" lon="2.5033116021937767"><ele>70.0</ele><time>2026-03-27T13:48:02.997Z</time></trkpt><trkpt lat="49.15022686737551" lon="2.5032749428182375"><ele>70.0</ele><time>2026-03-27T13:48:04.997Z</time></trkpt><trkpt lat="49.15028687845264" lon="2.5032330350843623"><ele>70.0</ele><time>2026-03-27T13:48:06.997Z</time></trkpt><trkpt lat="49.150360425564486" lon="2.503197003660425"><ele>70.0</ele><time>2026-03-27T13:48:08.997Z</time></trkpt><trkpt lat="49.150425690093925" lon="2.5031656250126115"><ele>70.0</ele><time>2026-03-27T13:48:10.997Z</time></trkpt><trkpt lat="49.15051030468916" lon="2.50310476724571"><ele>70.0</ele><time>2026-03-27T13:48:13.997Z</time></trkpt><trkpt lat="49.150581010641936" lon="2.5030659538458657"><ele>70.0</ele><time>2026-03-27T13:48:15.997Z</time></trkpt><trkpt lat="49.15065087986483" lon="2.50303429833568"><ele>70.0</ele><time>2026-03-27T13:48:17.997Z</time></trkpt><trkpt lat="49.15072618601313" lon="2.5029862383366375"><ele>70.0</ele><time>2026-03-27T13:48:19.997Z</time></trkpt><trkpt lat="49.150798169998794" lon="2.502950143012318"><ele>70.0</ele><time>2026-03-27T13:48:21.997Z</time></trkpt><trkpt lat="49.15087054217268" lon="2.502897467026023"><ele>70.0</ele><time>2026-03-27T13:48:23.997Z</time></trkpt><trkpt lat="49.15093032816773" lon="2.5028552808470588"><ele>70.0</ele><time>2026-03-27T13:48:26Z</time></trkpt><trkpt lat="49.15099705116975" lon="2.502812629103136"><ele>70.0</ele><time>2026-03-27T13:48:28Z</time></trkpt><trkpt lat="49.15107858417954" lon="2.5027636404572533"><ele>69.83333333333333</ele><time>2026-03-27T13:48:30Z</time></trkpt><trkpt lat="49.151150623571674" lon="2.5027109072568186"><ele>69.66666666666666</ele><time>2026-03-27T13:48:32Z</time></trkpt><trkpt lat="49.15124246772119" lon="2.502672024712395"><ele>69.5</ele><time>2026-03-27T13:48:34Z</time></trkpt><trkpt lat="49.15131889788015" lon="2.502621943994144"><ele>69.33333333333333</ele><time>2026-03-27T13:48:36Z</time></trkpt><trkpt lat="49.151403255132436" lon="2.50257128332793"><ele>69.16666666666667</ele><time>2026-03-27T13:48:38Z</time></trkpt><trkpt lat="49.15148820248161" lon="2.5025186969976176"><ele>69.0</ele><time>2026-03-27T13:48:40Z</time></trkpt><trkpt lat="49.15157343332347" lon="2.50245339141967"><ele>68.4</ele><time>2026-03-27T13:48:42Z</time></trkpt><trkpt lat="49.151666448015725" lon="2.502402097199289"><ele>67.80000000000001</ele><time>2026-03-27T13:48:44Z</time></trkpt><trkpt lat="49.15176149804493" lon="2.5023536595526554"><ele>67.19999999999999</ele><time>2026-03-27T13:48:46Z</time></trkpt><trkpt lat="49.151848067260886" lon="2.5022908414617797"><ele>66.6</ele><time>2026-03-27T13:48:48Z</time></trkpt><trkpt lat="49.15194694055052" lon="2.50223730491225"><ele>66.0</ele><time>2026-03-27T13:48:50Z</time></trkpt><trkpt lat="49.15203786561626" lon="2.5021746993165888"><ele>66.0</ele><time>2026-03-27T13:48:52Z</time></trkpt><trkpt lat="49.15213035944957" lon="2.502132733427072"><ele>66.0</ele><time>2026-03-27T13:48:54Z</time></trkpt><trkpt lat="49.15220687927678" lon="2.502096227072087"><ele>66.0</ele><time>2026-03-27T13:48:55.999Z</time></trkpt><trkpt lat="49.15230184734893" lon="2.502025272348468"><ele>66.0</ele><time>2026-03-27T13:48:57.999Z</time></trkpt><trkpt lat="49.15239328312082" lon="2.501967417721113"><ele>66.0</ele><time>2026-03-27T13:48:59.999Z</time></trkpt><trkpt lat="49.15248427725693" lon="2.50191753036145"><ele>66.2</ele><time>2026-03-27T13:49:01.999Z</time></trkpt><trkpt lat="49.1525760680964" lon="2.5018657456477964"><ele>66.39999999999999</ele><time>2026-03-27T13:49:03.999Z</time></trkpt><trkpt lat="49.15266034644352" lon="2.501826141048642"><ele>66.6</ele><time>2026-03-27T13:49:05.999Z</time></trkpt><trkpt lat="49.152738348643744" lon="2.501765652767873"><ele>66.8</ele><time>2026-03-27T13:49:07.999Z</time></trkpt><trkpt lat="49.15282556398355" lon="2.5017188948586324"><ele>67.0</ele><time>2026-03-27T13:49:09.999Z</time></trkpt><trkpt lat="49.15291088714119" lon="2.501658962806845"><ele>67.0</ele><time>2026-03-27T13:49:11.999Z</time></trkpt><trkpt lat="49.15299598348373" lon="2.501618986074731"><ele>67.0</ele><time>2026-03-27T13:49:13.999Z</time></trkpt><trkpt lat="49.15307465387809" lon="2.5015630022812747"><ele>67.0</ele><time>2026-03-27T13:49:15.999Z</time></trkpt><trkpt lat="49.153155840341306" lon="2.50151497169839"><ele>67.0</ele><time>2026-03-27T13:49:17.999Z</time></trkpt><trkpt lat="49.153236988763396" lon="2.5014760618350578"><ele>67.0</ele><time>2026-03-27T13:49:19.999Z</time></trkpt><trkpt lat="49.15331859609271" lon="2.501425107069228"><ele>67.0</ele><time>2026-03-27T13:49:21.999Z</time></trkpt><trkpt lat="49.15339480887241" lon="2.5013728974072795"><ele>67.0</ele><time>2026-03-27T13:49:23.999Z</time></trkpt><trkpt lat="49.153472104986605" lon="2.5013335776304744"><ele>67.0</ele><time>2026-03-27T13:49:25.999Z</time></trkpt><trkpt lat="49.153556052269074" lon="2.501290652194417"><ele>67.0</ele><time>2026-03-27T13:49:27.998Z</time></trkpt><trkpt lat="49.15363662637938" lon="2.501236386135116"><ele>67.0</ele><time>2026-03-27T13:49:29.998Z</time></trkpt><trkpt lat="49.15370783841364" lon="2.501209173987801"><ele>67.0</ele><time>2026-03-27T13:49:31.998Z</time></trkpt><trkpt lat="49.153790974997904" lon="2.501151734090639"><ele>67.0</ele><time>2026-03-27T13:49:33.998Z</time></trkpt><trkpt lat="49.15386675287725" lon="2.5011129187408185"><ele>67.0</ele><time>2026-03-27T13:49:35.998Z</time></trkpt><trkpt lat="49.1539289206429" lon="2.501058536352555"><ele>67.0</ele><time>2026-03-27T13:49:37.998Z</time></trkpt><trkpt lat="49.153994679588955" lon="2.501008040269084"><ele>67.0</ele><time>2026-03-27T13:49:39.998Z</time></trkpt><trkpt lat="49.15407358407745" lon="2.500966982656741"><ele>67.0</ele><time>2026-03-27T13:49:41.998Z</time></trkpt><trkpt lat="49.1541440568687" lon="2.5009280230733593"><ele>67.0</ele><time>2026-03-27T13:49:43.998Z</time></trkpt><trkpt lat="49.15421548682418" lon="2.5008884640072164"><ele>67.0</ele><time>2026-03-27T13:49:45.998Z</time></trkpt><trkpt lat="49.15428472064184" lon="2.500836855167304"><ele>67.0</ele><time>2026-03-27T13:49:47.998Z</time></trkpt><trkpt lat="49.15434594339309" lon="2.5007868538994167"><ele>67.0</ele><time>2026-03-27T13:49:49.998Z</time></trkpt><trkpt lat="49.154415570207576" lon="2.500747418840215"><ele>67.0</ele><time>2026-03-27T13:49:51.998Z</time></trkpt><trkpt lat="49.154490929077625" lon="2.5007062927453516"><ele>67.0</ele><time>2026-03-27T13:49:53.998Z</time></trkpt><trkpt lat="49.15456556226797" lon="2.5006742529970443"><ele>67.0</ele><time>2026-03-27T13:49:55.998Z</time></trkpt><trkpt lat="49.15463086036137" lon="2.500630050568097"><ele>67.0</ele><time>2026-03-27T13:49:57.998Z</time></trkpt><trkpt lat="49.15470959165671" lon="2.5005842305196544"><ele>67.0</ele><time>2026-03-27T13:49:59.997Z</time></trkpt><trkpt lat="49.15477787772092" lon="2.5005474851610994"><ele>67.0</ele><time>2026-03-27T13:50:01.997Z</time></trkpt><trkpt lat="49.15485843728199" lon="2.500506006000166"><ele>67.0</ele><time>2026-03-27T13:50:03.997Z</time></trkpt><trkpt lat="49.154928620492" lon="2.5004674650594216"><ele>67.0</ele><time>2026-03-27T13:50:05.997Z</time></trkpt><trkpt lat="49.155006897678376" lon="2.500409025361463"><ele>67.0</ele><time>2026-03-27T13:50:07.997Z</time></trkpt><trkpt lat="49.15508666987995" lon="2.5003557039515303"><ele>67.0</ele><time>2026-03-27T13:50:09.997Z</time></trkpt><trkpt lat="49.1551652412392" lon="2.5003168420536164"><ele>66.6</ele><time>2026-03-27T13:50:11.997Z</time></trkpt><trkpt lat="49.15525193039924" lon="2.50026549727995"><ele>66.2</ele><time>2026-03-27T13:50:13.997Z</time></trkpt><trkpt lat="49.15533105085654" lon="2.5002034739871957"><ele>65.8</ele><time>2026-03-27T13:50:15.997Z</time></trkpt><trkpt lat="49.155419961119506" lon="2.5001504405527974"><ele>65.4</ele><time>2026-03-27T13:50:17.997Z</time></trkpt><trkpt lat="49.155510973064736" lon="2.500094294584011"><ele>65.0</ele><time>2026-03-27T13:50:19.997Z</time></trkpt><trkpt lat="49.15560515874504" lon="2.5000314315935075"><ele>65.0</ele><time>2026-03-27T13:50:21.997Z</time></trkpt><trkpt lat="49.15569582368764" lon="2.4999840627727115"><ele>65.0</ele><time>2026-03-27T13:50:23.997Z</time></trkpt><trkpt lat="49.155798959735904" lon="2.4999156536871188"><ele>65.0</ele><time>2026-03-27T13:50:25.997Z</time></trkpt><trkpt lat="49.15589768597634" lon="2.4998564972677104"><ele>65.0</ele><time>2026-03-27T13:50:27.997Z</time></trkpt><trkpt lat="49.156003674992675" lon="2.499804191960753"><ele>65.0</ele><time>2026-03-27T13:50:29.997Z</time></trkpt><trkpt lat="49.156099655239686" lon="2.499745469454345"><ele>65.2</ele><time>2026-03-27T13:50:32Z</time></trkpt><trkpt lat="49.15619757865301" lon="2.499715735257857"><ele>65.4</ele><time>2026-03-27T13:50:34Z</time></trkpt><trkpt lat="49.15629637662191" lon="2.4997502023331157"><ele>65.6</ele><time>2026-03-27T13:50:36Z</time></trkpt><trkpt lat="49.1563989887845" lon="2.499853962873025"><ele>65.8</ele><time>2026-03-27T13:50:38Z</time></trkpt><trkpt lat="49.15645886610642" lon="2.4999125159248887"><ele>66.0</ele><time>2026-03-27T13:50:39Z</time></trkpt><trkpt lat="49.156533341269466" lon="2.4999678842789272"><ele>65.0</ele><time>2026-03-27T13:50:40Z</time></trkpt><trkpt lat="49.15661253977834" lon="2.5000437266184243"><ele>63.99999999999999</ele><time>2026-03-27T13:50:41Z</time></trkpt><trkpt lat="49.156696402446144" lon="2.5001189159427235"><ele>62.99999999999999</ele><time>2026-03-27T13:50:42Z</time></trkpt><trkpt lat="49.15678846494418" lon="2.5001999140692543"><ele>62.0</ele><time>2026-03-27T13:50:43Z</time></trkpt><trkpt lat="49.15688263494722" lon="2.5002884048493317"><ele>61.0</ele><time>2026-03-27T13:50:44Z</time></trkpt><trkpt lat="49.156985075963775" lon="2.5003772051851554"><ele>60.75</ele><time>2026-03-27T13:50:45Z</time></trkpt><trkpt lat="49.15708720885389" lon="2.5004661680667644"><ele>60.5</ele><time>2026-03-27T13:50:46Z</time></trkpt><trkpt lat="49.15719309041138" lon="2.5005559546105043"><ele>60.25</ele><time>2026-03-27T13:50:47Z</time></trkpt><trkpt lat="49.15728573024472" lon="2.5006681679262237"><ele>60.0</ele><time>2026-03-27T13:50:48Z</time></trkpt><trkpt lat="49.15739069258358" lon="2.5007408903418753"><ele>57.8</ele><time>2026-03-27T13:50:49Z</time></trkpt><trkpt lat="49.15748540824592" lon="2.500829896153543"><ele>55.6</ele><time>2026-03-27T13:50:50Z</time></trkpt><trkpt lat="49.157575409390496" lon="2.500916564794777"><ele>53.400000000000006</ele><time>2026-03-27T13:50:51Z</time></trkpt><trkpt lat="49.15766418121811" lon="2.5009981128310823"><ele>51.2</ele><time>2026-03-27T13:50:52Z</time></trkpt><trkpt lat="49.157748287481525" lon="2.501068053617786"><ele>49.0</ele><time>2026-03-27T13:50:53Z</time></trkpt><trkpt lat="49.15782705250407" lon="2.501141482900152"><ele>48.99999999999999</ele><time>2026-03-27T13:50:54Z</time></trkpt><trkpt lat="49.15790127887988" lon="2.5012114712118834"><ele>49.0</ele><time>2026-03-27T13:50:55Z</time></trkpt><trkpt lat="49.15797385452345" lon="2.5012744366285213"><ele>49.0</ele><time>2026-03-27T13:50:56Z</time></trkpt><trkpt lat="49.15803608568342" lon="2.5013543435056986"><ele>49.0</ele><time>2026-03-27T13:50:57Z</time></trkpt><trkpt lat="49.158101781790116" lon="2.501414555829823"><ele>48.99999999999999</ele><time>2026-03-27T13:50:58Z</time></trkpt><trkpt lat="49.158162975998316" lon="2.501467172407729"><ele>49.0</ele><time>2026-03-27T13:50:58.999Z</time></trkpt><trkpt lat="49.158219280923056" lon="2.501512310628768"><ele>49.49999999999999</ele><time>2026-03-27T13:50:59.999Z</time></trkpt><trkpt lat="49.15829656250047" lon="2.501573740635868"><ele>50.0</ele><time>2026-03-27T13:51:01.999Z</time></trkpt><trkpt lat="49.15833805904136" lon="2.5014323246140964"><ele>50.5</ele><time>2026-03-27T13:51:05.999Z</time></trkpt><trkpt lat="49.15834675262363" lon="2.501331207701504"><ele>51.0</ele><time>2026-03-27T13:51:07.999Z</time></trkpt><trkpt lat="49.15833538075422" lon="2.5012217939588752"><ele>51.49999999999999</ele><time>2026-03-27T13:51:09.999Z</time></trkpt><trkpt lat="49.158334225166556" lon="2.5011127763003986"><ele>52.0</ele><time>2026-03-27T13:51:11.999Z</time></trkpt><trkpt lat="49.15833255579881" lon="2.5009954034370163"><ele>51.99999999999999</ele><time>2026-03-27T13:51:13.999Z</time></trkpt><trkpt lat="49.15833671792945" lon="2.500875641266303"><ele>52.0</ele><time>2026-03-27T13:51:15.999Z</time></trkpt><trkpt lat="49.158337237141616" lon="2.5007612874740066"><ele>52.0</ele><time>2026-03-27T13:51:17.999Z</time></trkpt><trkpt lat="49.15833379007904" lon="2.500658942611837"><ele>52.0</ele><time>2026-03-27T13:51:19.999Z</time></trkpt><trkpt lat="49.15833318059924" lon="2.500538665576343"><ele>51.99999999999999</ele><time>2026-03-27T13:51:21.999Z</time></trkpt><trkpt lat="49.15833008632927" lon="2.5004206064589005"><ele>52.0</ele><time>2026-03-27T13:51:23.999Z</time></trkpt><trkpt lat="49.15833165869748" lon="2.500300566592045"><ele>52.49999999999999</ele><time>2026-03-27T13:51:25.999Z</time></trkpt><trkpt lat="49.158322810925824" lon="2.500182992517927"><ele>53.0</ele><time>2026-03-27T13:51:27.999Z</time></trkpt><trkpt lat="49.15833432520869" lon="2.5000673193913556"><ele>53.5</ele><time>2026-03-27T13:51:29.999Z</time></trkpt><trkpt lat="49.15833769849275" lon="2.499956252001213"><ele>54.0</ele><time>2026-03-27T13:51:31.998Z</time></trkpt><trkpt lat="49.15833684284923" lon="2.4998451676732554"><ele>54.49999999999999</ele><time>2026-03-27T13:51:33.998Z</time></trkpt><trkpt lat="49.15833576736117" lon="2.4997209080517115"><ele>55.0</ele><time>2026-03-27T13:51:35.998Z</time></trkpt><trkpt lat="49.15833275126699" lon="2.4996023136545524"><ele>54.8</ele><time>2026-03-27T13:51:37.998Z</time></trkpt><trkpt lat="49.158331290109686" lon="2.49946925076187"><ele>54.6</ele><time>2026-03-27T13:51:39.998Z</time></trkpt><trkpt lat="49.15833561010166" lon="2.4993281966397842"><ele>54.400000000000006</ele><time>2026-03-27T13:51:41.998Z</time></trkpt><trkpt lat="49.15833775783287" lon="2.4991871815255795"><ele>54.2</ele><time>2026-03-27T13:51:43.998Z</time></trkpt><trkpt lat="49.1583348596001" lon="2.4990365663387806"><ele>54.0</ele><time>2026-03-27T13:51:45.998Z</time></trkpt><trkpt lat="49.15833439136623" lon="2.498889243726461"><ele>54.0</ele><time>2026-03-27T13:51:47.998Z</time></trkpt><trkpt lat="49.1583354365861" lon="2.4987456561061854"><ele>54.0</ele><time>2026-03-27T13:51:49.998Z</time></trkpt><trkpt lat="49.15833930557467" lon="2.4986146368999957"><ele>54.0</ele><time>2026-03-27T13:51:51.998Z</time></trkpt><trkpt lat="49.158343442862254" lon="2.4984751489715284"><ele>54.0</ele><time>2026-03-27T13:51:53.998Z</time></trkpt><trkpt lat="49.158349266965274" lon="2.4983462086201853"><ele>54.0</ele><time>2026-03-27T13:51:55.998Z</time></trkpt><trkpt lat="49.15835501071094" lon="2.4982156249852507"><ele>54.0</ele><time>2026-03-27T13:51:57.998Z</time></trkpt><trkpt lat="49.15836360109854" lon="2.498089995866389"><ele>54.0</ele><time>2026-03-27T13:51:59.998Z</time></trkpt><trkpt lat="49.158377698585674" lon="2.4979654940479303"><ele>54.0</ele><time>2026-03-27T13:52:01.998Z</time></trkpt><trkpt lat="49.15838453774185" lon="2.497836716587949"><ele>54.0</ele><time>2026-03-27T13:52:03.998Z</time></trkpt><trkpt lat="49.15839292236122" lon="2.4977169951230374"><ele>54.0</ele><time>2026-03-27T13:52:05.997Z</time></trkpt><trkpt lat="49.15840241635779" lon="2.4975962559439466"><ele>54.0</ele><time>2026-03-27T13:52:07.997Z</time></trkpt><trkpt lat="49.158414654247096" lon="2.497473519786192"><ele>54.0</ele><time>2026-03-27T13:52:09.997Z</time></trkpt><trkpt lat="49.158426079808024" lon="2.4973545766950784"><ele>54.333333333333336</ele><time>2026-03-27T13:52:11.997Z</time></trkpt><trkpt lat="49.158437916405056" lon="2.497235430229491"><ele>54.66666666666667</ele><time>2026-03-27T13:52:13.997Z</time></trkpt><trkpt lat="49.158443773411236" lon="2.4971094483737044"><ele>55.0</ele><time>2026-03-27T13:52:15.997Z</time></trkpt><trkpt lat="49.15845356889459" lon="2.4969884183778874"><ele>55.333333333333336</ele><time>2026-03-27T13:52:17.997Z</time></trkpt><trkpt lat="49.15846691977041" lon="2.496867237218279"><ele>55.66666666666667</ele><time>2026-03-27T13:52:19.997Z</time></trkpt><trkpt lat="49.158473183005455" lon="2.4967408183253434"><ele>56.0</ele><time>2026-03-27T13:52:21.997Z</time></trkpt><trkpt lat="49.15848119756814" lon="2.496617745905857"><ele>56.4</ele><time>2026-03-27T13:52:23.997Z</time></trkpt><trkpt lat="49.158493322051164" lon="2.4964861787784756"><ele>56.8</ele><time>2026-03-27T13:52:25.997Z</time></trkpt><trkpt lat="49.15850463423374" lon="2.4963473701573022"><ele>57.199999999999996</ele><time>2026-03-27T13:52:27.997Z</time></trkpt><trkpt lat="49.15851840424701" lon="2.4961955029626606"><ele>57.599999999999994</ele><time>2026-03-27T13:52:29.997Z</time></trkpt><trkpt lat="49.158527416838126" lon="2.496030777604618"><ele>58.0</ele><time>2026-03-27T13:52:31.997Z</time></trkpt><trkpt lat="49.1585432699518" lon="2.4958578673133607"><ele>58.0</ele><time>2026-03-27T13:52:33.997Z</time></trkpt><trkpt lat="49.15855371897208" lon="2.4956881622421845"><ele>58.0</ele><time>2026-03-27T13:52:35.997Z</time></trkpt><trkpt lat="49.158557819851225" lon="2.495506848472058"><ele>58.0</ele><time>2026-03-27T13:52:38Z</time></trkpt><trkpt lat="49.1585625958126" lon="2.495335033477485"><ele>58.0</ele><time>2026-03-27T13:52:40Z</time></trkpt><trkpt lat="49.15855908188752" lon="2.4951673748810994"><ele>57.25</ele><time>2026-03-27T13:52:42Z</time></trkpt><trkpt lat="49.15854812596716" lon="2.495001298682824"><ele>56.5</ele><time>2026-03-27T13:52:44Z</time></trkpt><trkpt lat="49.158534268035126" lon="2.494828708389523"><ele>55.75</ele><time>2026-03-27T13:52:46Z</time></trkpt><trkpt lat="49.158515399572394" lon="2.494656308124902"><ele>55.0</ele><time>2026-03-27T13:52:48Z</time></trkpt><trkpt lat="49.15849802271294" lon="2.494478325070205"><ele>55.0</ele><time>2026-03-27T13:52:50Z</time></trkpt><trkpt lat="49.15848096230596" lon="2.4942993964047475"><ele>55.0</ele><time>2026-03-27T13:52:52Z</time></trkpt><trkpt lat="49.15846006155915" lon="2.4941126976464805"><ele>55.0</ele><time>2026-03-27T13:52:54Z</time></trkpt><trkpt lat="49.15844108208808" lon="2.49393002538276"><ele>55.0</ele><time>2026-03-27T13:52:56Z</time></trkpt><trkpt lat="49.15842133813695" lon="2.4937422338146913"><ele>55.25</ele><time>2026-03-27T13:52:58Z</time></trkpt><trkpt lat="49.158404503629505" lon="2.4935582315057068"><ele>55.5</ele><time>2026-03-27T13:53:00Z</time></trkpt><trkpt lat="49.15838624911066" lon="2.493377254045186"><ele>55.75</ele><time>2026-03-27T13:53:01.999Z</time></trkpt><trkpt lat="49.158365198966486" lon="2.493200817286092"><ele>56.0</ele><time>2026-03-27T13:53:03.999Z</time></trkpt><trkpt lat="49.15835099319187" lon="2.493030200837644"><ele>56.0</ele><time>2026-03-27T13:53:05.999Z</time></trkpt><trkpt lat="49.158328103262114" lon="2.492858035791077"><ele>55.99999999999999</ele><time>2026-03-27T13:53:07.999Z</time></trkpt><trkpt lat="49.15831294457193" lon="2.492687429382106"><ele>55.99999999999999</ele><time>2026-03-27T13:53:09.999Z</time></trkpt><trkpt lat="49.15830083394914" lon="2.492523347656514"><ele>56.0</ele><time>2026-03-27T13:53:11.999Z</time></trkpt><trkpt lat="49.15828716164239" lon="2.4923718302048723"><ele>56.0</ele><time>2026-03-27T13:53:13.999Z</time></trkpt><trkpt lat="49.158266244704315" lon="2.4922239768723875"><ele>56.199999999999996</ele><time>2026-03-27T13:53:15.999Z</time></trkpt><trkpt lat="49.15825541243151" lon="2.492086069705599"><ele>56.39999999999999</ele><time>2026-03-27T13:53:17.999Z</time></trkpt><trkpt lat="49.158241964487814" lon="2.49194751100189"><ele>56.6</ele><time>2026-03-27T13:53:19.999Z</time></trkpt><trkpt lat="49.15823084255591" lon="2.4918080539615555"><ele>56.8</ele><time>2026-03-27T13:53:21.999Z</time></trkpt><trkpt lat="49.15821680261029" lon="2.4916741131046924"><ele>57.0</ele><time>2026-03-27T13:53:23.999Z</time></trkpt><trkpt lat="49.15820176717642" lon="2.4915428465538967"><ele>55.6</ele><time>2026-03-27T13:53:25.999Z</time></trkpt><trkpt lat="49.15818747666855" lon="2.4914084006195676"><ele>54.2</ele><time>2026-03-27T13:53:27.999Z</time></trkpt><trkpt lat="49.158176302654944" lon="2.491262964786724"><ele>52.8</ele><time>2026-03-27T13:53:29.999Z</time></trkpt><trkpt lat="49.1581628245726" lon="2.4911148007921735"><ele>51.4</ele><time>2026-03-27T13:53:31.999Z</time></trkpt><trkpt lat="49.15814980875157" lon="2.490957932979251"><ele>50.0</ele><time>2026-03-27T13:53:33.999Z</time></trkpt><trkpt lat="49.15814180475572" lon="2.4907929441223"><ele>50.0</ele><time>2026-03-27T13:53:35.999Z</time></trkpt><trkpt lat="49.15812181244703" lon="2.490632581537639"><ele>50.0</ele><time>2026-03-27T13:53:37.998Z</time></trkpt><trkpt lat="49.15810951466259" lon="2.4904692433137967"><ele>50.0</ele><time>2026-03-27T13:53:39.998Z</time></trkpt><trkpt lat="49.15809199249557" lon="2.4903100288489237"><ele>50.0</ele><time>2026-03-27T13:53:41.998Z</time></trkpt><trkpt lat="49.15807342942679" lon="2.4901553460232293"><ele>50.0</ele><time>2026-03-27T13:53:43.998Z</time></trkpt><trkpt lat="49.158075858752746" lon="2.4899986870134003"><ele>50.0</ele><time>2026-03-27T13:53:45.998Z</time></trkpt><trkpt lat="49.1580979620963" lon="2.4898507104875676"><ele>50.0</ele><time>2026-03-27T13:53:47.998Z</time></trkpt><trkpt lat="49.15814697492642" lon="2.489704253298763"><ele>50.0</ele><time>2026-03-27T13:53:49.998Z</time></trkpt><trkpt lat="49.158228433312246" lon="2.489578319901756"><ele>50.0</ele><time>2026-03-27T13:53:51.998Z</time></trkpt><trkpt lat="49.15830921299644" lon="2.4894567303637416"><ele>50.0</ele><time>2026-03-27T13:53:53.998Z</time></trkpt><trkpt lat="49.158388881644726" lon="2.489331434616377"><ele>52.0</ele><time>2026-03-27T13:53:55.998Z</time></trkpt><trkpt lat="49.158470098630005" lon="2.4892057551799103"><ele>54.0</ele><time>2026-03-27T13:53:57.998Z</time></trkpt><trkpt lat="49.1585561740178" lon="2.489088352093479"><ele>56.0</ele><time>2026-03-27T13:53:59.998Z</time></trkpt><trkpt lat="49.15863659834841" lon="2.488965487393065"><ele>58.0</ele><time>2026-03-27T13:54:01.998Z</time></trkpt><trkpt lat="49.15871310036431" lon="2.4888412127821216"><ele>57.25</ele><time>2026-03-27T13:54:03.998Z</time></trkpt><trkpt lat="49.158793100165816" lon="2.4887169300124774"><ele>56.5</ele><time>2026-03-27T13:54:05.998Z</time></trkpt><trkpt lat="49.158871953860505" lon="2.4885954590893413"><ele>55.75</ele><time>2026-03-27T13:54:07.998Z</time></trkpt><trkpt lat="49.158955241418425" lon="2.488478995776335"><ele>55.0</ele><time>2026-03-27T13:54:09.997Z</time></trkpt><trkpt lat="49.15903569772604" lon="2.488354659814016"><ele>56.0</ele><time>2026-03-27T13:54:11.997Z</time></trkpt><trkpt lat="49.159114415047355" lon="2.488226708960694"><ele>57.0</ele><time>2026-03-27T13:54:13.997Z</time></trkpt><trkpt lat="49.159193635062174" lon="2.488099330150444"><ele>58.0</ele><time>2026-03-27T13:54:15.997Z</time></trkpt><trkpt lat="49.15928131609239" lon="2.4879803592030583"><ele>59.0</ele><time>2026-03-27T13:54:17.997Z</time></trkpt><trkpt lat="49.15936712463852" lon="2.487866161814645"><ele>59.0</ele><time>2026-03-27T13:54:19.997Z</time></trkpt><trkpt lat="49.15944042248372" lon="2.487735461787612"><ele>59.00000000000001</ele><time>2026-03-27T13:54:21.997Z</time></trkpt><trkpt lat="49.159505694807905" lon="2.4875979054570547"><ele>59.00000000000001</ele><time>2026-03-27T13:54:23.997Z</time></trkpt><trkpt lat="49.159574375997074" lon="2.487469724474021"><ele>59.0</ele><time>2026-03-27T13:54:25.997Z</time></trkpt><trkpt lat="49.15964048272102" lon="2.487338316442863"><ele>59.0</ele><time>2026-03-27T13:54:27.997Z</time></trkpt><trkpt lat="49.159707553270444" lon="2.4872175267297494"><ele>59.00000000000001</ele><time>2026-03-27T13:54:29.997Z</time></trkpt><trkpt lat="49.159761430029135" lon="2.4871034138997303"><ele>59.0</ele><time>2026-03-27T13:54:31.997Z</time></trkpt><trkpt lat="49.15980058639582" lon="2.4869984690717244"><ele>59.0</ele><time>2026-03-27T13:54:33.997Z</time></trkpt><trkpt lat="49.159855203941994" lon="2.486938145055771"><ele>59.0</ele><time>2026-03-27T13:54:36.997Z</time></trkpt><trkpt lat="49.15991417289632" lon="2.4868543103590897"><ele>59.00000000000001</ele><time>2026-03-27T13:54:39.997Z</time></trkpt><trkpt lat="49.15995740273626" lon="2.486770203460174"><ele>59.0</ele><time>2026-03-27T13:54:41.997Z</time></trkpt><trkpt lat="49.16001028842226" lon="2.4866961232316696"><ele>60.00000000000001</ele><time>2026-03-27T13:54:44Z</time></trkpt><trkpt lat="49.16006130809006" lon="2.48661652651424"><ele>61.0</ele><time>2026-03-27T13:54:46Z</time></trkpt><trkpt lat="49.160111913522265" lon="2.4865260904498374"><ele>62.0</ele><time>2026-03-27T13:54:48Z</time></trkpt><trkpt lat="49.160169675503056" lon="2.4864247967413284"><ele>63.0</ele><time>2026-03-27T13:54:50Z</time></trkpt><trkpt lat="49.16022219935815" lon="2.4863342405869027"><ele>64.0</ele><time>2026-03-27T13:54:52Z</time></trkpt><trkpt lat="49.1602742815865" lon="2.4862391009607516"><ele>65.0</ele><time>2026-03-27T13:54:54Z</time></trkpt><trkpt lat="49.160330797951396" lon="2.486148436468301"><ele>65.33333333333334</ele><time>2026-03-27T13:54:56Z</time></trkpt><trkpt lat="49.160385449532754" lon="2.486065826750023"><ele>65.66666666666667</ele><time>2026-03-27T13:54:58Z</time></trkpt><trkpt lat="49.16043541901645" lon="2.485982249588739"><ele>66.0</ele><time>2026-03-27T13:55:00Z</time></trkpt><trkpt lat="49.160482085436136" lon="2.485899863068138"><ele>66.33333333333333</ele><time>2026-03-27T13:55:02Z</time></trkpt><trkpt lat="49.16053579376837" lon="2.485821323701821"><ele>66.66666666666666</ele><time>2026-03-27T13:55:04Z</time></trkpt><trkpt lat="49.16058164714437" lon="2.4857281872721355"><ele>67.0</ele><time>2026-03-27T13:55:06Z</time></trkpt><trkpt lat="49.16063843504475" lon="2.4856445747290294"><ele>67.0</ele><time>2026-03-27T13:55:07.999Z</time></trkpt><trkpt lat="49.160685692062636" lon="2.48555589993244"><ele>67.0</ele><time>2026-03-27T13:55:09.999Z</time></trkpt><trkpt lat="49.16073376297385" lon="2.4854701592904673"><ele>67.0</ele><time>2026-03-27T13:55:11.999Z</time></trkpt><trkpt lat="49.16077813010633" lon="2.4853916275055417"><ele>67.0</ele><time>2026-03-27T13:55:13.999Z</time></trkpt><trkpt lat="49.160825425162336" lon="2.485298744122868"><ele>67.0</ele><time>2026-03-27T13:55:15.999Z</time></trkpt><trkpt lat="49.16086959433836" lon="2.4852043685109892"><ele>67.0</ele><time>2026-03-27T13:55:17.999Z</time></trkpt><trkpt lat="49.160924446392215" lon="2.485127450908664"><ele>67.0</ele><time>2026-03-27T13:55:19.999Z</time></trkpt><trkpt lat="49.16097782102765" lon="2.485043493670609"><ele>67.33333333333333</ele><time>2026-03-27T13:55:21.999Z</time></trkpt><trkpt lat="49.16102615679602" lon="2.4849426036616244"><ele>67.66666666666666</ele><time>2026-03-27T13:55:23.999Z</time></trkpt><trkpt lat="49.16108416995077" lon="2.484859185067427"><ele>68.0</ele><time>2026-03-27T13:55:25.999Z</time></trkpt><trkpt lat="49.16113496784584" lon="2.48476011683661"><ele>68.33333333333333</ele><time>2026-03-27T13:55:27.999Z</time></trkpt><trkpt lat="49.161185821344446" lon="2.4846601094152203"><ele>68.66666666666667</ele><time>2026-03-27T13:55:29.999Z</time></trkpt><trkpt lat="49.16124426192441" lon="2.48457678964009"><ele>69.0</ele><time>2026-03-27T13:55:31.999Z</time></trkpt><trkpt lat="49.161296356447984" lon="2.4844920253041263"><ele>69.33333333333333</ele><time>2026-03-27T13:55:33.999Z</time></trkpt><trkpt lat="49.16134197704806" lon="2.4843959264554436"><ele>69.66666666666667</ele><time>2026-03-27T13:55:35.999Z</time></trkpt><trkpt lat="49.1613946263115" lon="2.484305836593303"><ele>70.0</ele><time>2026-03-27T13:55:37.999Z</time></trkpt><trkpt lat="49.161445237748126" lon="2.4842159536612485"><ele>70.33333333333334</ele><time>2026-03-27T13:55:39.999Z</time></trkpt><trkpt lat="49.16150531867486" lon="2.4841235889844016"><ele>70.66666666666667</ele><time>2026-03-27T13:55:41.998Z</time></trkpt><trkpt lat="49.161555101253974" lon="2.484024645551348"><ele>71.0</ele><time>2026-03-27T13:55:43.998Z</time></trkpt><trkpt lat="49.161613419988285" lon="2.4839317940076486"><ele>71.16666666666667</ele><time>2026-03-27T13:55:45.998Z</time></trkpt><trkpt lat="49.161674339642964" lon="2.4838427939692544"><ele>71.33333333333334</ele><time>2026-03-27T13:55:47.998Z</time></trkpt><trkpt lat="49.161724125193025" lon="2.483750246155016"><ele>71.5</ele><time>2026-03-27T13:55:49.998Z</time></trkpt><trkpt lat="49.16177409240967" lon="2.4836520316072885"><ele>71.66666666666667</ele><time>2026-03-27T13:55:51.998Z</time></trkpt><trkpt lat="49.16183456723677" lon="2.4835635511397034"><ele>71.83333333333333</ele><time>2026-03-27T13:55:53.998Z</time></trkpt><trkpt lat="49.16189002814655" lon="2.483463094478443"><ele>72.0</ele><time>2026-03-27T13:55:55.998Z</time></trkpt><trkpt lat="49.16194598906943" lon="2.483364299737503"><ele>72.0</ele><time>2026-03-27T13:55:57.998Z</time></trkpt><trkpt lat="49.162004377555334" lon="2.483267086619169"><ele>72.0</ele><time>2026-03-27T13:55:59.998Z</time></trkpt><trkpt lat="49.16205603820808" lon="2.4831741198302506"><ele>72.0</ele><time>2026-03-27T13:56:01.998Z</time></trkpt><trkpt lat="49.16210129582442" lon="2.4830709725612468"><ele>72.0</ele><time>2026-03-27T13:56:03.998Z</time></trkpt><trkpt lat="49.1621611120318" lon="2.4829761706088944"><ele>72.0</ele><time>2026-03-27T13:56:05.998Z</time></trkpt><trkpt lat="49.16222915228421" lon="2.4828946314773916"><ele>72.0</ele><time>2026-03-27T13:56:07.998Z</time></trkpt><trkpt lat="49.1622902374359" lon="2.4827908895590722"><ele>72.0</ele><time>2026-03-27T13:56:09.998Z</time></trkpt><trkpt lat="49.16235002878612" lon="2.4826934321607936"><ele>72.0</ele><time>2026-03-27T13:56:11.998Z</time></trkpt><trkpt lat="49.16241662243455" lon="2.4826020928846138"><ele>72.0</ele><time>2026-03-27T13:56:13.998Z</time></trkpt><trkpt lat="49.162475678216566" lon="2.4825019929030474"><ele>72.0</ele><time>2026-03-27T13:56:15.997Z</time></trkpt><trkpt lat="49.16253016300535" lon="2.482396105506549"><ele>72.0</ele><time>2026-03-27T13:56:17.997Z</time></trkpt><trkpt lat="49.16259134867221" lon="2.48229607649765"><ele>72.0</ele><time>2026-03-27T13:56:19.997Z</time></trkpt><trkpt lat="49.16264600980011" lon="2.4821927322193473"><ele>72.16666666666667</ele><time>2026-03-27T13:56:21.997Z</time></trkpt><trkpt lat="49.16269950448033" lon="2.482095380859801"><ele>72.33333333333333</ele><time>2026-03-27T13:56:23.997Z</time></trkpt><trkpt lat="49.16275282753411" lon="2.4820089296141785"><ele>72.5</ele><time>2026-03-27T13:56:25.997Z</time></trkpt><trkpt lat="49.16279773678953" lon="2.4819162718397587"><ele>72.66666666666666</ele><time>2026-03-27T13:56:27.997Z</time></trkpt><trkpt lat="49.16286086672515" lon="2.4818223042738894"><ele>72.83333333333333</ele><time>2026-03-27T13:56:29.997Z</time></trkpt><trkpt lat="49.16292285682032" lon="2.481727266171706"><ele>73.0</ele><time>2026-03-27T13:56:31.997Z</time></trkpt><trkpt lat="49.16297528711729" lon="2.4816280752486835"><ele>73.0</ele><time>2026-03-27T13:56:33.997Z</time></trkpt><trkpt lat="49.16303116785075" lon="2.4815324941024763"><ele>73.0</ele><time>2026-03-27T13:56:35.997Z</time></trkpt><trkpt lat="49.163082942263856" lon="2.481431902724113"><ele>73.0</ele><time>2026-03-27T13:56:37.997Z</time></trkpt><trkpt lat="49.163145772253934" lon="2.4813201818324777"><ele>73.0</ele><time>2026-03-27T13:56:39.997Z</time></trkpt><trkpt lat="49.16319296465069" lon="2.4812179938638708"><ele>73.0</ele><time>2026-03-27T13:56:41.997Z</time></trkpt><trkpt lat="49.16325821827588" lon="2.48112823074902"><ele>73.0</ele><time>2026-03-27T13:56:43.997Z</time></trkpt><trkpt lat="49.16330979748121" lon="2.481029210580812"><ele>72.83333333333333</ele><time>2026-03-27T13:56:45.997Z</time></trkpt><trkpt lat="49.16336609543316" lon="2.480927651598781"><ele>72.66666666666666</ele><time>2026-03-27T13:56:47.997Z</time></trkpt><trkpt lat="49.163423063632415" lon="2.4808288962529224"><ele>72.5</ele><time>2026-03-27T13:56:50Z</time></trkpt><trkpt lat="49.16347940494972" lon="2.4807265483208827"><ele>72.33333333333333</ele><time>2026-03-27T13:56:52Z</time></trkpt><trkpt lat="49.16353539939571" lon="2.4806240064281093"><ele>72.16666666666667</ele><time>2026-03-27T13:56:54Z</time></trkpt><trkpt lat="49.163595766718544" lon="2.480522627239101"><ele>72.0</ele><time>2026-03-27T13:56:56Z</time></trkpt><trkpt lat="49.1636616049438" lon="2.4804307155524405"><ele>72.0</ele><time>2026-03-27T13:56:58Z</time></trkpt><trkpt lat="49.16371772302881" lon="2.4803107027528486"><ele>72.0</ele><time>2026-03-27T13:57:00Z</time></trkpt><trkpt lat="49.1637726931443" lon="2.480206773382499"><ele>72.0</ele><time>2026-03-27T13:57:02Z</time></trkpt><trkpt lat="49.1638315067536" lon="2.480100270233339"><ele>72.0</ele><time>2026-03-27T13:57:04Z</time></trkpt><trkpt lat="49.16389327744867" lon="2.479998224113452"><ele>72.0</ele><time>2026-03-27T13:57:06Z</time></trkpt><trkpt lat="49.163959013943845" lon="2.4798993708509234"><ele>72.0</ele><time>2026-03-27T13:57:08Z</time></trkpt><trkpt lat="49.16402413129669" lon="2.479805118957386"><ele>72.0</ele><time>2026-03-27T13:57:10Z</time></trkpt><trkpt lat="49.1640852430107" lon="2.4797016609872586"><ele>72.0</ele><time>2026-03-27T13:57:12Z</time></trkpt><trkpt lat="49.16414106145455" lon="2.4795899895276325"><ele>72.0</ele><time>2026-03-27T13:57:14Z</time></trkpt><trkpt lat="49.16420482540196" lon="2.479487205076385"><ele>72.0</ele><time>2026-03-27T13:57:16Z</time></trkpt><trkpt lat="49.16427211733957" lon="2.47938499950879"><ele>71.4</ele><time>2026-03-27T13:57:17.999Z</time></trkpt><trkpt lat="49.1643298873438" lon="2.479271933978777"><ele>70.80000000000001</ele><time>2026-03-27T13:57:19.999Z</time></trkpt><trkpt lat="49.1643866776413" lon="2.479160521688494"><ele>70.2</ele><time>2026-03-27T13:57:21.999Z</time></trkpt><trkpt lat="49.164446196426404" lon="2.479056096494746"><ele>69.60000000000001</ele><time>2026-03-27T13:57:23.999Z</time></trkpt><trkpt lat="49.16450830990722" lon="2.4789520931637714"><ele>69.0</ele><time>2026-03-27T13:57:25.999Z</time></trkpt><trkpt lat="49.16456704088798" lon="2.478847660906025"><ele>69.0</ele><time>2026-03-27T13:57:27.999Z</time></trkpt><trkpt lat="49.16462994023111" lon="2.4787435975701446"><ele>69.0</ele><time>2026-03-27T13:57:29.999Z</time></trkpt><trkpt lat="49.164690999005735" lon="2.4786361741208682"><ele>69.0</ele><time>2026-03-27T13:57:31.999Z</time></trkpt><trkpt lat="49.16475139799792" lon="2.478533546249191"><ele>69.0</ele><time>2026-03-27T13:57:33.999Z</time></trkpt><trkpt lat="49.164813524309" lon="2.478430076787977"><ele>69.0</ele><time>2026-03-27T13:57:35.999Z</time></trkpt><trkpt lat="49.16487576291797" lon="2.478338252772648"><ele>69.60000000000001</ele><time>2026-03-27T13:57:37.999Z</time></trkpt><trkpt lat="49.1649340038696" lon="2.4782258996465005"><ele>70.2</ele><time>2026-03-27T13:57:39.999Z</time></trkpt><trkpt lat="49.164995546717016" lon="2.4781171335766725"><ele>70.80000000000001</ele><time>2026-03-27T13:57:41.999Z</time></trkpt><trkpt lat="49.16505697356803" lon="2.4780054261256503"><ele>71.4</ele><time>2026-03-27T13:57:43.999Z</time></trkpt><trkpt lat="49.16512051687583" lon="2.477894862741729"><ele>72.0</ele><time>2026-03-27T13:57:45.999Z</time></trkpt><trkpt lat="49.16518432054231" lon="2.4777866565163476"><ele>72.0</ele><time>2026-03-27T13:57:47.999Z</time></trkpt><trkpt lat="49.165247023838354" lon="2.4776725502900128"><ele>72.0</ele><time>2026-03-27T13:57:49.998Z</time></trkpt><trkpt lat="49.16531183482822" lon="2.4775599160782558"><ele>72.0</ele><time>2026-03-27T13:57:51.998Z</time></trkpt><trkpt lat="49.1653755421505" lon="2.4774510517010198"><ele>72.0</ele><time>2026-03-27T13:57:53.998Z</time></trkpt><trkpt lat="49.16544013270217" lon="2.4773386439747873"><ele>72.0</ele><time>2026-03-27T13:57:55.998Z</time></trkpt><trkpt lat="49.16550716880441" lon="2.4772270830998973"><ele>72.0</ele><time>2026-03-27T13:57:57.998Z</time></trkpt><trkpt lat="49.16557303309338" lon="2.477113535175454"><ele>72.0</ele><time>2026-03-27T13:57:59.998Z</time></trkpt><trkpt lat="49.16563634433952" lon="2.476991940071542"><ele>72.0</ele><time>2026-03-27T13:58:01.998Z</time></trkpt><trkpt lat="49.16570181003811" lon="2.4768730726283836"><ele>72.0</ele><time>2026-03-27T13:58:03.998Z</time></trkpt><trkpt lat="49.16576952807026" lon="2.476757743500583"><ele>72.0</ele><time>2026-03-27T13:58:05.998Z</time></trkpt><trkpt lat="49.16583878269623" lon="2.476646457800427"><ele>71.8</ele><time>2026-03-27T13:58:07.998Z</time></trkpt><trkpt lat="49.165901680885455" lon="2.476532914152735"><ele>71.6</ele><time>2026-03-27T13:58:09.998Z</time></trkpt><trkpt lat="49.165965285613595" lon="2.4764317264749467"><ele>71.39999999999999</ele><time>2026-03-27T13:58:11.998Z</time></trkpt><trkpt lat="49.16602122058873" lon="2.476324587856534"><ele>71.2</ele><time>2026-03-27T13:58:13.998Z</time></trkpt><trkpt lat="49.166077995472556" lon="2.4762190974100955"><ele>71.0</ele><time>2026-03-27T13:58:15.998Z</time></trkpt><trkpt lat="49.1661405669537" lon="2.476106701845509"><ele>71.0</ele><time>2026-03-27T13:58:17.998Z</time></trkpt><trkpt lat="49.16620489473121" lon="2.4759958427553626"><ele>71.0</ele><time>2026-03-27T13:58:19.998Z</time></trkpt><trkpt lat="49.16626721558832" lon="2.47588193643605"><ele>71.0</ele><time>2026-03-27T13:58:21.998Z</time></trkpt><trkpt lat="49.166333496037616" lon="2.4757750765347724"><ele>71.0</ele><time>2026-03-27T13:58:23.997Z</time></trkpt><trkpt lat="49.16640051421048" lon="2.4756618683606417"><ele>71.0</ele><time>2026-03-27T13:58:25.997Z</time></trkpt><trkpt lat="49.166464379195844" lon="2.4755507381626964"><ele>70.39999999999999</ele><time>2026-03-27T13:58:27.997Z</time></trkpt><trkpt lat="49.16653076436657" lon="2.4754362388616067"><ele>69.8</ele><time>2026-03-27T13:58:29.997Z</time></trkpt><trkpt lat="49.1665969408332" lon="2.4753213994061714"><ele>69.19999999999999</ele><time>2026-03-27T13:58:31.997Z</time></trkpt><trkpt lat="49.166669949267394" lon="2.4752010451856363"><ele>68.6</ele><time>2026-03-27T13:58:33.997Z</time></trkpt><trkpt lat="49.16673997376307" lon="2.4750804282773364"><ele>68.0</ele><time>2026-03-27T13:58:35.997Z</time></trkpt><trkpt lat="49.166808301733774" lon="2.474959653273043"><ele>68.0</ele><time>2026-03-27T13:58:37.997Z</time></trkpt><trkpt lat="49.16687223046859" lon="2.474831705296126"><ele>68.0</ele><time>2026-03-27T13:58:39.997Z</time></trkpt><trkpt lat="49.1669452378386" lon="2.4747159436772774"><ele>68.0</ele><time>2026-03-27T13:58:41.997Z</time></trkpt><trkpt lat="49.16701650537849" lon="2.474594546577131"><ele>68.0</ele><time>2026-03-27T13:58:43.997Z</time></trkpt><trkpt lat="49.1670850298015" lon="2.4744758600659744"><ele>68.0</ele><time>2026-03-27T13:58:45.997Z</time></trkpt><trkpt lat="49.167154126697085" lon="2.474354315467891"><ele>68.4</ele><time>2026-03-27T13:58:47.997Z</time></trkpt><trkpt lat="49.16722409147721" lon="2.4742325879438645"><ele>68.8</ele><time>2026-03-27T13:58:49.997Z</time></trkpt><trkpt lat="49.16729295958281" lon="2.4741141848321564"><ele>69.2</ele><time>2026-03-27T13:58:51.997Z</time></trkpt><trkpt lat="49.16735667876291" lon="2.4739969950566905"><ele>69.6</ele><time>2026-03-27T13:58:53.997Z</time></trkpt><trkpt lat="49.16742867154958" lon="2.4738808450136034"><ele>70.0</ele><time>2026-03-27T13:58:56Z</time></trkpt><trkpt lat="49.167486967058885" lon="2.4737710281988"><ele>71.0</ele><time>2026-03-27T13:58:58Z</time></trkpt><trkpt lat="49.16755373939284" lon="2.473651257252444"><ele>72.0</ele><time>2026-03-27T13:59:00Z</time></trkpt><trkpt lat="49.16762307411317" lon="2.4735393680157984"><ele>73.0</ele><time>2026-03-27T13:59:02Z</time></trkpt><trkpt lat="49.16769587108694" lon="2.4734143722284063"><ele>74.0</ele><time>2026-03-27T13:59:04Z</time></trkpt><trkpt lat="49.167758933078865" lon="2.4732968045691557"><ele>75.0</ele><time>2026-03-27T13:59:06Z</time></trkpt><trkpt lat="49.16782675276121" lon="2.4732094963119002"><ele>75.0</ele><time>2026-03-27T13:59:08Z</time></trkpt><trkpt lat="49.16788730546269" lon="2.4730965039337844"><ele>75.0</ele><time>2026-03-27T13:59:10Z</time></trkpt><trkpt lat="49.167947696535805" lon="2.4729791468152906"><ele>75.0</ele><time>2026-03-27T13:59:12Z</time></trkpt><trkpt lat="49.168018961200644" lon="2.472887065847083"><ele>75.0</ele><time>2026-03-27T13:59:14Z</time></trkpt><trkpt lat="49.168114291345766" lon="2.4727330282915356"><ele>75.0</ele><time>2026-03-27T13:59:17Z</time></trkpt><trkpt lat="49.16818043623184" lon="2.4726312863037174"><ele>74.99999999999999</ele><time>2026-03-27T13:59:20Z</time></trkpt><trkpt lat="49.16822090010064" lon="2.472557374498806"><ele>75.0</ele><time>2026-03-27T13:59:21.999Z</time></trkpt><trkpt lat="49.168263511658886" lon="2.472467968362202"><ele>75.0</ele><time>2026-03-27T13:59:23.999Z</time></trkpt><trkpt lat="49.16830985234171" lon="2.4723737564431945"><ele>75.0</ele><time>2026-03-27T13:59:25.999Z</time></trkpt><trkpt lat="49.168357514853895" lon="2.472291501419577"><ele>75.0</ele><time>2026-03-27T13:59:27.999Z</time></trkpt><trkpt lat="49.16839861455572" lon="2.4722124117972593"><ele>74.99999999999999</ele><time>2026-03-27T13:59:29.999Z</time></trkpt><trkpt lat="49.16848674152388" lon="2.4722159382516535"><ele>75.0</ele><time>2026-03-27T13:59:31.999Z</time></trkpt><trkpt lat="49.16856084034501" lon="2.4721527599155286"><ele>75.0</ele><time>2026-03-27T13:59:33.999Z</time></trkpt><trkpt lat="49.16863335532975" lon="2.4721126603280754"><ele>75.0</ele><time>2026-03-27T13:59:35.999Z</time></trkpt><trkpt lat="49.16871489040325" lon="2.4720530431464773"><ele>75.0</ele><time>2026-03-27T13:59:37.999Z</time></trkpt><trkpt lat="49.16877327072978" lon="2.471995160298196"><ele>75.0</ele><time>2026-03-27T14:00:37.997Z</time></trkpt><trkpt lat="49.16882991806986" lon="2.4719242138206794"><ele>75.0</ele><time>2026-03-27T14:03:21Z</time></trkpt><trkpt lat="49.168919101684715" lon="2.4718902810718184"><ele>75.0</ele><time>2026-03-27T14:03:25Z</time></trkpt><trkpt lat="49.16899936627543" lon="2.471869451230277"><ele>74.66666666666667</ele><time>2026-03-27T14:03:27.999Z</time></trkpt><trkpt lat="49.1690718865961" lon="2.4718671289181735"><ele>74.33333333333333</ele><time>2026-03-27T14:03:30.999Z</time></trkpt><trkpt lat="49.16914506413458" lon="2.471858746988264"><ele>74.0</ele><time>2026-03-27T14:03:32.999Z</time></trkpt><trkpt lat="49.169207759453144" lon="2.471846747519161"><ele>73.66666666666666</ele><time>2026-03-27T14:03:34.999Z</time></trkpt><trkpt lat="49.169305424107606" lon="2.4718820879765975"><ele>73.33333333333333</ele><time>2026-03-27T14:03:37.999Z</time></trkpt><trkpt lat="49.16936673747966" lon="2.4718255087796313"><ele>73.0</ele><time>2026-03-27T14:03:39.999Z</time></trkpt><trkpt lat="49.169440662502325" lon="2.4718052818994587"><ele>73.0</ele><time>2026-03-27T14:03:41.999Z</time></trkpt><trkpt lat="49.16952832135354" lon="2.4717951503291724"><ele>73.0</ele><time>2026-03-27T14:03:43.999Z</time></trkpt><trkpt lat="49.16961819310675" lon="2.4717842929028486"><ele>73.0</ele><time>2026-03-27T14:03:45.999Z</time></trkpt><trkpt lat="49.16971481730341" lon="2.4717607001624464"><ele>73.0</ele><time>2026-03-27T14:03:47.999Z</time></trkpt><trkpt lat="49.16981561857041" lon="2.471745373599168"><ele>73.0</ele><time>2026-03-27T14:03:49.999Z</time></trkpt><trkpt lat="49.1699174427004" lon="2.471733958867472"><ele>72.8</ele><time>2026-03-27T14:03:51.999Z</time></trkpt><trkpt lat="49.17002290054115" lon="2.4717207221957103"><ele>72.6</ele><time>2026-03-27T14:03:53.999Z</time></trkpt><trkpt lat="49.170128250132684" lon="2.4717038281680823"><ele>72.4</ele><time>2026-03-27T14:03:55.999Z</time></trkpt><trkpt lat="49.170235910906776" lon="2.471712955878662"><ele>72.2</ele><time>2026-03-27T14:03:57.999Z</time></trkpt><trkpt lat="49.170345241440735" lon="2.4716982080826604"><ele>72.0</ele><time>2026-03-27T14:03:59.999Z</time></trkpt><trkpt lat="49.17045323401705" lon="2.471683798593465"><ele>72.0</ele><time>2026-03-27T14:04:01.998Z</time></trkpt><trkpt lat="49.170560354287346" lon="2.4716695054967004"><ele>72.0</ele><time>2026-03-27T14:04:03.998Z</time></trkpt><trkpt lat="49.1706630374469" lon="2.471635596111233"><ele>72.0</ele><time>2026-03-27T14:04:05.998Z</time></trkpt><trkpt lat="49.170770789814526" lon="2.4716238164335484"><ele>72.0</ele><time>2026-03-27T14:04:07.998Z</time></trkpt><trkpt lat="49.17087160697952" lon="2.4716030754106306"><ele>72.0</ele><time>2026-03-27T14:04:09.998Z</time></trkpt><trkpt lat="49.17096992288476" lon="2.4715940047691123"><ele>71.6</ele><time>2026-03-27T14:04:11.998Z</time></trkpt><trkpt lat="49.17106777449578" lon="2.471586200872232"><ele>71.2</ele><time>2026-03-27T14:04:13.998Z</time></trkpt><trkpt lat="49.17116925113715" lon="2.4715724580431946"><ele>70.8</ele><time>2026-03-27T14:04:15.998Z</time></trkpt><trkpt lat="49.17126618140252" lon="2.4715553037680134"><ele>70.4</ele><time>2026-03-27T14:04:17.998Z</time></trkpt><trkpt lat="49.171364452387245" lon="2.4715392348069756"><ele>70.0</ele><time>2026-03-27T14:04:19.998Z</time></trkpt><trkpt lat="49.17146186111137" lon="2.4715269673119695"><ele>70.0</ele><time>2026-03-27T14:04:21.998Z</time></trkpt><trkpt lat="49.17156105210322" lon="2.471513633189775"><ele>70.0</ele><time>2026-03-27T14:04:23.998Z</time></trkpt><trkpt lat="49.17166132626897" lon="2.4715036169614595"><ele>70.0</ele><time>2026-03-27T14:04:25.998Z</time></trkpt><trkpt lat="49.171763927984635" lon="2.471494023184866"><ele>70.0</ele><time>2026-03-27T14:04:27.998Z</time></trkpt><trkpt lat="49.171864868424116" lon="2.4714738801071134"><ele>70.0</ele><time>2026-03-27T14:04:29.998Z</time></trkpt><trkpt lat="49.17196780057163" lon="2.471462004852979"><ele>70.0</ele><time>2026-03-27T14:04:31.998Z</time></trkpt><trkpt lat="49.172072325615936" lon="2.471446088029307"><ele>70.0</ele><time>2026-03-27T14:04:33.998Z</time></trkpt><trkpt lat="49.17217557226248" lon="2.4714335512289565"><ele>70.0</ele><time>2026-03-27T14:04:35.997Z</time></trkpt><trkpt lat="49.17227921602171" lon="2.4714207236646524"><ele>70.0</ele><time>2026-03-27T14:04:37.997Z</time></trkpt><trkpt lat="49.172384083443134" lon="2.471407689923869"><ele>70.0</ele><time>2026-03-27T14:04:39.997Z</time></trkpt><trkpt lat="49.172489215479445" lon="2.4713928378912002"><ele>70.4</ele><time>2026-03-27T14:04:41.997Z</time></trkpt><trkpt lat="49.172595363004234" lon="2.4713805837590725"><ele>70.8</ele><time>2026-03-27T14:04:43.997Z</time></trkpt><trkpt lat="49.17270069898613" lon="2.4713668079382947"><ele>71.2</ele><time>2026-03-27T14:04:45.997Z</time></trkpt><trkpt lat="49.17280673458953" lon="2.471346765948754"><ele>71.6</ele><time>2026-03-27T14:04:47.997Z</time></trkpt><trkpt lat="49.17291509206167" lon="2.471333255602991"><ele>72.0</ele><time>2026-03-27T14:04:49.997Z</time></trkpt><trkpt lat="49.17302254605415" lon="2.471317336690383"><ele>72.0</ele><time>2026-03-27T14:04:51.997Z</time></trkpt><trkpt lat="49.17312797015257" lon="2.471302861566632"><ele>72.0</ele><time>2026-03-27T14:04:53.997Z</time></trkpt><trkpt lat="49.173243125089044" lon="2.4712847891387244"><ele>72.0</ele><time>2026-03-27T14:04:55.997Z</time></trkpt><trkpt lat="49.17335943379362" lon="2.4712689912171037"><ele>72.0</ele><time>2026-03-27T14:04:57.997Z</time></trkpt><trkpt lat="49.17347337344264" lon="2.4712622999955838"><ele>71.75</ele><time>2026-03-27T14:04:59.997Z</time></trkpt><trkpt lat="49.173585817310006" lon="2.471243605311491"><ele>71.5</ele><time>2026-03-27T14:05:01.997Z</time></trkpt><trkpt lat="49.173701373570964" lon="2.471219127388391"><ele>71.25</ele><time>2026-03-27T14:05:03.997Z</time></trkpt><trkpt lat="49.173811987019256" lon="2.4712020372109382"><ele>71.0</ele><time>2026-03-27T14:05:05.997Z</time></trkpt><trkpt lat="49.173923401469914" lon="2.4711923356514673"><ele>70.75</ele><time>2026-03-27T14:05:07.997Z</time></trkpt><trkpt lat="49.17403614005472" lon="2.471179122931521"><ele>70.5</ele><time>2026-03-27T14:05:09.996Z</time></trkpt><trkpt lat="49.1741513400787" lon="2.47116136926278"><ele>70.25</ele><time>2026-03-27T14:05:12Z</time></trkpt><trkpt lat="49.17425993654899" lon="2.471142514324207"><ele>70.0</ele><time>2026-03-27T14:05:14Z</time></trkpt><trkpt lat="49.1743713550947" lon="2.471127312394836"><ele>70.0</ele><time>2026-03-27T14:05:16Z</time></trkpt><trkpt lat="49.174483078951994" lon="2.4711165315778816"><ele>70.0</ele><time>2026-03-27T14:05:18Z</time></trkpt><trkpt lat="49.174595951789335" lon="2.4711015630399467"><ele>70.0</ele><time>2026-03-27T14:05:20Z</time></trkpt><trkpt lat="49.174709141662184" lon="2.4710883466664524"><ele>70.0</ele><time>2026-03-27T14:05:22Z</time></trkpt><trkpt lat="49.174821458489966" lon="2.4710748858511553"><ele>69.5</ele><time>2026-03-27T14:05:24Z</time></trkpt><trkpt lat="49.17493653431855" lon="2.471060777921946"><ele>69.0</ele><time>2026-03-27T14:05:26Z</time></trkpt><trkpt lat="49.175049734708736" lon="2.4710500419960653"><ele>68.5</ele><time>2026-03-27T14:05:28Z</time></trkpt><trkpt lat="49.175167004454735" lon="2.4710303042242794"><ele>68.0</ele><time>2026-03-27T14:05:30Z</time></trkpt><trkpt lat="49.175282705581466" lon="2.471014103159389"><ele>68.0</ele><time>2026-03-27T14:05:31.999Z</time></trkpt><trkpt lat="49.17540274229514" lon="2.4709955020011964"><ele>68.0</ele><time>2026-03-27T14:05:33.999Z</time></trkpt><trkpt lat="49.17552120282981" lon="2.4709818302024935"><ele>68.0</ele><time>2026-03-27T14:05:35.999Z</time></trkpt><trkpt lat="49.175637672231346" lon="2.4709575995940405"><ele>68.0</ele><time>2026-03-27T14:05:37.999Z</time></trkpt><trkpt lat="49.17575487989131" lon="2.4709579839108615"><ele>68.0</ele><time>2026-03-27T14:05:39.999Z</time></trkpt><trkpt lat="49.17586828487942" lon="2.470916985594151"><ele>68.0</ele><time>2026-03-27T14:05:41.999Z</time></trkpt><trkpt lat="49.17598587609312" lon="2.4709064807242704"><ele>68.0</ele><time>2026-03-27T14:05:43.999Z</time></trkpt><trkpt lat="49.17610156379982" lon="2.4709063153789463"><ele>68.0</ele><time>2026-03-27T14:05:45.999Z</time></trkpt><trkpt lat="49.17621771441816" lon="2.470871655064856"><ele>68.0</ele><time>2026-03-27T14:05:47.999Z</time></trkpt><trkpt lat="49.176285071114584" lon="2.4708628307747658"><ele>68.0</ele><time>2026-03-27T14:05:48.999Z</time></trkpt><trkpt lat="49.17640006410129" lon="2.470843808041779"><ele>68.0</ele><time>2026-03-27T14:05:50.999Z</time></trkpt><trkpt lat="49.17652329138224" lon="2.4708339632244547"><ele>68.0</ele><time>2026-03-27T14:05:52.999Z</time></trkpt><trkpt lat="49.17663306444924" lon="2.4708117793694324"><ele>68.0</ele><time>2026-03-27T14:05:54.999Z</time></trkpt><trkpt lat="49.176753264970465" lon="2.4708030220138393"><ele>68.0</ele><time>2026-03-27T14:05:56.999Z</time></trkpt><trkpt lat="49.17687402927464" lon="2.4707887751085487"><ele>68.0</ele><time>2026-03-27T14:05:58.999Z</time></trkpt><trkpt lat="49.176995664337255" lon="2.4707734340125094"><ele>68.0</ele><time>2026-03-27T14:06:00.999Z</time></trkpt><trkpt lat="49.17711215924152" lon="2.470754601083412"><ele>68.0</ele><time>2026-03-27T14:06:02.999Z</time></trkpt><trkpt lat="49.17723115795262" lon="2.470730997849659"><ele>68.0</ele><time>2026-03-27T14:06:04.999Z</time></trkpt><trkpt lat="49.17734336258022" lon="2.470719121793577"><ele>68.0</ele><time>2026-03-27T14:06:06.998Z</time></trkpt><trkpt lat="49.17745024245858" lon="2.4707149733315172"><ele>68.0</ele><time>2026-03-27T14:06:08.998Z</time></trkpt><trkpt lat="49.17756142494717" lon="2.4707023477330665"><ele>68.0</ele><time>2026-03-27T14:06:10.998Z</time></trkpt><trkpt lat="49.17767476757368" lon="2.4706847359737854"><ele>68.0</ele><time>2026-03-27T14:06:12.998Z</time></trkpt><trkpt lat="49.177789990737175" lon="2.4706616370816317"><ele>68.5</ele><time>2026-03-27T14:06:14.998Z</time></trkpt><trkpt lat="49.17790010281454" lon="2.470644109721296"><ele>69.0</ele><time>2026-03-27T14:06:16.998Z</time></trkpt><trkpt lat="49.17801484432534" lon="2.470624571322134"><ele>69.5</ele><time>2026-03-27T14:06:18.998Z</time></trkpt><trkpt lat="49.178126584882946" lon="2.4706042532221537"><ele>70.0</ele><time>2026-03-27T14:06:20.998Z</time></trkpt><trkpt lat="49.178239323764245" lon="2.470588531573157"><ele>70.0</ele><time>2026-03-27T14:06:22.998Z</time></trkpt><trkpt lat="49.178356469048495" lon="2.4705752440492006"><ele>70.0</ele><time>2026-03-27T14:06:24.998Z</time></trkpt><trkpt lat="49.178475396754564" lon="2.4705611782750654"><ele>70.0</ele><time>2026-03-27T14:06:26.998Z</time></trkpt><trkpt lat="49.17859437928173" lon="2.470541538577496"><ele>70.0</ele><time>2026-03-27T14:06:28.998Z</time></trkpt><trkpt lat="49.178709113920775" lon="2.470539025737476"><ele>70.0</ele><time>2026-03-27T14:06:30.998Z</time></trkpt><trkpt lat="49.178826286950205" lon="2.4705179139836853"><ele>70.0</ele><time>2026-03-27T14:06:32.998Z</time></trkpt><trkpt lat="49.178947278774494" lon="2.470500877352507"><ele>70.0</ele><time>2026-03-27T14:06:34.998Z</time></trkpt><trkpt lat="49.17901256109145" lon="2.4704936685960015"><ele>70.0</ele><time>2026-03-27T14:06:35.998Z</time></trkpt><trkpt lat="49.17907748677323" lon="2.4704826260829673"><ele>70.0</ele><time>2026-03-27T14:06:36.998Z</time></trkpt><trkpt lat="49.17920181956453" lon="2.470466811531681"><ele>69.6</ele><time>2026-03-27T14:06:38.998Z</time></trkpt><trkpt lat="49.17926452606872" lon="2.4704582739940086"><ele>69.2</ele><time>2026-03-27T14:06:39.997Z</time></trkpt><trkpt lat="49.17938755961903" lon="2.470440227798916"><ele>68.8</ele><time>2026-03-27T14:06:41.997Z</time></trkpt><trkpt lat="49.17951219632649" lon="2.4704202098313144"><ele>68.4</ele><time>2026-03-27T14:06:43.997Z</time></trkpt><trkpt lat="49.17963349937107" lon="2.4704011534406907"><ele>68.0</ele><time>2026-03-27T14:06:45.997Z</time></trkpt><trkpt lat="49.17975656677593" lon="2.4703811636724105"><ele>68.0</ele><time>2026-03-27T14:06:47.997Z</time></trkpt><trkpt lat="49.17982293670683" lon="2.4703742705878784"><ele>68.0</ele><time>2026-03-27T14:06:48.997Z</time></trkpt><trkpt lat="49.17988758450349" lon="2.470364646801799"><ele>68.0</ele><time>2026-03-27T14:06:49.997Z</time></trkpt><trkpt lat="49.18001122567712" lon="2.4703418030570705"><ele>68.0</ele><time>2026-03-27T14:06:51.997Z</time></trkpt><trkpt lat="49.18007475189447" lon="2.4703340777660534"><ele>68.0</ele><time>2026-03-27T14:06:52.997Z</time></trkpt><trkpt lat="49.180198694786164" lon="2.4703219527442566"><ele>68.0</ele><time>2026-03-27T14:06:54.997Z</time></trkpt><trkpt lat="49.18026630587911" lon="2.4703140961131913"><ele>67.71428571428571</ele><time>2026-03-27T14:06:55.997Z</time></trkpt><trkpt lat="49.18033166014734" lon="2.4703130246982097"><ele>67.42857142857143</ele><time>2026-03-27T14:06:56.997Z</time></trkpt><trkpt lat="49.18040015978791" lon="2.470305821118734"><ele>67.14285714285714</ele><time>2026-03-27T14:06:57.997Z</time></trkpt><trkpt lat="49.18047007723084" lon="2.4702947913981363"><ele>66.85714285714286</ele><time>2026-03-27T14:06:58.997Z</time></trkpt><trkpt lat="49.180542270661306" lon="2.470281665147657"><ele>66.57142857142857</ele><time>2026-03-27T14:06:59.997Z</time></trkpt><trkpt lat="49.18061186260425" lon="2.4702735921176173"><ele>66.28571428571428</ele><time>2026-03-27T14:07:00.997Z</time></trkpt><trkpt lat="49.18068099581099" lon="2.4702630389000357"><ele>66.0</ele><time>2026-03-27T14:07:01.997Z</time></trkpt><trkpt lat="49.18075199808949" lon="2.4702479432544715"><ele>65.85714285714286</ele><time>2026-03-27T14:07:02.997Z</time></trkpt><trkpt lat="49.18082049741627" lon="2.470238666895414"><ele>65.71428571428572</ele><time>2026-03-27T14:07:03.997Z</time></trkpt><trkpt lat="49.18089332270927" lon="2.4702281791599705"><ele>65.57142857142858</ele><time>2026-03-27T14:07:04.997Z</time></trkpt><trkpt lat="49.180966459453394" lon="2.4702184966994465"><ele>65.42857142857143</ele><time>2026-03-27T14:07:05.997Z</time></trkpt><trkpt lat="49.181039348278475" lon="2.4702102054730117"><ele>65.28571428571429</ele><time>2026-03-27T14:07:06.997Z</time></trkpt><trkpt lat="49.18111296955702" lon="2.4702000513759876"><ele>65.14285714285715</ele><time>2026-03-27T14:07:07.997Z</time></trkpt><trkpt lat="49.181184392953014" lon="2.470185168098157"><ele>65.0</ele><time>2026-03-27T14:07:08.997Z</time></trkpt><trkpt lat="49.18125453556028" lon="2.4701692062579843"><ele>65.00000000000001</ele><time>2026-03-27T14:07:09.997Z</time></trkpt><trkpt lat="49.18132414816608" lon="2.4701555945956737"><ele>65.0</ele><time>2026-03-27T14:07:10.997Z</time></trkpt><trkpt lat="49.18139647512058" lon="2.470138036595963"><ele>65.0</ele><time>2026-03-27T14:07:11.997Z</time></trkpt><trkpt lat="49.18146687693506" lon="2.4701214161409406"><ele>65.0</ele><time>2026-03-27T14:07:12.997Z</time></trkpt><trkpt lat="49.181536849386276" lon="2.4701035305147183"><ele>65.0</ele><time>2026-03-27T14:07:13.996Z</time></trkpt><trkpt lat="49.18160396614134" lon="2.470085642067511"><ele>65.00000000000001</ele><time>2026-03-27T14:07:14.996Z</time></trkpt><trkpt lat="49.181672427542004" lon="2.4700714894647726"><ele>65.0</ele><time>2026-03-27T14:07:15.996Z</time></trkpt><trkpt lat="49.181741893541805" lon="2.470057813854106"><ele>65.14285714285715</ele><time>2026-03-27T14:07:16.996Z</time></trkpt><trkpt lat="49.1818108411957" lon="2.4700384583798245"><ele>65.28571428571429</ele><time>2026-03-27T14:07:18Z</time></trkpt><trkpt lat="49.1818780669653" lon="2.470021890627331"><ele>65.42857142857143</ele><time>2026-03-27T14:07:19Z</time></trkpt><trkpt lat="49.1819459859446" lon="2.4700085366297198"><ele>65.57142857142858</ele><time>2026-03-27T14:07:20Z</time></trkpt><trkpt lat="49.182011260282636" lon="2.4699906290193776"><ele>65.71428571428572</ele><time>2026-03-27T14:07:21Z</time></trkpt><trkpt lat="49.18207436009429" lon="2.4699767795096217"><ele>65.85714285714286</ele><time>2026-03-27T14:07:22Z</time></trkpt><trkpt lat="49.18213850472202" lon="2.469962590554663"><ele>66.0</ele><time>2026-03-27T14:07:23Z</time></trkpt><trkpt lat="49.182204241053746" lon="2.4699467921828893"><ele>66.0</ele><time>2026-03-27T14:07:24Z</time></trkpt><trkpt lat="49.18226822129385" lon="2.469934260909191"><ele>66.0</ele><time>2026-03-27T14:07:25Z</time></trkpt><trkpt lat="49.18233461094889" lon="2.4699223895637914"><ele>66.0</ele><time>2026-03-27T14:07:26Z</time></trkpt><trkpt lat="49.18240431727125" lon="2.469902492043381"><ele>66.0</ele><time>2026-03-27T14:07:27Z</time></trkpt><trkpt lat="49.182472697058934" lon="2.4698829671971723"><ele>66.0</ele><time>2026-03-27T14:07:28Z</time></trkpt><trkpt lat="49.18254213219792" lon="2.4698678372033442"><ele>66.0</ele><time>2026-03-27T14:07:29Z</time></trkpt><trkpt lat="49.18260988391486" lon="2.469847491937177"><ele>66.0</ele><time>2026-03-27T14:07:30Z</time></trkpt><trkpt lat="49.18267753050083" lon="2.4698336821665565"><ele>65.85714285714286</ele><time>2026-03-27T14:07:31Z</time></trkpt><trkpt lat="49.18274455930699" lon="2.4698208452719057"><ele>65.71428571428572</ele><time>2026-03-27T14:07:32Z</time></trkpt><trkpt lat="49.18281038284314" lon="2.4698078153456913"><ele>65.57142857142858</ele><time>2026-03-27T14:07:33Z</time></trkpt><trkpt lat="49.18287360927023" lon="2.4697962713277675"><ele>65.42857142857143</ele><time>2026-03-27T14:07:33.999Z</time></trkpt><trkpt lat="49.18293802782238" lon="2.4697792718414933"><ele>65.28571428571429</ele><time>2026-03-27T14:07:34.999Z</time></trkpt><trkpt lat="49.18300528417929" lon="2.4697588647823485"><ele>65.14285714285715</ele><time>2026-03-27T14:07:35.999Z</time></trkpt><trkpt lat="49.18307016019416" lon="2.469742338831804"><ele>65.0</ele><time>2026-03-27T14:07:36.999Z</time></trkpt><trkpt lat="49.18314346265286" lon="2.4697257036557327"><ele>64.71428571428572</ele><time>2026-03-27T14:07:37.999Z</time></trkpt><trkpt lat="49.18321282694871" lon="2.469710404014631"><ele>64.42857142857143</ele><time>2026-03-27T14:07:38.999Z</time></trkpt><trkpt lat="49.183281089025" lon="2.4696931999703264"><ele>64.14285714285714</ele><time>2026-03-27T14:07:39.999Z</time></trkpt><trkpt lat="49.183348313138836" lon="2.469672549431519"><ele>63.85714285714286</ele><time>2026-03-27T14:07:40.999Z</time></trkpt><trkpt lat="49.18341625956022" lon="2.469654679622611"><ele>63.57142857142857</ele><time>2026-03-27T14:07:41.999Z</time></trkpt><trkpt lat="49.18348573336111" lon="2.46964454952158"><ele>63.285714285714285</ele><time>2026-03-27T14:07:42.999Z</time></trkpt><trkpt lat="49.18355284420832" lon="2.46962614548287"><ele>63.0</ele><time>2026-03-27T14:07:43.999Z</time></trkpt><trkpt lat="49.183619914405014" lon="2.469612642609266"><ele>63.42857142857143</ele><time>2026-03-27T14:07:44.999Z</time></trkpt><trkpt lat="49.18368472206312" lon="2.4696052756534135"><ele>63.85714285714286</ele><time>2026-03-27T14:07:45.999Z</time></trkpt><trkpt lat="49.18375061071425" lon="2.469581733364182"><ele>64.28571428571428</ele><time>2026-03-27T14:07:46.999Z</time></trkpt><trkpt lat="49.18381630851976" lon="2.469566330501105"><ele>64.71428571428572</ele><time>2026-03-27T14:07:47.999Z</time></trkpt><trkpt lat="49.18387960569228" lon="2.4695503675720674"><ele>65.14285714285714</ele><time>2026-03-27T14:07:48.999Z</time></trkpt><trkpt lat="49.18394436725846" lon="2.469538638210786"><ele>65.57142857142857</ele><time>2026-03-27T14:07:49.999Z</time></trkpt><trkpt lat="49.184007928202085" lon="2.469529023882723"><ele>66.0</ele><time>2026-03-27T14:07:50.999Z</time></trkpt><trkpt lat="49.184076494693585" lon="2.469512284126864"><ele>66.2</ele><time>2026-03-27T14:07:51.999Z</time></trkpt><trkpt lat="49.18420348090285" lon="2.46948678886432"><ele>66.39999999999999</ele><time>2026-03-27T14:07:53.999Z</time></trkpt><trkpt lat="49.18426690220501" lon="2.469471847943581"><ele>66.6</ele><time>2026-03-27T14:07:54.999Z</time></trkpt><trkpt lat="49.18439006801567" lon="2.4694385390730678"><ele>66.8</ele><time>2026-03-27T14:07:56.999Z</time></trkpt><trkpt lat="49.18450857874104" lon="2.469408672591162"><ele>67.0</ele><time>2026-03-27T14:07:58.999Z</time></trkpt><trkpt lat="49.18462719614151" lon="2.469375756140014"><ele>67.0</ele><time>2026-03-27T14:08:00.999Z</time></trkpt><trkpt lat="49.18474531707556" lon="2.469349689926508"><ele>67.0</ele><time>2026-03-27T14:08:02.999Z</time></trkpt><trkpt lat="49.18486225249205" lon="2.4693228334842376"><ele>67.0</ele><time>2026-03-27T14:08:04.999Z</time></trkpt><trkpt lat="49.184974839246046" lon="2.4692987586675694"><ele>67.0</ele><time>2026-03-27T14:08:06.999Z</time></trkpt><trkpt lat="49.185088582714044" lon="2.469273369711949"><ele>66.5</ele><time>2026-03-27T14:08:08.999Z</time></trkpt><trkpt lat="49.18520445121322" lon="2.4692459978544217"><ele>66.0</ele><time>2026-03-27T14:08:10.998Z</time></trkpt><trkpt lat="49.185317130793365" lon="2.46920013986726"><ele>65.5</ele><time>2026-03-27T14:08:12.998Z</time></trkpt><trkpt lat="49.18542992368647" lon="2.4691406001785254"><ele>65.0</ele><time>2026-03-27T14:08:14.998Z</time></trkpt><trkpt lat="49.18554787131287" lon="2.469094055175776"><ele>65.0</ele><time>2026-03-27T14:08:16.998Z</time></trkpt><trkpt lat="49.18567251468218" lon="2.4691205474078473"><ele>65.0</ele><time>2026-03-27T14:08:18.998Z</time></trkpt><trkpt lat="49.18573756462991" lon="2.4691138258815366"><ele>65.0</ele><time>2026-03-27T14:08:19.998Z</time></trkpt><trkpt lat="49.18580160977749" lon="2.469100849434395"><ele>65.0</ele><time>2026-03-27T14:08:20.998Z</time></trkpt><trkpt lat="49.18586643908538" lon="2.4690852154580827"><ele>65.0</ele><time>2026-03-27T14:08:21.998Z</time></trkpt><trkpt lat="49.185931223235514" lon="2.469071648844988"><ele>65.0</ele><time>2026-03-27T14:08:22.998Z</time></trkpt><trkpt lat="49.185995580860904" lon="2.469060919627083"><ele>65.0</ele><time>2026-03-27T14:08:23.998Z</time></trkpt><trkpt lat="49.18605954556066" lon="2.4690441226706863"><ele>65.0</ele><time>2026-03-27T14:08:24.998Z</time></trkpt><trkpt lat="49.18612434876473" lon="2.4690282749815493"><ele>65.0</ele><time>2026-03-27T14:08:25.998Z</time></trkpt><trkpt lat="49.18618979880945" lon="2.469009575549715"><ele>65.0</ele><time>2026-03-27T14:08:26.998Z</time></trkpt><trkpt lat="49.18625410699362" lon="2.4689945849750106"><ele>65.0</ele><time>2026-03-27T14:08:27.998Z</time></trkpt><trkpt lat="49.18638025123802" lon="2.4689659038546807"><ele>65.0</ele><time>2026-03-27T14:08:29.998Z</time></trkpt><trkpt lat="49.18650317875618" lon="2.468941594754099"><ele>65.0</ele><time>2026-03-27T14:08:31.998Z</time></trkpt><trkpt lat="49.186571708644664" lon="2.4689249462155245"><ele>65.0</ele><time>2026-03-27T14:08:32.998Z</time></trkpt><trkpt lat="49.186696912763416" lon="2.468895081825742"><ele>65.0</ele><time>2026-03-27T14:08:34.998Z</time></trkpt><trkpt lat="49.18682217275023" lon="2.4688744686880577"><ele>65.0</ele><time>2026-03-27T14:08:36.998Z</time></trkpt><trkpt lat="49.18688774032659" lon="2.4688607457433647"><ele>65.0</ele><time>2026-03-27T14:08:37.998Z</time></trkpt><trkpt lat="49.18695092165364" lon="2.4688348985226"><ele>65.0</ele><time>2026-03-27T14:08:38.998Z</time></trkpt><trkpt lat="49.18701214767079" lon="2.468805291521696"><ele>65.0</ele><time>2026-03-27T14:08:39.998Z</time></trkpt><trkpt lat="49.18713247321564" lon="2.468769009549062"><ele>65.0</ele><time>2026-03-27T14:08:41.998Z</time></trkpt><trkpt lat="49.187202655614975" lon="2.468753565127121"><ele>65.0</ele><time>2026-03-27T14:08:42.998Z</time></trkpt><trkpt lat="49.18727053747625" lon="2.468771680340329"><ele>65.0</ele><time>2026-03-27T14:08:43.997Z</time></trkpt><trkpt lat="49.1873308213191" lon="2.4688308355839235"><ele>65.0</ele><time>2026-03-27T14:08:44.997Z</time></trkpt><trkpt lat="49.187444277479685" lon="2.4688560719612003"><ele>64.0</ele><time>2026-03-27T14:08:46.997Z</time></trkpt><trkpt lat="49.187483669451346" lon="2.46877314653773"><ele>63.0</ele><time>2026-03-27T14:08:47.997Z</time></trkpt><trkpt lat="49.187494072124444" lon="2.4686722329966644"><ele>62.0</ele><time>2026-03-27T14:08:48.997Z</time></trkpt><trkpt lat="49.187478652374004" lon="2.4685749427975168"><ele>61.0</ele><time>2026-03-27T14:08:49.997Z</time></trkpt><trkpt lat="49.18749678956876" lon="2.4684308826848054"><ele>60.00000000000001</ele><time>2026-03-27T14:08:51.997Z</time></trkpt><trkpt lat="49.1875587512284" lon="2.4683409163521075"><ele>59.0</ele><time>2026-03-27T14:08:53.997Z</time></trkpt><trkpt lat="49.1875813374074" lon="2.4682007354728444"><ele>59.0</ele><time>2026-03-27T14:08:56.997Z</time></trkpt><trkpt lat="49.18761441214391" lon="2.46810576598181"><ele>59.0</ele><time>2026-03-27T14:08:58.997Z</time></trkpt><trkpt lat="49.18764566714448" lon="2.46801715565826"><ele>59.0</ele><time>2026-03-27T14:09:00.997Z</time></trkpt><trkpt lat="49.18767313921461" lon="2.4679257810956563"><ele>59.0</ele><time>2026-03-27T14:09:02.997Z</time></trkpt><trkpt lat="49.18775255292021" lon="2.4678732822351637"><ele>59.0</ele><time>2026-03-27T14:09:05.997Z</time></trkpt><trkpt lat="49.187788060200006" lon="2.4677674774342364"><ele>59.0</ele><time>2026-03-27T14:09:08.997Z</time></trkpt><trkpt lat="49.187773513664055" lon="2.467662583331957"><ele>59.0</ele><time>2026-03-27T14:09:10.997Z</time></trkpt><trkpt lat="49.187753319837405" lon="2.4675547683362082"><ele>59.16666666666667</ele><time>2026-03-27T14:09:12.997Z</time></trkpt><trkpt lat="49.18773503444379" lon="2.467444638076827"><ele>59.333333333333336</ele><time>2026-03-27T14:09:14.997Z</time></trkpt><trkpt lat="49.18771545611826" lon="2.4673273344327655"><ele>59.5</ele><time>2026-03-27T14:09:16.997Z</time></trkpt><trkpt lat="49.1876945572754" lon="2.4672069290201892"><ele>59.66666666666667</ele><time>2026-03-27T14:09:18.996Z</time></trkpt><trkpt lat="49.187678132921405" lon="2.467081928903758"><ele>59.833333333333336</ele><time>2026-03-27T14:09:20.996Z</time></trkpt><trkpt lat="49.18765210160621" lon="2.4669582138449075"><ele>60.0</ele><time>2026-03-27T14:09:22.996Z</time></trkpt><trkpt lat="49.1876330889457" lon="2.466831754379003"><ele>60.0</ele><time>2026-03-27T14:09:24.999Z</time></trkpt><trkpt lat="49.18760841728182" lon="2.466703983365918"><ele>60.0</ele><time>2026-03-27T14:09:26.999Z</time></trkpt><trkpt lat="49.18758558572524" lon="2.4665817110263046"><ele>60.0</ele><time>2026-03-27T14:09:28.999Z</time></trkpt><trkpt lat="49.18756301089959" lon="2.4664543224770346"><ele>60.0</ele><time>2026-03-27T14:09:30.999Z</time></trkpt><trkpt lat="49.187534674812845" lon="2.4663337218999626"><ele>60.0</ele><time>2026-03-27T14:09:32.999Z</time></trkpt><trkpt lat="49.18751643304048" lon="2.4662002900807782"><ele>60.0</ele><time>2026-03-27T14:09:34.999Z</time></trkpt><trkpt lat="49.18749181324013" lon="2.466073489490996"><ele>60.0</ele><time>2026-03-27T14:09:37Z</time></trkpt><trkpt lat="49.1874777359085" lon="2.465939308861881"><ele>60.0</ele><time>2026-03-27T14:09:38.999Z</time></trkpt><trkpt lat="49.18745268315003" lon="2.465808313492319"><ele>60.0</ele><time>2026-03-27T14:09:40.999Z</time></trkpt><trkpt lat="49.1874268986217" lon="2.4656842247568007"><ele>60.0</ele><time>2026-03-27T14:09:42.999Z</time></trkpt><trkpt lat="49.18740301445471" lon="2.465554249184683"><ele>60.0</ele><time>2026-03-27T14:09:44.999Z</time></trkpt><trkpt lat="49.18737117097002" lon="2.4654324106813825"><ele>60.0</ele><time>2026-03-27T14:09:46.999Z</time></trkpt><trkpt lat="49.18733870212614" lon="2.4653113970466225"><ele>60.166666666666664</ele><time>2026-03-27T14:09:48.999Z</time></trkpt><trkpt lat="49.1873069851845" lon="2.4651852136315306"><ele>60.33333333333333</ele><time>2026-03-27T14:09:50.999Z</time></trkpt><trkpt lat="49.187277504829474" lon="2.4650602684697187"><ele>60.5</ele><time>2026-03-27T14:09:52.999Z</time></trkpt><trkpt lat="49.187246564171694" lon="2.464932955431949"><ele>60.666666666666664</ele><time>2026-03-27T14:09:54.999Z</time></trkpt><trkpt lat="49.18721300907434" lon="2.464802600826113"><ele>60.83333333333333</ele><time>2026-03-27T14:09:56.999Z</time></trkpt><trkpt lat="49.18716752782034" lon="2.4646807890906577"><ele>61.0</ele><time>2026-03-27T14:09:58.999Z</time></trkpt><trkpt lat="49.18713488023344" lon="2.4645490184442354"><ele>61.0</ele><time>2026-03-27T14:10:00.999Z</time></trkpt><trkpt lat="49.18709867328076" lon="2.464418252578292"><ele>60.99999999999999</ele><time>2026-03-27T14:10:02.999Z</time></trkpt><trkpt lat="49.18706619818384" lon="2.464286285241573"><ele>60.99999999999999</ele><time>2026-03-27T14:10:04.999Z</time></trkpt><trkpt lat="49.187033114098" lon="2.464151417240839"><ele>61.0</ele><time>2026-03-27T14:10:06.999Z</time></trkpt><trkpt lat="49.18699956485147" lon="2.4640162418730815"><ele>61.0</ele><time>2026-03-27T14:10:08.999Z</time></trkpt><trkpt lat="49.186987342602535" lon="2.4638713038795417"><ele>60.83333333333333</ele><time>2026-03-27T14:10:10.999Z</time></trkpt><trkpt lat="49.18696362865692" lon="2.4637449408910816"><ele>60.666666666666664</ele><time>2026-03-27T14:10:12.999Z</time></trkpt><trkpt lat="49.18695267051278" lon="2.4636465875374327"><ele>60.5</ele><time>2026-03-27T14:10:14.998Z</time></trkpt><trkpt lat="49.186937975287705" lon="2.4635243516600402"><ele>60.33333333333333</ele><time>2026-03-27T14:10:20.998Z</time></trkpt><trkpt lat="49.18692359218333" lon="2.4634021302157225"><ele>60.166666666666664</ele><time>2026-03-27T14:10:23.998Z</time></trkpt><trkpt lat="49.18691210401341" lon="2.46330450852975"><ele>60.0</ele><time>2026-03-27T14:10:25.998Z</time></trkpt><trkpt lat="49.18689902963812" lon="2.4631934095128987"><ele>60.0</ele><time>2026-03-27T14:10:27.998Z</time></trkpt><trkpt lat="49.1868697332886" lon="2.4630789890018203"><ele>60.0</ele><time>2026-03-27T14:10:29.998Z</time></trkpt><trkpt lat="49.18686182142061" lon="2.4629469678651383"><ele>60.0</ele><time>2026-03-27T14:10:31.998Z</time></trkpt><trkpt lat="49.186813522189226" lon="2.462842235447733"><ele>60.0</ele><time>2026-03-27T14:10:33.998Z</time></trkpt><trkpt lat="49.18679611122252" lon="2.4627316131600328"><ele>60.0</ele><time>2026-03-27T14:10:35.998Z</time></trkpt><trkpt lat="49.18677925698467" lon="2.4626272271133187"><ele>60.0</ele><time>2026-03-27T14:10:37.998Z</time></trkpt><trkpt lat="49.186759528203574" lon="2.4625232294815986"><ele>59.85714285714286</ele><time>2026-03-27T14:10:39.998Z</time></trkpt><trkpt lat="49.18672246906389" lon="2.462417084190521"><ele>59.71428571428571</ele><time>2026-03-27T14:10:41.998Z</time></trkpt><trkpt lat="49.18673057003634" lon="2.4623162407750723"><ele>59.57142857142857</ele><time>2026-03-27T14:10:43.998Z</time></trkpt><trkpt lat="49.18672048185486" lon="2.462218923640216"><ele>59.42857142857143</ele><time>2026-03-27T14:10:45.998Z</time></trkpt><trkpt lat="49.186695111505095" lon="2.4621213505228816"><ele>59.28571428571429</ele><time>2026-03-27T14:10:47.998Z</time></trkpt><trkpt lat="49.18666487881129" lon="2.4620285778402615"><ele>59.14285714285714</ele><time>2026-03-27T14:10:49.997Z</time></trkpt><trkpt lat="49.186642010899085" lon="2.4619302835231176"><ele>59.0</ele><time>2026-03-27T14:10:51.997Z</time></trkpt><trkpt lat="49.18663980107667" lon="2.461827088884103"><ele>58.75</ele><time>2026-03-27T14:10:53.997Z</time></trkpt><trkpt lat="49.18664227510123" lon="2.461720659584707"><ele>58.5</ele><time>2026-03-27T14:10:55.997Z</time></trkpt><trkpt lat="49.18661778510786" lon="2.4616069807729164"><ele>58.25</ele><time>2026-03-27T14:10:58.997Z</time></trkpt><trkpt lat="49.186776251202716" lon="2.4618715967731317"><ele>58.0</ele><time>2026-03-27T14:10:59.997Z</time></trkpt><trkpt lat="49.18675829952195" lon="2.461529527202745"><ele>57.99999999999999</ele><time>2026-03-27T14:11:00.997Z</time></trkpt><trkpt lat="49.18682559819823" lon="2.461464473421376"><ele>58.0</ele><time>2026-03-27T14:11:02.997Z</time></trkpt><trkpt lat="49.186874101983534" lon="2.4613959059834993"><ele>58.0</ele><time>2026-03-27T14:11:05.997Z</time></trkpt><trkpt lat="49.18694423692431" lon="2.461264236088177"><ele>58.0</ele><time>2026-03-27T14:11:06.997Z</time></trkpt><trkpt lat="49.18701179599271" lon="2.461308973406504"><ele>57.99999999999999</ele><time>2026-03-27T14:11:08.997Z</time></trkpt><trkpt lat="49.18707512917606" lon="2.4613491102163008"><ele>58.0</ele><time>2026-03-27T14:11:10.997Z</time></trkpt><trkpt lat="49.18713725389268" lon="2.4613886011436876"><ele>58.0</ele><time>2026-03-27T14:11:12.997Z</time></trkpt><trkpt lat="49.18722624167721" lon="2.4614451726074638"><ele>58.0</ele><time>2026-03-27T14:11:15.997Z</time></trkpt><trkpt lat="49.18730827142365" lon="2.461497319735598"><ele>58.0</ele><time>2026-03-27T14:11:17.997Z</time></trkpt><trkpt lat="49.18739567486308" lon="2.4615531843298974"><ele>58.0</ele><time>2026-03-27T14:11:19.997Z</time></trkpt><trkpt lat="49.187476186990686" lon="2.461604602337331"><ele>58.0</ele><time>2026-03-27T14:11:21.997Z</time></trkpt><trkpt lat="49.187564875075005" lon="2.4616612677839664"><ele>58.2</ele><time>2026-03-27T14:11:23.997Z</time></trkpt><trkpt lat="49.18764725497508" lon="2.4617139029844677"><ele>58.4</ele><time>2026-03-27T14:11:25.996Z</time></trkpt><trkpt lat="49.1877340207923" lon="2.4617693402343415"><ele>58.60000000000001</ele><time>2026-03-27T14:11:27.996Z</time></trkpt><trkpt lat="49.187819231354595" lon="2.461823783954629"><ele>58.800000000000004</ele><time>2026-03-27T14:11:30Z</time></trkpt><trkpt lat="49.187903196319475" lon="2.4618774316870033"><ele>59.0</ele><time>2026-03-27T14:11:32Z</time></trkpt><trkpt lat="49.187984308006406" lon="2.461929630056369"><ele>59.0</ele><time>2026-03-27T14:11:34Z</time></trkpt><trkpt lat="49.188077384460044" lon="2.461990478663878"><ele>59.00000000000001</ele><time>2026-03-27T14:11:36Z</time></trkpt><trkpt lat="49.1881679086569" lon="2.462049658711018"><ele>59.00000000000001</ele><time>2026-03-27T14:11:38Z</time></trkpt><trkpt lat="49.188254661322645" lon="2.4621063731336843"><ele>59.0</ele><time>2026-03-27T14:11:40Z</time></trkpt><trkpt lat="49.18834400737132" lon="2.462164783005"><ele>59.0</ele><time>2026-03-27T14:11:42Z</time></trkpt><trkpt lat="49.188438278537774" lon="2.4622264126120306"><ele>58.6</ele><time>2026-03-27T14:11:44Z</time></trkpt><trkpt lat="49.188538571525314" lon="2.462291979018066"><ele>58.2</ele><time>2026-03-27T14:11:46Z</time></trkpt><trkpt lat="49.18862412369739" lon="2.462346381444928"><ele>57.800000000000004</ele><time>2026-03-27T14:11:48Z</time></trkpt><trkpt lat="49.1887064404212" lon="2.4623984973703186"><ele>57.400000000000006</ele><time>2026-03-27T14:11:49.999Z</time></trkpt><trkpt lat="49.188797192582065" lon="2.4624559539640716"><ele>57.0</ele><time>2026-03-27T14:11:51.999Z</time></trkpt><trkpt lat="49.18888526428438" lon="2.462511610364262"><ele>57.0</ele><time>2026-03-27T14:11:53.999Z</time></trkpt><trkpt lat="49.1889654086883" lon="2.462562072855441"><ele>57.0</ele><time>2026-03-27T14:11:55.999Z</time></trkpt><trkpt lat="49.18906462563726" lon="2.4626245442431003"><ele>57.0</ele><time>2026-03-27T14:11:57.999Z</time></trkpt><trkpt lat="49.189151232476426" lon="2.46267907575133"><ele>57.0</ele><time>2026-03-27T14:11:59.999Z</time></trkpt><trkpt lat="49.18923661261529" lon="2.4627328349489512"><ele>57.0</ele><time>2026-03-27T14:12:01.999Z</time></trkpt><trkpt lat="49.18932179828244" lon="2.462786471545296"><ele>57.0</ele><time>2026-03-27T14:12:03.999Z</time></trkpt><trkpt lat="49.1894005410089" lon="2.4628372652736705"><ele>57.0</ele><time>2026-03-27T14:12:05.999Z</time></trkpt><trkpt lat="49.18947848498217" lon="2.4628875197986586"><ele>57.0</ele><time>2026-03-27T14:12:07.999Z</time></trkpt><trkpt lat="49.189553486065435" lon="2.462935876812348"><ele>57.0</ele><time>2026-03-27T14:12:09.999Z</time></trkpt><trkpt lat="49.18963775620644" lon="2.4629902100416423"><ele>57.0</ele><time>2026-03-27T14:12:11.999Z</time></trkpt><trkpt lat="49.189709661532774" lon="2.463036581869978"><ele>57.0</ele><time>2026-03-27T14:12:13.999Z</time></trkpt><trkpt lat="49.18977097047878" lon="2.4630731058814597"><ele>56.833333333333336</ele><time>2026-03-27T14:12:16.999Z</time></trkpt><trkpt lat="49.18984239576152" lon="2.4630523087288263"><ele>56.66666666666667</ele><time>2026-03-27T14:12:18.999Z</time></trkpt><trkpt lat="49.18989667699601" lon="2.4631048237055513"><ele>56.5</ele><time>2026-03-27T14:12:19.999Z</time></trkpt><trkpt lat="49.18999254051874" lon="2.46316218990323"><ele>56.333333333333336</ele><time>2026-03-27T14:12:21.999Z</time></trkpt><trkpt lat="49.19008233532288" lon="2.463225899780155"><ele>56.16666666666667</ele><time>2026-03-27T14:12:23.998Z</time></trkpt><trkpt lat="49.19017421629834" lon="2.4632826507459282"><ele>56.0</ele><time>2026-03-27T14:12:25.998Z</time></trkpt><trkpt lat="49.1902708218694" lon="2.463334885492379"><ele>56.0</ele><time>2026-03-27T14:12:27.998Z</time></trkpt><trkpt lat="49.19036298910024" lon="2.4633987135890116"><ele>55.99999999999999</ele><time>2026-03-27T14:12:29.998Z</time></trkpt><trkpt lat="49.190455624944605" lon="2.4634556821064093"><ele>55.99999999999999</ele><time>2026-03-27T14:12:31.998Z</time></trkpt><trkpt lat="49.19054930049528" lon="2.463514866792616"><ele>56.0</ele><time>2026-03-27T14:12:33.998Z</time></trkpt><trkpt lat="49.19064174797588" lon="2.4635726580135024"><ele>56.0</ele><time>2026-03-27T14:12:35.998Z</time></trkpt><trkpt lat="49.19074472938318" lon="2.4636313998520873"><ele>55.75</ele><time>2026-03-27T14:12:37.998Z</time></trkpt><trkpt lat="49.190848815794624" lon="2.4636938608877266"><ele>55.5</ele><time>2026-03-27T14:12:39.998Z</time></trkpt><trkpt lat="49.19094997032734" lon="2.4637623687086805"><ele>55.25</ele><time>2026-03-27T14:12:41.998Z</time></trkpt><trkpt lat="49.191056795766" lon="2.4638252157678027"><ele>55.0</ele><time>2026-03-27T14:12:43.998Z</time></trkpt><trkpt lat="49.19116097690231" lon="2.4638943261439374"><ele>55.5</ele><time>2026-03-27T14:12:45.998Z</time></trkpt><trkpt lat="49.19126497368382" lon="2.463964169717379"><ele>56.0</ele><time>2026-03-27T14:12:47.998Z</time></trkpt><trkpt lat="49.19137204876232" lon="2.464029319681159"><ele>56.5</ele><time>2026-03-27T14:12:49.998Z</time></trkpt><trkpt lat="49.19148026607848" lon="2.464094834883883"><ele>57.0</ele><time>2026-03-27T14:12:51.998Z</time></trkpt><trkpt lat="49.19158604248196" lon="2.4641707735293954"><ele>57.0</ele><time>2026-03-27T14:12:53.998Z</time></trkpt><trkpt lat="49.19169792877417" lon="2.4642411407448264"><ele>57.0</ele><time>2026-03-27T14:12:55.998Z</time></trkpt><trkpt lat="49.19181187961594" lon="2.464305890976317"><ele>57.0</ele><time>2026-03-27T14:12:57.998Z</time></trkpt><trkpt lat="49.19192247957536" lon="2.464375896835087"><ele>57.0</ele><time>2026-03-27T14:12:59.997Z</time></trkpt><trkpt lat="49.19203242580639" lon="2.4644521499341177"><ele>57.0</ele><time>2026-03-27T14:13:01.997Z</time></trkpt><trkpt lat="49.192142446871664" lon="2.464524203636343"><ele>57.0</ele><time>2026-03-27T14:13:03.997Z</time></trkpt><trkpt lat="49.19224822395311" lon="2.4645948921110734"><ele>57.0</ele><time>2026-03-27T14:13:05.997Z</time></trkpt><trkpt lat="49.19235832692663" lon="2.4646661985631373"><ele>57.0</ele><time>2026-03-27T14:13:07.997Z</time></trkpt><trkpt lat="49.19246490554109" lon="2.4647320861812547"><ele>56.833333333333336</ele><time>2026-03-27T14:13:09.997Z</time></trkpt><trkpt lat="49.19253654193231" lon="2.4647259752668313"><ele>56.66666666666667</ele><time>2026-03-27T14:13:13.997Z</time></trkpt><trkpt lat="49.19259618372987" lon="2.464763104984038"><ele>56.5</ele><time>2026-03-27T14:13:15.997Z</time></trkpt><trkpt lat="49.192660541785" lon="2.4648071680157617"><ele>56.333333333333336</ele><time>2026-03-27T14:13:17.997Z</time></trkpt><trkpt lat="49.19273307333846" lon="2.4648534665070305"><ele>56.16666666666667</ele><time>2026-03-27T14:13:19.997Z</time></trkpt><trkpt lat="49.192810351226136" lon="2.464897558566041"><ele>56.0</ele><time>2026-03-27T14:13:21.997Z</time></trkpt><trkpt lat="49.1928885913079" lon="2.4649473308674126"><ele>56.00000000000001</ele><time>2026-03-27T14:13:23.997Z</time></trkpt><trkpt lat="49.1929557831519" lon="2.4649891718451107"><ele>56.0</ele><time>2026-03-27T14:13:25.997Z</time></trkpt><trkpt lat="49.19301951300599" lon="2.465031676863757"><ele>56.0</ele><time>2026-03-27T14:13:27.997Z</time></trkpt><trkpt lat="49.193086571458785" lon="2.4651094429516514"><ele>56.0</ele><time>2026-03-27T14:13:29.997Z</time></trkpt><trkpt lat="49.19317507454669" lon="2.4651742374877856"><ele>56.00000000000001</ele><time>2026-03-27T14:13:31.997Z</time></trkpt><trkpt lat="49.19326455616548" lon="2.4652312952863746"><ele>56.0</ele><time>2026-03-27T14:13:33.996Z</time></trkpt><trkpt lat="49.193355213932286" lon="2.465287880316648"><ele>55.75</ele><time>2026-03-27T14:13:36Z</time></trkpt><trkpt lat="49.193458464877146" lon="2.465342342920231"><ele>55.5</ele><time>2026-03-27T14:13:38Z</time></trkpt><trkpt lat="49.19356505881171" lon="2.4654034763958177"><ele>55.25</ele><time>2026-03-27T14:13:40Z</time></trkpt><trkpt lat="49.19367610764645" lon="2.465475123974535"><ele>55.0</ele><time>2026-03-27T14:13:42Z</time></trkpt><trkpt lat="49.19379301670181" lon="2.4655447044657612"><ele>54.99999999999999</ele><time>2026-03-27T14:13:44Z</time></trkpt><trkpt lat="49.19385314874957" lon="2.4655831849906007"><ele>55.0</ele><time>2026-03-27T14:13:45Z</time></trkpt><trkpt lat="49.19391524963496" lon="2.4656210339476456"><ele>55.0</ele><time>2026-03-27T14:13:46Z</time></trkpt><trkpt lat="49.193978034890115" lon="2.465657422424561"><ele>55.0</ele><time>2026-03-27T14:13:47Z</time></trkpt><trkpt lat="49.19404006218847" lon="2.4656919973666884"><ele>55.0</ele><time>2026-03-27T14:13:48Z</time></trkpt><trkpt lat="49.19410071605629" lon="2.4657308142125056"><ele>54.99999999999999</ele><time>2026-03-27T14:13:49Z</time></trkpt><trkpt lat="49.194148806849846" lon="2.4657985611758573"><ele>55.0</ele><time>2026-03-27T14:13:50Z</time></trkpt><trkpt lat="49.194174374686334" lon="2.46588946477566"><ele>54.8</ele><time>2026-03-27T14:13:51Z</time></trkpt><trkpt lat="49.19417437009044" lon="2.465992803520931"><ele>54.6</ele><time>2026-03-27T14:13:52Z</time></trkpt><trkpt lat="49.19417038471084" lon="2.4661737380306845"><ele>54.400000000000006</ele><time>2026-03-27T14:13:54Z</time></trkpt><trkpt lat="49.19419036686207" lon="2.4663475583371532"><ele>54.2</ele><time>2026-03-27T14:13:56Z</time></trkpt><trkpt lat="49.19420171813041" lon="2.4665029065804998"><ele>54.0</ele><time>2026-03-27T14:13:57.999Z</time></trkpt><trkpt lat="49.194193875461565" lon="2.466667832233365"><ele>54.0</ele><time>2026-03-27T14:13:59.999Z</time></trkpt><trkpt lat="49.194193107550774" lon="2.4668274844760436"><ele>54.00000000000001</ele><time>2026-03-27T14:14:01.999Z</time></trkpt><trkpt lat="49.19419669172465" lon="2.4669861696755793"><ele>54.00000000000001</ele><time>2026-03-27T14:14:03.999Z</time></trkpt><trkpt lat="49.19419642954979" lon="2.467143882487741"><ele>54.0</ele><time>2026-03-27T14:14:05.999Z</time></trkpt><trkpt lat="49.19420369812583" lon="2.46730007851801"><ele>54.0</ele><time>2026-03-27T14:14:07.999Z</time></trkpt><trkpt lat="49.19421276109533" lon="2.4674511386884763"><ele>54.6</ele><time>2026-03-27T14:14:09.999Z</time></trkpt><trkpt lat="49.194220685710654" lon="2.4676011459022256"><ele>55.2</ele><time>2026-03-27T14:14:11.999Z</time></trkpt><trkpt lat="49.19422212952215" lon="2.467756659320217"><ele>55.800000000000004</ele><time>2026-03-27T14:14:13.999Z</time></trkpt><trkpt lat="49.194224302163725" lon="2.467906859768016"><ele>56.400000000000006</ele><time>2026-03-27T14:14:15.999Z</time></trkpt><trkpt lat="49.19423257706082" lon="2.4680550980067224"><ele>57.0</ele><time>2026-03-27T14:14:17.999Z</time></trkpt><trkpt lat="49.19424343034135" lon="2.4682073078716584"><ele>57.0</ele><time>2026-03-27T14:14:19.999Z</time></trkpt><trkpt lat="49.19424525997143" lon="2.46836075533718"><ele>57.0</ele><time>2026-03-27T14:14:21.999Z</time></trkpt><trkpt lat="49.19425030477001" lon="2.4685214881271853"><ele>57.0</ele><time>2026-03-27T14:14:23.999Z</time></trkpt><trkpt lat="49.194252558672765" lon="2.4686794600115114"><ele>57.0</ele><time>2026-03-27T14:14:25.999Z</time></trkpt><trkpt lat="49.19425769826651" lon="2.468833115238102"><ele>57.0</ele><time>2026-03-27T14:14:27.999Z</time></trkpt><trkpt lat="49.194267356490755" lon="2.468985630959958"><ele>56.8</ele><time>2026-03-27T14:14:29.998Z</time></trkpt><trkpt lat="49.194267206385724" lon="2.4691443768150196"><ele>56.6</ele><time>2026-03-27T14:14:31.998Z</time></trkpt><trkpt lat="49.19427292189881" lon="2.4693066880084245"><ele>56.39999999999999</ele><time>2026-03-27T14:14:33.998Z</time></trkpt><trkpt lat="49.19427689075501" lon="2.469475709425133"><ele>56.199999999999996</ele><time>2026-03-27T14:14:35.998Z</time></trkpt><trkpt lat="49.194279727004705" lon="2.469644742649229"><ele>56.0</ele><time>2026-03-27T14:14:37.998Z</time></trkpt><trkpt lat="49.19428477136856" lon="2.4698106724609628"><ele>56.0</ele><time>2026-03-27T14:14:39.998Z</time></trkpt><trkpt lat="49.194290733784015" lon="2.469976094948908"><ele>56.0</ele><time>2026-03-27T14:14:41.998Z</time></trkpt><trkpt lat="49.19429588519124" lon="2.4701471846187797"><ele>56.0</ele><time>2026-03-27T14:14:43.998Z</time></trkpt><trkpt lat="49.194303498505455" lon="2.4703216980058134"><ele>56.0</ele><time>2026-03-27T14:14:45.998Z</time></trkpt><trkpt lat="49.19431088556568" lon="2.4704982828048685"><ele>56.0</ele><time>2026-03-27T14:14:47.998Z</time></trkpt><trkpt lat="49.194317508087565" lon="2.470677677926904"><ele>55.99999999999999</ele><time>2026-03-27T14:14:49.998Z</time></trkpt><trkpt lat="49.19431983542577" lon="2.4708631266507637"><ele>55.99999999999999</ele><time>2026-03-27T14:14:51.998Z</time></trkpt><trkpt lat="49.19432917430822" lon="2.471051428526266"><ele>56.0</ele><time>2026-03-27T14:14:53.998Z</time></trkpt><trkpt lat="49.1943329445042" lon="2.471149054263864"><ele>56.0</ele><time>2026-03-27T14:14:54.998Z</time></trkpt><trkpt lat="49.19434312750627" lon="2.4713354557695157"><ele>56.00000000000001</ele><time>2026-03-27T14:14:56.998Z</time></trkpt><trkpt lat="49.19434506679758" lon="2.47143512117523"><ele>56.0</ele><time>2026-03-27T14:14:57.998Z</time></trkpt><trkpt lat="49.19434892277026" lon="2.47153332245246"><ele>56.0</ele><time>2026-03-27T14:14:58.998Z</time></trkpt><trkpt lat="49.1943359842007" lon="2.4716316280547663"><ele>56.0</ele><time>2026-03-27T14:14:59.998Z</time></trkpt><trkpt lat="49.19436002923366" lon="2.471726694111376"><ele>56.00000000000001</ele><time>2026-03-27T14:15:00.998Z</time></trkpt><trkpt lat="49.19436778625578" lon="2.4719100203493714"><ele>56.0</ele><time>2026-03-27T14:15:02.998Z</time></trkpt><trkpt lat="49.19437609643221" lon="2.4720931372936716"><ele>55.8</ele><time>2026-03-27T14:15:04.997Z</time></trkpt><trkpt lat="49.19435638596882" lon="2.4722699761907196"><ele>55.599999999999994</ele><time>2026-03-27T14:15:06.997Z</time></trkpt><trkpt lat="49.19436211701294" lon="2.472434702668761"><ele>55.4</ele><time>2026-03-27T14:15:08.997Z</time></trkpt><trkpt lat="49.19436686058849" lon="2.472584275637546"><ele>55.2</ele><time>2026-03-27T14:15:10.997Z</time></trkpt><trkpt lat="49.19434040329227" lon="2.472714277153949"><ele>55.0</ele><time>2026-03-27T14:15:14.997Z</time></trkpt><trkpt lat="49.194367559514085" lon="2.472807294531714"><ele>54.99999999999999</ele><time>2026-03-27T14:15:16.997Z</time></trkpt><trkpt lat="49.19438022874123" lon="2.4729186147784192"><ele>55.0</ele><time>2026-03-27T14:15:18.997Z</time></trkpt><trkpt lat="49.19438640624803" lon="2.473052839900508"><ele>55.0</ele><time>2026-03-27T14:15:20.997Z</time></trkpt><trkpt lat="49.194395970035465" lon="2.4731878421714124"><ele>55.0</ele><time>2026-03-27T14:15:22.997Z</time></trkpt><trkpt lat="49.19440633013735" lon="2.4733301971922708"><ele>54.99999999999999</ele><time>2026-03-27T14:15:24.997Z</time></trkpt><trkpt lat="49.19441004175586" lon="2.473479706850867"><ele>55.0</ele><time>2026-03-27T14:15:26.997Z</time></trkpt><trkpt lat="49.194415296770394" lon="2.4736284657921375"><ele>55.6</ele><time>2026-03-27T14:15:28.997Z</time></trkpt><trkpt lat="49.19442349663279" lon="2.473785693631699"><ele>56.2</ele><time>2026-03-27T14:15:30.997Z</time></trkpt><trkpt lat="49.19442604591191" lon="2.4739417189001394"><ele>56.8</ele><time>2026-03-27T14:15:32.997Z</time></trkpt><trkpt lat="49.194432806005565" lon="2.4741008030626497"><ele>57.4</ele><time>2026-03-27T14:15:34.997Z</time></trkpt><trkpt lat="49.194438071157734" lon="2.474260799723329"><ele>58.0</ele><time>2026-03-27T14:15:36.997Z</time></trkpt><trkpt lat="49.194447256227626" lon="2.4744212175837967"><ele>58.0</ele><time>2026-03-27T14:15:38.996Z</time></trkpt><trkpt lat="49.194455406959975" lon="2.474583471924023"><ele>58.0</ele><time>2026-03-27T14:15:40.996Z</time></trkpt><trkpt lat="49.19446476160656" lon="2.4747467099674294"><ele>58.0</ele><time>2026-03-27T14:15:43Z</time></trkpt><trkpt lat="49.19446998444386" lon="2.4749115040860574"><ele>58.0</ele><time>2026-03-27T14:15:45Z</time></trkpt><trkpt lat="49.19447723406407" lon="2.4750800708461678"><ele>58.0</ele><time>2026-03-27T14:15:47Z</time></trkpt><trkpt lat="49.19448258427077" lon="2.475247226339929"><ele>57.8</ele><time>2026-03-27T14:15:49Z</time></trkpt><trkpt lat="49.194482079448846" lon="2.475417477168223"><ele>57.599999999999994</ele><time>2026-03-27T14:15:51Z</time></trkpt><trkpt lat="49.194484333583816" lon="2.4755884048570427"><ele>57.400000000000006</ele><time>2026-03-27T14:15:53Z</time></trkpt><trkpt lat="49.194483089081366" lon="2.475751915836328"><ele>57.2</ele><time>2026-03-27T14:15:55Z</time></trkpt><trkpt lat="49.19448471885249" lon="2.4759162974424638"><ele>57.0</ele><time>2026-03-27T14:15:57Z</time></trkpt><trkpt lat="49.19448092986935" lon="2.476079997921243"><ele>56.400000000000006</ele><time>2026-03-27T14:15:59Z</time></trkpt><trkpt lat="49.19447742814867" lon="2.476244765085605"><ele>55.800000000000004</ele><time>2026-03-27T14:16:01Z</time></trkpt><trkpt lat="49.19447234332219" lon="2.47641317828525"><ele>55.2</ele><time>2026-03-27T14:16:03Z</time></trkpt><trkpt lat="49.19447033699329" lon="2.476583398613721"><ele>54.6</ele><time>2026-03-27T14:16:04.999Z</time></trkpt><trkpt lat="49.19447380666873" lon="2.4767521444056073"><ele>54.0</ele><time>2026-03-27T14:16:06.999Z</time></trkpt><trkpt lat="49.19446964569527" lon="2.476909008404815"><ele>53.800000000000004</ele><time>2026-03-27T14:16:08.999Z</time></trkpt><trkpt lat="49.19446974849942" lon="2.4770602431631765"><ele>53.60000000000001</ele><time>2026-03-27T14:16:10.999Z</time></trkpt><trkpt lat="49.19446174373585" lon="2.47719733436618"><ele>53.4</ele><time>2026-03-27T14:16:12.999Z</time></trkpt><trkpt lat="49.194374312117226" lon="2.47725814084387"><ele>53.2</ele><time>2026-03-27T14:16:14.999Z</time></trkpt><trkpt lat="49.19429335830418" lon="2.4773377031480517"><ele>53.0</ele><time>2026-03-27T14:16:17.999Z</time></trkpt><trkpt lat="49.19421480245187" lon="2.4773069540687658"><ele>53.00000000000001</ele><time>2026-03-27T14:16:19.999Z</time></trkpt><trkpt lat="49.19413723735343" lon="2.477292077895581"><ele>53.0</ele><time>2026-03-27T14:16:21.999Z</time></trkpt><trkpt lat="49.19406118666631" lon="2.477280623209833"><ele>53.0</ele><time>2026-03-27T14:16:23.999Z</time></trkpt><trkpt lat="49.193986781138605" lon="2.477267062363857"><ele>53.0</ele><time>2026-03-27T14:16:25.999Z</time></trkpt><trkpt lat="49.19391443632422" lon="2.47724895288036"><ele>53.00000000000001</ele><time>2026-03-27T14:16:27.999Z</time></trkpt><trkpt lat="49.19384197931339" lon="2.4772217358583344"><ele>53.0</ele><time>2026-03-27T14:16:29.999Z</time></trkpt><trkpt lat="49.19376558628358" lon="2.477231938138928"><ele>53.16666666666667</ele><time>2026-03-27T14:16:31.999Z</time></trkpt><trkpt lat="49.19369885425261" lon="2.4773015102915017"><ele>53.333333333333336</ele><time>2026-03-27T14:16:33.999Z</time></trkpt><trkpt lat="49.193618699374085" lon="2.477309506722079"><ele>53.5</ele><time>2026-03-27T14:16:35.999Z</time></trkpt><trkpt lat="49.19353895519295" lon="2.477310718704698"><ele>53.66666666666667</ele><time>2026-03-27T14:16:37.998Z</time></trkpt><trkpt lat="49.19346916904838" lon="2.477372317866616"><ele>53.833333333333336</ele><time>2026-03-27T14:16:39.998Z</time></trkpt><trkpt lat="49.19344327879363" lon="2.4775046628121102"><ele>54.0</ele><time>2026-03-27T14:16:41.998Z</time></trkpt><trkpt lat="49.193417886520066" lon="2.477651196168975"><ele>54.0</ele><time>2026-03-27T14:16:43.998Z</time></trkpt><trkpt lat="49.19340742659219" lon="2.4777973458665925"><ele>54.00000000000001</ele><time>2026-03-27T14:16:45.998Z</time></trkpt><trkpt lat="49.193405188090225" lon="2.4779476409539396"><ele>54.00000000000001</ele><time>2026-03-27T14:16:47.998Z</time></trkpt><trkpt lat="49.19341150142682" lon="2.478085252753477"><ele>54.0</ele><time>2026-03-27T14:16:49.998Z</time></trkpt><trkpt lat="49.193416476719975" lon="2.4782265020571232"><ele>54.0</ele><time>2026-03-27T14:16:51.998Z</time></trkpt><trkpt lat="49.193416972435955" lon="2.4783714793259293"><ele>54.2</ele><time>2026-03-27T14:16:53.998Z</time></trkpt><trkpt lat="49.193419952595725" lon="2.4785131036700965"><ele>54.400000000000006</ele><time>2026-03-27T14:16:55.998Z</time></trkpt><trkpt lat="49.19342311197602" lon="2.4786487273580744"><ele>54.6</ele><time>2026-03-27T14:16:57.998Z</time></trkpt><trkpt lat="49.193431113726625" lon="2.4787885402895173"><ele>54.8</ele><time>2026-03-27T14:16:59.998Z</time></trkpt><trkpt lat="49.19343046566176" lon="2.4789317990142163"><ele>55.0</ele><time>2026-03-27T14:17:01.998Z</time></trkpt><trkpt lat="49.1934358011888" lon="2.4790743666119797"><ele>55.2</ele><time>2026-03-27T14:17:03.998Z</time></trkpt><trkpt lat="49.19343339952459" lon="2.479221403880211"><ele>55.4</ele><time>2026-03-27T14:17:05.998Z</time></trkpt><trkpt lat="49.19343675412201" lon="2.4793670062492454"><ele>55.599999999999994</ele><time>2026-03-27T14:17:07.998Z</time></trkpt><trkpt lat="49.193446668864404" lon="2.4795157047671035"><ele>55.8</ele><time>2026-03-27T14:17:09.998Z</time></trkpt><trkpt lat="49.19346254133924" lon="2.4796653700021984"><ele>56.0</ele><time>2026-03-27T14:17:11.997Z</time></trkpt><trkpt lat="49.193469150247715" lon="2.479808316572993"><ele>55.50000000000001</ele><time>2026-03-27T14:17:13.997Z</time></trkpt><trkpt lat="49.19348741559903" lon="2.4799482839021065"><ele>55.0</ele><time>2026-03-27T14:17:15.997Z</time></trkpt><trkpt lat="49.19349636199093" lon="2.4800856511793774"><ele>54.5</ele><time>2026-03-27T14:17:17.997Z</time></trkpt><trkpt lat="49.19349874915002" lon="2.4802192613826053"><ele>54.0</ele><time>2026-03-27T14:17:19.997Z</time></trkpt><trkpt lat="49.19350183661663" lon="2.480345591773991"><ele>53.50000000000001</ele><time>2026-03-27T14:17:21.997Z</time></trkpt><trkpt lat="49.19352980538535" lon="2.4804464428202526"><ele>53.0</ele><time>2026-03-27T14:17:24.997Z</time></trkpt><trkpt lat="49.19361146075304" lon="2.4804847286259815"><ele>53.0</ele><time>2026-03-27T14:17:28.997Z</time></trkpt><trkpt lat="49.193646521132955" lon="2.4803907210592615"><ele>53.0</ele><time>2026-03-27T14:17:32.997Z</time></trkpt><trkpt lat="49.193585779843055" lon="2.480435336258466"><ele>53.0</ele><time>2026-03-27T14:19:41.997Z</time></trkpt><trkpt lat="49.19363782280994" lon="2.480499923021101"><ele>53.0</ele><time>2026-03-27T14:19:45.996Z</time></trkpt><trkpt lat="49.19368837769814" lon="2.4805599273791086"><ele>53.0</ele><time>2026-03-27T14:20:09Z</time></trkpt><trkpt lat="49.193697656245114" lon="2.480656270382344"><ele>53.0</ele><time>2026-03-27T14:20:11Z</time></trkpt><trkpt lat="49.19368046691019" lon="2.480757663192045"><ele>53.0</ele><time>2026-03-27T14:20:12.999Z</time></trkpt><trkpt lat="49.193655771291446" lon="2.4808794536415673"><ele>52.599999999999994</ele><time>2026-03-27T14:20:14.999Z</time></trkpt><trkpt lat="49.19363637126338" lon="2.481023687983899"><ele>52.199999999999996</ele><time>2026-03-27T14:20:16.999Z</time></trkpt><trkpt lat="49.19360726055386" lon="2.481140926404753"><ele>51.8</ele><time>2026-03-27T14:20:18.999Z</time></trkpt><trkpt lat="49.193694746332426" lon="2.4812869935123048"><ele>51.4</ele><time>2026-03-27T14:20:19.999Z</time></trkpt><trkpt lat="49.193644569996415" lon="2.48141367699166"><ele>51.0</ele><time>2026-03-27T14:20:22.999Z</time></trkpt><trkpt lat="49.193608593838555" lon="2.481504508732422"><ele>50.666666666666664</ele><time>2026-03-27T14:20:24.999Z</time></trkpt><trkpt lat="49.19357024316098" lon="2.4816013355794735"><ele>50.33333333333333</ele><time>2026-03-27T14:20:26.999Z</time></trkpt><trkpt lat="49.19353561980577" lon="2.4816887517338344"><ele>50.0</ele><time>2026-03-27T14:20:28.999Z</time></trkpt><trkpt lat="49.19348506402899" lon="2.4818163934441113"><ele>49.666666666666664</ele><time>2026-03-27T14:20:31.999Z</time></trkpt><trkpt lat="49.193435830445594" lon="2.4819406970500943"><ele>49.33333333333333</ele><time>2026-03-27T14:20:34.999Z</time></trkpt><trkpt lat="49.19340076688945" lon="2.4820292244985356"><ele>49.0</ele><time>2026-03-27T14:20:36.999Z</time></trkpt><trkpt lat="49.19336704767428" lon="2.4821144999024454"><ele>48.49999999999999</ele><time>2026-03-27T14:20:38.999Z</time></trkpt><trkpt lat="49.19332930728021" lon="2.482210466145839"><ele>48.0</ele><time>2026-03-27T14:20:40.999Z</time></trkpt><trkpt lat="49.19329628157577" lon="2.4822944441211154"><ele>47.5</ele><time>2026-03-27T14:20:42.999Z</time></trkpt><trkpt lat="49.193249509015466" lon="2.482413377572815"><ele>47.0</ele><time>2026-03-27T14:20:45.998Z</time></trkpt><trkpt lat="49.19321118068413" lon="2.4825106048245744"><ele>46.5</ele><time>2026-03-27T14:20:47.998Z</time></trkpt><trkpt lat="49.193167728419574" lon="2.482619427259671"><ele>46.0</ele><time>2026-03-27T14:20:49.998Z</time></trkpt><trkpt lat="49.193117600766485" lon="2.4827449672858437"><ele>45.599999999999994</ele><time>2026-03-27T14:20:51.998Z</time></trkpt><trkpt lat="49.193066348467916" lon="2.482873324900155"><ele>45.2</ele><time>2026-03-27T14:20:53.998Z</time></trkpt><trkpt lat="49.19301677743846" lon="2.4830007894822805"><ele>44.8</ele><time>2026-03-27T14:20:55.998Z</time></trkpt><trkpt lat="49.19295937947695" lon="2.48314812295369"><ele>44.400000000000006</ele><time>2026-03-27T14:20:57.998Z</time></trkpt><trkpt lat="49.19290502383518" lon="2.4832875694420586"><ele>44.0</ele><time>2026-03-27T14:20:59.998Z</time></trkpt><trkpt lat="49.192845723819595" lon="2.4834372900635113"><ele>43.75</ele><time>2026-03-27T14:21:01.998Z</time></trkpt><trkpt lat="49.192793551708824" lon="2.483569015169986"><ele>43.5</ele><time>2026-03-27T14:21:03.998Z</time></trkpt><trkpt lat="49.192734533376424" lon="2.483718024918914"><ele>43.25</ele><time>2026-03-27T14:21:05.998Z</time></trkpt><trkpt lat="49.19266380897619" lon="2.4838881421298593"><ele>43.0</ele><time>2026-03-27T14:21:07.998Z</time></trkpt><trkpt lat="49.192456001960494" lon="2.484090676034737"><ele>43.0</ele><time>2026-03-27T14:21:08.998Z</time></trkpt><trkpt lat="49.1923650886208" lon="2.4841490836451823"><ele>43.0</ele><time>2026-03-27T14:21:10.998Z</time></trkpt><trkpt lat="49.192283143604634" lon="2.484199674194239"><ele>43.0</ele><time>2026-03-27T14:21:12.998Z</time></trkpt><trkpt lat="49.19220402038607" lon="2.484249582837035"><ele>43.0</ele><time>2026-03-27T14:21:14.998Z</time></trkpt><trkpt lat="49.192127785377224" lon="2.4843008544001886"><ele>43.0</ele><time>2026-03-27T14:21:16.998Z</time></trkpt><trkpt lat="49.19205375140178" lon="2.4843506457181856"><ele>43.0</ele><time>2026-03-27T14:21:18.997Z</time></trkpt><trkpt lat="49.19196433225507" lon="2.4844067078060363"><ele>43.833333333333336</ele><time>2026-03-27T14:21:20.997Z</time></trkpt><trkpt lat="49.19188935666629" lon="2.4844516532513605"><ele>44.66666666666667</ele><time>2026-03-27T14:21:22.997Z</time></trkpt><trkpt lat="49.19182935173366" lon="2.484492219625965"><ele>45.5</ele><time>2026-03-27T14:21:24.997Z</time></trkpt><trkpt lat="49.19184543673751" lon="2.48433487609712"><ele>46.333333333333336</ele><time>2026-03-27T14:21:39.997Z</time></trkpt><trkpt lat="49.191929198296926" lon="2.484358729632536"><ele>47.166666666666664</ele><time>2026-03-27T14:21:51.998Z</time></trkpt><trkpt lat="49.19188819931422" lon="2.4844444729792383"><ele>48.0</ele><time>2026-03-27T14:21:54.997Z</time></trkpt><trkpt lat="49.191820916907695" lon="2.4845063087904933"><ele>47.99999999999999</ele><time>2026-03-27T14:21:58.001Z</time></trkpt><trkpt lat="49.19176241606352" lon="2.4845719265762383"><ele>48.0</ele><time>2026-03-27T14:22:01.001Z</time></trkpt><trkpt lat="49.191696611638825" lon="2.4846193043244984"><ele>48.0</ele><time>2026-03-27T14:22:04.001Z</time></trkpt><trkpt lat="49.191719685768604" lon="2.484727684686897"><ele>48.0</ele><time>2026-03-27T14:22:08.001Z</time></trkpt><trkpt lat="49.191705723813946" lon="2.484849339255044"><ele>48.0</ele><time>2026-03-27T14:22:12.001Z</time></trkpt><trkpt lat="49.191640593691496" lon="2.4848923096668423"><ele>47.99999999999999</ele><time>2026-03-27T14:22:14.001Z</time></trkpt><trkpt lat="49.191610001122655" lon="2.48499368742278"><ele>48.0</ele><time>2026-03-27T14:22:17.001Z</time></trkpt><trkpt lat="49.19156829029688" lon="2.485068199350269"><ele>47.666666666666664</ele><time>2026-03-27T14:22:21Z</time></trkpt><trkpt lat="49.19163682120401" lon="2.4852028815607645"><ele>47.333333333333336</ele><time>2026-03-27T14:24:19.001Z</time></trkpt><trkpt lat="49.19164938127024" lon="2.485298335563367"><ele>47.0</ele><time>2026-03-27T14:28:20.001Z</time></trkpt><trkpt lat="49.191678099637066" lon="2.4853962932258526"><ele>46.66666666666667</ele><time>2026-03-27T14:29:14.999Z</time></trkpt><trkpt lat="49.19163009730699" lon="2.4854775228121846"><ele>46.333333333333336</ele><time>2026-03-27T14:29:16.999Z</time></trkpt><trkpt lat="49.19156239983034" lon="2.485494556526905"><ele>46.0</ele><time>2026-03-27T14:29:18.999Z</time></trkpt><trkpt lat="49.19150322162629" lon="2.4855878968822362"><ele>46.66666666666667</ele><time>2026-03-27T14:29:21.999Z</time></trkpt><trkpt lat="49.19148110356314" lon="2.4856885737926824"><ele>47.333333333333336</ele><time>2026-03-27T14:29:23.999Z</time></trkpt><trkpt lat="49.191447840486674" lon="2.4858081942585435"><ele>48.0</ele><time>2026-03-27T14:29:25.999Z</time></trkpt><trkpt lat="49.1914149896779" lon="2.485922508186645"><ele>48.66666666666667</ele><time>2026-03-27T14:29:27.999Z</time></trkpt><trkpt lat="49.19134748446826" lon="2.485998680338864"><ele>49.333333333333336</ele><time>2026-03-27T14:29:29.999Z</time></trkpt><trkpt lat="49.19126702817647" lon="2.4860042115218626"><ele>50.0</ele><time>2026-03-27T14:29:31.999Z</time></trkpt><trkpt lat="49.19120798770528" lon="2.4860725339098995"><ele>50.00000000000001</ele><time>2026-03-27T14:29:33.998Z</time></trkpt><trkpt lat="49.19116249595927" lon="2.486165136325692"><ele>50.0</ele><time>2026-03-27T14:29:35.998Z</time></trkpt><trkpt lat="49.191111078132714" lon="2.4862450825316107"><ele>50.0</ele><time>2026-03-27T14:29:37.998Z</time></trkpt><trkpt lat="49.19106270282608" lon="2.4863237951926136"><ele>50.0</ele><time>2026-03-27T14:29:39.998Z</time></trkpt><trkpt lat="49.191015320267475" lon="2.486407300081388"><ele>50.0</ele><time>2026-03-27T14:29:41.998Z</time></trkpt><trkpt lat="49.190962656683084" lon="2.4864888389021553"><ele>50.00000000000001</ele><time>2026-03-27T14:29:43.998Z</time></trkpt><trkpt lat="49.19090863045421" lon="2.4865774429437595"><ele>50.0</ele><time>2026-03-27T14:29:45.998Z</time></trkpt><trkpt lat="49.190852919406815" lon="2.486667975722655"><ele>50.66666666666667</ele><time>2026-03-27T14:29:47.998Z</time></trkpt><trkpt lat="49.190802762003166" lon="2.4867581114628163"><ele>51.333333333333336</ele><time>2026-03-27T14:29:49.998Z</time></trkpt><trkpt lat="49.19074530129367" lon="2.486841895925175"><ele>52.0</ele><time>2026-03-27T14:29:51.998Z</time></trkpt><trkpt lat="49.190688542195076" lon="2.4869244057800524"><ele>52.66666666666667</ele><time>2026-03-27T14:29:53.998Z</time></trkpt><trkpt lat="49.19063381291979" lon="2.4870092895563087"><ele>53.333333333333336</ele><time>2026-03-27T14:29:55.998Z</time></trkpt><trkpt lat="49.19057693118899" lon="2.487096128297058"><ele>54.0</ele><time>2026-03-27T14:29:57.998Z</time></trkpt><trkpt lat="49.19051721159464" lon="2.487182567280687"><ele>54.666666666666664</ele><time>2026-03-27T14:29:59.998Z</time></trkpt><trkpt lat="49.1904549458689" lon="2.4872577924783266"><ele>55.33333333333333</ele><time>2026-03-27T14:30:01.998Z</time></trkpt><trkpt lat="49.19040687141574" lon="2.4873538222129254"><ele>56.0</ele><time>2026-03-27T14:30:04.997Z</time></trkpt><trkpt lat="49.19037566970253" lon="2.4874659670155914"><ele>56.666666666666664</ele><time>2026-03-27T14:30:07.997Z</time></trkpt><trkpt lat="49.19032589323987" lon="2.4875473759251325"><ele>57.33333333333333</ele><time>2026-03-27T14:30:09.997Z</time></trkpt><trkpt lat="49.19028822513206" lon="2.4876500422559937"><ele>58.0</ele><time>2026-03-27T14:30:11.997Z</time></trkpt><trkpt lat="49.19023712519494" lon="2.487759887220773"><ele>57.99999999999999</ele><time>2026-03-27T14:30:13.997Z</time></trkpt><trkpt lat="49.19018660624877" lon="2.4878696958712165"><ele>58.0</ele><time>2026-03-27T14:30:15.997Z</time></trkpt><trkpt lat="49.190141064768206" lon="2.4879857520619697"><ele>58.0</ele><time>2026-03-27T14:30:17.997Z</time></trkpt><trkpt lat="49.190102357500315" lon="2.488093769427727"><ele>58.0</ele><time>2026-03-27T14:30:19.997Z</time></trkpt><trkpt lat="49.19005141276191" lon="2.4882082370966825"><ele>57.99999999999999</ele><time>2026-03-27T14:30:22Z</time></trkpt><trkpt lat="49.190014898949336" lon="2.48833237330963"><ele>58.0</ele><time>2026-03-27T14:30:24Z</time></trkpt><trkpt lat="49.1899713161861" lon="2.488461417533503"><ele>57.599999999999994</ele><time>2026-03-27T14:30:26Z</time></trkpt><trkpt lat="49.18992460366221" lon="2.4886031535343935"><ele>57.199999999999996</ele><time>2026-03-27T14:30:28Z</time></trkpt><trkpt lat="49.18989044801605" lon="2.4886915591784824"><ele>56.8</ele><time>2026-03-27T14:30:29Z</time></trkpt><trkpt lat="49.18985645287378" lon="2.488779404350831"><ele>56.4</ele><time>2026-03-27T14:30:30Z</time></trkpt><trkpt lat="49.189958836787106" lon="2.4890174781526344"><ele>56.0</ele><time>2026-03-27T14:30:31Z</time></trkpt><trkpt lat="49.189914575836596" lon="2.4891167320205336"><ele>55.833333333333336</ele><time>2026-03-27T14:30:32Z</time></trkpt><trkpt lat="49.18987036705335" lon="2.489215991335329"><ele>55.66666666666667</ele><time>2026-03-27T14:30:33Z</time></trkpt><trkpt lat="49.18982292886753" lon="2.4893277751261467"><ele>55.5</ele><time>2026-03-27T14:30:34Z</time></trkpt><trkpt lat="49.18978071235158" lon="2.489429486490796"><ele>55.33333333333333</ele><time>2026-03-27T14:30:35Z</time></trkpt><trkpt lat="49.18973828081198" lon="2.489537062252935"><ele>55.166666666666664</ele><time>2026-03-27T14:30:36Z</time></trkpt><trkpt lat="49.18970371165647" lon="2.4896342345043765"><ele>55.0</ele><time>2026-03-27T14:30:37Z</time></trkpt><trkpt lat="49.18966883437689" lon="2.489736045657472"><ele>54.99999999999999</ele><time>2026-03-27T14:30:38Z</time></trkpt><trkpt lat="49.189626969611766" lon="2.4899019931001067"><ele>55.0</ele><time>2026-03-27T14:30:40Z</time></trkpt><trkpt lat="49.18959573474248" lon="2.4900737717137824"><ele>55.0</ele><time>2026-03-27T14:30:42Z</time></trkpt><trkpt lat="49.18961558705482" lon="2.4901803393374133"><ele>55.0</ele><time>2026-03-27T14:30:46Z</time></trkpt><trkpt lat="49.189620197104354" lon="2.490277855326504"><ele>54.99999999999999</ele><time>2026-03-27T14:30:48Z</time></trkpt><trkpt lat="49.18964453497549" lon="2.490370806265716"><ele>55.0</ele><time>2026-03-27T14:30:55Z</time></trkpt><trkpt lat="49.18966598753369" lon="2.4904770588876386"><ele>55.166666666666664</ele><time>2026-03-27T14:30:58Z</time></trkpt><trkpt lat="49.189702444358694" lon="2.4905927801038237"><ele>55.33333333333333</ele><time>2026-03-27T14:31:03Z</time></trkpt><trkpt lat="49.189734026125876" lon="2.490706731878879"><ele>55.5</ele><time>2026-03-27T14:31:05.999Z</time></trkpt><trkpt lat="49.18976755882014" lon="2.4908270319951002"><ele>55.66666666666667</ele><time>2026-03-27T14:31:08.999Z</time></trkpt><trkpt lat="49.18979369021059" lon="2.490924387978351"><ele>55.833333333333336</ele><time>2026-03-27T14:31:09.999Z</time></trkpt><trkpt lat="49.18982209625214" lon="2.4910672643937883"><ele>56.0</ele><time>2026-03-27T14:31:11.999Z</time></trkpt><trkpt lat="49.18983797961909" lon="2.4912291966104796"><ele>56.285714285714285</ele><time>2026-03-27T14:31:12.999Z</time></trkpt><trkpt lat="49.189846438898805" lon="2.4913297408603827"><ele>56.57142857142857</ele><time>2026-03-27T14:31:14.999Z</time></trkpt><trkpt lat="49.189854863609035" lon="2.491443756979928"><ele>56.85714285714286</ele><time>2026-03-27T14:31:16.999Z</time></trkpt><trkpt lat="49.18986387545016" lon="2.4915665468897523"><ele>57.142857142857146</ele><time>2026-03-27T14:31:19.999Z</time></trkpt><trkpt lat="49.18987336658799" lon="2.4916958673919085"><ele>57.42857142857143</ele><time>2026-03-27T14:31:22.999Z</time></trkpt><trkpt lat="49.189882795891066" lon="2.491814751388019"><ele>57.71428571428572</ele><time>2026-03-27T14:31:25.999Z</time></trkpt><trkpt lat="49.18989117237194" lon="2.491910651553393"><ele>58.00000000000001</ele><time>2026-03-27T14:31:27.999Z</time></trkpt><trkpt lat="49.189899588448476" lon="2.492007005079973"><ele>58.28571428571429</ele><time>2026-03-27T14:31:29.999Z</time></trkpt><trkpt lat="49.18990796788885" lon="2.492102939202787"><ele>58.57142857142857</ele><time>2026-03-27T14:31:31.999Z</time></trkpt><trkpt lat="49.189917315051396" lon="2.492209952423718"><ele>58.85714285714286</ele><time>2026-03-27T14:31:33.999Z</time></trkpt><trkpt lat="49.189925985923736" lon="2.492309223019827"><ele>59.142857142857146</ele><time>2026-03-27T14:31:35.999Z</time></trkpt><trkpt lat="49.18993549769991" lon="2.492418120921484"><ele>59.42857142857143</ele><time>2026-03-27T14:31:37.998Z</time></trkpt><trkpt lat="49.18994514944522" lon="2.4925286212819384"><ele>59.714285714285715</ele><time>2026-03-27T14:31:39.998Z</time></trkpt><trkpt lat="49.18995538168351" lon="2.492645767576015"><ele>60.0</ele><time>2026-03-27T14:31:41.998Z</time></trkpt><trkpt lat="49.18996494229709" lon="2.492755224525258"><ele>60.0</ele><time>2026-03-27T14:31:43.998Z</time></trkpt><trkpt lat="49.18997393824571" lon="2.492858307888069"><ele>60.0</ele><time>2026-03-27T14:31:45.998Z</time></trkpt><trkpt lat="49.18998561525569" lon="2.4929798597856974"><ele>60.0</ele><time>2026-03-27T14:31:47.998Z</time></trkpt><trkpt lat="49.18999681006864" lon="2.4930963916139333"><ele>60.0</ele><time>2026-03-27T14:31:49.998Z</time></trkpt><trkpt lat="49.189420174663745" lon="2.493422411763001"><ele>60.0</ele><time>2026-03-27T14:31:52.998Z</time></trkpt><trkpt lat="49.1894169881561" lon="2.493531223123122"><ele>60.0</ele><time>2026-03-27T14:31:55.998Z</time></trkpt><trkpt lat="49.189453426989445" lon="2.4936301128423564"><ele>60.0</ele><time>2026-03-27T14:31:57.998Z</time></trkpt><trkpt lat="49.1894943284196" lon="2.493731668903409"><ele>60.0</ele><time>2026-03-27T14:31:59.998Z</time></trkpt><trkpt lat="49.18950320243811" lon="2.4938390911352912"><ele>60.0</ele><time>2026-03-27T14:32:01.998Z</time></trkpt><trkpt lat="49.18950742215586" lon="2.493945258542283"><ele>60.0</ele><time>2026-03-27T14:33:26.999Z</time></trkpt><trkpt lat="49.189519598093135" lon="2.49404418120801"><ele>60.0</ele><time>2026-03-27T14:33:29.999Z</time></trkpt><trkpt lat="49.189520924717016" lon="2.4941605516475716"><ele>60.0</ele><time>2026-03-27T14:33:32.999Z</time></trkpt><trkpt lat="49.18952253713127" lon="2.494290578130272"><ele>60.0</ele><time>2026-03-27T14:33:35.999Z</time></trkpt><trkpt lat="49.189514597936565" lon="2.49443234412044"><ele>60.0</ele><time>2026-03-27T14:33:38.999Z</time></trkpt><trkpt lat="49.189504906656815" lon="2.4945285675169795"><ele>60.0</ele><time>2026-03-27T14:33:40.998Z</time></trkpt><trkpt lat="49.18949888285357" lon="2.494628948888836"><ele>60.0</ele><time>2026-03-27T14:33:42.998Z</time></trkpt><trkpt lat="49.1895024435339" lon="2.494727855479573"><ele>60.0</ele><time>2026-03-27T14:33:44.998Z</time></trkpt><trkpt lat="49.18949203946779" lon="2.494867509910623"><ele>60.0</ele><time>2026-03-27T14:33:47.998Z</time></trkpt><trkpt lat="49.18948107812711" lon="2.4949976019569653"><ele>60.0</ele><time>2026-03-27T14:33:50.998Z</time></trkpt><trkpt lat="49.18947452090453" lon="2.495119441316439"><ele>60.0</ele><time>2026-03-27T14:33:53.998Z</time></trkpt><trkpt lat="49.18946063503881" lon="2.495238063585568"><ele>60.0</ele><time>2026-03-27T14:33:56.998Z</time></trkpt><trkpt lat="49.189454027031765" lon="2.495346587082203"><ele>60.0</ele><time>2026-03-27T14:33:59.998Z</time></trkpt><trkpt lat="49.189448934553255" lon="2.4954652799690358"><ele>60.0</ele><time>2026-03-27T14:34:02.998Z</time></trkpt><trkpt lat="49.18943305621655" lon="2.49559705537809"><ele>60.0</ele><time>2026-03-27T14:34:05.998Z</time></trkpt><trkpt lat="49.18942927416186" lon="2.4956956634758196"><ele>60.0</ele><time>2026-03-27T14:34:07.998Z</time></trkpt><trkpt lat="49.18942619506775" lon="2.4958038901721564"><ele>60.0</ele><time>2026-03-27T14:34:09.998Z</time></trkpt><trkpt lat="49.189410663267545" lon="2.4959426576431083"><ele>60.0</ele><time>2026-03-27T14:34:12.997Z</time></trkpt><trkpt lat="49.189406127602474" lon="2.496064862290433"><ele>60.0</ele><time>2026-03-27T14:34:14.997Z</time></trkpt><trkpt lat="49.18940747927317" lon="2.496197242611225"><ele>60.0</ele><time>2026-03-27T14:34:17.997Z</time></trkpt><trkpt lat="49.18939504339133" lon="2.4963331126892174"><ele>60.142857142857146</ele><time>2026-03-27T14:34:20.997Z</time></trkpt><trkpt lat="49.189394683492154" lon="2.496438184865896"><ele>60.28571428571428</ele><time>2026-03-27T14:34:22.997Z</time></trkpt><trkpt lat="49.18938557346301" lon="2.4965364343357144"><ele>60.42857142857142</ele><time>2026-03-27T14:34:24.997Z</time></trkpt><trkpt lat="49.18938418040595" lon="2.496660603549135"><ele>60.57142857142857</ele><time>2026-03-27T14:34:27.997Z</time></trkpt><trkpt lat="49.18937861880391" lon="2.4967630028201615"><ele>60.71428571428571</ele><time>2026-03-27T14:34:30.997Z</time></trkpt><trkpt lat="49.18938334172473" lon="2.4968677310285208"><ele>60.85714285714285</ele><time>2026-03-27T14:34:34Z</time></trkpt><trkpt lat="49.18936954736706" lon="2.496980603705758"><ele>60.99999999999999</ele><time>2026-03-27T14:34:38Z</time></trkpt><trkpt lat="49.18935638153183" lon="2.4971104429120614"><ele>61.666666666666664</ele><time>2026-03-27T14:34:42Z</time></trkpt><trkpt lat="49.18936041497931" lon="2.497240077073388"><ele>62.33333333333333</ele><time>2026-03-27T14:34:45Z</time></trkpt><trkpt lat="49.189344814283004" lon="2.4973505639041713"><ele>63.0</ele><time>2026-03-27T14:34:47Z</time></trkpt><trkpt lat="49.189338593643484" lon="2.497463570484906"><ele>63.66666666666667</ele><time>2026-03-27T14:34:49Z</time></trkpt><trkpt lat="49.189338128011066" lon="2.4975819791667213"><ele>64.33333333333334</ele><time>2026-03-27T14:34:51Z</time></trkpt><trkpt lat="49.18935628735546" lon="2.497695856441535"><ele>65.0</ele><time>2026-03-27T14:34:53Z</time></trkpt><trkpt lat="49.1893857909663" lon="2.497806565717096"><ele>64.5</ele><time>2026-03-27T14:34:55Z</time></trkpt><trkpt lat="49.189409902994676" lon="2.497920550132966"><ele>64.0</ele><time>2026-03-27T14:34:57Z</time></trkpt><trkpt lat="49.18942849367095" lon="2.498037066395013"><ele>63.5</ele><time>2026-03-27T14:34:59Z</time></trkpt><trkpt lat="49.18945805957758" lon="2.4981428670628247"><ele>63.0</ele><time>2026-03-27T14:35:01Z</time></trkpt><trkpt lat="49.18947903684286" lon="2.498247651441636"><ele>62.50000000000001</ele><time>2026-03-27T14:35:03Z</time></trkpt><trkpt lat="49.18949909942186" lon="2.4983521439575505"><ele>62.0</ele><time>2026-03-27T14:35:05Z</time></trkpt><trkpt lat="49.189526261343715" lon="2.498464403513466"><ele>62.00000000000001</ele><time>2026-03-27T14:35:07Z</time></trkpt><trkpt lat="49.18955134054575" lon="2.4985798350241644"><ele>62.0</ele><time>2026-03-27T14:35:09Z</time></trkpt><trkpt lat="49.18957548093299" lon="2.498698380572426"><ele>62.0</ele><time>2026-03-27T14:35:11Z</time></trkpt><trkpt lat="49.18960276272233" lon="2.49881932712325"><ele>62.0</ele><time>2026-03-27T14:35:13Z</time></trkpt><trkpt lat="49.18962886704916" lon="2.4989337043040605"><ele>62.00000000000001</ele><time>2026-03-27T14:35:14.999Z</time></trkpt><trkpt lat="49.189655660770335" lon="2.4990525863365174"><ele>62.0</ele><time>2026-03-27T14:35:16.999Z</time></trkpt><trkpt lat="49.189682719826756" lon="2.499163892408166"><ele>61.833333333333336</ele><time>2026-03-27T14:35:18.999Z</time></trkpt><trkpt lat="49.189708720856096" lon="2.499268659601782"><ele>61.66666666666667</ele><time>2026-03-27T14:35:20.999Z</time></trkpt><trkpt lat="49.189728499438665" lon="2.4993709684473204"><ele>61.5</ele><time>2026-03-27T14:35:22.999Z</time></trkpt><trkpt lat="49.189750574079554" lon="2.499503277254522"><ele>61.33333333333333</ele><time>2026-03-27T14:35:25.999Z</time></trkpt><trkpt lat="49.18977825296802" lon="2.4996265259156014"><ele>61.166666666666664</ele><time>2026-03-27T14:35:28.999Z</time></trkpt><trkpt lat="49.18979290748231" lon="2.4997496755012145"><ele>61.0</ele><time>2026-03-27T14:36:22.997Z</time></trkpt><trkpt lat="49.1898215267101" lon="2.499844637786543"><ele>60.99999999999999</ele><time>2026-03-27T14:36:26.997Z</time></trkpt><trkpt lat="49.18984011225015" lon="2.499963159725993"><ele>61.0</ele><time>2026-03-27T14:36:29.997Z</time></trkpt><trkpt lat="49.18987625575058" lon="2.5000851800090045"><ele>61.0</ele><time>2026-03-27T14:36:32.997Z</time></trkpt><trkpt lat="49.18989959872275" lon="2.500223964605052"><ele>61.0</ele><time>2026-03-27T14:36:35.997Z</time></trkpt><trkpt lat="49.189924163964896" lon="2.500322350972539"><ele>60.99999999999999</ele><time>2026-03-27T14:36:38Z</time></trkpt><trkpt lat="49.18994481402551" lon="2.500424170169214"><ele>61.0</ele><time>2026-03-27T14:36:40Z</time></trkpt><trkpt lat="49.18996914390563" lon="2.5005306234805746"><ele>61.49999999999999</ele><time>2026-03-27T14:36:42Z</time></trkpt><trkpt lat="49.18999231658421" lon="2.5006414393864573"><ele>62.0</ele><time>2026-03-27T14:36:44Z</time></trkpt><trkpt lat="49.19000011653867" lon="2.5007603033432693"><ele>62.5</ele><time>2026-03-27T14:36:46Z</time></trkpt><trkpt lat="49.1900281180582" lon="2.5008721864927215"><ele>63.0</ele><time>2026-03-27T14:36:48Z</time></trkpt><trkpt lat="49.19006701328746" lon="2.5009833803323023"><ele>63.49999999999999</ele><time>2026-03-27T14:36:50Z</time></trkpt><trkpt lat="49.19009842357899" lon="2.5010850957078903"><ele>64.0</ele><time>2026-03-27T14:36:52Z</time></trkpt><trkpt lat="49.190106272468626" lon="2.5011941505943343"><ele>63.99999999999999</ele><time>2026-03-27T14:36:54Z</time></trkpt><trkpt lat="49.19012948772128" lon="2.501301514365866"><ele>64.0</ele><time>2026-03-27T14:36:56Z</time></trkpt><trkpt lat="49.1901555706564" lon="2.501407323944834"><ele>64.0</ele><time>2026-03-27T14:36:58Z</time></trkpt><trkpt lat="49.19018718618989" lon="2.501547476855208"><ele>64.0</ele><time>2026-03-27T14:37:01Z</time></trkpt><trkpt lat="49.19021624974757" lon="2.5016817064196752"><ele>63.99999999999999</ele><time>2026-03-27T14:37:04Z</time></trkpt><trkpt lat="49.19023998506931" lon="2.501783111519584"><ele>64.0</ele><time>2026-03-27T14:37:07Z</time></trkpt><trkpt lat="49.190259964104044" lon="2.501894257590081"><ele>63.99999999999999</ele><time>2026-03-27T14:37:37.999Z</time></trkpt><trkpt lat="49.190295613567336" lon="2.5020287900446836"><ele>64.0</ele><time>2026-03-27T14:37:40.999Z</time></trkpt><trkpt lat="49.190325264373364" lon="2.5021613852600844"><ele>64.0</ele><time>2026-03-27T14:37:43.999Z</time></trkpt><trkpt lat="49.19034919254175" lon="2.502264152894366"><ele>64.0</ele><time>2026-03-27T14:37:45.999Z</time></trkpt><trkpt lat="49.19037122942879" lon="2.5023862840885673"><ele>63.99999999999999</ele><time>2026-03-27T14:37:47.999Z</time></trkpt><trkpt lat="49.19040053050276" lon="2.5025159553975205"><ele>64.0</ele><time>2026-03-27T14:37:49.998Z</time></trkpt><trkpt lat="49.19042709955249" lon="2.502663968464299"><ele>63.6</ele><time>2026-03-27T14:37:51.998Z</time></trkpt><trkpt lat="49.190457720067926" lon="2.502808095775301"><ele>63.2</ele><time>2026-03-27T14:37:53.998Z</time></trkpt><trkpt lat="49.1904853272688" lon="2.5029596400302205"><ele>62.800000000000004</ele><time>2026-03-27T14:37:55.998Z</time></trkpt><trkpt lat="49.190516318157044" lon="2.5031054080582607"><ele>62.400000000000006</ele><time>2026-03-27T14:37:57.998Z</time></trkpt><trkpt lat="49.19054977066633" lon="2.5032634014857855"><ele>62.0</ele><time>2026-03-27T14:37:59.998Z</time></trkpt><trkpt lat="49.190597693699964" lon="2.503402292214334"><ele>61.8</ele><time>2026-03-27T14:38:01.998Z</time></trkpt><trkpt lat="49.19065744781125" lon="2.5035372126819584"><ele>61.6</ele><time>2026-03-27T14:38:03.998Z</time></trkpt><trkpt lat="49.19071297305445" lon="2.5036723796589158"><ele>61.39999999999999</ele><time>2026-03-27T14:38:05.998Z</time></trkpt><trkpt lat="49.190765039490785" lon="2.503806579726929"><ele>61.199999999999996</ele><time>2026-03-27T14:38:07.998Z</time></trkpt><trkpt lat="49.19082277503314" lon="2.5039410428828264"><ele>61.0</ele><time>2026-03-27T14:38:09.998Z</time></trkpt><trkpt lat="49.190867652771345" lon="2.5040346596226466"><ele>60.99999999999999</ele><time>2026-03-27T14:38:11.998Z</time></trkpt><trkpt lat="49.19090989891882" lon="2.5041215369075416"><ele>61.0</ele><time>2026-03-27T14:39:31.999Z</time></trkpt><trkpt lat="49.190955497202765" lon="2.5042282100762376"><ele>61.0</ele><time>2026-03-27T14:39:34.999Z</time></trkpt><trkpt lat="49.19099994302159" lon="2.5043398861135766"><ele>61.0</ele><time>2026-03-27T14:39:37.999Z</time></trkpt><trkpt lat="49.19104075617671" lon="2.5044247708116583"><ele>60.99999999999999</ele><time>2026-03-27T14:39:39.999Z</time></trkpt><trkpt lat="49.191082877954436" lon="2.5045121878280705"><ele>61.0</ele><time>2026-03-27T14:39:41.999Z</time></trkpt><trkpt lat="49.19112649695158" lon="2.504644292001682"><ele>60.99999999999999</ele><time>2026-03-27T14:39:44.999Z</time></trkpt><trkpt lat="49.191169765425585" lon="2.504726344578123"><ele>61.0</ele><time>2026-03-27T14:39:46.999Z</time></trkpt><trkpt lat="49.19120292338253" lon="2.5048295780149306"><ele>61.0</ele><time>2026-03-27T14:39:48.999Z</time></trkpt><trkpt lat="49.191247819255295" lon="2.5049441751493755"><ele>61.0</ele><time>2026-03-27T14:39:50.999Z</time></trkpt><trkpt lat="49.19129002229857" lon="2.5050363212339124"><ele>60.99999999999999</ele><time>2026-03-27T14:39:52.999Z</time></trkpt><trkpt lat="49.191336998408445" lon="2.5051364449992324"><ele>61.0</ele><time>2026-03-27T14:39:54.998Z</time></trkpt><trkpt lat="49.19138729158387" lon="2.505237572028158"><ele>60.99999999999999</ele><time>2026-03-27T14:39:56.998Z</time></trkpt><trkpt lat="49.191428788157666" lon="2.505355068352483"><ele>61.0</ele><time>2026-03-27T14:39:58.998Z</time></trkpt><trkpt lat="49.191485910784685" lon="2.505469608081978"><ele>61.0</ele><time>2026-03-27T14:40:00.998Z</time></trkpt><trkpt lat="49.19151742253353" lon="2.5055747584968735"><ele>61.0</ele><time>2026-03-27T14:40:02.998Z</time></trkpt><trkpt lat="49.19155680448714" lon="2.5056836311774386"><ele>60.99999999999999</ele><time>2026-03-27T14:40:04.998Z</time></trkpt><trkpt lat="49.191615850871734" lon="2.505792209084274"><ele>61.0</ele><time>2026-03-27T14:40:06.998Z</time></trkpt><trkpt lat="49.1916729456949" lon="2.5059073525609348"><ele>60.4</ele><time>2026-03-27T14:40:08.998Z</time></trkpt><trkpt lat="49.19171408082021" lon="2.5060220918793727"><ele>59.8</ele><time>2026-03-27T14:40:10.998Z</time></trkpt><trkpt lat="49.1917636564978" lon="2.5061316329669903"><ele>59.199999999999996</ele><time>2026-03-27T14:40:12.998Z</time></trkpt><trkpt lat="49.191810162713224" lon="2.506255736285672"><ele>58.599999999999994</ele><time>2026-03-27T14:40:14.998Z</time></trkpt><trkpt lat="49.19186178095875" lon="2.5063736710390487"><ele>58.0</ele><time>2026-03-27T14:40:16.998Z</time></trkpt><trkpt lat="49.19191921967888" lon="2.50649325093976"><ele>57.666666666666664</ele><time>2026-03-27T14:40:18.998Z</time></trkpt><trkpt lat="49.191971719159355" lon="2.5066112050587903"><ele>57.33333333333333</ele><time>2026-03-27T14:40:20.998Z</time></trkpt><trkpt lat="49.19202588005149" lon="2.506713005151605"><ele>57.0</ele><time>2026-03-27T14:40:22.998Z</time></trkpt><trkpt lat="49.19208999723228" lon="2.5068094330921955"><ele>56.66666666666667</ele><time>2026-03-27T14:40:24.998Z</time></trkpt><trkpt lat="49.19210226128663" lon="2.506918299230223"><ele>56.333333333333336</ele><time>2026-03-27T14:40:26.997Z</time></trkpt><trkpt lat="49.19206326653452" lon="2.507016353843731"><ele>56.0</ele><time>2026-03-27T14:40:28.997Z</time></trkpt><trkpt lat="49.19205337620794" lon="2.507112999374851"><ele>55.199999999999996</ele><time>2026-03-27T14:40:30.997Z</time></trkpt><trkpt lat="49.19204307752425" lon="2.5072136317180993"><ele>54.39999999999999</ele><time>2026-03-27T14:40:32.997Z</time></trkpt><trkpt lat="49.19203269829373" lon="2.507315050722274"><ele>53.6</ele><time>2026-03-27T14:40:34.997Z</time></trkpt><trkpt lat="49.19223771375183" lon="2.5075049796754425"><ele>52.8</ele><time>2026-03-27T14:40:38.997Z</time></trkpt><trkpt lat="49.19228975459975" lon="2.5075820320081896"><ele>52.0</ele><time>2026-03-27T14:40:40.997Z</time></trkpt><trkpt lat="49.19234700630853" lon="2.507660410821859"><ele>51.49999999999999</ele><time>2026-03-27T14:40:42.997Z</time></trkpt><trkpt lat="49.19239538816419" lon="2.507745460850595"><ele>51.0</ele><time>2026-03-27T14:40:44.997Z</time></trkpt><trkpt lat="49.19245481001537" lon="2.5077994096207297"><ele>50.5</ele><time>2026-03-27T14:40:46.997Z</time></trkpt><trkpt lat="49.19251099911639" lon="2.5078686476403504"><ele>50.0</ele><time>2026-03-27T14:40:49Z</time></trkpt><trkpt lat="49.19256313330649" lon="2.507948890786276"><ele>49.49999999999999</ele><time>2026-03-27T14:40:51Z</time></trkpt><trkpt lat="49.19263812662681" lon="2.508037426626921"><ele>49.0</ele><time>2026-03-27T14:40:54Z</time></trkpt><trkpt lat="49.19270161366447" lon="2.50812255567119"><ele>48.99999999999999</ele><time>2026-03-27T14:40:57Z</time></trkpt><trkpt lat="49.19275977019164" lon="2.508196539857118"><ele>49.0</ele><time>2026-03-27T14:41:00Z</time></trkpt><trkpt lat="49.19281796324193" lon="2.5082409686057314"><ele>49.0</ele><time>2026-03-27T14:41:03Z</time></trkpt><trkpt lat="49.19287479271294" lon="2.508326458798339"><ele>49.0</ele><time>2026-03-27T14:41:06Z</time></trkpt><trkpt lat="49.19294095465379" lon="2.5084098132216064"><ele>48.99999999999999</ele><time>2026-03-27T14:41:09Z</time></trkpt><trkpt lat="49.19300839175119" lon="2.508496019433417"><ele>49.0</ele><time>2026-03-27T14:41:12Z</time></trkpt><trkpt lat="49.19307583466707" lon="2.5085740776022694"><ele>48.99999999999999</ele><time>2026-03-27T14:41:15Z</time></trkpt><trkpt lat="49.193140724493425" lon="2.5086550761211246"><ele>49.0</ele><time>2026-03-27T14:41:18Z</time></trkpt><trkpt lat="49.19320860622298" lon="2.508748642784297"><ele>49.0</ele><time>2026-03-27T14:41:21Z</time></trkpt><trkpt lat="49.193273178028534" lon="2.508822238358593"><ele>49.0</ele><time>2026-03-27T14:41:24Z</time></trkpt><trkpt lat="49.193327970111895" lon="2.5088813787895448"><ele>48.99999999999999</ele><time>2026-03-27T14:41:25.999Z</time></trkpt><trkpt lat="49.193404251142994" lon="2.508957502063795"><ele>49.0</ele><time>2026-03-27T14:41:28.999Z</time></trkpt><trkpt lat="49.19345029787952" lon="2.509026170322268"><ele>49.142857142857146</ele><time>2026-03-27T14:41:30.999Z</time></trkpt><trkpt lat="49.193502910675676" lon="2.5091461294089124"><ele>49.285714285714285</ele><time>2026-03-27T14:41:33.999Z</time></trkpt><trkpt lat="49.193542801102986" lon="2.5092225717398833"><ele>49.42857142857143</ele><time>2026-03-27T14:41:35.999Z</time></trkpt><trkpt lat="49.19358551886722" lon="2.5093025349191933"><ele>49.57142857142857</ele><time>2026-03-27T14:41:37.999Z</time></trkpt><trkpt lat="49.19362776337201" lon="2.509381314956048"><ele>49.714285714285715</ele><time>2026-03-27T14:41:39.999Z</time></trkpt><trkpt lat="49.19366211343419" lon="2.509478534437722"><ele>49.85714285714286</ele><time>2026-03-27T14:41:41.999Z</time></trkpt><trkpt lat="49.19369404111727" lon="2.5095693332435154"><ele>50.0</ele><time>2026-03-27T14:41:43.999Z</time></trkpt><trkpt lat="49.19370937436038" lon="2.509676685112169"><ele>50.142857142857146</ele><time>2026-03-27T14:41:45.999Z</time></trkpt><trkpt lat="49.1937434426797" lon="2.50976696649512"><ele>50.285714285714285</ele><time>2026-03-27T14:41:47.999Z</time></trkpt><trkpt lat="49.193759978085644" lon="2.509876489859673"><ele>50.42857142857143</ele><time>2026-03-27T14:41:49.999Z</time></trkpt><trkpt lat="49.19377494385335" lon="2.509979235702626"><ele>50.57142857142857</ele><time>2026-03-27T14:41:51.999Z</time></trkpt><trkpt lat="49.1937916353146" lon="2.5100860805354848"><ele>50.714285714285715</ele><time>2026-03-27T14:41:53.999Z</time></trkpt><trkpt lat="49.19379706351315" lon="2.5101927097438477"><ele>50.85714285714286</ele><time>2026-03-27T14:41:55.999Z</time></trkpt><trkpt lat="49.19379839750524" lon="2.5103008611258106"><ele>51.0</ele><time>2026-03-27T14:41:57.998Z</time></trkpt><trkpt lat="49.19379144519296" lon="2.510407252008699"><ele>50.85714285714286</ele><time>2026-03-27T14:41:59.998Z</time></trkpt><trkpt lat="49.19379180598558" lon="2.5105232652574205"><ele>50.714285714285715</ele><time>2026-03-27T14:42:01.998Z</time></trkpt><trkpt lat="49.19379932368884" lon="2.510629738050152"><ele>50.57142857142857</ele><time>2026-03-27T14:42:03.998Z</time></trkpt><trkpt lat="49.19379508636257" lon="2.510741927613043"><ele>50.42857142857143</ele><time>2026-03-27T14:42:05.998Z</time></trkpt><trkpt lat="49.19379413373722" lon="2.5108546914236323"><ele>50.285714285714285</ele><time>2026-03-27T14:42:07.998Z</time></trkpt><trkpt lat="49.193793525222205" lon="2.5109667567152902"><ele>50.142857142857146</ele><time>2026-03-27T14:42:09.998Z</time></trkpt><trkpt lat="49.19379472344314" lon="2.5110825802383636"><ele>50.0</ele><time>2026-03-27T14:42:11.998Z</time></trkpt><trkpt lat="49.19379847020674" lon="2.5112003459081156"><ele>50.16666666666667</ele><time>2026-03-27T14:42:13.998Z</time></trkpt><trkpt lat="49.19379958002099" lon="2.511318027844461"><ele>50.333333333333336</ele><time>2026-03-27T14:42:15.998Z</time></trkpt><trkpt lat="49.19380669931354" lon="2.5114328829425028"><ele>50.5</ele><time>2026-03-27T14:42:17.998Z</time></trkpt><trkpt lat="49.19382072867227" lon="2.511544009764035"><ele>50.66666666666667</ele><time>2026-03-27T14:42:19.998Z</time></trkpt><trkpt lat="49.19382394385404" lon="2.5116647678798243"><ele>50.833333333333336</ele><time>2026-03-27T14:42:21.998Z</time></trkpt><trkpt lat="49.19382779058598" lon="2.5117824824588877"><ele>51.0</ele><time>2026-03-27T14:42:23.998Z</time></trkpt><trkpt lat="49.193829609456664" lon="2.5118990052913603"><ele>51.0</ele><time>2026-03-27T14:42:25.998Z</time></trkpt><trkpt lat="49.193832158156674" lon="2.5120220169586025"><ele>51.0</ele><time>2026-03-27T14:42:27.998Z</time></trkpt><trkpt lat="49.1938347218846" lon="2.5121402123881187"><ele>51.0</ele><time>2026-03-27T14:42:29.997Z</time></trkpt><trkpt lat="49.193831471411386" lon="2.5122640833929557"><ele>51.0</ele><time>2026-03-27T14:42:31.997Z</time></trkpt><trkpt lat="49.19383750842577" lon="2.512379550206685"><ele>51.0</ele><time>2026-03-27T14:42:33.997Z</time></trkpt><trkpt lat="49.19384106402861" lon="2.512503299806262"><ele>51.0</ele><time>2026-03-27T14:42:35.997Z</time></trkpt><trkpt lat="49.19383885279318" lon="2.512626816302917"><ele>51.0</ele><time>2026-03-27T14:42:37.997Z</time></trkpt><trkpt lat="49.19384340826035" lon="2.512737321594726"><ele>51.0</ele><time>2026-03-27T14:42:39.997Z</time></trkpt><trkpt lat="49.19384309515537" lon="2.512835048739666"><ele>51.0</ele><time>2026-03-27T14:42:41.997Z</time></trkpt><trkpt lat="49.19383730261097" lon="2.512943762417382"><ele>51.0</ele><time>2026-03-27T14:42:45.997Z</time></trkpt><trkpt lat="49.19395500555068" lon="2.512955943737239"><ele>51.0</ele><time>2026-03-27T14:42:49.997Z</time></trkpt><trkpt lat="49.19404016979872" lon="2.513025560386846"><ele>51.0</ele><time>2026-03-27T14:42:52.997Z</time></trkpt><trkpt lat="49.19411438314265" lon="2.51308406884975"><ele>50.833333333333336</ele><time>2026-03-27T14:42:56Z</time></trkpt><trkpt lat="49.194202174925586" lon="2.513149016494096"><ele>50.66666666666667</ele><time>2026-03-27T14:42:59Z</time></trkpt><trkpt lat="49.194192477783886" lon="2.513301153316282"><ele>50.5</ele><time>2026-03-27T14:43:01Z</time></trkpt><trkpt lat="49.19419865967469" lon="2.5134051656034333"><ele>50.333333333333336</ele><time>2026-03-27T14:43:03Z</time></trkpt><trkpt lat="49.1941935504803" lon="2.513526084696182"><ele>50.16666666666667</ele><time>2026-03-27T14:43:05Z</time></trkpt><trkpt lat="49.19418382506235" lon="2.513658159608637"><ele>50.0</ele><time>2026-03-27T14:43:07Z</time></trkpt><trkpt lat="49.194175676657515" lon="2.5137939566113947"><ele>49.8</ele><time>2026-03-27T14:43:09Z</time></trkpt><trkpt lat="49.19416703234405" lon="2.513930433003711"><ele>49.6</ele><time>2026-03-27T14:43:11Z</time></trkpt><trkpt lat="49.19414604266809" lon="2.51408441492175"><ele>49.400000000000006</ele><time>2026-03-27T14:43:13Z</time></trkpt><trkpt lat="49.1941166125402" lon="2.514239300720025"><ele>49.2</ele><time>2026-03-27T14:43:15Z</time></trkpt><trkpt lat="49.19409645631308" lon="2.5143930308377636"><ele>49.0</ele><time>2026-03-27T14:43:17Z</time></trkpt><trkpt lat="49.19407278993037" lon="2.514552932608321"><ele>49.0</ele><time>2026-03-27T14:43:19Z</time></trkpt><trkpt lat="49.1940406407239" lon="2.5147111682097454"><ele>49.0</ele><time>2026-03-27T14:43:21Z</time></trkpt><trkpt lat="49.19400606237888" lon="2.514873344701319"><ele>49.0</ele><time>2026-03-27T14:43:23Z</time></trkpt><trkpt lat="49.19394612182159" lon="2.515023038784872"><ele>49.0</ele><time>2026-03-27T14:43:25Z</time></trkpt><trkpt lat="49.19383675584584" lon="2.5150578777667905"><ele>49.0</ele><time>2026-03-27T14:43:27Z</time></trkpt><trkpt lat="49.193738376332746" lon="2.5150748712709707"><ele>49.166666666666664</ele><time>2026-03-27T14:43:29Z</time></trkpt><trkpt lat="49.19366506106707" lon="2.5151389127980894"><ele>49.33333333333333</ele><time>2026-03-27T14:43:30.999Z</time></trkpt><trkpt lat="49.19361094246954" lon="2.515225305324764"><ele>49.5</ele><time>2026-03-27T14:43:32.999Z</time></trkpt><trkpt lat="49.1935726215091" lon="2.5153271922526748"><ele>49.66666666666667</ele><time>2026-03-27T14:43:34.999Z</time></trkpt><trkpt lat="49.19355134525486" lon="2.515442149903778"><ele>49.833333333333336</ele><time>2026-03-27T14:43:36.999Z</time></trkpt><trkpt lat="49.19352627004049" lon="2.5155472406244113"><ele>50.0</ele><time>2026-03-27T14:43:38.999Z</time></trkpt><trkpt lat="49.193500424387366" lon="2.5156666556370006"><ele>49.66666666666667</ele><time>2026-03-27T14:43:40.999Z</time></trkpt><trkpt lat="49.19346706339245" lon="2.5157779072873767"><ele>49.333333333333336</ele><time>2026-03-27T14:43:42.999Z</time></trkpt><trkpt lat="49.19342937336824" lon="2.515887758268157"><ele>49.0</ele><time>2026-03-27T14:43:44.999Z</time></trkpt><trkpt lat="49.19339214686669" lon="2.5160044015351506"><ele>48.66666666666667</ele><time>2026-03-27T14:43:46.999Z</time></trkpt><trkpt lat="49.193360703501234" lon="2.516121014068784"><ele>48.333333333333336</ele><time>2026-03-27T14:43:48.999Z</time></trkpt><trkpt lat="49.19332245113398" lon="2.5162441882441704"><ele>48.0</ele><time>2026-03-27T14:43:50.999Z</time></trkpt><trkpt lat="49.193286262269396" lon="2.516359457784536"><ele>48.0</ele><time>2026-03-27T14:43:52.999Z</time></trkpt><trkpt lat="49.19325106907246" lon="2.516480057915595"><ele>48.0</ele><time>2026-03-27T14:43:54.999Z</time></trkpt><trkpt lat="49.19321085059244" lon="2.5165950639619528"><ele>48.0</ele><time>2026-03-27T14:43:56.999Z</time></trkpt><trkpt lat="49.19317705916056" lon="2.5167120740235385"><ele>48.0</ele><time>2026-03-27T14:43:58.999Z</time></trkpt><trkpt lat="49.193125227625075" lon="2.5168182718109273"><ele>48.0</ele><time>2026-03-27T14:44:00.999Z</time></trkpt><trkpt lat="49.193086789702576" lon="2.51693389791444"><ele>48.0</ele><time>2026-03-27T14:44:02.999Z</time></trkpt><trkpt lat="49.19306102141095" lon="2.517059091303487"><ele>48.333333333333336</ele><time>2026-03-27T14:44:04.998Z</time></trkpt><trkpt lat="49.19302276297832" lon="2.5171790387227815"><ele>48.66666666666667</ele><time>2026-03-27T14:44:06.998Z</time></trkpt><trkpt lat="49.1929906440383" lon="2.5173005970992692"><ele>49.0</ele><time>2026-03-27T14:44:08.998Z</time></trkpt><trkpt lat="49.19296213287019" lon="2.51742636966762"><ele>49.333333333333336</ele><time>2026-03-27T14:44:10.998Z</time></trkpt><trkpt lat="49.19293634352036" lon="2.517551349277414"><ele>49.66666666666667</ele><time>2026-03-27T14:44:12.998Z</time></trkpt><trkpt lat="49.19290944363355" lon="2.5176744905807626"><ele>50.0</ele><time>2026-03-27T14:44:14.998Z</time></trkpt><trkpt lat="49.19288387493159" lon="2.5177953267239643"><ele>49.833333333333336</ele><time>2026-03-27T14:44:16.998Z</time></trkpt><trkpt lat="49.1928590358321" lon="2.517920309209852"><ele>49.66666666666667</ele><time>2026-03-27T14:44:18.998Z</time></trkpt><trkpt lat="49.19283315179689" lon="2.518038404256047"><ele>49.5</ele><time>2026-03-27T14:44:20.998Z</time></trkpt><trkpt lat="49.19282022048313" lon="2.5181735294399874"><ele>49.33333333333333</ele><time>2026-03-27T14:44:22.998Z</time></trkpt><trkpt lat="49.19278476370362" lon="2.5182913433942957"><ele>49.166666666666664</ele><time>2026-03-27T14:44:24.998Z</time></trkpt><trkpt lat="49.1927782350623" lon="2.5184238136673587"><ele>49.0</ele><time>2026-03-27T14:44:26.998Z</time></trkpt><trkpt lat="49.19275412742886" lon="2.518545886580795"><ele>48.99999999999999</ele><time>2026-03-27T14:44:28.998Z</time></trkpt><trkpt lat="49.19273071176094" lon="2.5186704002732467"><ele>49.0</ele><time>2026-03-27T14:44:30.998Z</time></trkpt><trkpt lat="49.19270621119849" lon="2.5187976863906787"><ele>49.0</ele><time>2026-03-27T14:44:32.998Z</time></trkpt><trkpt lat="49.19268476678853" lon="2.5189210156866344"><ele>49.0</ele><time>2026-03-27T14:44:34.998Z</time></trkpt><trkpt lat="49.19265903290931" lon="2.5190488371531603"><ele>48.99999999999999</ele><time>2026-03-27T14:44:36.997Z</time></trkpt><trkpt lat="49.192639834751496" lon="2.5191787197135382"><ele>49.0</ele><time>2026-03-27T14:44:38.997Z</time></trkpt><trkpt lat="49.19261498067102" lon="2.5193080115801765"><ele>49.0</ele><time>2026-03-27T14:44:40.997Z</time></trkpt><trkpt lat="49.19259078970778" lon="2.519441880861221"><ele>49.0</ele><time>2026-03-27T14:44:42.997Z</time></trkpt><trkpt lat="49.192564594173035" lon="2.5195787113555963"><ele>49.0</ele><time>2026-03-27T14:44:44.997Z</time></trkpt><trkpt lat="49.192520706831424" lon="2.519710151369837"><ele>49.0</ele><time>2026-03-27T14:44:46.997Z</time></trkpt><trkpt lat="49.192490639667724" lon="2.519856394337162"><ele>49.0</ele><time>2026-03-27T14:44:48.997Z</time></trkpt><trkpt lat="49.1924793106483" lon="2.520005250300963"><ele>48.800000000000004</ele><time>2026-03-27T14:44:50.997Z</time></trkpt><trkpt lat="49.19245617408858" lon="2.5201509140579166"><ele>48.6</ele><time>2026-03-27T14:44:52.997Z</time></trkpt><trkpt lat="49.19244061983449" lon="2.52029630793401"><ele>48.4</ele><time>2026-03-27T14:44:54.997Z</time></trkpt><trkpt lat="49.192426176919156" lon="2.520441447900987"><ele>48.2</ele><time>2026-03-27T14:44:56.997Z</time></trkpt><trkpt lat="49.19241177444042" lon="2.5205818814437277"><ele>48.0</ele><time>2026-03-27T14:44:58.997Z</time></trkpt><trkpt lat="49.19239111937697" lon="2.520723074151302"><ele>48.0</ele><time>2026-03-27T14:45:01Z</time></trkpt><trkpt lat="49.1923793177194" lon="2.5208665573993403"><ele>48.0</ele><time>2026-03-27T14:45:03Z</time></trkpt><trkpt lat="49.19236556791305" lon="2.5210148825693404"><ele>48.0</ele><time>2026-03-27T14:45:05Z</time></trkpt><trkpt lat="49.1923545899241" lon="2.521155096544042"><ele>48.0</ele><time>2026-03-27T14:45:07Z</time></trkpt><trkpt lat="49.192321515155164" lon="2.5213059066827608"><ele>48.0</ele><time>2026-03-27T14:45:09Z</time></trkpt><trkpt lat="49.192304772548425" lon="2.5214647387448292"><ele>48.0</ele><time>2026-03-27T14:45:11Z</time></trkpt><trkpt lat="49.192304794789436" lon="2.521626926950843"><ele>48.0</ele><time>2026-03-27T14:45:13Z</time></trkpt><trkpt lat="49.19228939474033" lon="2.521788254507444"><ele>48.0</ele><time>2026-03-27T14:45:15Z</time></trkpt><trkpt lat="49.19227900931501" lon="2.5219516169495546"><ele>48.0</ele><time>2026-03-27T14:45:17Z</time></trkpt><trkpt lat="49.192272036467585" lon="2.5221084998930396"><ele>48.0</ele><time>2026-03-27T14:45:19Z</time></trkpt><trkpt lat="49.19228018429174" lon="2.5222683437538205"><ele>48.2</ele><time>2026-03-27T14:45:21Z</time></trkpt><trkpt lat="49.19228863478443" lon="2.522431625205759"><ele>48.4</ele><time>2026-03-27T14:45:23Z</time></trkpt><trkpt lat="49.192301814837144" lon="2.5225862129163126"><ele>48.6</ele><time>2026-03-27T14:45:25Z</time></trkpt><trkpt lat="49.19232323100632" lon="2.522736370703526"><ele>48.800000000000004</ele><time>2026-03-27T14:45:27Z</time></trkpt><trkpt lat="49.19234048043339" lon="2.5228832418082154"><ele>49.0</ele><time>2026-03-27T14:45:29Z</time></trkpt><trkpt lat="49.192358372311965" lon="2.5230187678331424"><ele>48.49999999999999</ele><time>2026-03-27T14:45:31Z</time></trkpt><trkpt lat="49.192373705628846" lon="2.523142759551213"><ele>48.0</ele><time>2026-03-27T14:45:33Z</time></trkpt><trkpt lat="49.192389038402276" lon="2.5232695968574803"><ele>47.5</ele><time>2026-03-27T14:45:34.999Z</time></trkpt><trkpt lat="49.19240401768314" lon="2.5233834961430786"><ele>47.0</ele><time>2026-03-27T14:45:36.999Z</time></trkpt><trkpt lat="49.1924202194057" lon="2.5235014030804903"><ele>46.5</ele><time>2026-03-27T14:45:38.999Z</time></trkpt><trkpt lat="49.19243117379723" lon="2.523629710101503"><ele>46.0</ele><time>2026-03-27T14:45:40.999Z</time></trkpt><trkpt lat="49.19244531080265" lon="2.5237601785190824"><ele>46.0</ele><time>2026-03-27T14:45:42.999Z</time></trkpt><trkpt lat="49.19246015208098" lon="2.523899686738941"><ele>46.0</ele><time>2026-03-27T14:45:44.999Z</time></trkpt><trkpt lat="49.19247921650845" lon="2.5240405199112153"><ele>46.0</ele><time>2026-03-27T14:45:46.999Z</time></trkpt><trkpt lat="49.19250008426072" lon="2.5241794466039233"><ele>46.0</ele><time>2026-03-27T14:45:48.999Z</time></trkpt><trkpt lat="49.19251056544333" lon="2.5243325636105234"><ele>46.0</ele><time>2026-03-27T14:45:50.999Z</time></trkpt><trkpt lat="49.19254892014088" lon="2.5244931988484742"><ele>46.16666666666667</ele><time>2026-03-27T14:45:52.999Z</time></trkpt><trkpt lat="49.19255576450332" lon="2.524665761119466"><ele>46.333333333333336</ele><time>2026-03-27T14:45:54.999Z</time></trkpt><trkpt lat="49.192567731295895" lon="2.524763763558873"><ele>46.5</ele><time>2026-03-27T14:45:55.999Z</time></trkpt><trkpt lat="49.19258572034255" lon="2.5248609833594657"><ele>46.666666666666664</ele><time>2026-03-27T14:45:57.999Z</time></trkpt><trkpt lat="49.19260256233389" lon="2.5250117832265437"><ele>46.83333333333333</ele><time>2026-03-27T14:45:59.999Z</time></trkpt><trkpt lat="49.192622480514835" lon="2.525164994616616"><ele>47.0</ele><time>2026-03-27T14:46:01.999Z</time></trkpt><trkpt lat="49.19264022935216" lon="2.5253088168287694"><ele>47.33333333333333</ele><time>2026-03-27T14:46:03.999Z</time></trkpt><trkpt lat="49.192655925408836" lon="2.525450278244387"><ele>47.666666666666664</ele><time>2026-03-27T14:46:05.999Z</time></trkpt><trkpt lat="49.192674744922684" lon="2.5255803534062817"><ele>48.0</ele><time>2026-03-27T14:46:07.998Z</time></trkpt><trkpt lat="49.19268186260898" lon="2.525716139248561"><ele>48.33333333333333</ele><time>2026-03-27T14:46:09.998Z</time></trkpt><trkpt lat="49.1927044085067" lon="2.5258383044443358"><ele>48.666666666666664</ele><time>2026-03-27T14:46:11.998Z</time></trkpt><trkpt lat="49.1927183968971" lon="2.5259682794148293"><ele>49.0</ele><time>2026-03-27T14:46:13.998Z</time></trkpt><trkpt lat="49.19273340370886" lon="2.5260944559174305"><ele>48.99999999999999</ele><time>2026-03-27T14:46:15.998Z</time></trkpt><trkpt lat="49.192753141736326" lon="2.5262183723772704"><ele>49.0</ele><time>2026-03-27T14:46:17.998Z</time></trkpt><trkpt lat="49.192771489647654" lon="2.526345161158299"><ele>49.0</ele><time>2026-03-27T14:46:19.998Z</time></trkpt><trkpt lat="49.19278212973331" lon="2.5264703140098708"><ele>49.0</ele><time>2026-03-27T14:46:21.998Z</time></trkpt><trkpt lat="49.192788601779654" lon="2.5265968463092685"><ele>48.99999999999999</ele><time>2026-03-27T14:46:23.998Z</time></trkpt><trkpt lat="49.19281225862732" lon="2.5267185867121866"><ele>49.0</ele><time>2026-03-27T14:46:25.998Z</time></trkpt><trkpt lat="49.19282424903408" lon="2.5268432634064557"><ele>49.33333333333333</ele><time>2026-03-27T14:46:27.998Z</time></trkpt><trkpt lat="49.19283469820428" lon="2.5269658927044203"><ele>49.666666666666664</ele><time>2026-03-27T14:46:29.998Z</time></trkpt><trkpt lat="49.19285265289546" lon="2.5270896509833394"><ele>50.0</ele><time>2026-03-27T14:46:31.998Z</time></trkpt><trkpt lat="49.19286683716459" lon="2.527215622112059"><ele>50.33333333333333</ele><time>2026-03-27T14:46:33.998Z</time></trkpt><trkpt lat="49.19288087499001" lon="2.527349876037154"><ele>50.666666666666664</ele><time>2026-03-27T14:46:35.998Z</time></trkpt><trkpt lat="49.192897548811956" lon="2.527487065826168"><ele>51.0</ele><time>2026-03-27T14:46:37.998Z</time></trkpt><trkpt lat="49.19290967269227" lon="2.527628212358507"><ele>51.199999999999996</ele><time>2026-03-27T14:46:39.997Z</time></trkpt><trkpt lat="49.192926247750165" lon="2.527768349743602"><ele>51.4</ele><time>2026-03-27T14:46:41.997Z</time></trkpt><trkpt lat="49.192943710734916" lon="2.5279102466894665"><ele>51.6</ele><time>2026-03-27T14:46:43.997Z</time></trkpt><trkpt lat="49.19295850621459" lon="2.5280522762483755"><ele>51.8</ele><time>2026-03-27T14:46:45.997Z</time></trkpt><trkpt lat="49.19297334066709" lon="2.528191076486235"><ele>52.0</ele><time>2026-03-27T14:46:47.997Z</time></trkpt><trkpt lat="49.192990788946126" lon="2.5283318263417387"><ele>52.0</ele><time>2026-03-27T14:46:49.997Z</time></trkpt><trkpt lat="49.19301115779177" lon="2.528473372159941"><ele>52.0</ele><time>2026-03-27T14:46:51.997Z</time></trkpt><trkpt lat="49.19302726460149" lon="2.528617484183667"><ele>52.0</ele><time>2026-03-27T14:46:53.997Z</time></trkpt><trkpt lat="49.193048541904936" lon="2.528756068997428"><ele>52.0</ele><time>2026-03-27T14:46:55.997Z</time></trkpt><trkpt lat="49.193064244733236" lon="2.5288985626247267"><ele>52.0</ele><time>2026-03-27T14:46:57.997Z</time></trkpt><trkpt lat="49.1930844732011" lon="2.5290383572501214"><ele>52.0</ele><time>2026-03-27T14:46:59.997Z</time></trkpt><trkpt lat="49.19310462276564" lon="2.529177383129517"><ele>52.0</ele><time>2026-03-27T14:47:01.997Z</time></trkpt><trkpt lat="49.19312678208866" lon="2.5293119486973774"><ele>52.0</ele><time>2026-03-27T14:47:03.997Z</time></trkpt><trkpt lat="49.1931542534228" lon="2.5294479533133107"><ele>52.0</ele><time>2026-03-27T14:47:06Z</time></trkpt><trkpt lat="49.19317825014619" lon="2.529582131323683"><ele>52.0</ele><time>2026-03-27T14:47:08Z</time></trkpt><trkpt lat="49.193203941901224" lon="2.529711532857623"><ele>51.99999999999999</ele><time>2026-03-27T14:47:10Z</time></trkpt><trkpt lat="49.19323031247598" lon="2.529836847829161"><ele>52.0</ele><time>2026-03-27T14:47:12Z</time></trkpt><trkpt lat="49.193254977268765" lon="2.529957688199092"><ele>52.0</ele><time>2026-03-27T14:47:14Z</time></trkpt><trkpt lat="49.193279907781054" lon="2.5300780920985453"><ele>52.0</ele><time>2026-03-27T14:47:16Z</time></trkpt><trkpt lat="49.19330566031586" lon="2.5301990678364663"><ele>51.99999999999999</ele><time>2026-03-27T14:47:18Z</time></trkpt><trkpt lat="49.19333218767869" lon="2.530323641923926"><ele>52.0</ele><time>2026-03-27T14:47:20Z</time></trkpt><trkpt lat="49.193360287643266" lon="2.530448814660539"><ele>51.99999999999999</ele><time>2026-03-27T14:47:22Z</time></trkpt><trkpt lat="49.193386866895295" lon="2.5305747762533684"><ele>52.0</ele><time>2026-03-27T14:47:24Z</time></trkpt><trkpt lat="49.19341281998422" lon="2.5306975671691907"><ele>52.0</ele><time>2026-03-27T14:47:26Z</time></trkpt><trkpt lat="49.1934407009468" lon="2.530821989514325"><ele>52.0</ele><time>2026-03-27T14:47:28Z</time></trkpt><trkpt lat="49.19346653056212" lon="2.530941833936447"><ele>51.99999999999999</ele><time>2026-03-27T14:47:30Z</time></trkpt><trkpt lat="49.193493992771394" lon="2.531063695157017"><ele>52.0</ele><time>2026-03-27T14:47:32Z</time></trkpt><trkpt lat="49.19352270234784" lon="2.5311881508110465"><ele>52.400000000000006</ele><time>2026-03-27T14:47:34Z</time></trkpt><trkpt lat="49.193553541357126" lon="2.5313146398535666"><ele>52.800000000000004</ele><time>2026-03-27T14:47:36Z</time></trkpt><trkpt lat="49.193585164695946" lon="2.5314413792130526"><ele>53.2</ele><time>2026-03-27T14:47:37.999Z</time></trkpt><trkpt lat="49.19361885789065" lon="2.5315717341937205"><ele>53.6</ele><time>2026-03-27T14:47:39.999Z</time></trkpt><trkpt lat="49.19365843129613" lon="2.5316917606791707"><ele>54.0</ele><time>2026-03-27T14:47:41.999Z</time></trkpt><trkpt lat="49.19369963232879" lon="2.5318267780232486"><ele>54.0</ele><time>2026-03-27T14:47:43.999Z</time></trkpt><trkpt lat="49.19374058739997" lon="2.531955472088503"><ele>54.00000000000001</ele><time>2026-03-27T14:47:45.999Z</time></trkpt><trkpt lat="49.19379715030201" lon="2.5320808465551154"><ele>54.00000000000001</ele><time>2026-03-27T14:47:47.999Z</time></trkpt><trkpt lat="49.19384633088508" lon="2.532215955005788"><ele>54.0</ele><time>2026-03-27T14:47:49.999Z</time></trkpt><trkpt lat="49.19390151943544" lon="2.532358632361125"><ele>54.0</ele><time>2026-03-27T14:47:51.999Z</time></trkpt><trkpt lat="49.19395100635582" lon="2.532491361902021"><ele>53.800000000000004</ele><time>2026-03-27T14:47:53.999Z</time></trkpt><trkpt lat="49.19400672892321" lon="2.532628572945939"><ele>53.60000000000001</ele><time>2026-03-27T14:47:55.999Z</time></trkpt><trkpt lat="49.19404883736559" lon="2.5327747256860595"><ele>53.4</ele><time>2026-03-27T14:47:57.999Z</time></trkpt><trkpt lat="49.194089489132" lon="2.532926317783251"><ele>53.2</ele><time>2026-03-27T14:47:59.999Z</time></trkpt><trkpt lat="49.19415276616942" lon="2.533051190601633"><ele>53.0</ele><time>2026-03-27T14:48:01.999Z</time></trkpt><trkpt lat="49.19419972111992" lon="2.5332228057424158"><ele>53.0</ele><time>2026-03-27T14:48:03.999Z</time></trkpt><trkpt lat="49.194228970173505" lon="2.5334004123829206"><ele>53.0</ele><time>2026-03-27T14:48:05.999Z</time></trkpt><trkpt lat="49.19424524740143" lon="2.533573409312921"><ele>53.0</ele><time>2026-03-27T14:48:07.999Z</time></trkpt><trkpt lat="49.19423890737468" lon="2.5337509648819787"><ele>53.0</ele><time>2026-03-27T14:48:09.998Z</time></trkpt><trkpt lat="49.1942427495984" lon="2.533911138715815"><ele>53.0</ele><time>2026-03-27T14:48:11.998Z</time></trkpt><trkpt lat="49.19423708542492" lon="2.5340682940389003"><ele>53.0</ele><time>2026-03-27T14:48:13.998Z</time></trkpt><trkpt lat="49.19422864545402" lon="2.534226225115319"><ele>53.0</ele><time>2026-03-27T14:48:15.998Z</time></trkpt><trkpt lat="49.19421588021511" lon="2.5343803756244188"><ele>53.0</ele><time>2026-03-27T14:48:17.998Z</time></trkpt><trkpt lat="49.19421252693028" lon="2.534532778065772"><ele>53.0</ele><time>2026-03-27T14:48:19.998Z</time></trkpt><trkpt lat="49.19420528394448" lon="2.534687246023119"><ele>53.4</ele><time>2026-03-27T14:48:21.998Z</time></trkpt><trkpt lat="49.19419075933732" lon="2.534832125978797"><ele>53.8</ele><time>2026-03-27T14:48:23.998Z</time></trkpt><trkpt lat="49.1941863804599" lon="2.5349790569969213"><ele>54.2</ele><time>2026-03-27T14:48:25.998Z</time></trkpt><trkpt lat="49.19417177505785" lon="2.5351267593163658"><ele>54.6</ele><time>2026-03-27T14:48:27.998Z</time></trkpt><trkpt lat="49.194166611174516" lon="2.5352677700975117"><ele>55.0</ele><time>2026-03-27T14:48:29.998Z</time></trkpt><trkpt lat="49.194158029810346" lon="2.5354079401372394"><ele>54.99999999999999</ele><time>2026-03-27T14:48:31.998Z</time></trkpt><trkpt lat="49.194158571705394" lon="2.5355401527560146"><ele>55.0</ele><time>2026-03-27T14:48:33.998Z</time></trkpt><trkpt lat="49.19415464485232" lon="2.5356673377392376"><ele>55.0</ele><time>2026-03-27T14:48:35.998Z</time></trkpt><trkpt lat="49.19415847977612" lon="2.5357947916973576"><ele>55.0</ele><time>2026-03-27T14:48:37.998Z</time></trkpt><trkpt lat="49.194162222278784" lon="2.5359142286178273"><ele>54.99999999999999</ele><time>2026-03-27T14:48:39.998Z</time></trkpt><trkpt lat="49.19416879978873" lon="2.5360373006681924"><ele>55.0</ele><time>2026-03-27T14:48:41.998Z</time></trkpt><trkpt lat="49.194173444736634" lon="2.536156764531611"><ele>54.99999999999999</ele><time>2026-03-27T14:48:43.997Z</time></trkpt><trkpt lat="49.194176042821994" lon="2.536293295576208"><ele>55.0</ele><time>2026-03-27T14:48:45.997Z</time></trkpt><trkpt lat="49.194142068995056" lon="2.53642150858296"><ele>55.0</ele><time>2026-03-27T14:48:47.997Z</time></trkpt><trkpt lat="49.194096142392915" lon="2.536535696994663"><ele>55.0</ele><time>2026-03-27T14:48:49.997Z</time></trkpt><trkpt lat="49.19404623510818" lon="2.5366408145582926"><ele>54.99999999999999</ele><time>2026-03-27T14:48:51.997Z</time></trkpt><trkpt lat="49.193996711273456" lon="2.5367535981073015"><ele>55.0</ele><time>2026-03-27T14:48:53.997Z</time></trkpt><trkpt lat="49.193932648790344" lon="2.536841549926767"><ele>55.166666666666664</ele><time>2026-03-27T14:48:55.997Z</time></trkpt><trkpt lat="49.193866447116" lon="2.536904558486764"><ele>55.33333333333333</ele><time>2026-03-27T14:48:57.997Z</time></trkpt><trkpt lat="49.193814877780675" lon="2.5369708866678513"><ele>55.5</ele><time>2026-03-27T14:48:59.997Z</time></trkpt><trkpt lat="49.19376980670714" lon="2.5370620392864405"><ele>55.66666666666667</ele><time>2026-03-27T14:49:01.997Z</time></trkpt><trkpt lat="49.193735025740786" lon="2.537159701911923"><ele>55.833333333333336</ele><time>2026-03-27T14:49:03.997Z</time></trkpt><trkpt lat="49.19373694496095" lon="2.537290869533334"><ele>56.0</ele><time>2026-03-27T14:49:05.997Z</time></trkpt><trkpt lat="49.19373260815861" lon="2.5374251233193967"><ele>56.0</ele><time>2026-03-27T14:49:07.997Z</time></trkpt><trkpt lat="49.19376782174288" lon="2.5375491673152135"><ele>55.99999999999999</ele><time>2026-03-27T14:49:09.997Z</time></trkpt><trkpt lat="49.19376406548624" lon="2.537681433669714"><ele>55.99999999999999</ele><time>2026-03-27T14:49:12Z</time></trkpt><trkpt lat="49.193766331959075" lon="2.5378238441368115"><ele>56.0</ele><time>2026-03-27T14:49:14Z</time></trkpt><trkpt lat="49.193741022350615" lon="2.5379622926233836"><ele>56.0</ele><time>2026-03-27T14:49:16Z</time></trkpt><trkpt lat="49.193723099247464" lon="2.5381131480345833"><ele>55.8</ele><time>2026-03-27T14:49:18Z</time></trkpt><trkpt lat="49.193725627193274" lon="2.5382750744039533"><ele>55.599999999999994</ele><time>2026-03-27T14:49:20Z</time></trkpt><trkpt lat="49.19375880390798" lon="2.5384340829590166"><ele>55.4</ele><time>2026-03-27T14:49:22Z</time></trkpt><trkpt lat="49.19377028449195" lon="2.53860546892236"><ele>55.2</ele><time>2026-03-27T14:49:24Z</time></trkpt><trkpt lat="49.19379727509448" lon="2.5387777234380278"><ele>55.0</ele><time>2026-03-27T14:49:26Z</time></trkpt><trkpt lat="49.193804983344194" lon="2.5388780580791224"><ele>54.71428571428571</ele><time>2026-03-27T14:49:27Z</time></trkpt><trkpt lat="49.193813978138756" lon="2.538985098592245"><ele>54.42857142857143</ele><time>2026-03-27T14:49:28Z</time></trkpt><trkpt lat="49.19384758648764" lon="2.5390800739946005"><ele>54.14285714285714</ele><time>2026-03-27T14:49:29Z</time></trkpt><trkpt lat="49.19387807494189" lon="2.5391770818674484"><ele>53.857142857142854</ele><time>2026-03-27T14:49:30Z</time></trkpt><trkpt lat="49.19389082434916" lon="2.539282938392531"><ele>53.57142857142857</ele><time>2026-03-27T14:49:31Z</time></trkpt><trkpt lat="49.19392896161571" lon="2.539381036075144"><ele>53.285714285714285</ele><time>2026-03-27T14:49:32Z</time></trkpt><trkpt lat="49.19396264313332" lon="2.5394970522396356"><ele>53.0</ele><time>2026-03-27T14:49:33Z</time></trkpt><trkpt lat="49.193982464041554" lon="2.5396177157184576"><ele>52.833333333333336</ele><time>2026-03-27T14:49:34Z</time></trkpt><trkpt lat="49.19400376359772" lon="2.5397385725139614"><ele>52.66666666666667</ele><time>2026-03-27T14:49:35Z</time></trkpt><trkpt lat="49.194024502710796" lon="2.539860026701011"><ele>52.5</ele><time>2026-03-27T14:49:36Z</time></trkpt><trkpt lat="49.19404782865216" lon="2.539979883775819"><ele>52.33333333333333</ele><time>2026-03-27T14:49:37Z</time></trkpt><trkpt lat="49.19408137224303" lon="2.5401008660098805"><ele>52.166666666666664</ele><time>2026-03-27T14:49:38Z</time></trkpt><trkpt lat="49.19410709922803" lon="2.540218617840008"><ele>52.0</ele><time>2026-03-27T14:49:39Z</time></trkpt><trkpt lat="49.194129786553184" lon="2.5403320270969534"><ele>51.49999999999999</ele><time>2026-03-27T14:49:40Z</time></trkpt><trkpt lat="49.19414602721243" lon="2.540453750866929"><ele>51.0</ele><time>2026-03-27T14:49:40.999Z</time></trkpt><trkpt lat="49.19416852926122" lon="2.5405783849700962"><ele>50.5</ele><time>2026-03-27T14:49:41.999Z</time></trkpt><trkpt lat="49.19419861970607" lon="2.5406964290107883"><ele>50.0</ele><time>2026-03-27T14:49:42.999Z</time></trkpt><trkpt lat="49.19422516179142" lon="2.540820751124319"><ele>49.49999999999999</ele><time>2026-03-27T14:49:43.999Z</time></trkpt><trkpt lat="49.19424452267959" lon="2.5409467153996976"><ele>49.0</ele><time>2026-03-27T14:49:44.999Z</time></trkpt><trkpt lat="49.19427101915173" lon="2.5410705061634"><ele>49.0</ele><time>2026-03-27T14:49:45.999Z</time></trkpt><trkpt lat="49.19429665975807" lon="2.5411803372734463"><ele>49.0</ele><time>2026-03-27T14:49:46.999Z</time></trkpt><trkpt lat="49.1943170194451" lon="2.5412888848189215"><ele>49.0</ele><time>2026-03-27T14:49:47.999Z</time></trkpt><trkpt lat="49.194339424152126" lon="2.5413902770168835"><ele>49.0</ele><time>2026-03-27T14:49:48.999Z</time></trkpt><trkpt lat="49.19438534943142" lon="2.5415558098230098"><ele>49.0</ele><time>2026-03-27T14:49:50.999Z</time></trkpt><trkpt lat="49.19443843324188" lon="2.541717445531739"><ele>49.166666666666664</ele><time>2026-03-27T14:49:52.999Z</time></trkpt><trkpt lat="49.19450549734113" lon="2.5418175479634626"><ele>49.33333333333333</ele><time>2026-03-27T14:49:54.999Z</time></trkpt><trkpt lat="49.19457354030506" lon="2.541908583019412"><ele>49.5</ele><time>2026-03-27T14:49:56.999Z</time></trkpt><trkpt lat="49.19463977590715" lon="2.54197789212555"><ele>49.66666666666667</ele><time>2026-03-27T14:49:58.999Z</time></trkpt><trkpt lat="49.19470332151947" lon="2.542049166534913"><ele>49.833333333333336</ele><time>2026-03-27T14:50:00.999Z</time></trkpt><trkpt lat="49.19475431423186" lon="2.5421123688489744"><ele>50.0</ele><time>2026-03-27T14:50:02.999Z</time></trkpt><trkpt lat="49.19481511433333" lon="2.542167277792428"><ele>50.714285714285715</ele><time>2026-03-27T14:50:04.999Z</time></trkpt><trkpt lat="49.194873546882775" lon="2.5422316057287966"><ele>51.42857142857143</ele><time>2026-03-27T14:50:06.999Z</time></trkpt><trkpt lat="49.19492594956056" lon="2.54229095921299"><ele>52.14285714285714</ele><time>2026-03-27T14:50:08.999Z</time></trkpt><trkpt lat="49.194983698370784" lon="2.542354198375637"><ele>52.85714285714286</ele><time>2026-03-27T14:50:10.999Z</time></trkpt><trkpt lat="49.19504355461562" lon="2.5424331079707545"><ele>53.57142857142857</ele><time>2026-03-27T14:50:12.999Z</time></trkpt><trkpt lat="49.19509396201873" lon="2.542492204390578"><ele>54.285714285714285</ele><time>2026-03-27T14:50:14.998Z</time></trkpt><trkpt lat="49.19514100989517" lon="2.5425879900723634"><ele>55.0</ele><time>2026-03-27T14:50:16.998Z</time></trkpt><trkpt lat="49.19518137909202" lon="2.542673364643033"><ele>54.99999999999999</ele><time>2026-03-27T14:50:18.998Z</time></trkpt><trkpt lat="49.19519876582236" lon="2.5427761142279435"><ele>55.0</ele><time>2026-03-27T14:50:20.998Z</time></trkpt><trkpt lat="49.195207340647514" lon="2.542887015826859"><ele>55.0</ele><time>2026-03-27T14:50:22.998Z</time></trkpt><trkpt lat="49.19521268147605" lon="2.5429952959653295"><ele>55.0</ele><time>2026-03-27T14:50:24.998Z</time></trkpt><trkpt lat="49.19521719606754" lon="2.5431040358165986"><ele>55.0</ele><time>2026-03-27T14:50:26.998Z</time></trkpt><trkpt lat="49.195214119928245" lon="2.5432136257487676"><ele>54.99999999999999</ele><time>2026-03-27T14:50:28.998Z</time></trkpt><trkpt lat="49.195214832345734" lon="2.5433274222283675"><ele>55.0</ele><time>2026-03-27T14:50:30.998Z</time></trkpt><trkpt lat="49.195217641775585" lon="2.5434376719968896"><ele>55.166666666666664</ele><time>2026-03-27T14:50:32.998Z</time></trkpt><trkpt lat="49.19522538803668" lon="2.543553821736941"><ele>55.33333333333333</ele><time>2026-03-27T14:50:34.998Z</time></trkpt><trkpt lat="49.19522836335764" lon="2.5436716131460515"><ele>55.5</ele><time>2026-03-27T14:50:36.998Z</time></trkpt><trkpt lat="49.19523713255721" lon="2.543785487821942"><ele>55.66666666666667</ele><time>2026-03-27T14:50:38.998Z</time></trkpt><trkpt lat="49.19524005214184" lon="2.5439059496051137"><ele>55.833333333333336</ele><time>2026-03-27T14:50:40.998Z</time></trkpt><trkpt lat="49.1952392278345" lon="2.544026321109007"><ele>56.0</ele><time>2026-03-27T14:50:42.998Z</time></trkpt><trkpt lat="49.1952420659057" lon="2.544180389536134"><ele>56.00000000000001</ele><time>2026-03-27T14:50:44.998Z</time></trkpt><trkpt lat="49.195250896645085" lon="2.544327525341526"><ele>56.0</ele><time>2026-03-27T14:50:47.997Z</time></trkpt><trkpt lat="49.19525788940701" lon="2.544461375628932"><ele>56.0</ele><time>2026-03-27T14:50:49.997Z</time></trkpt><trkpt lat="49.19527061815673" lon="2.544588714927941"><ele>56.0</ele><time>2026-03-27T14:50:51.997Z</time></trkpt><trkpt lat="49.19526150769478" lon="2.5447128937399173"><ele>56.00000000000001</ele><time>2026-03-27T14:50:53.997Z</time></trkpt><trkpt lat="49.195265445213565" lon="2.5448316192278826"><ele>56.0</ele><time>2026-03-27T14:50:55.997Z</time></trkpt><trkpt lat="49.19528420224092" lon="2.544954021707319"><ele>55.833333333333336</ele><time>2026-03-27T14:50:57.997Z</time></trkpt><trkpt lat="49.195280512725" lon="2.545090693496849"><ele>55.66666666666667</ele><time>2026-03-27T14:50:59.997Z</time></trkpt><trkpt lat="49.19528368293992" lon="2.5452221670136503"><ele>55.5</ele><time>2026-03-27T14:51:01.997Z</time></trkpt><trkpt lat="49.19528712339942" lon="2.5453576282992647"><ele>55.33333333333333</ele><time>2026-03-27T14:51:03.997Z</time></trkpt><trkpt lat="49.19529299749497" lon="2.5454970629463682"><ele>55.166666666666664</ele><time>2026-03-27T14:51:05.997Z</time></trkpt><trkpt lat="49.19530068464915" lon="2.5456368193515067"><ele>55.0</ele><time>2026-03-27T14:51:07.997Z</time></trkpt><trkpt lat="49.195301284889275" lon="2.5457608755419376"><ele>54.99999999999999</ele><time>2026-03-27T14:51:09.997Z</time></trkpt><trkpt lat="49.19529943918446" lon="2.5458938680902294"><ele>55.0</ele><time>2026-03-27T14:51:11.997Z</time></trkpt><trkpt lat="49.19530083789088" lon="2.5460254440100285"><ele>55.0</ele><time>2026-03-27T14:51:13.997Z</time></trkpt><trkpt lat="49.19530488664684" lon="2.5461550488261264"><ele>55.0</ele><time>2026-03-27T14:51:16Z</time></trkpt><trkpt lat="49.19530630818108" lon="2.5462948964472267"><ele>54.99999999999999</ele><time>2026-03-27T14:51:18Z</time></trkpt><trkpt lat="49.19530799861427" lon="2.546422961374131"><ele>55.0</ele><time>2026-03-27T14:51:20Z</time></trkpt><trkpt lat="49.19531746163129" lon="2.546571508475718"><ele>55.4</ele><time>2026-03-27T14:51:22Z</time></trkpt><trkpt lat="49.195321442764396" lon="2.5467075048224648"><ele>55.8</ele><time>2026-03-27T14:51:24Z</time></trkpt><trkpt lat="49.19532714873484" lon="2.5468446161054996"><ele>56.2</ele><time>2026-03-27T14:51:26Z</time></trkpt><trkpt lat="49.195330168922375" lon="2.54700082234273"><ele>56.6</ele><time>2026-03-27T14:51:28Z</time></trkpt><trkpt lat="49.195330520614526" lon="2.5471443054218277"><ele>57.0</ele><time>2026-03-27T14:51:30Z</time></trkpt><trkpt lat="49.195336492148456" lon="2.5472879523248495"><ele>57.0</ele><time>2026-03-27T14:51:32Z</time></trkpt><trkpt lat="49.195341707780976" lon="2.547430858161364"><ele>57.0</ele><time>2026-03-27T14:51:34Z</time></trkpt><trkpt lat="49.19534572578723" lon="2.54757204651866"><ele>57.0</ele><time>2026-03-27T14:51:36Z</time></trkpt><trkpt lat="49.19535412984614" lon="2.547722176935924"><ele>57.0</ele><time>2026-03-27T14:51:38Z</time></trkpt><trkpt lat="49.1953638013167" lon="2.547868246927697"><ele>57.0</ele><time>2026-03-27T14:51:40Z</time></trkpt><trkpt lat="49.19537136926386" lon="2.548017032840501"><ele>56.8</ele><time>2026-03-27T14:51:42Z</time></trkpt><trkpt lat="49.195375167757184" lon="2.548168479632665"><ele>56.6</ele><time>2026-03-27T14:51:44Z</time></trkpt><trkpt lat="49.19538312853692" lon="2.548322201216959"><ele>56.39999999999999</ele><time>2026-03-27T14:51:45.999Z</time></trkpt><trkpt lat="49.19538939949989" lon="2.5484722148305345"><ele>56.199999999999996</ele><time>2026-03-27T14:51:47.999Z</time></trkpt><trkpt lat="49.195396014696215" lon="2.5486219221564204"><ele>56.0</ele><time>2026-03-27T14:51:49.999Z</time></trkpt><trkpt lat="49.19540603098928" lon="2.5487742510478544"><ele>56.0</ele><time>2026-03-27T14:51:51.999Z</time></trkpt><trkpt lat="49.195409232149885" lon="2.5489231632816427"><ele>55.99999999999999</ele><time>2026-03-27T14:51:53.999Z</time></trkpt><trkpt lat="49.19541219857779" lon="2.5490719340226606"><ele>55.99999999999999</ele><time>2026-03-27T14:51:55.999Z</time></trkpt><trkpt lat="49.19541630291038" lon="2.5492163194418067"><ele>56.0</ele><time>2026-03-27T14:51:57.999Z</time></trkpt><trkpt lat="49.19542310177579" lon="2.5493621987945403"><ele>56.0</ele><time>2026-03-27T14:51:59.999Z</time></trkpt><trkpt lat="49.19543420655273" lon="2.5495028476691854"><ele>56.0</ele><time>2026-03-27T14:52:01.999Z</time></trkpt><trkpt lat="49.195438689140396" lon="2.549645701259444"><ele>55.99999999999999</ele><time>2026-03-27T14:52:03.999Z</time></trkpt><trkpt lat="49.19544731098951" lon="2.5497875682926514"><ele>55.99999999999999</ele><time>2026-03-27T14:52:05.999Z</time></trkpt><trkpt lat="49.195456553375216" lon="2.5499289373350433"><ele>56.0</ele><time>2026-03-27T14:52:07.999Z</time></trkpt><trkpt lat="49.1954693598868" lon="2.5500707858504312"><ele>56.0</ele><time>2026-03-27T14:52:09.999Z</time></trkpt><trkpt lat="49.19547423603385" lon="2.5502178881168525"><ele>56.0</ele><time>2026-03-27T14:52:11.999Z</time></trkpt><trkpt lat="49.195482436380445" lon="2.5503630074188854"><ele>55.99999999999999</ele><time>2026-03-27T14:52:13.999Z</time></trkpt><trkpt lat="49.19549413547877" lon="2.550508431787209"><ele>55.99999999999999</ele><time>2026-03-27T14:52:15.999Z</time></trkpt><trkpt lat="49.19550386733439" lon="2.5506521306452803"><ele>56.0</ele><time>2026-03-27T14:52:17.999Z</time></trkpt><trkpt lat="49.19551625254052" lon="2.550795903130461"><ele>56.0</ele><time>2026-03-27T14:52:19.999Z</time></trkpt><trkpt lat="49.19553215892232" lon="2.550943118951991"><ele>56.0</ele><time>2026-03-27T14:52:21.998Z</time></trkpt><trkpt lat="49.19554831224444" lon="2.5510928081996225"><ele>55.99999999999999</ele><time>2026-03-27T14:52:23.998Z</time></trkpt><trkpt lat="49.19557328950189" lon="2.5512482333311657"><ele>55.99999999999999</ele><time>2026-03-27T14:52:25.998Z</time></trkpt><trkpt lat="49.195601825287255" lon="2.551403345215356"><ele>56.0</ele><time>2026-03-27T14:52:27.998Z</time></trkpt><trkpt lat="49.195632759551536" lon="2.55157187669224"><ele>56.0</ele><time>2026-03-27T14:52:29.998Z</time></trkpt><trkpt lat="49.195652538111176" lon="2.55174644466684"><ele>55.599999999999994</ele><time>2026-03-27T14:52:31.998Z</time></trkpt><trkpt lat="49.195683961256506" lon="2.551912624526775"><ele>55.199999999999996</ele><time>2026-03-27T14:52:33.998Z</time></trkpt><trkpt lat="49.19572063784824" lon="2.55208433944135"><ele>54.800000000000004</ele><time>2026-03-27T14:52:35.998Z</time></trkpt><trkpt lat="49.195770910630124" lon="2.552264807438418"><ele>54.400000000000006</ele><time>2026-03-27T14:52:37.998Z</time></trkpt><trkpt lat="49.195798412085615" lon="2.5523605760513703"><ele>54.0</ele><time>2026-03-27T14:52:38.998Z</time></trkpt><trkpt lat="49.195826082110926" lon="2.5524539388487257"><ele>53.857142857142854</ele><time>2026-03-27T14:52:39.998Z</time></trkpt><trkpt lat="49.19585781102033" lon="2.5525486596709857"><ele>53.71428571428571</ele><time>2026-03-27T14:52:40.998Z</time></trkpt><trkpt lat="49.1958886602191" lon="2.552645745730811"><ele>53.57142857142857</ele><time>2026-03-27T14:52:41.998Z</time></trkpt><trkpt lat="49.195923169346756" lon="2.552749909031809"><ele>53.42857142857143</ele><time>2026-03-27T14:52:42.998Z</time></trkpt><trkpt lat="49.195959422644094" lon="2.5528482740950293"><ele>53.285714285714285</ele><time>2026-03-27T14:52:43.998Z</time></trkpt><trkpt lat="49.19598114673758" lon="2.552954480125349"><ele>53.142857142857146</ele><time>2026-03-27T14:52:44.998Z</time></trkpt><trkpt lat="49.19600081758215" lon="2.5530677644689037"><ele>53.0</ele><time>2026-03-27T14:52:45.998Z</time></trkpt><trkpt lat="49.19602681676651" lon="2.5531825038904232"><ele>52.833333333333336</ele><time>2026-03-27T14:52:46.998Z</time></trkpt><trkpt lat="49.196043754515266" lon="2.5533010938706777"><ele>52.66666666666667</ele><time>2026-03-27T14:52:47.998Z</time></trkpt><trkpt lat="49.19604917248605" lon="2.5534216506179073"><ele>52.5</ele><time>2026-03-27T14:52:48.998Z</time></trkpt><trkpt lat="49.19605813390935" lon="2.55354195132125"><ele>52.33333333333333</ele><time>2026-03-27T14:52:49.998Z</time></trkpt><trkpt lat="49.196059958034176" lon="2.5536606271993136"><ele>52.166666666666664</ele><time>2026-03-27T14:52:50.998Z</time></trkpt><trkpt lat="49.196048459920085" lon="2.5537756299119123"><ele>52.0</ele><time>2026-03-27T14:52:51.998Z</time></trkpt><trkpt lat="49.19603923128776" lon="2.553887230977995"><ele>51.857142857142854</ele><time>2026-03-27T14:52:52.998Z</time></trkpt><trkpt lat="49.19603305463958" lon="2.554001775431284"><ele>51.714285714285715</ele><time>2026-03-27T14:52:53.997Z</time></trkpt><trkpt lat="49.196023912639845" lon="2.5541095174354846"><ele>51.57142857142857</ele><time>2026-03-27T14:52:54.997Z</time></trkpt><trkpt lat="49.19601336076771" lon="2.5542123362052527"><ele>51.42857142857143</ele><time>2026-03-27T14:52:55.997Z</time></trkpt><trkpt lat="49.19600330725052" lon="2.554312322992139"><ele>51.28571428571429</ele><time>2026-03-27T14:52:56.997Z</time></trkpt><trkpt lat="49.19599325575092" lon="2.5544148816089143"><ele>51.142857142857146</ele><time>2026-03-27T14:52:57.997Z</time></trkpt><trkpt lat="49.195977997616254" lon="2.554511759528907"><ele>51.0</ele><time>2026-03-27T14:52:58.997Z</time></trkpt><trkpt lat="49.19595942757227" lon="2.5546139625681454"><ele>51.0</ele><time>2026-03-27T14:52:59.997Z</time></trkpt><trkpt lat="49.195938559803835" lon="2.5548021556261755"><ele>51.0</ele><time>2026-03-27T14:53:01.997Z</time></trkpt><trkpt lat="49.19590799129135" lon="2.554968153111038"><ele>51.0</ele><time>2026-03-27T14:53:03.997Z</time></trkpt><trkpt lat="49.195887004653756" lon="2.555138482536078"><ele>51.0</ele><time>2026-03-27T14:53:05.997Z</time></trkpt><trkpt lat="49.19587567616655" lon="2.555311439698105"><ele>50.4</ele><time>2026-03-27T14:53:07.997Z</time></trkpt><trkpt lat="49.195857813671736" lon="2.555473685639024"><ele>49.8</ele><time>2026-03-27T14:53:09.997Z</time></trkpt><trkpt lat="49.195836561107875" lon="2.5556334813578543"><ele>49.199999999999996</ele><time>2026-03-27T14:53:11.997Z</time></trkpt><trkpt lat="49.195812052180116" lon="2.5557876850999683"><ele>48.599999999999994</ele><time>2026-03-27T14:53:13.997Z</time></trkpt><trkpt lat="49.19579240654782" lon="2.555943401215536"><ele>48.0</ele><time>2026-03-27T14:53:15.997Z</time></trkpt><trkpt lat="49.19577268819073" lon="2.556091064636109"><ele>47.8</ele><time>2026-03-27T14:53:17.997Z</time></trkpt><trkpt lat="49.195756175140666" lon="2.55624654311877"><ele>47.599999999999994</ele><time>2026-03-27T14:53:19.997Z</time></trkpt><trkpt lat="49.19573935771516" lon="2.5563982318942413"><ele>47.400000000000006</ele><time>2026-03-27T14:53:22Z</time></trkpt><trkpt lat="49.19571629102274" lon="2.5565491992925224"><ele>47.2</ele><time>2026-03-27T14:53:24Z</time></trkpt><trkpt lat="49.19570085765711" lon="2.5566962693712503"><ele>47.0</ele><time>2026-03-27T14:53:26Z</time></trkpt><trkpt lat="49.19568059744553" lon="2.556844405268803"><ele>48.0</ele><time>2026-03-27T14:53:28Z</time></trkpt><trkpt lat="49.19565901238438" lon="2.556992175949972"><ele>49.0</ele><time>2026-03-27T14:53:30Z</time></trkpt><trkpt lat="49.19563422519561" lon="2.557141266585978"><ele>50.0</ele><time>2026-03-27T14:53:32Z</time></trkpt><trkpt lat="49.19560318741972" lon="2.557299544205"><ele>51.0</ele><time>2026-03-27T14:53:34Z</time></trkpt><trkpt lat="49.19559531942479" lon="2.5574470221907726"><ele>52.0</ele><time>2026-03-27T14:53:36Z</time></trkpt><trkpt lat="49.19558770125722" lon="2.5576077585178876"><ele>52.2</ele><time>2026-03-27T14:53:38Z</time></trkpt><trkpt lat="49.19558476485438" lon="2.557756538972448"><ele>52.400000000000006</ele><time>2026-03-27T14:53:40Z</time></trkpt><trkpt lat="49.19559575245044" lon="2.557897380899382"><ele>52.599999999999994</ele><time>2026-03-27T14:53:42Z</time></trkpt><trkpt lat="49.19558449276142" lon="2.558001966453821"><ele>52.8</ele><time>2026-03-27T14:53:44Z</time></trkpt><trkpt lat="49.19559974620516" lon="2.5581883120371094"><ele>53.0</ele><time>2026-03-27T14:53:46Z</time></trkpt><trkpt lat="49.1956125818602" lon="2.558338335819085"><ele>53.0</ele><time>2026-03-27T14:53:48Z</time></trkpt><trkpt lat="49.195613912765346" lon="2.5584855523493"><ele>53.0</ele><time>2026-03-27T14:53:49.999Z</time></trkpt><trkpt lat="49.19562015968825" lon="2.5586321373718426"><ele>53.0</ele><time>2026-03-27T14:53:51.999Z</time></trkpt><trkpt lat="49.19561459253275" lon="2.5587789754311077"><ele>53.0</ele><time>2026-03-27T14:53:53.999Z</time></trkpt><trkpt lat="49.19562024765311" lon="2.5589263523088728"><ele>53.0</ele><time>2026-03-27T14:53:55.999Z</time></trkpt><trkpt lat="49.19563680289398" lon="2.559075603046884"><ele>53.0</ele><time>2026-03-27T14:53:57.999Z</time></trkpt><trkpt lat="49.19564220424128" lon="2.5592218360696255"><ele>53.0</ele><time>2026-03-27T14:53:59.999Z</time></trkpt><trkpt lat="49.19564606743384" lon="2.559370425449836"><ele>53.0</ele><time>2026-03-27T14:54:01.999Z</time></trkpt><trkpt lat="49.19565357051074" lon="2.559528231097795"><ele>53.0</ele><time>2026-03-27T14:54:03.999Z</time></trkpt><trkpt lat="49.195656641163716" lon="2.5596845833644535"><ele>53.0</ele><time>2026-03-27T14:54:05.999Z</time></trkpt><trkpt lat="49.195661223168884" lon="2.559830533098422"><ele>53.0</ele><time>2026-03-27T14:54:07.999Z</time></trkpt><trkpt lat="49.19565999115353" lon="2.5599772606809363"><ele>53.0</ele><time>2026-03-27T14:54:09.999Z</time></trkpt><trkpt lat="49.19566452745325" lon="2.56012622724781"><ele>53.0</ele><time>2026-03-27T14:54:11.999Z</time></trkpt><trkpt lat="49.19567057263465" lon="2.5602733487186833"><ele>53.0</ele><time>2026-03-27T14:54:13.999Z</time></trkpt><trkpt lat="49.19568610005287" lon="2.5604081054321175"><ele>53.0</ele><time>2026-03-27T14:54:15.999Z</time></trkpt><trkpt lat="49.195681800613904" lon="2.5605669493792873"><ele>53.2</ele><time>2026-03-27T14:54:17.999Z</time></trkpt><trkpt lat="49.19568603061405" lon="2.5607391621131157"><ele>53.4</ele><time>2026-03-27T14:54:19.999Z</time></trkpt><trkpt lat="49.195689888875194" lon="2.5608913822734913"><ele>53.60000000000001</ele><time>2026-03-27T14:54:21.999Z</time></trkpt><trkpt lat="49.19569903402005" lon="2.56106341915328"><ele>53.800000000000004</ele><time>2026-03-27T14:54:23.999Z</time></trkpt><trkpt lat="49.19571303901422" lon="2.5612328996565643"><ele>54.0</ele><time>2026-03-27T14:54:25.998Z</time></trkpt><trkpt lat="49.19574166363361" lon="2.561392899125249"><ele>54.0</ele><time>2026-03-27T14:54:27.998Z</time></trkpt><trkpt lat="49.19578162095153" lon="2.5615458226968775"><ele>54.00000000000001</ele><time>2026-03-27T14:54:29.998Z</time></trkpt><trkpt lat="49.19581327074889" lon="2.561676272957133"><ele>54.00000000000001</ele><time>2026-03-27T14:54:31.998Z</time></trkpt><trkpt lat="49.195865918819656" lon="2.5618230031357023"><ele>54.0</ele><time>2026-03-27T14:54:33.998Z</time></trkpt><trkpt lat="49.19591173542309" lon="2.5619659649897035"><ele>54.0</ele><time>2026-03-27T14:54:35.998Z</time></trkpt><trkpt lat="49.195964260605784" lon="2.5621136880248194"><ele>54.0</ele><time>2026-03-27T14:54:37.998Z</time></trkpt><trkpt lat="49.19600420129522" lon="2.5622608740699127"><ele>54.00000000000001</ele><time>2026-03-27T14:54:39.998Z</time></trkpt><trkpt lat="49.19605336395073" lon="2.562398693249013"><ele>54.00000000000001</ele><time>2026-03-27T14:54:41.998Z</time></trkpt><trkpt lat="49.196089336509715" lon="2.562527889471594"><ele>54.0</ele><time>2026-03-27T14:54:43.998Z</time></trkpt><trkpt lat="49.1961291227085" lon="2.5626469146407667"><ele>54.0</ele><time>2026-03-27T14:54:45.998Z</time></trkpt><trkpt lat="49.196166760313574" lon="2.5627679451696737"><ele>54.6</ele><time>2026-03-27T14:54:47.998Z</time></trkpt><trkpt lat="49.19619876086908" lon="2.562884029940238"><ele>55.2</ele><time>2026-03-27T14:54:49.998Z</time></trkpt><trkpt lat="49.19621611720688" lon="2.5630126572630902"><ele>55.800000000000004</ele><time>2026-03-27T14:54:51.998Z</time></trkpt><trkpt lat="49.196255988893604" lon="2.563127327726295"><ele>56.400000000000006</ele><time>2026-03-27T14:54:53.998Z</time></trkpt><trkpt lat="49.19629989806447" lon="2.5632703310168314"><ele>57.0</ele><time>2026-03-27T14:54:55.998Z</time></trkpt><trkpt lat="49.19632079011668" lon="2.5634147268640644"><ele>57.0</ele><time>2026-03-27T14:54:57.998Z</time></trkpt><trkpt lat="49.196349294489664" lon="2.563546850701294"><ele>57.0</ele><time>2026-03-27T14:54:59.997Z</time></trkpt><trkpt lat="49.19638966015493" lon="2.563673555980671"><ele>57.0</ele><time>2026-03-27T14:55:01.997Z</time></trkpt><trkpt lat="49.196419205201735" lon="2.563808505190235"><ele>57.0</ele><time>2026-03-27T14:55:03.997Z</time></trkpt><trkpt lat="49.196448166125165" lon="2.563945109153512"><ele>57.0</ele><time>2026-03-27T14:55:05.997Z</time></trkpt><trkpt lat="49.196483326146456" lon="2.564079477162125"><ele>55.6</ele><time>2026-03-27T14:55:07.997Z</time></trkpt><trkpt lat="49.19650337731552" lon="2.5642208251884364"><ele>54.2</ele><time>2026-03-27T14:55:09.997Z</time></trkpt><trkpt lat="49.196527770770984" lon="2.564358721527871"><ele>52.8</ele><time>2026-03-27T14:55:11.997Z</time></trkpt><trkpt lat="49.196542710979195" lon="2.5645031005209833"><ele>51.4</ele><time>2026-03-27T14:55:13.997Z</time></trkpt><trkpt lat="49.19655801240712" lon="2.5646463276720315"><ele>50.0</ele><time>2026-03-27T14:55:15.997Z</time></trkpt><trkpt lat="49.19656949369357" lon="2.564793951512043"><ele>50.0</ele><time>2026-03-27T14:55:17.997Z</time></trkpt><trkpt lat="49.19656868001575" lon="2.5649458057791827"><ele>50.0</ele><time>2026-03-27T14:55:19.997Z</time></trkpt><trkpt lat="49.196552732908486" lon="2.565096321890287"><ele>50.0</ele><time>2026-03-27T14:55:21.997Z</time></trkpt><trkpt lat="49.196514535753664" lon="2.5652237324515825"><ele>50.0</ele><time>2026-03-27T14:55:23.997Z</time></trkpt><trkpt lat="49.19647816101105" lon="2.56535894086169"><ele>50.0</ele><time>2026-03-27T14:55:25.997Z</time></trkpt><trkpt lat="49.19644083019554" lon="2.565492741355018"><ele>50.333333333333336</ele><time>2026-03-27T14:55:28Z</time></trkpt><trkpt lat="49.19640843906774" lon="2.565625381438587"><ele>50.66666666666667</ele><time>2026-03-27T14:55:30Z</time></trkpt><trkpt lat="49.19638439456811" lon="2.565748588829178"><ele>51.0</ele><time>2026-03-27T14:55:32Z</time></trkpt><trkpt lat="49.19634353856287" lon="2.565859638378399"><ele>51.33333333333333</ele><time>2026-03-27T14:55:34Z</time></trkpt><trkpt lat="49.19630115436947" lon="2.5659779362158637"><ele>51.666666666666664</ele><time>2026-03-27T14:55:36Z</time></trkpt><trkpt lat="49.19625469108115" lon="2.5661089237164485"><ele>52.0</ele><time>2026-03-27T14:55:38Z</time></trkpt><trkpt lat="49.19621288352208" lon="2.566270066333149"><ele>52.0</ele><time>2026-03-27T14:55:40Z</time></trkpt><trkpt lat="49.19617790659285" lon="2.5664282635496556"><ele>52.0</ele><time>2026-03-27T14:55:42Z</time></trkpt><trkpt lat="49.19613180491772" lon="2.5665844809419474"><ele>52.0</ele><time>2026-03-27T14:55:44Z</time></trkpt><trkpt lat="49.196077472391586" lon="2.5667346951186"><ele>52.0</ele><time>2026-03-27T14:55:46Z</time></trkpt><trkpt lat="49.196045978679564" lon="2.5668904168399127"><ele>52.0</ele><time>2026-03-27T14:55:48Z</time></trkpt><trkpt lat="49.19600238736967" lon="2.5670433499220127"><ele>52.0</ele><time>2026-03-27T14:55:50Z</time></trkpt><trkpt lat="49.19597001341523" lon="2.5671959782648557"><ele>52.0</ele><time>2026-03-27T14:55:52Z</time></trkpt><trkpt lat="49.19595704084311" lon="2.567343358823699"><ele>52.0</ele><time>2026-03-27T14:55:53.999Z</time></trkpt><trkpt lat="49.19597541602959" lon="2.5674986525981964"><ele>52.0</ele><time>2026-03-27T14:55:55.999Z</time></trkpt><trkpt lat="49.19600767320637" lon="2.5676401952967978"><ele>52.0</ele><time>2026-03-27T14:55:57.999Z</time></trkpt><trkpt lat="49.19604114650807" lon="2.5677813826147906"><ele>52.400000000000006</ele><time>2026-03-27T14:55:59.999Z</time></trkpt><trkpt lat="49.19608182814936" lon="2.567924327643183"><ele>52.800000000000004</ele><time>2026-03-27T14:56:01.999Z</time></trkpt><trkpt lat="49.196116077469135" lon="2.5680642626880936"><ele>53.2</ele><time>2026-03-27T14:56:03.999Z</time></trkpt><trkpt lat="49.19614604253216" lon="2.568208037053335"><ele>53.6</ele><time>2026-03-27T14:56:05.999Z</time></trkpt><trkpt lat="49.196190081974336" lon="2.5683355455341275"><ele>54.0</ele><time>2026-03-27T14:56:07.999Z</time></trkpt><trkpt lat="49.19622196496375" lon="2.568477153178698"><ele>54.0</ele><time>2026-03-27T14:56:09.999Z</time></trkpt><trkpt lat="49.196256936531825" lon="2.56862145477941"><ele>54.00000000000001</ele><time>2026-03-27T14:56:11.999Z</time></trkpt><trkpt lat="49.196292426029125" lon="2.5687648361158053"><ele>54.00000000000001</ele><time>2026-03-27T14:56:13.999Z</time></trkpt><trkpt lat="49.19632837826868" lon="2.568911393737532"><ele>54.0</ele><time>2026-03-27T14:56:15.999Z</time></trkpt><trkpt lat="49.19636602827509" lon="2.5690568814126595"><ele>54.0</ele><time>2026-03-27T14:56:17.999Z</time></trkpt><trkpt lat="49.19640168671682" lon="2.56919865253169"><ele>54.0</ele><time>2026-03-27T14:56:19.999Z</time></trkpt><trkpt lat="49.196442604555216" lon="2.569344884477264"><ele>54.00000000000001</ele><time>2026-03-27T14:56:21.999Z</time></trkpt><trkpt lat="49.1964785442027" lon="2.5694856817033735"><ele>54.00000000000001</ele><time>2026-03-27T14:56:23.999Z</time></trkpt><trkpt lat="49.196515320185846" lon="2.5696275970024987"><ele>54.0</ele><time>2026-03-27T14:56:25.999Z</time></trkpt><trkpt lat="49.19656431431552" lon="2.569749925458806"><ele>54.0</ele><time>2026-03-27T14:56:27.999Z</time></trkpt><trkpt lat="49.19665020127821" lon="2.5698140047151825"><ele>53.400000000000006</ele><time>2026-03-27T14:56:29.998Z</time></trkpt><trkpt lat="49.196747154704326" lon="2.5698733720638782"><ele>52.800000000000004</ele><time>2026-03-27T14:56:31.998Z</time></trkpt><trkpt lat="49.196827182663924" lon="2.569973869946735"><ele>52.2</ele><time>2026-03-27T14:56:33.998Z</time></trkpt><trkpt lat="49.19689531122079" lon="2.570102653876387"><ele>51.599999999999994</ele><time>2026-03-27T14:56:35.998Z</time></trkpt><trkpt lat="49.196965253202606" lon="2.570220749611601"><ele>51.0</ele><time>2026-03-27T14:56:37.998Z</time></trkpt><trkpt lat="49.19703815218427" lon="2.570345509949206"><ele>51.199999999999996</ele><time>2026-03-27T14:56:39.998Z</time></trkpt><trkpt lat="49.197108649400164" lon="2.5704699150262265"><ele>51.4</ele><time>2026-03-27T14:56:41.998Z</time></trkpt><trkpt lat="49.19717650934026" lon="2.5705921645607774"><ele>51.6</ele><time>2026-03-27T14:56:43.998Z</time></trkpt><trkpt lat="49.19723573262058" lon="2.5707244467894568"><ele>51.8</ele><time>2026-03-27T14:56:45.998Z</time></trkpt><trkpt lat="49.19728706105636" lon="2.5708530061264607"><ele>52.0</ele><time>2026-03-27T14:56:47.998Z</time></trkpt><trkpt lat="49.19733611024225" lon="2.5709847324860995"><ele>52.0</ele><time>2026-03-27T14:56:49.998Z</time></trkpt><trkpt lat="49.19738839437969" lon="2.571107491378152"><ele>52.0</ele><time>2026-03-27T14:56:51.998Z</time></trkpt><trkpt lat="49.1974324714762" lon="2.571236693864135"><ele>52.0</ele><time>2026-03-27T14:56:53.998Z</time></trkpt><trkpt lat="49.197478929801086" lon="2.5713670877853456"><ele>52.0</ele><time>2026-03-27T14:56:55.998Z</time></trkpt><trkpt lat="49.19751920878305" lon="2.5714940283536847"><ele>52.0</ele><time>2026-03-27T14:56:57.998Z</time></trkpt><trkpt lat="49.19756716518689" lon="2.571621852794119"><ele>52.0</ele><time>2026-03-27T14:56:59.998Z</time></trkpt><trkpt lat="49.197614064206334" lon="2.5717507761126535"><ele>52.0</ele><time>2026-03-27T14:57:01.998Z</time></trkpt><trkpt lat="49.19765923789895" lon="2.571879580236093"><ele>52.0</ele><time>2026-03-27T14:57:03.998Z</time></trkpt><trkpt lat="49.19770153988228" lon="2.5720129948306316"><ele>52.0</ele><time>2026-03-27T14:57:05.997Z</time></trkpt><trkpt lat="49.19774608198734" lon="2.572132510078557"><ele>52.0</ele><time>2026-03-27T14:57:07.997Z</time></trkpt><trkpt lat="49.19778922826868" lon="2.5722523822947188"><ele>52.0</ele><time>2026-03-27T14:57:09.997Z</time></trkpt><trkpt lat="49.19783894875247" lon="2.572370896676615"><ele>52.0</ele><time>2026-03-27T14:57:11.997Z</time></trkpt><trkpt lat="49.19788310467006" lon="2.572498004762835"><ele>52.0</ele><time>2026-03-27T14:57:13.997Z</time></trkpt><trkpt lat="49.19793253457756" lon="2.5726158802818717"><ele>52.0</ele><time>2026-03-27T14:57:15.997Z</time></trkpt><trkpt lat="49.19797781471086" lon="2.5727382068020996"><ele>52.0</ele><time>2026-03-27T14:57:17.997Z</time></trkpt><trkpt lat="49.198025129470395" lon="2.572855733527122"><ele>51.99999999999999</ele><time>2026-03-27T14:57:19.997Z</time></trkpt><trkpt lat="49.19806897763239" lon="2.5729756346899038"><ele>52.0</ele><time>2026-03-27T14:57:21.997Z</time></trkpt><trkpt lat="49.19811791799717" lon="2.5730782321937076"><ele>52.0</ele><time>2026-03-27T14:57:23.997Z</time></trkpt><trkpt lat="49.1981568688846" lon="2.573198597239166"><ele>52.0</ele><time>2026-03-27T14:57:25.997Z</time></trkpt><trkpt lat="49.19820091029541" lon="2.573304706402421"><ele>51.99999999999999</ele><time>2026-03-27T14:57:27.997Z</time></trkpt><trkpt lat="49.19824486583461" lon="2.5734172843020535"><ele>52.0</ele><time>2026-03-27T14:57:29.997Z</time></trkpt><trkpt lat="49.1982892789966" lon="2.5735329565356486"><ele>53.166666666666664</ele><time>2026-03-27T14:57:31.997Z</time></trkpt><trkpt lat="49.19833790671194" lon="2.5736403101726038"><ele>54.33333333333333</ele><time>2026-03-27T14:57:34Z</time></trkpt><trkpt lat="49.19838047399993" lon="2.5737528923943014"><ele>55.5</ele><time>2026-03-27T14:57:36Z</time></trkpt><trkpt lat="49.19842087756065" lon="2.5738649679610317"><ele>56.66666666666667</ele><time>2026-03-27T14:57:38Z</time></trkpt><trkpt lat="49.19846134169708" lon="2.573977081108667"><ele>57.833333333333336</ele><time>2026-03-27T14:57:40Z</time></trkpt><trkpt lat="49.19850167761973" lon="2.574093639326314"><ele>59.0</ele><time>2026-03-27T14:57:42Z</time></trkpt><trkpt lat="49.198555658981896" lon="2.5741985401132985"><ele>59.00000000000001</ele><time>2026-03-27T14:57:44Z</time></trkpt><trkpt lat="49.19859486573498" lon="2.5743112308915057"><ele>59.0</ele><time>2026-03-27T14:57:46Z</time></trkpt><trkpt lat="49.19863166003285" lon="2.5744339764665383"><ele>59.0</ele><time>2026-03-27T14:57:48Z</time></trkpt><trkpt lat="49.19867382941737" lon="2.574550339492661"><ele>59.0</ele><time>2026-03-27T14:57:50Z</time></trkpt><trkpt lat="49.198721137885194" lon="2.57466432153348"><ele>59.00000000000001</ele><time>2026-03-27T14:57:52Z</time></trkpt><trkpt lat="49.198768423217444" lon="2.574771302614005"><ele>59.0</ele><time>2026-03-27T14:57:54Z</time></trkpt><trkpt lat="49.19878107392482" lon="2.5748887560164206"><ele>59.14285714285714</ele><time>2026-03-27T14:57:56Z</time></trkpt><trkpt lat="49.19874603312776" lon="2.5749981159638615"><ele>59.28571428571429</ele><time>2026-03-27T14:57:58Z</time></trkpt><trkpt lat="49.19871451282549" lon="2.5751075234662273"><ele>59.42857142857143</ele><time>2026-03-27T14:57:59.999Z</time></trkpt><trkpt lat="49.19869679218249" lon="2.57522523238396"><ele>59.57142857142857</ele><time>2026-03-27T14:58:01.999Z</time></trkpt><trkpt lat="49.19867782464921" lon="2.575320070851934"><ele>59.71428571428571</ele><time>2026-03-27T14:58:03.999Z</time></trkpt><trkpt lat="49.1986574353799" lon="2.5754185712610944"><ele>59.85714285714286</ele><time>2026-03-27T14:58:07.999Z</time></trkpt><trkpt lat="49.19860306364826" lon="2.5754807631346033"><ele>60.0</ele><time>2026-03-27T14:59:23.997Z</time></trkpt><trkpt lat="49.19854438825548" lon="2.5755874375341974"><ele>60.166666666666664</ele><time>2026-03-27T14:59:26.997Z</time></trkpt><trkpt lat="49.198518241367786" lon="2.5756905466857254"><ele>60.33333333333333</ele><time>2026-03-27T14:59:28.997Z</time></trkpt><trkpt lat="49.19848817279537" lon="2.575787654090611"><ele>60.5</ele><time>2026-03-27T14:59:30.997Z</time></trkpt><trkpt lat="49.19845529686114" lon="2.575900590858231"><ele>60.666666666666664</ele><time>2026-03-27T14:59:32.997Z</time></trkpt><trkpt lat="49.19841642737433" lon="2.5760181418201498"><ele>60.83333333333333</ele><time>2026-03-27T14:59:34.997Z</time></trkpt><trkpt lat="49.19838881041579" lon="2.576145312714778"><ele>61.0</ele><time>2026-03-27T14:59:36.997Z</time></trkpt><trkpt lat="49.19836153421425" lon="2.576275517594784"><ele>60.666666666666664</ele><time>2026-03-27T14:59:39Z</time></trkpt><trkpt lat="49.198343980301566" lon="2.576398066493259"><ele>60.33333333333333</ele><time>2026-03-27T14:59:41Z</time></trkpt><trkpt lat="49.19832323917488" lon="2.576515665981519"><ele>60.0</ele><time>2026-03-27T14:59:43Z</time></trkpt><trkpt lat="49.198312530258754" lon="2.5766307243195428"><ele>59.66666666666667</ele><time>2026-03-27T14:59:45Z</time></trkpt><trkpt lat="49.19830646504717" lon="2.576745655011529"><ele>59.333333333333336</ele><time>2026-03-27T14:59:47Z</time></trkpt><trkpt lat="49.19829213205427" lon="2.576851988993888"><ele>59.0</ele><time>2026-03-27T14:59:49Z</time></trkpt><trkpt lat="49.19829346493043" lon="2.5769678420965114"><ele>59.00000000000001</ele><time>2026-03-27T14:59:51Z</time></trkpt><trkpt lat="49.1982846561294" lon="2.5770976688478093"><ele>59.0</ele><time>2026-03-27T14:59:53Z</time></trkpt><trkpt lat="49.198283703510924" lon="2.577233052445144"><ele>59.0</ele><time>2026-03-27T14:59:55Z</time></trkpt><trkpt lat="49.198289144227466" lon="2.5773659262142528"><ele>59.0</ele><time>2026-03-27T14:59:57Z</time></trkpt><trkpt lat="49.19829794497169" lon="2.577499500250208"><ele>59.00000000000001</ele><time>2026-03-27T14:59:59Z</time></trkpt><trkpt lat="49.198316491210655" lon="2.5776279532865405"><ele>59.0</ele><time>2026-03-27T15:00:01Z</time></trkpt><trkpt lat="49.198343155847496" lon="2.57775745018693"><ele>58.66666666666667</ele><time>2026-03-27T15:00:03Z</time></trkpt><trkpt lat="49.19838837597609" lon="2.5778760228243955"><ele>58.333333333333336</ele><time>2026-03-27T15:00:05Z</time></trkpt><trkpt lat="49.19844095253013" lon="2.5779837621011312"><ele>58.0</ele><time>2026-03-27T15:00:06.999Z</time></trkpt><trkpt lat="49.198504475504976" lon="2.5780782839596323"><ele>57.66666666666667</ele><time>2026-03-27T15:00:08.999Z</time></trkpt><trkpt lat="49.19858129665286" lon="2.5781637076710497"><ele>57.333333333333336</ele><time>2026-03-27T15:00:10.999Z</time></trkpt><trkpt lat="49.19865535287264" lon="2.578231861076996"><ele>57.0</ele><time>2026-03-27T15:00:12.999Z</time></trkpt><trkpt lat="49.19873753531173" lon="2.5782919090573513"><ele>57.0</ele><time>2026-03-27T15:00:14.999Z</time></trkpt><trkpt lat="49.19882290857451" lon="2.5783448329794987"><ele>57.0</ele><time>2026-03-27T15:00:16.999Z</time></trkpt><trkpt lat="49.19890979069705" lon="2.5783927843746177"><ele>57.0</ele><time>2026-03-27T15:00:18.999Z</time></trkpt><trkpt lat="49.19899622102544" lon="2.578435464259964"><ele>57.0</ele><time>2026-03-27T15:00:20.999Z</time></trkpt><trkpt lat="49.19907080931645" lon="2.5785274160152487"><ele>57.0</ele><time>2026-03-27T15:00:22.999Z</time></trkpt><trkpt lat="49.1990664790452" lon="2.5786813564568"><ele>57.5</ele><time>2026-03-27T15:00:24.999Z</time></trkpt><trkpt lat="49.199050925660266" lon="2.5788236186486455"><ele>58.0</ele><time>2026-03-27T15:00:26.999Z</time></trkpt><trkpt lat="49.19905015476686" lon="2.5789513835727056"><ele>58.5</ele><time>2026-03-27T15:00:28.999Z</time></trkpt><trkpt lat="49.19902109635058" lon="2.5790614629884883"><ele>59.0</ele><time>2026-03-27T15:00:30.999Z</time></trkpt><trkpt lat="49.199038940288375" lon="2.5791654242752404"><ele>59.5</ele><time>2026-03-27T15:00:32.999Z</time></trkpt><trkpt lat="49.19904777402861" lon="2.5792781967842813"><ele>60.0</ele><time>2026-03-27T15:00:35.999Z</time></trkpt><trkpt lat="49.19910671229586" lon="2.5793768735485925"><ele>60.0</ele><time>2026-03-27T15:00:38.999Z</time></trkpt><trkpt lat="49.19917397396105" lon="2.579411617498419"><ele>60.0</ele><time>2026-03-27T15:00:40.999Z</time></trkpt><trkpt lat="49.19923417899722" lon="2.579456502622039"><ele>60.0</ele><time>2026-03-27T15:00:42.999Z</time></trkpt><trkpt lat="49.199301383899716" lon="2.57949657372895"><ele>60.0</ele><time>2026-03-27T15:00:44.998Z</time></trkpt><trkpt lat="49.199373128679454" lon="2.579554239329294"><ele>60.0</ele><time>2026-03-27T15:00:46.998Z</time></trkpt><trkpt lat="49.19944222022813" lon="2.5796127475591475"><ele>60.0</ele><time>2026-03-27T15:00:48.998Z</time></trkpt><trkpt lat="49.19946038566112" lon="2.5797116463969125"><ele>60.0</ele><time>2026-03-27T15:00:49.998Z</time></trkpt><trkpt lat="49.19952960632454" lon="2.5797611022217297"><ele>60.0</ele><time>2026-03-27T15:00:51.998Z</time></trkpt><trkpt lat="49.199602310760184" lon="2.579814093360618"><ele>60.0</ele><time>2026-03-27T15:00:53.998Z</time></trkpt><trkpt lat="49.199681714625534" lon="2.5798720850495935"><ele>60.0</ele><time>2026-03-27T15:00:55.998Z</time></trkpt><trkpt lat="49.199766213152415" lon="2.579933797391663"><ele>60.0</ele><time>2026-03-27T15:00:57.998Z</time></trkpt><trkpt lat="49.199852474573156" lon="2.579998440690972"><ele>60.0</ele><time>2026-03-27T15:00:59.998Z</time></trkpt><trkpt lat="49.199942829316456" lon="2.580065303819885"><ele>60.0</ele><time>2026-03-27T15:01:01.998Z</time></trkpt><trkpt lat="49.20003610865533" lon="2.5801343207387166"><ele>60.0</ele><time>2026-03-27T15:01:03.998Z</time></trkpt><trkpt lat="49.20011445897622" lon="2.580191193929739"><ele>60.0</ele><time>2026-03-27T15:01:05.998Z</time></trkpt><trkpt lat="49.20017651659416" lon="2.580235761692889"><ele>60.0</ele><time>2026-03-27T15:01:07.998Z</time></trkpt><trkpt lat="49.200251548349044" lon="2.5802895000514363"><ele>60.0</ele><time>2026-03-27T15:01:09.998Z</time></trkpt><trkpt lat="49.200311610065825" lon="2.5803324841658912"><ele>60.0</ele><time>2026-03-27T15:01:11.998Z</time></trkpt><trkpt lat="49.20038627749592" lon="2.580386512465773"><ele>60.0</ele><time>2026-03-27T15:01:13.998Z</time></trkpt><trkpt lat="49.200453098066646" lon="2.5804366084690504"><ele>60.0</ele><time>2026-03-27T15:01:15.998Z</time></trkpt><trkpt lat="49.20052821379642" lon="2.5804952120898155"><ele>60.0</ele><time>2026-03-27T15:01:17.998Z</time></trkpt><trkpt lat="49.200597863276585" lon="2.5805594130355693"><ele>60.0</ele><time>2026-03-27T15:01:19.998Z</time></trkpt><trkpt lat="49.200669077343335" lon="2.580653186806191"><ele>60.0</ele><time>2026-03-27T15:01:21.997Z</time></trkpt><trkpt lat="49.20072590583824" lon="2.58075807922373"><ele>60.0</ele><time>2026-03-27T15:01:23.997Z</time></trkpt><trkpt lat="49.200790218747585" lon="2.5808731455850036"><ele>60.0</ele><time>2026-03-27T15:01:25.997Z</time></trkpt><trkpt lat="49.200865601496574" lon="2.581000443615874"><ele>60.0</ele><time>2026-03-27T15:01:27.997Z</time></trkpt><trkpt lat="49.20095521690995" lon="2.5811144641411317"><ele>60.0</ele><time>2026-03-27T15:01:29.997Z</time></trkpt><trkpt lat="49.201055667320404" lon="2.5812376965706965"><ele>60.0</ele><time>2026-03-27T15:01:31.997Z</time></trkpt><trkpt lat="49.20109801450173" lon="2.581327490158988"><ele>60.0</ele><time>2026-03-27T15:01:32.997Z</time></trkpt><trkpt lat="49.20114495021474" lon="2.5814018786156385"><ele>59.666666666666664</ele><time>2026-03-27T15:01:33.997Z</time></trkpt><trkpt lat="49.20122743838101" lon="2.5815418327160256"><ele>59.33333333333333</ele><time>2026-03-27T15:01:35.997Z</time></trkpt><trkpt lat="49.20127485761798" lon="2.581616190216492"><ele>59.0</ele><time>2026-03-27T15:01:36.997Z</time></trkpt><trkpt lat="49.20132826455277" lon="2.581688716126051"><ele>58.666666666666664</ele><time>2026-03-27T15:01:37.997Z</time></trkpt><trkpt lat="49.20137736168926" lon="2.5817653994433925"><ele>58.33333333333333</ele><time>2026-03-27T15:01:38.997Z</time></trkpt><trkpt lat="49.20142767844987" lon="2.581842588385239"><ele>58.0</ele><time>2026-03-27T15:01:39.997Z</time></trkpt><trkpt lat="49.20147877157921" lon="2.5819250692262568"><ele>57.49999999999999</ele><time>2026-03-27T15:01:40.997Z</time></trkpt><trkpt lat="49.201529800218225" lon="2.582009505572017"><ele>57.0</ele><time>2026-03-27T15:01:41.997Z</time></trkpt><trkpt lat="49.20158211576644" lon="2.5820924331648976"><ele>56.5</ele><time>2026-03-27T15:01:42.997Z</time></trkpt><trkpt lat="49.20163634595398" lon="2.582174478185637"><ele>56.0</ele><time>2026-03-27T15:01:44Z</time></trkpt><trkpt lat="49.20169009559112" lon="2.582261073186876"><ele>55.49999999999999</ele><time>2026-03-27T15:01:45Z</time></trkpt><trkpt lat="49.20174072209134" lon="2.5823448859530385"><ele>55.0</ele><time>2026-03-27T15:01:46Z</time></trkpt><trkpt lat="49.20179154524334" lon="2.5824266716196385"><ele>54.99999999999999</ele><time>2026-03-27T15:01:47Z</time></trkpt><trkpt lat="49.20185002915374" lon="2.5825152446581097"><ele>55.0</ele><time>2026-03-27T15:01:48Z</time></trkpt><trkpt lat="49.20190177919662" lon="2.582597917365934"><ele>55.0</ele><time>2026-03-27T15:01:49Z</time></trkpt><trkpt lat="49.20195260715917" lon="2.5826882861402325"><ele>55.0</ele><time>2026-03-27T15:01:50Z</time></trkpt><trkpt lat="49.20200814848554" lon="2.582773042837589"><ele>54.99999999999999</ele><time>2026-03-27T15:01:51Z</time></trkpt><trkpt lat="49.20206420232292" lon="2.5828587365738667"><ele>55.0</ele><time>2026-03-27T15:01:52Z</time></trkpt><trkpt lat="49.20211988819467" lon="2.5829446462886985"><ele>54.99999999999999</ele><time>2026-03-27T15:01:53Z</time></trkpt><trkpt lat="49.20217124272036" lon="2.583034485279938"><ele>55.0</ele><time>2026-03-27T15:01:54Z</time></trkpt><trkpt lat="49.20222337289725" lon="2.583117124795871"><ele>55.0</ele><time>2026-03-27T15:01:55Z</time></trkpt><trkpt lat="49.202277544743595" lon="2.5832043719911315"><ele>55.0</ele><time>2026-03-27T15:01:56Z</time></trkpt><trkpt lat="49.202328269925935" lon="2.5832841568335"><ele>54.99999999999999</ele><time>2026-03-27T15:01:57Z</time></trkpt><trkpt lat="49.202385296388535" lon="2.583367353714697"><ele>55.0</ele><time>2026-03-27T15:01:58Z</time></trkpt><trkpt lat="49.20243883488299" lon="2.5834499799810735"><ele>54.99999999999999</ele><time>2026-03-27T15:01:59Z</time></trkpt><trkpt lat="49.20249177129029" lon="2.5835268090192898"><ele>55.0</ele><time>2026-03-27T15:02:00Z</time></trkpt><trkpt lat="49.20254147202059" lon="2.5836098168632553"><ele>55.0</ele><time>2026-03-27T15:02:01Z</time></trkpt><trkpt lat="49.202589279124396" lon="2.5836837745619903"><ele>55.0</ele><time>2026-03-27T15:02:02Z</time></trkpt><trkpt lat="49.20263449223771" lon="2.583757811294098"><ele>54.99999999999999</ele><time>2026-03-27T15:02:03Z</time></trkpt><trkpt lat="49.20267886844861" lon="2.583835731983373"><ele>55.0</ele><time>2026-03-27T15:02:04Z</time></trkpt><trkpt lat="49.202763516090684" lon="2.5839772462311767"><ele>55.2</ele><time>2026-03-27T15:02:06Z</time></trkpt><trkpt lat="49.20281039726983" lon="2.5840530398855006"><ele>55.4</ele><time>2026-03-27T15:02:07Z</time></trkpt><trkpt lat="49.20289267390194" lon="2.584175358577759"><ele>55.599999999999994</ele><time>2026-03-27T15:02:09Z</time></trkpt><trkpt lat="49.202969505357" lon="2.5842987099706134"><ele>55.8</ele><time>2026-03-27T15:02:11Z</time></trkpt><trkpt lat="49.203043386522644" lon="2.584413779686696"><ele>56.0</ele><time>2026-03-27T15:02:13Z</time></trkpt><trkpt lat="49.203124845766474" lon="2.5845058864109216"><ele>56.8</ele><time>2026-03-27T15:02:14.999Z</time></trkpt><trkpt lat="49.203196447624016" lon="2.5846202311237367"><ele>57.599999999999994</ele><time>2026-03-27T15:02:16.999Z</time></trkpt><trkpt lat="49.203264861835606" lon="2.584731887544875"><ele>58.4</ele><time>2026-03-27T15:02:18.999Z</time></trkpt><trkpt lat="49.20333433027474" lon="2.5848394200528637"><ele>59.2</ele><time>2026-03-27T15:02:20.999Z</time></trkpt><trkpt lat="49.20340282637566" lon="2.584949772938107"><ele>60.0</ele><time>2026-03-27T15:02:22.999Z</time></trkpt><trkpt lat="49.20347060548472" lon="2.5850554330815103"><ele>60.0</ele><time>2026-03-27T15:02:24.999Z</time></trkpt><trkpt lat="49.20352693593598" lon="2.585180696716333"><ele>60.0</ele><time>2026-03-27T15:02:26.999Z</time></trkpt><trkpt lat="49.20358124520736" lon="2.585310994855579"><ele>60.0</ele><time>2026-03-27T15:02:28.999Z</time></trkpt><trkpt lat="49.20363881928769" lon="2.58543369493204"><ele>60.0</ele><time>2026-03-27T15:02:30.999Z</time></trkpt><trkpt lat="49.20370050573356" lon="2.585529857476389"><ele>60.0</ele><time>2026-03-27T15:02:32.999Z</time></trkpt><trkpt lat="49.20376800037968" lon="2.585619957962581"><ele>60.0</ele><time>2026-03-27T15:02:34.999Z</time></trkpt><trkpt lat="49.20382218482846" lon="2.585719415907925"><ele>60.0</ele><time>2026-03-27T15:02:36.999Z</time></trkpt><trkpt lat="49.20389276325136" lon="2.585808012096547"><ele>60.0</ele><time>2026-03-27T15:02:38.999Z</time></trkpt><trkpt lat="49.20396744098885" lon="2.585898017404353"><ele>60.0</ele><time>2026-03-27T15:02:40.999Z</time></trkpt><trkpt lat="49.20402863579873" lon="2.5860055506353796"><ele>60.0</ele><time>2026-03-27T15:02:42.999Z</time></trkpt><trkpt lat="49.20409554663814" lon="2.5861018447813566"><ele>61.0</ele><time>2026-03-27T15:02:44.999Z</time></trkpt><trkpt lat="49.20415776360143" lon="2.586200249196717"><ele>62.0</ele><time>2026-03-27T15:02:46.999Z</time></trkpt><trkpt lat="49.20422098240066" lon="2.5862979944887"><ele>63.0</ele><time>2026-03-27T15:02:48.999Z</time></trkpt><trkpt lat="49.2042842936285" lon="2.5863888831246156"><ele>64.0</ele><time>2026-03-27T15:02:50.998Z</time></trkpt><trkpt lat="49.204348059512135" lon="2.586484953824593"><ele>65.0</ele><time>2026-03-27T15:02:52.998Z</time></trkpt><trkpt lat="49.204403994219874" lon="2.586575268039233"><ele>66.0</ele><time>2026-03-27T15:02:54.998Z</time></trkpt><trkpt lat="49.204461395727705" lon="2.586670883386112"><ele>66.0</ele><time>2026-03-27T15:02:56.998Z</time></trkpt><trkpt lat="49.20452569121774" lon="2.5867629507830503"><ele>66.0</ele><time>2026-03-27T15:02:58.998Z</time></trkpt><trkpt lat="49.204580757406916" lon="2.5868559001833424"><ele>66.0</ele><time>2026-03-27T15:03:00.998Z</time></trkpt><trkpt lat="49.20464205103198" lon="2.5869448551829555"><ele>66.0</ele><time>2026-03-27T15:03:02.998Z</time></trkpt><trkpt lat="49.20469911235023" lon="2.5870390835901844"><ele>66.0</ele><time>2026-03-27T15:03:04.998Z</time></trkpt><trkpt lat="49.20475746184399" lon="2.5871310892448687"><ele>66.0</ele><time>2026-03-27T15:03:06.998Z</time></trkpt><trkpt lat="49.20481729790028" lon="2.587221210314367"><ele>66.5</ele><time>2026-03-27T15:03:08.998Z</time></trkpt><trkpt lat="49.20488070870747" lon="2.587310181758756"><ele>67.0</ele><time>2026-03-27T15:03:10.998Z</time></trkpt><trkpt lat="49.20494414919286" lon="2.5873985387064646"><ele>67.5</ele><time>2026-03-27T15:03:12.998Z</time></trkpt><trkpt lat="49.205008330100476" lon="2.5874936168064973"><ele>68.0</ele><time>2026-03-27T15:03:14.998Z</time></trkpt><trkpt lat="49.2050696714197" lon="2.58758985839497"><ele>68.5</ele><time>2026-03-27T15:03:16.998Z</time></trkpt><trkpt lat="49.20513092983884" lon="2.587691177758142"><ele>69.0</ele><time>2026-03-27T15:03:18.998Z</time></trkpt><trkpt lat="49.205190916900285" lon="2.5877932239405554"><ele>69.0</ele><time>2026-03-27T15:03:20.998Z</time></trkpt><trkpt lat="49.205251831189955" lon="2.587892949942794"><ele>69.0</ele><time>2026-03-27T15:03:22.998Z</time></trkpt><trkpt lat="49.205312898638184" lon="2.5879923999408554"><ele>69.0</ele><time>2026-03-27T15:03:24.998Z</time></trkpt><trkpt lat="49.205377180658296" lon="2.5880830148723355"><ele>69.0</ele><time>2026-03-27T15:03:26.997Z</time></trkpt><trkpt lat="49.20544265063923" lon="2.588173871874693"><ele>69.0</ele><time>2026-03-27T15:03:28.997Z</time></trkpt><trkpt lat="49.20551032290735" lon="2.5882734364332762"><ele>69.0</ele><time>2026-03-27T15:03:30.997Z</time></trkpt><trkpt lat="49.205580772747915" lon="2.588374459018958"><ele>69.0</ele><time>2026-03-27T15:03:32.997Z</time></trkpt><trkpt lat="49.20564273540437" lon="2.5884865677194804"><ele>69.0</ele><time>2026-03-27T15:03:34.997Z</time></trkpt><trkpt lat="49.20571061348292" lon="2.588596520452478"><ele>69.0</ele><time>2026-03-27T15:03:36.997Z</time></trkpt><trkpt lat="49.20578228566248" lon="2.5886969936850233"><ele>69.0</ele><time>2026-03-27T15:03:38.997Z</time></trkpt><trkpt lat="49.205844982477906" lon="2.588806031931869"><ele>69.0</ele><time>2026-03-27T15:03:40.997Z</time></trkpt><trkpt lat="49.205908026396614" lon="2.588916315068661"><ele>69.4</ele><time>2026-03-27T15:03:42.997Z</time></trkpt><trkpt lat="49.20596740097146" lon="2.5890224775855097"><ele>69.80000000000001</ele><time>2026-03-27T15:03:44.997Z</time></trkpt><trkpt lat="49.20602876724625" lon="2.5891351594453127"><ele>70.19999999999999</ele><time>2026-03-27T15:03:46.997Z</time></trkpt><trkpt lat="49.2060963727468" lon="2.589239340926483"><ele>70.6</ele><time>2026-03-27T15:03:49Z</time></trkpt><trkpt lat="49.20615457160856" lon="2.589360682769914"><ele>71.0</ele><time>2026-03-27T15:03:51Z</time></trkpt><trkpt lat="49.20621144166304" lon="2.5894666585188895"><ele>70.8</ele><time>2026-03-27T15:03:53Z</time></trkpt><trkpt lat="49.206283218580964" lon="2.5895463203384512"><ele>70.6</ele><time>2026-03-27T15:03:55Z</time></trkpt><trkpt lat="49.2063599522513" lon="2.5896232702000797"><ele>70.4</ele><time>2026-03-27T15:03:57Z</time></trkpt><trkpt lat="49.20644419685192" lon="2.5896845922211824"><ele>70.2</ele><time>2026-03-27T15:03:59Z</time></trkpt><trkpt lat="49.20654076136656" lon="2.5897051567330287"><ele>70.0</ele><time>2026-03-27T15:04:01Z</time></trkpt><trkpt lat="49.20663969245771" lon="2.5897386729583793"><ele>70.6</ele><time>2026-03-27T15:04:03Z</time></trkpt><trkpt lat="49.20673135685443" lon="2.589810888336684"><ele>71.2</ele><time>2026-03-27T15:04:05Z</time></trkpt><trkpt lat="49.20682694146697" lon="2.5898608359837634"><ele>71.8</ele><time>2026-03-27T15:04:07Z</time></trkpt><trkpt lat="49.206928954182146" lon="2.58987588007202"><ele>72.4</ele><time>2026-03-27T15:04:09Z</time></trkpt><trkpt lat="49.207020979053766" lon="2.5899296849218922"><ele>73.0</ele><time>2026-03-27T15:04:11Z</time></trkpt><trkpt lat="49.207105137444216" lon="2.589926300493562"><ele>73.0</ele><time>2026-03-27T15:04:13Z</time></trkpt><trkpt lat="49.207172930326784" lon="2.5899263224346134"><ele>73.0</ele><time>2026-03-27T15:04:14.999Z</time></trkpt><trkpt lat="49.207220569941235" lon="2.5900033637540054"><ele>73.0</ele><time>2026-03-27T15:04:24.999Z</time></trkpt><trkpt lat="49.20728104116128" lon="2.58996530979268"><ele>73.0</ele><time>2026-03-27T15:04:37.999Z</time></trkpt><trkpt lat="49.207184363029356" lon="2.589941970339389"><ele>73.0</ele><time>2026-03-27T15:09:26.998Z</time></trkpt><trkpt lat="49.20711734173538" lon="2.58989665118357"><ele>73.0</ele><time>2026-03-27T15:09:32.998Z</time></trkpt><trkpt lat="49.20707337877099" lon="2.589821446265948"><ele>73.0</ele><time>2026-03-27T15:09:34.998Z</time></trkpt><trkpt lat="49.207013859785974" lon="2.58973341545438"><ele>73.0</ele><time>2026-03-27T15:09:37.998Z</time></trkpt><trkpt lat="49.20694530750871" lon="2.5896859138829846"><ele>73.0</ele><time>2026-03-27T15:09:40.998Z</time></trkpt><trkpt lat="49.20687557995821" lon="2.5895983458982563"><ele>73.0</ele><time>2026-03-27T15:09:43.998Z</time></trkpt><trkpt lat="49.206812254253464" lon="2.5895265131686807"><ele>73.0</ele><time>2026-03-27T15:09:45.997Z</time></trkpt><trkpt lat="49.206746675430345" lon="2.5895146437080747"><ele>73.0</ele><time>2026-03-27T15:09:47.997Z</time></trkpt><trkpt lat="49.206668481083135" lon="2.589460739443935"><ele>73.0</ele><time>2026-03-27T15:09:50.997Z</time></trkpt><trkpt lat="49.206601925836125" lon="2.589418410194188"><ele>73.0</ele><time>2026-03-27T15:09:53.997Z</time></trkpt><trkpt lat="49.206556963759596" lon="2.5893101223570625"><ele>73.0</ele><time>2026-03-27T15:09:56.997Z</time></trkpt><trkpt lat="49.206488215442214" lon="2.5892336193798786"><ele>73.0</ele><time>2026-03-27T15:09:58.997Z</time></trkpt><trkpt lat="49.20641885156132" lon="2.5891823601810477"><ele>73.0</ele><time>2026-03-27T15:10:00.997Z</time></trkpt><trkpt lat="49.206384749855374" lon="2.5890501202393637"><ele>73.0</ele><time>2026-03-27T15:10:02.997Z</time></trkpt><trkpt lat="49.2063550103467" lon="2.588929141098883"><ele>73.0</ele><time>2026-03-27T15:10:04.997Z</time></trkpt><trkpt lat="49.20631423042894" lon="2.5888241727343755"><ele>72.66666666666666</ele><time>2026-03-27T15:10:07Z</time></trkpt><trkpt lat="49.20627418220969" lon="2.5887210879472304"><ele>72.33333333333333</ele><time>2026-03-27T15:10:09Z</time></trkpt><trkpt lat="49.206234228157804" lon="2.588617695266693"><ele>72.0</ele><time>2026-03-27T15:10:11Z</time></trkpt><trkpt lat="49.206184559593254" lon="2.5885260758934314"><ele>71.66666666666667</ele><time>2026-03-27T15:10:13Z</time></trkpt><trkpt lat="49.20618082037792" lon="2.588410314942199"><ele>71.33333333333334</ele><time>2026-03-27T15:10:15Z</time></trkpt><trkpt lat="49.206164421983445" lon="2.588297306642773"><ele>71.0</ele><time>2026-03-27T15:10:17Z</time></trkpt><trkpt lat="49.20618596546642" lon="2.5881736715364125"><ele>71.0</ele><time>2026-03-27T15:10:19Z</time></trkpt><trkpt lat="49.206192146059195" lon="2.58806090651144"><ele>71.0</ele><time>2026-03-27T15:10:21Z</time></trkpt><trkpt lat="49.206187015933615" lon="2.5879636895941593"><ele>71.0</ele><time>2026-03-27T15:10:23Z</time></trkpt><trkpt lat="49.20619349994374" lon="2.5878555938940146"><ele>71.0</ele><time>2026-03-27T15:10:25Z</time></trkpt><trkpt lat="49.20621285106047" lon="2.587762732479916"><ele>71.0</ele><time>2026-03-27T15:10:27Z</time></trkpt><trkpt lat="49.206229550358785" lon="2.587662730707537"><ele>71.0</ele><time>2026-03-27T15:10:29Z</time></trkpt><trkpt lat="49.206157663248774" lon="2.5875070072766744"><ele>71.2</ele><time>2026-03-27T15:10:32Z</time></trkpt><trkpt lat="49.206108828715465" lon="2.587432141385391"><ele>71.39999999999999</ele><time>2026-03-27T15:10:36Z</time></trkpt><trkpt lat="49.20605915836375" lon="2.5873504902613016"><ele>71.6</ele><time>2026-03-27T15:10:40Z</time></trkpt><trkpt lat="49.20601762123471" lon="2.5872604586063686"><ele>71.8</ele><time>2026-03-27T15:10:43.999Z</time></trkpt><trkpt lat="49.20589214029934" lon="2.587420101139479"><ele>72.0</ele><time>2026-03-27T15:10:59.999Z</time></trkpt><trkpt lat="49.20585723675403" lon="2.5875264214885636"><ele>72.0</ele><time>2026-03-27T15:11:02.999Z</time></trkpt><trkpt lat="49.20580108627984" lon="2.5876283706766796"><ele>72.0</ele><time>2026-03-27T15:11:05.999Z</time></trkpt><trkpt lat="49.205744964366794" lon="2.587574770030934"><ele>72.0</ele><time>2026-03-27T15:11:08.999Z</time></trkpt><trkpt lat="49.20570613319159" lon="2.5874839672165715"><ele>72.0</ele><time>2026-03-27T15:11:10.999Z</time></trkpt><trkpt lat="49.20566915704866" lon="2.5873956785114607"><ele>72.0</ele><time>2026-03-27T15:11:12.999Z</time></trkpt><trkpt lat="49.20561550027534" lon="2.587261245675615"><ele>72.0</ele><time>2026-03-27T15:11:15.998Z</time></trkpt><trkpt lat="49.20557590314676" lon="2.587167255218225"><ele>71.57142857142858</ele><time>2026-03-27T15:11:17.998Z</time></trkpt><trkpt lat="49.205526486949346" lon="2.5870804238943776"><ele>71.14285714285714</ele><time>2026-03-27T15:11:19.998Z</time></trkpt><trkpt lat="49.20549466078863" lon="2.586981308589072"><ele>70.71428571428572</ele><time>2026-03-27T15:11:21.998Z</time></trkpt><trkpt lat="49.20546126473142" lon="2.586876293167973"><ele>70.28571428571429</ele><time>2026-03-27T15:11:23.998Z</time></trkpt><trkpt lat="49.205428260355475" lon="2.5867774899926554"><ele>69.85714285714286</ele><time>2026-03-27T15:11:25.998Z</time></trkpt><trkpt lat="49.20539082416365" lon="2.586698634923771"><ele>69.42857142857143</ele><time>2026-03-27T15:11:27.998Z</time></trkpt><trkpt lat="49.205337892019394" lon="2.5866064119743712"><ele>69.0</ele><time>2026-03-27T15:11:29.998Z</time></trkpt><trkpt lat="49.20528327781165" lon="2.5864995104730215"><ele>69.0</ele><time>2026-03-27T15:11:31.998Z</time></trkpt><trkpt lat="49.20525118862924" lon="2.586385548584595"><ele>69.0</ele><time>2026-03-27T15:11:33.998Z</time></trkpt><trkpt lat="49.20527012644702" lon="2.5862843457916718"><ele>69.0</ele><time>2026-03-27T15:11:34.998Z</time></trkpt><trkpt lat="49.20522151674255" lon="2.5861633724686786"><ele>69.0</ele><time>2026-03-27T15:11:36.998Z</time></trkpt><trkpt lat="49.205140268204175" lon="2.5860902961586447"><ele>69.0</ele><time>2026-03-27T15:11:38.998Z</time></trkpt><trkpt lat="49.205051594260276" lon="2.5860297880728003"><ele>69.0</ele><time>2026-03-27T15:11:40.998Z</time></trkpt><trkpt lat="49.2050925935434" lon="2.585913688079544"><ele>69.16666666666667</ele><time>2026-03-27T15:11:41.998Z</time></trkpt><trkpt lat="49.20506212864094" lon="2.5857838258636447"><ele>69.33333333333333</ele><time>2026-03-27T15:11:43.998Z</time></trkpt><trkpt lat="49.20504430036635" lon="2.5856578508228303"><ele>69.5</ele><time>2026-03-27T15:11:45.998Z</time></trkpt><trkpt lat="49.20504468939246" lon="2.5855484048762625"><ele>69.66666666666666</ele><time>2026-03-27T15:11:47.998Z</time></trkpt><trkpt lat="49.20504559442574" lon="2.5854405511230616"><ele>69.83333333333333</ele><time>2026-03-27T15:11:49.997Z</time></trkpt><trkpt lat="49.20503651802258" lon="2.5853273751694528"><ele>70.0</ele><time>2026-03-27T15:11:51.997Z</time></trkpt><trkpt lat="49.2050365129271" lon="2.5852022365969387"><ele>70.28571428571429</ele><time>2026-03-27T15:11:53.997Z</time></trkpt><trkpt lat="49.2050370035712" lon="2.585105045863222"><ele>70.57142857142857</ele><time>2026-03-27T15:11:55.997Z</time></trkpt><trkpt lat="49.20503168974983" lon="2.5849978068975137"><ele>70.85714285714286</ele><time>2026-03-27T15:11:57.997Z</time></trkpt><trkpt lat="49.20503277456015" lon="2.584888992810892"><ele>71.14285714285714</ele><time>2026-03-27T15:11:59.997Z</time></trkpt><trkpt lat="49.2050450945106" lon="2.5847796066855118"><ele>71.42857142857143</ele><time>2026-03-27T15:12:01.997Z</time></trkpt><trkpt lat="49.20505290433399" lon="2.5846720786434316"><ele>71.71428571428572</ele><time>2026-03-27T15:12:04.997Z</time></trkpt><trkpt lat="49.2050576507546" lon="2.5845419502123526"><ele>72.0</ele><time>2026-03-27T15:12:07.997Z</time></trkpt><trkpt lat="49.20507316240915" lon="2.584444894622498"><ele>72.14285714285715</ele><time>2026-03-27T15:12:09.997Z</time></trkpt><trkpt lat="49.20509436805111" lon="2.584343447284632"><ele>72.28571428571429</ele><time>2026-03-27T15:12:12Z</time></trkpt><trkpt lat="49.20511587303838" lon="2.5842493922302694"><ele>72.42857142857143</ele><time>2026-03-27T15:12:14Z</time></trkpt><trkpt lat="49.2051370372898" lon="2.5841550944245144"><ele>72.57142857142858</ele><time>2026-03-27T15:12:16Z</time></trkpt><trkpt lat="49.20515770588084" lon="2.5840637690198176"><ele>72.71428571428572</ele><time>2026-03-27T15:12:18Z</time></trkpt><trkpt lat="49.205191529086186" lon="2.5839241042132293"><ele>72.85714285714286</ele><time>2026-03-27T15:12:21Z</time></trkpt><trkpt lat="49.20520806575119" lon="2.5838311129455818"><ele>73.0</ele><time>2026-03-27T15:12:24Z</time></trkpt><trkpt lat="49.205101986953935" lon="2.583658509234741"><ele>72.66666666666666</ele><time>2026-03-27T15:13:27.998Z</time></trkpt><trkpt lat="49.20503234864796" lon="2.5836182642638494"><ele>72.33333333333333</ele><time>2026-03-27T15:13:29.998Z</time></trkpt><trkpt lat="49.20497034543708" lon="2.583576442863814"><ele>72.0</ele><time>2026-03-27T15:13:31.998Z</time></trkpt><trkpt lat="49.204878825185425" lon="2.5835355826201827"><ele>71.66666666666667</ele><time>2026-03-27T15:13:33.998Z</time></trkpt><trkpt lat="49.204770323068026" lon="2.5834737944810082"><ele>71.33333333333334</ele><time>2026-03-27T15:13:35.998Z</time></trkpt><trkpt lat="49.20469926123895" lon="2.5834350677970574"><ele>71.0</ele><time>2026-03-27T15:13:36.998Z</time></trkpt><trkpt lat="49.20462855225299" lon="2.5833955225118754"><ele>69.5</ele><time>2026-03-27T15:13:37.998Z</time></trkpt><trkpt lat="49.20455780277177" lon="2.5833405917565897"><ele>68.0</ele><time>2026-03-27T15:13:38.998Z</time></trkpt><trkpt lat="49.204490529761806" lon="2.5832554975878996"><ele>66.5</ele><time>2026-03-27T15:13:39.998Z</time></trkpt><trkpt lat="49.20441242521319" lon="2.5832010693912792"><ele>65.0</ele><time>2026-03-27T15:13:40.998Z</time></trkpt><trkpt lat="49.204337900016036" lon="2.583150544662169"><ele>63.50000000000001</ele><time>2026-03-27T15:13:41.998Z</time></trkpt><trkpt lat="49.20425437464129" lon="2.5830979530246134"><ele>62.0</ele><time>2026-03-27T15:13:42.998Z</time></trkpt><trkpt lat="49.20417413947354" lon="2.583031046436688"><ele>62.0</ele><time>2026-03-27T15:13:43.998Z</time></trkpt><trkpt lat="49.20409266629271" lon="2.5829627403463276"><ele>62.0</ele><time>2026-03-27T15:13:44.998Z</time></trkpt><trkpt lat="49.204007510689735" lon="2.5828980997112962"><ele>62.0</ele><time>2026-03-27T15:13:45.998Z</time></trkpt><trkpt lat="49.20392563628707" lon="2.582826292684377"><ele>62.0</ele><time>2026-03-27T15:13:46.998Z</time></trkpt><trkpt lat="49.203836011606874" lon="2.5827560811705297"><ele>62.0</ele><time>2026-03-27T15:13:47.998Z</time></trkpt><trkpt lat="49.2037459861074" lon="2.5826875205128617"><ele>60.8</ele><time>2026-03-27T15:13:48.998Z</time></trkpt><trkpt lat="49.20365155637051" lon="2.5826272620503565"><ele>59.6</ele><time>2026-03-27T15:13:49.997Z</time></trkpt><trkpt lat="49.20355656338933" lon="2.582554651263704"><ele>58.39999999999999</ele><time>2026-03-27T15:13:50.997Z</time></trkpt><trkpt lat="49.203461506399826" lon="2.582484696403837"><ele>57.199999999999996</ele><time>2026-03-27T15:13:51.997Z</time></trkpt><trkpt lat="49.20336459895019" lon="2.582432664067511"><ele>56.0</ele><time>2026-03-27T15:13:52.997Z</time></trkpt><trkpt lat="49.20326930212167" lon="2.5823713625909317"><ele>56.0</ele><time>2026-03-27T15:13:53.997Z</time></trkpt><trkpt lat="49.203187917164364" lon="2.582263858337471"><ele>55.99999999999999</ele><time>2026-03-27T15:13:54.997Z</time></trkpt><trkpt lat="49.2030928176689" lon="2.5822305220298296"><ele>55.99999999999999</ele><time>2026-03-27T15:13:55.997Z</time></trkpt><trkpt lat="49.20301056775781" lon="2.5821473285287877"><ele>56.0</ele><time>2026-03-27T15:13:56.997Z</time></trkpt><trkpt lat="49.202924956608" lon="2.58208608745413"><ele>56.0</ele><time>2026-03-27T15:13:57.997Z</time></trkpt><trkpt lat="49.20285512934898" lon="2.5820353681511294"><ele>55.57142857142857</ele><time>2026-03-27T15:13:58.997Z</time></trkpt><trkpt lat="49.20278620320421" lon="2.581984082146118"><ele>55.14285714285714</ele><time>2026-03-27T15:13:59.997Z</time></trkpt><trkpt lat="49.20270760750791" lon="2.581986883182396"><ele>54.714285714285715</ele><time>2026-03-27T15:14:00.997Z</time></trkpt><trkpt lat="49.202652476846005" lon="2.5819164826638614"><ele>54.285714285714285</ele><time>2026-03-27T15:14:01.997Z</time></trkpt><trkpt lat="49.20258623718496" lon="2.581874927996864"><ele>53.857142857142854</ele><time>2026-03-27T15:14:02.997Z</time></trkpt><trkpt lat="49.2025147268545" lon="2.5818480678272544"><ele>53.42857142857143</ele><time>2026-03-27T15:14:03.997Z</time></trkpt><trkpt lat="49.20245256465522" lon="2.5818094898646433"><ele>53.0</ele><time>2026-03-27T15:14:04.997Z</time></trkpt><trkpt lat="49.20239320591912" lon="2.5817587626651854"><ele>53.333333333333336</ele><time>2026-03-27T15:14:05.997Z</time></trkpt><trkpt lat="49.20232967066553" lon="2.581708912925276"><ele>53.66666666666667</ele><time>2026-03-27T15:14:06.997Z</time></trkpt><trkpt lat="49.202294233697025" lon="2.5816056193643835"><ele>54.0</ele><time>2026-03-27T15:14:07.997Z</time></trkpt><trkpt lat="49.20218685389511" lon="2.5815228326072863"><ele>54.33333333333333</ele><time>2026-03-27T15:14:09.997Z</time></trkpt><trkpt lat="49.20212665648829" lon="2.5814791802951835"><ele>54.666666666666664</ele><time>2026-03-27T15:14:10.997Z</time></trkpt><trkpt lat="49.20206822646835" lon="2.5814409767188637"><ele>55.0</ele><time>2026-03-27T15:14:11.997Z</time></trkpt><trkpt lat="49.20196148982563" lon="2.5814127859571485"><ele>55.0</ele><time>2026-03-27T15:14:13.997Z</time></trkpt><trkpt lat="49.20185347182069" lon="2.5813561334857043"><ele>55.0</ele><time>2026-03-27T15:14:15.997Z</time></trkpt><trkpt lat="49.20174458402822" lon="2.5813010304718307"><ele>55.0</ele><time>2026-03-27T15:14:18Z</time></trkpt><trkpt lat="49.201649962007814" lon="2.5812354195361817"><ele>55.0</ele><time>2026-03-27T15:14:20Z</time></trkpt><trkpt lat="49.20155577701917" lon="2.581185239138611"><ele>55.0</ele><time>2026-03-27T15:14:22Z</time></trkpt><trkpt lat="49.20146226285111" lon="2.581121998535335"><ele>56.0</ele><time>2026-03-27T15:14:24Z</time></trkpt><trkpt lat="49.201374594243376" lon="2.5810665050976693"><ele>57.0</ele><time>2026-03-27T15:14:26Z</time></trkpt><trkpt lat="49.2012881514012" lon="2.5810181423432894"><ele>58.0</ele><time>2026-03-27T15:14:28Z</time></trkpt><trkpt lat="49.201202019465875" lon="2.580965619576607"><ele>59.0</ele><time>2026-03-27T15:14:30Z</time></trkpt><trkpt lat="49.20111998762013" lon="2.580915685245256"><ele>60.0</ele><time>2026-03-27T15:14:32Z</time></trkpt><trkpt lat="49.20103911991061" lon="2.580861662656614"><ele>60.0</ele><time>2026-03-27T15:14:34Z</time></trkpt><trkpt lat="49.200956717506465" lon="2.5808184463304706"><ele>60.0</ele><time>2026-03-27T15:14:36Z</time></trkpt><trkpt lat="49.20087739987389" lon="2.5807578294975517"><ele>60.0</ele><time>2026-03-27T15:14:38Z</time></trkpt><trkpt lat="49.20079646080672" lon="2.5807110652771703"><ele>60.0</ele><time>2026-03-27T15:14:40Z</time></trkpt><trkpt lat="49.20072239246029" lon="2.580649716035521"><ele>60.0</ele><time>2026-03-27T15:14:41.999Z</time></trkpt><trkpt lat="49.200641344398846" lon="2.580573678611062"><ele>60.0</ele><time>2026-03-27T15:14:43.999Z</time></trkpt><trkpt lat="49.2005652708673" lon="2.5804687437725304"><ele>60.0</ele><time>2026-03-27T15:14:45.999Z</time></trkpt><trkpt lat="49.2004723484965" lon="2.5803944808430876"><ele>60.0</ele><time>2026-03-27T15:14:47.999Z</time></trkpt><trkpt lat="49.200380200303194" lon="2.5803254969726135"><ele>60.0</ele><time>2026-03-27T15:14:49.999Z</time></trkpt><trkpt lat="49.20028846625391" lon="2.580259846239196"><ele>60.0</ele><time>2026-03-27T15:14:51.999Z</time></trkpt><trkpt lat="49.20019722560887" lon="2.5801945489122655"><ele>60.0</ele><time>2026-03-27T15:14:53.999Z</time></trkpt><trkpt lat="49.2001074676638" lon="2.5801300628321417"><ele>60.0</ele><time>2026-03-27T15:14:55.999Z</time></trkpt><trkpt lat="49.200018224882264" lon="2.5800646669237834"><ele>60.0</ele><time>2026-03-27T15:14:57.999Z</time></trkpt><trkpt lat="49.199929787501354" lon="2.5799992325473027"><ele>60.0</ele><time>2026-03-27T15:14:59.999Z</time></trkpt><trkpt lat="49.19984275222055" lon="2.579934586816324"><ele>60.0</ele><time>2026-03-27T15:15:01.999Z</time></trkpt><trkpt lat="49.19975309215626" lon="2.5798673690000946"><ele>60.0</ele><time>2026-03-27T15:15:03.999Z</time></trkpt><trkpt lat="49.19966817880891" lon="2.5798059156159696"><ele>60.0</ele><time>2026-03-27T15:15:05.999Z</time></trkpt><trkpt lat="49.199585110879546" lon="2.579745247994519"><ele>60.0</ele><time>2026-03-27T15:15:07.999Z</time></trkpt><trkpt lat="49.19949958925228" lon="2.579683598262844"><ele>60.0</ele><time>2026-03-27T15:15:09.999Z</time></trkpt><trkpt lat="49.1994162808147" lon="2.5796240771860464"><ele>60.0</ele><time>2026-03-27T15:15:11.999Z</time></trkpt><trkpt lat="49.199340945489" lon="2.5795702527001967"><ele>60.0</ele><time>2026-03-27T15:15:13.999Z</time></trkpt><trkpt lat="49.19925930531391" lon="2.5795119235839246"><ele>60.0</ele><time>2026-03-27T15:15:15.998Z</time></trkpt><trkpt lat="49.19917181837084" lon="2.579450546515355"><ele>60.0</ele><time>2026-03-27T15:15:17.998Z</time></trkpt><trkpt lat="49.19908254690025" lon="2.5793884081185285"><ele>60.0</ele><time>2026-03-27T15:15:19.998Z</time></trkpt><trkpt lat="49.198987741378865" lon="2.5793224185106065"><ele>60.0</ele><time>2026-03-27T15:15:21.998Z</time></trkpt><trkpt lat="49.19888969154469" lon="2.5792556138119433"><ele>60.0</ele><time>2026-03-27T15:15:23.998Z</time></trkpt><trkpt lat="49.19879077533536" lon="2.57918826139511"><ele>59.6</ele><time>2026-03-27T15:15:25.998Z</time></trkpt><trkpt lat="49.198688799852924" lon="2.5791196068311537"><ele>59.2</ele><time>2026-03-27T15:15:27.998Z</time></trkpt><trkpt lat="49.198586023155826" lon="2.579050412861913"><ele>58.8</ele><time>2026-03-27T15:15:29.998Z</time></trkpt><trkpt lat="49.19848294187591" lon="2.578981013778374"><ele>58.4</ele><time>2026-03-27T15:15:31.998Z</time></trkpt><trkpt lat="49.19838013599459" lon="2.578911800182716"><ele>58.0</ele><time>2026-03-27T15:15:33.998Z</time></trkpt><trkpt lat="49.19832233292015" lon="2.57887288444809"><ele>58.0</ele><time>2026-03-27T15:15:34.998Z</time></trkpt><trkpt lat="49.19821627370296" lon="2.578801480465758"><ele>58.0</ele><time>2026-03-27T15:15:36.998Z</time></trkpt><trkpt lat="49.19810693561023" lon="2.578727869099812"><ele>58.0</ele><time>2026-03-27T15:15:38.998Z</time></trkpt><trkpt lat="49.19799443963517" lon="2.578652131666829"><ele>58.0</ele><time>2026-03-27T15:15:40.998Z</time></trkpt><trkpt lat="49.197880987188455" lon="2.578576479262612"><ele>57.71428571428572</ele><time>2026-03-27T15:15:42.998Z</time></trkpt><trkpt lat="49.19782045834234" lon="2.5785361392591457"><ele>57.42857142857143</ele><time>2026-03-27T15:15:43.998Z</time></trkpt><trkpt lat="49.19776134835433" lon="2.5784967449666425"><ele>57.142857142857146</ele><time>2026-03-27T15:15:44.998Z</time></trkpt><trkpt lat="49.197700063394876" lon="2.5784559010700923"><ele>56.85714285714286</ele><time>2026-03-27T15:15:45.998Z</time></trkpt><trkpt lat="49.19763945024692" lon="2.578416357395252"><ele>56.57142857142857</ele><time>2026-03-27T15:15:46.998Z</time></trkpt><trkpt lat="49.19757879086388" lon="2.5783763439638765"><ele>56.285714285714285</ele><time>2026-03-27T15:15:47.998Z</time></trkpt><trkpt lat="49.197515478620375" lon="2.578334580546569"><ele>56.0</ele><time>2026-03-27T15:15:48.998Z</time></trkpt><trkpt lat="49.19745391020656" lon="2.5782939675057794"><ele>56.0</ele><time>2026-03-27T15:15:49.998Z</time></trkpt><trkpt lat="49.19739280330594" lon="2.5782536588573066"><ele>56.0</ele><time>2026-03-27T15:15:50.997Z</time></trkpt><trkpt lat="49.19732952211073" lon="2.5782119159160684"><ele>56.0</ele><time>2026-03-27T15:15:51.997Z</time></trkpt><trkpt lat="49.19726769045768" lon="2.578171129218934"><ele>56.0</ele><time>2026-03-27T15:15:52.997Z</time></trkpt><trkpt lat="49.19720425006025" lon="2.578129237495294"><ele>56.0</ele><time>2026-03-27T15:15:53.997Z</time></trkpt><trkpt lat="49.19714214638803" lon="2.5780881666118436"><ele>56.0</ele><time>2026-03-27T15:15:54.997Z</time></trkpt><trkpt lat="49.19708009121788" lon="2.5780471277933255"><ele>56.0</ele><time>2026-03-27T15:15:55.997Z</time></trkpt><trkpt lat="49.19701988960916" lon="2.5780073147520284"><ele>55.857142857142854</ele><time>2026-03-27T15:15:56.997Z</time></trkpt><trkpt lat="49.19695706123262" lon="2.5779657645983143"><ele>55.714285714285715</ele><time>2026-03-27T15:15:57.997Z</time></trkpt><trkpt lat="49.196894609613324" lon="2.5779244636040635"><ele>55.57142857142857</ele><time>2026-03-27T15:15:58.997Z</time></trkpt><trkpt lat="49.19683353324773" lon="2.577884072112914"><ele>55.42857142857143</ele><time>2026-03-27T15:15:59.997Z</time></trkpt><trkpt lat="49.196771263394616" lon="2.577842891289478"><ele>55.285714285714285</ele><time>2026-03-27T15:16:00.997Z</time></trkpt><trkpt lat="49.196708034793076" lon="2.5778010764329675"><ele>55.14285714285714</ele><time>2026-03-27T15:16:01.997Z</time></trkpt><trkpt lat="49.19664500603729" lon="2.577760039840286"><ele>55.0</ele><time>2026-03-27T15:16:02.997Z</time></trkpt><trkpt lat="49.19658174437258" lon="2.577719592582836"><ele>54.99999999999999</ele><time>2026-03-27T15:16:03.997Z</time></trkpt><trkpt lat="49.19651833040082" lon="2.5776790479552987"><ele>55.0</ele><time>2026-03-27T15:16:04.997Z</time></trkpt><trkpt lat="49.19645179332021" lon="2.5776365064797426"><ele>55.0</ele><time>2026-03-27T15:16:05.997Z</time></trkpt><trkpt lat="49.196387954562375" lon="2.5775964443658177"><ele>55.0</ele><time>2026-03-27T15:16:06.997Z</time></trkpt><trkpt lat="49.19632499313083" lon="2.577557349994738"><ele>55.0</ele><time>2026-03-27T15:16:07.997Z</time></trkpt><trkpt lat="49.1962619291891" lon="2.5775181919954746"><ele>54.99999999999999</ele><time>2026-03-27T15:16:08.997Z</time></trkpt><trkpt lat="49.19619815344208" lon="2.5774785904282873"><ele>55.0</ele><time>2026-03-27T15:16:09.997Z</time></trkpt><trkpt lat="49.19613715170798" lon="2.577443063361419"><ele>54.99999999999999</ele><time>2026-03-27T15:16:10.997Z</time></trkpt><trkpt lat="49.19607623485475" lon="2.577406650757372"><ele>55.0</ele><time>2026-03-27T15:16:11.997Z</time></trkpt><trkpt lat="49.19601683924438" lon="2.577370931157835"><ele>55.0</ele><time>2026-03-27T15:16:12.997Z</time></trkpt><trkpt lat="49.195903170598385" lon="2.577302524791225"><ele>55.0</ele><time>2026-03-27T15:16:14.997Z</time></trkpt><trkpt lat="49.19584224534319" lon="2.577265859584475"><ele>54.99999999999999</ele><time>2026-03-27T15:16:15.997Z</time></trkpt><trkpt lat="49.19574230633805" lon="2.5772057181175874"><ele>55.0</ele><time>2026-03-27T15:16:17.997Z</time></trkpt><trkpt lat="49.19567633534575" lon="2.577187448315124"><ele>54.99999999999999</ele><time>2026-03-27T15:16:18.997Z</time></trkpt><trkpt lat="49.195582649982896" lon="2.5771227635749727"><ele>55.0</ele><time>2026-03-27T15:16:20.997Z</time></trkpt><trkpt lat="49.19553063809611" lon="2.5770640664004216"><ele>55.0</ele><time>2026-03-27T15:16:22.997Z</time></trkpt><trkpt lat="49.19547788356808" lon="2.5769812920043225"><ele>55.0</ele><time>2026-03-27T15:16:25Z</time></trkpt><trkpt lat="49.19541474769615" lon="2.5768929409103736"><ele>54.99999999999999</ele><time>2026-03-27T15:16:27Z</time></trkpt><trkpt lat="49.19532842725551" lon="2.576857452049841"><ele>55.0</ele><time>2026-03-27T15:16:29Z</time></trkpt><trkpt lat="49.195246360455386" lon="2.576815955801371"><ele>55.0</ele><time>2026-03-27T15:16:31Z</time></trkpt><trkpt lat="49.19516118422416" lon="2.5767575392346016"><ele>55.0</ele><time>2026-03-27T15:16:33Z</time></trkpt><trkpt lat="49.19507416080848" lon="2.5766937090508284"><ele>55.0</ele><time>2026-03-27T15:16:35Z</time></trkpt><trkpt lat="49.1949847311606" lon="2.576637553888489"><ele>55.0</ele><time>2026-03-27T15:16:37Z</time></trkpt><trkpt lat="49.194899382675956" lon="2.5765841522252075"><ele>55.0</ele><time>2026-03-27T15:16:39Z</time></trkpt><trkpt lat="49.194810559545594" lon="2.5765265344095454"><ele>55.0</ele><time>2026-03-27T15:16:40.999Z</time></trkpt><trkpt lat="49.19472953753983" lon="2.5764781120665172"><ele>55.0</ele><time>2026-03-27T15:16:42.999Z</time></trkpt><trkpt lat="49.194637603088744" lon="2.576423991615565"><ele>55.0</ele><time>2026-03-27T15:16:44.999Z</time></trkpt><trkpt lat="49.1945578589889" lon="2.576362057897686"><ele>55.0</ele><time>2026-03-27T15:16:46.999Z</time></trkpt><trkpt lat="49.19447674980572" lon="2.576299627844281"><ele>55.0</ele><time>2026-03-27T15:16:48.999Z</time></trkpt><trkpt lat="49.19439099366935" lon="2.5762500336977934"><ele>54.99999999999999</ele><time>2026-03-27T15:16:50.999Z</time></trkpt><trkpt lat="49.19431478287623" lon="2.576191915048402"><ele>55.0</ele><time>2026-03-27T15:16:52.999Z</time></trkpt><trkpt lat="49.19423286506042" lon="2.5761373174490676"><ele>55.0</ele><time>2026-03-27T15:16:54.999Z</time></trkpt><trkpt lat="49.19415762968703" lon="2.576079816885261"><ele>55.0</ele><time>2026-03-27T15:16:56.999Z</time></trkpt><trkpt lat="49.194080909823" lon="2.5760226429016244"><ele>54.99999999999999</ele><time>2026-03-27T15:16:58.999Z</time></trkpt><trkpt lat="49.19400178255065" lon="2.5759651639291596"><ele>55.0</ele><time>2026-03-27T15:17:00.999Z</time></trkpt><trkpt lat="49.19393009107482" lon="2.5759210066274285"><ele>55.33333333333333</ele><time>2026-03-27T15:17:02.999Z</time></trkpt><trkpt lat="49.19385024220333" lon="2.5758635289901872"><ele>55.666666666666664</ele><time>2026-03-27T15:17:04.999Z</time></trkpt><trkpt lat="49.19377131247139" lon="2.5758119611659027"><ele>56.0</ele><time>2026-03-27T15:17:06.999Z</time></trkpt><trkpt lat="49.19369403462964" lon="2.5757531473987925"><ele>56.33333333333333</ele><time>2026-03-27T15:17:08.999Z</time></trkpt><trkpt lat="49.19361247064875" lon="2.575698728108831"><ele>56.666666666666664</ele><time>2026-03-27T15:17:10.999Z</time></trkpt><trkpt lat="49.19353457111035" lon="2.5756425905074134"><ele>57.0</ele><time>2026-03-27T15:17:12.999Z</time></trkpt><trkpt lat="49.19345669776266" lon="2.575590096049345"><ele>57.0</ele><time>2026-03-27T15:17:14.999Z</time></trkpt><trkpt lat="49.19338147015565" lon="2.5755334814089297"><ele>57.0</ele><time>2026-03-27T15:17:16.998Z</time></trkpt><trkpt lat="49.193304843996806" lon="2.575484956238211"><ele>57.0</ele><time>2026-03-27T15:17:18.998Z</time></trkpt><trkpt lat="49.19323032887116" lon="2.5754304584557444"><ele>57.0</ele><time>2026-03-27T15:17:20.998Z</time></trkpt><trkpt lat="49.19316100208035" lon="2.575376420149405"><ele>57.0</ele><time>2026-03-27T15:17:22.998Z</time></trkpt><trkpt lat="49.193085978531464" lon="2.575321521223686"><ele>57.0</ele><time>2026-03-27T15:17:24.998Z</time></trkpt><trkpt lat="49.19301229520508" lon="2.575270476054693"><ele>57.333333333333336</ele><time>2026-03-27T15:17:26.998Z</time></trkpt><trkpt lat="49.192942246206364" lon="2.5752164987724835"><ele>57.66666666666667</ele><time>2026-03-27T15:17:28.998Z</time></trkpt><trkpt lat="49.19287171239424" lon="2.5751485728741255"><ele>58.0</ele><time>2026-03-27T15:17:30.998Z</time></trkpt><trkpt lat="49.19279872550398" lon="2.5750934912052537"><ele>58.333333333333336</ele><time>2026-03-27T15:17:32.998Z</time></trkpt><trkpt lat="49.19272090057809" lon="2.575048473835091"><ele>58.66666666666667</ele><time>2026-03-27T15:17:34.998Z</time></trkpt><trkpt lat="49.192646371222786" lon="2.5749985437829777"><ele>59.0</ele><time>2026-03-27T15:17:36.998Z</time></trkpt><trkpt lat="49.19257301860428" lon="2.574946367996829"><ele>59.00000000000001</ele><time>2026-03-27T15:17:38.998Z</time></trkpt><trkpt lat="49.19250046191105" lon="2.5748972165984987"><ele>59.0</ele><time>2026-03-27T15:17:40.998Z</time></trkpt><trkpt lat="49.192425558437186" lon="2.5748394942719255"><ele>59.0</ele><time>2026-03-27T15:17:42.998Z</time></trkpt><trkpt lat="49.19234851036083" lon="2.5747870609498027"><ele>59.0</ele><time>2026-03-27T15:17:44.998Z</time></trkpt><trkpt lat="49.19227153323453" lon="2.5747302224130393"><ele>59.00000000000001</ele><time>2026-03-27T15:17:46.998Z</time></trkpt><trkpt lat="49.19219165784207" lon="2.5746766053062458"><ele>59.0</ele><time>2026-03-27T15:17:48.998Z</time></trkpt><trkpt lat="49.19211155513343" lon="2.574620344837649"><ele>59.16666666666667</ele><time>2026-03-27T15:17:50.998Z</time></trkpt><trkpt lat="49.19203320173682" lon="2.574560464942582"><ele>59.333333333333336</ele><time>2026-03-27T15:17:52.997Z</time></trkpt><trkpt lat="49.1919539787807" lon="2.5745072558981112"><ele>59.5</ele><time>2026-03-27T15:17:54.997Z</time></trkpt><trkpt lat="49.19187553507343" lon="2.5744629348833765"><ele>59.66666666666667</ele><time>2026-03-27T15:17:56.997Z</time></trkpt><trkpt lat="49.19180462407852" lon="2.574399077347372"><ele>59.833333333333336</ele><time>2026-03-27T15:17:58.997Z</time></trkpt><trkpt lat="49.191728537706744" lon="2.574334017906132"><ele>60.0</ele><time>2026-03-27T15:18:00.997Z</time></trkpt><trkpt lat="49.19165409800487" lon="2.574251875312032"><ele>60.2</ele><time>2026-03-27T15:18:02.997Z</time></trkpt><trkpt lat="49.19160256065127" lon="2.574137805241263"><ele>60.4</ele><time>2026-03-27T15:18:04.997Z</time></trkpt><trkpt lat="49.191547801054824" lon="2.5740228768658664"><ele>60.599999999999994</ele><time>2026-03-27T15:18:06.997Z</time></trkpt><trkpt lat="49.19146638647184" lon="2.5739375993035147"><ele>60.8</ele><time>2026-03-27T15:18:08.997Z</time></trkpt><trkpt lat="49.19137520192161" lon="2.573870112075755"><ele>61.0</ele><time>2026-03-27T15:18:10.997Z</time></trkpt><trkpt lat="49.191267418506946" lon="2.573860497670214"><ele>61.4</ele><time>2026-03-27T15:18:12.997Z</time></trkpt><trkpt lat="49.19117628763665" lon="2.5739297907861465"><ele>61.8</ele><time>2026-03-27T15:18:14.997Z</time></trkpt><trkpt lat="49.191115953578354" lon="2.574045103707723"><ele>62.199999999999996</ele><time>2026-03-27T15:18:16.997Z</time></trkpt><trkpt lat="49.19107774906887" lon="2.5741804509418724"><ele>62.599999999999994</ele><time>2026-03-27T15:18:18.997Z</time></trkpt><trkpt lat="49.191059216730615" lon="2.5743329365519108"><ele>63.0</ele><time>2026-03-27T15:18:20.997Z</time></trkpt><trkpt lat="49.19105804374539" lon="2.5744698878250403"><ele>63.0</ele><time>2026-03-27T15:18:22.997Z</time></trkpt><trkpt lat="49.190999253292844" lon="2.5745171811156"><ele>63.0</ele><time>2026-03-27T15:18:25.997Z</time></trkpt><trkpt lat="49.190933719266475" lon="2.5745246862618947"><ele>63.0</ele><time>2026-03-27T15:18:27.996Z</time></trkpt><trkpt lat="49.19083891608448" lon="2.5744874541041716"><ele>63.0</ele><time>2026-03-27T15:18:30.999Z</time></trkpt><trkpt lat="49.19074664848008" lon="2.5745068286495045"><ele>63.0</ele><time>2026-03-27T15:18:33.999Z</time></trkpt><trkpt lat="49.19067883135735" lon="2.574493737624225"><ele>63.0</ele><time>2026-03-27T15:18:35.999Z</time></trkpt><trkpt lat="49.190580721096865" lon="2.574516479295958"><ele>63.57142857142857</ele><time>2026-03-27T15:18:38.999Z</time></trkpt><trkpt lat="49.19050897925359" lon="2.574507462001239"><ele>64.14285714285714</ele><time>2026-03-27T15:18:40.999Z</time></trkpt><trkpt lat="49.190441646017284" lon="2.574480252398412"><ele>64.71428571428572</ele><time>2026-03-27T15:18:42.999Z</time></trkpt><trkpt lat="49.190375443008485" lon="2.5744895211944314"><ele>65.28571428571428</ele><time>2026-03-27T15:18:44.999Z</time></trkpt><trkpt lat="49.19031066231591" lon="2.574487525727198"><ele>65.85714285714286</ele><time>2026-03-27T15:18:46.999Z</time></trkpt><trkpt lat="49.19023859151329" lon="2.574490169798656"><ele>66.42857142857143</ele><time>2026-03-27T15:18:48.999Z</time></trkpt><trkpt lat="49.19016642943188" lon="2.57448560294532"><ele>67.0</ele><time>2026-03-27T15:18:50.999Z</time></trkpt><trkpt lat="49.19009598167448" lon="2.574482866846098"><ele>67.0</ele><time>2026-03-27T15:18:52.999Z</time></trkpt><trkpt lat="49.1900133769803" lon="2.574479298819265"><ele>67.0</ele><time>2026-03-27T15:18:54.999Z</time></trkpt><trkpt lat="49.18993341186819" lon="2.5744871970413867"><ele>67.0</ele><time>2026-03-27T15:18:56.999Z</time></trkpt><trkpt lat="49.18986194985988" lon="2.5744886774095597"><ele>67.0</ele><time>2026-03-27T15:18:58.999Z</time></trkpt><trkpt lat="49.18979203724649" lon="2.574475898315269"><ele>67.0</ele><time>2026-03-27T15:19:00.999Z</time></trkpt><trkpt lat="49.18971572473913" lon="2.5744732121558864"><ele>67.0</ele><time>2026-03-27T15:19:02.999Z</time></trkpt><trkpt lat="49.18963670715551" lon="2.5744683710457164"><ele>67.66666666666666</ele><time>2026-03-27T15:19:04.999Z</time></trkpt><trkpt lat="49.18954821390586" lon="2.5744604926935337"><ele>68.33333333333333</ele><time>2026-03-27T15:19:06.999Z</time></trkpt><trkpt lat="49.18946174848192" lon="2.5744638388474947"><ele>69.0</ele><time>2026-03-27T15:19:08.999Z</time></trkpt><trkpt lat="49.189377068830375" lon="2.574483265684863"><ele>69.66666666666667</ele><time>2026-03-27T15:19:10.999Z</time></trkpt><trkpt lat="49.18929240439655" lon="2.574484654678835"><ele>70.33333333333334</ele><time>2026-03-27T15:19:12.999Z</time></trkpt><trkpt lat="49.189200163849975" lon="2.574475139574936"><ele>71.0</ele><time>2026-03-27T15:19:14.999Z</time></trkpt><trkpt lat="49.18911865342355" lon="2.5744769895241313"><ele>71.0</ele><time>2026-03-27T15:19:16.999Z</time></trkpt><trkpt lat="49.1890473891235" lon="2.574462745122513"><ele>71.0</ele><time>2026-03-27T15:19:18.999Z</time></trkpt><trkpt lat="49.18897176945311" lon="2.5744621491600057"><ele>71.0</ele><time>2026-03-27T15:19:20.999Z</time></trkpt><trkpt lat="49.1889056963259" lon="2.574484315203009"><ele>71.0</ele><time>2026-03-27T15:19:22.998Z</time></trkpt><trkpt lat="49.188821022544666" lon="2.5744889583196353"><ele>71.0</ele><time>2026-03-27T15:19:24.998Z</time></trkpt><trkpt lat="49.188735772159475" lon="2.5744852022160054"><ele>71.0</ele><time>2026-03-27T15:19:26.998Z</time></trkpt><trkpt lat="49.18865258807602" lon="2.5745224669826414"><ele>71.16666666666667</ele><time>2026-03-27T15:19:28.998Z</time></trkpt><trkpt lat="49.18856909565544" lon="2.574511513082272"><ele>71.33333333333334</ele><time>2026-03-27T15:19:30.998Z</time></trkpt><trkpt lat="49.18848161930682" lon="2.574513147084271"><ele>71.5</ele><time>2026-03-27T15:19:32.998Z</time></trkpt><trkpt lat="49.18841353745625" lon="2.574477650015836"><ele>71.66666666666667</ele><time>2026-03-27T15:19:34.998Z</time></trkpt><trkpt lat="49.188347180022284" lon="2.5744648378801407"><ele>71.83333333333333</ele><time>2026-03-27T15:19:36.998Z</time></trkpt><trkpt lat="49.18827126198202" lon="2.5744767324664153"><ele>72.0</ele><time>2026-03-27T15:19:38.998Z</time></trkpt><trkpt lat="49.18819548216838" lon="2.574475128443403"><ele>71.33333333333333</ele><time>2026-03-27T15:19:40.998Z</time></trkpt><trkpt lat="49.18810910814594" lon="2.5744756318005337"><ele>70.66666666666667</ele><time>2026-03-27T15:19:42.998Z</time></trkpt><trkpt lat="49.18803029584606" lon="2.574465688119826"><ele>70.0</ele><time>2026-03-27T15:19:44.998Z</time></trkpt><trkpt lat="49.18794837029324" lon="2.5744524192799787"><ele>69.33333333333334</ele><time>2026-03-27T15:19:46.998Z</time></trkpt><trkpt lat="49.18788533816076" lon="2.5744451179882626"><ele>68.66666666666667</ele><time>2026-03-27T15:19:48.998Z</time></trkpt><trkpt lat="49.187787013702724" lon="2.574439089156545"><ele>68.0</ele><time>2026-03-27T15:19:50.998Z</time></trkpt><trkpt lat="49.18771024257818" lon="2.5744501080773663"><ele>68.0</ele><time>2026-03-27T15:19:52.998Z</time></trkpt><trkpt lat="49.1876308459731" lon="2.574454658137728"><ele>68.0</ele><time>2026-03-27T15:19:54.998Z</time></trkpt><trkpt lat="49.187554198823754" lon="2.574458108146157"><ele>68.0</ele><time>2026-03-27T15:19:56.998Z</time></trkpt><trkpt lat="49.1874676924716" lon="2.5744536887524405"><ele>68.0</ele><time>2026-03-27T15:19:58.997Z</time></trkpt><trkpt lat="49.18739215314181" lon="2.574463295858045"><ele>68.0</ele><time>2026-03-27T15:20:00.997Z</time></trkpt><trkpt lat="49.187310924159874" lon="2.5744635322504257"><ele>68.0</ele><time>2026-03-27T15:20:02.997Z</time></trkpt><trkpt lat="49.18723214610032" lon="2.5744495407564867"><ele>67.66666666666667</ele><time>2026-03-27T15:20:04.997Z</time></trkpt><trkpt lat="49.187164103145484" lon="2.574440862094724"><ele>67.33333333333334</ele><time>2026-03-27T15:20:06.997Z</time></trkpt><trkpt lat="49.18708112937934" lon="2.574432490377483"><ele>67.0</ele><time>2026-03-27T15:20:08.997Z</time></trkpt><trkpt lat="49.18700454072404" lon="2.574436953079033"><ele>66.66666666666667</ele><time>2026-03-27T15:20:10.997Z</time></trkpt><trkpt lat="49.186920114190876" lon="2.5744395963853317"><ele>66.33333333333333</ele><time>2026-03-27T15:20:12.997Z</time></trkpt><trkpt lat="49.186837680991935" lon="2.574419796151033"><ele>66.0</ele><time>2026-03-27T15:20:14.997Z</time></trkpt><trkpt lat="49.18675302778316" lon="2.574399347663936"><ele>66.0</ele><time>2026-03-27T15:20:16.997Z</time></trkpt><trkpt lat="49.186669097878884" lon="2.5743698167118754"><ele>66.0</ele><time>2026-03-27T15:20:18.997Z</time></trkpt><trkpt lat="49.18659352901249" lon="2.5743143640596196"><ele>66.0</ele><time>2026-03-27T15:20:20.997Z</time></trkpt><trkpt lat="49.18655150551106" lon="2.5742027602578412"><ele>66.0</ele><time>2026-03-27T15:20:22.997Z</time></trkpt><trkpt lat="49.186477729711626" lon="2.5741490253113386"><ele>66.0</ele><time>2026-03-27T15:20:24.997Z</time></trkpt><trkpt lat="49.186397678978885" lon="2.5743281891068897"><ele>65.83333333333333</ele><time>2026-03-27T15:20:26.997Z</time></trkpt><trkpt lat="49.186311122018374" lon="2.5743128194901996"><ele>65.66666666666667</ele><time>2026-03-27T15:20:28.997Z</time></trkpt><trkpt lat="49.18624332876908" lon="2.5742899617788795"><ele>65.5</ele><time>2026-03-27T15:20:30.997Z</time></trkpt><trkpt lat="49.186180912167906" lon="2.5742689173851345"><ele>65.33333333333334</ele><time>2026-03-27T15:20:32.997Z</time></trkpt><trkpt lat="49.1860840500292" lon="2.5742362580443934"><ele>65.16666666666667</ele><time>2026-03-27T15:20:35.999Z</time></trkpt><trkpt lat="49.186014924735275" lon="2.5742129503179307"><ele>65.0</ele><time>2026-03-27T15:20:37.999Z</time></trkpt><trkpt lat="49.185943570600394" lon="2.574188891103932"><ele>65.0</ele><time>2026-03-27T15:20:39.999Z</time></trkpt><trkpt lat="49.18590590948416" lon="2.5738796086612186"><ele>65.0</ele><time>2026-03-27T15:20:41.999Z</time></trkpt><trkpt lat="49.18582188155623" lon="2.5738368193524557"><ele>65.0</ele><time>2026-03-27T15:20:43.999Z</time></trkpt><trkpt lat="49.185738621909834" lon="2.573803134538725"><ele>65.0</ele><time>2026-03-27T15:20:45.999Z</time></trkpt><trkpt lat="49.18566136180429" lon="2.573784128578492"><ele>64.66666666666667</ele><time>2026-03-27T15:20:47.999Z</time></trkpt><trkpt lat="49.185576254459384" lon="2.5737715533879495"><ele>64.33333333333334</ele><time>2026-03-27T15:20:49.999Z</time></trkpt><trkpt lat="49.18549260656952" lon="2.5737876041358625"><ele>64.0</ele><time>2026-03-27T15:20:51.999Z</time></trkpt><trkpt lat="49.18541472178933" lon="2.5738172716740393"><ele>63.66666666666667</ele><time>2026-03-27T15:20:53.999Z</time></trkpt><trkpt lat="49.18534414880458" lon="2.5738355066608967"><ele>63.333333333333336</ele><time>2026-03-27T15:20:55.999Z</time></trkpt><trkpt lat="49.185258032124004" lon="2.5738589618583636"><ele>63.0</ele><time>2026-03-27T15:20:57.999Z</time></trkpt><trkpt lat="49.1851809517663" lon="2.5738937501727777"><ele>63.0</ele><time>2026-03-27T15:20:59.999Z</time></trkpt><trkpt lat="49.18509951703066" lon="2.5739292993668803"><ele>63.0</ele><time>2026-03-27T15:21:01.999Z</time></trkpt><trkpt lat="49.185016670352546" lon="2.573987791169904"><ele>63.0</ele><time>2026-03-27T15:21:03.999Z</time></trkpt><trkpt lat="49.18493748284229" lon="2.574044777917361"><ele>63.0</ele><time>2026-03-27T15:21:05.999Z</time></trkpt><trkpt lat="49.184862110129174" lon="2.574107361005583"><ele>63.0</ele><time>2026-03-27T15:21:07.999Z</time></trkpt><trkpt lat="49.1847790775386" lon="2.574174096848935"><ele>63.0</ele><time>2026-03-27T15:21:09.999Z</time></trkpt><trkpt lat="49.184706446761965" lon="2.5742536561813836"><ele>63.0</ele><time>2026-03-27T15:21:11.999Z</time></trkpt><trkpt lat="49.1846230680001" lon="2.574298327414867"><ele>63.0</ele><time>2026-03-27T15:21:13.999Z</time></trkpt><trkpt lat="49.18453441883294" lon="2.5743595624754994"><ele>63.0</ele><time>2026-03-27T15:21:15.999Z</time></trkpt><trkpt lat="49.184446880874624" lon="2.574419943577284"><ele>63.0</ele><time>2026-03-27T15:21:17.999Z</time></trkpt><trkpt lat="49.18436455823873" lon="2.574477374572496"><ele>63.0</ele><time>2026-03-27T15:21:19.999Z</time></trkpt><trkpt lat="49.184290914868924" lon="2.5745274990403293"><ele>63.0</ele><time>2026-03-27T15:21:21.999Z</time></trkpt><trkpt lat="49.18419292395443" lon="2.5745445846886774"><ele>63.0</ele><time>2026-03-27T15:21:23.999Z</time></trkpt><trkpt lat="49.18410023582015" lon="2.5745669355043006"><ele>63.0</ele><time>2026-03-27T15:21:25.999Z</time></trkpt><trkpt lat="49.18401251532702" lon="2.5746017922500064"><ele>63.0</ele><time>2026-03-27T15:21:27.998Z</time></trkpt><trkpt lat="49.183927273820686" lon="2.5746561294479458"><ele>63.0</ele><time>2026-03-27T15:21:29.998Z</time></trkpt><trkpt lat="49.183835678969444" lon="2.5746970884238065"><ele>63.166666666666664</ele><time>2026-03-27T15:21:31.998Z</time></trkpt><trkpt lat="49.18374262974346" lon="2.574738819414268"><ele>63.33333333333333</ele><time>2026-03-27T15:21:33.998Z</time></trkpt><trkpt lat="49.18365001899019" lon="2.5747696022833138"><ele>63.5</ele><time>2026-03-27T15:21:35.998Z</time></trkpt><trkpt lat="49.18357308748498" lon="2.574821176647267"><ele>63.666666666666664</ele><time>2026-03-27T15:21:37.998Z</time></trkpt><trkpt lat="49.18349464058233" lon="2.5748708534087275"><ele>63.83333333333333</ele><time>2026-03-27T15:21:39.998Z</time></trkpt><trkpt lat="49.183414681868875" lon="2.574914576638646"><ele>64.0</ele><time>2026-03-27T15:21:41.998Z</time></trkpt><trkpt lat="49.18333501841275" lon="2.574933758818835"><ele>64.0</ele><time>2026-03-27T15:21:43.998Z</time></trkpt><trkpt lat="49.183247084073656" lon="2.5749497707633027"><ele>64.0</ele><time>2026-03-27T15:21:45.998Z</time></trkpt><trkpt lat="49.1831584677518" lon="2.5748961100550316"><ele>64.0</ele><time>2026-03-27T15:21:47.998Z</time></trkpt><trkpt lat="49.183071601921334" lon="2.5748357145881653"><ele>64.0</ele><time>2026-03-27T15:21:49.998Z</time></trkpt><trkpt lat="49.18298261391979" lon="2.574771392992923"><ele>64.0</ele><time>2026-03-27T15:21:51.998Z</time></trkpt><trkpt lat="49.18288447995961" lon="2.5747452903250014"><ele>64.2</ele><time>2026-03-27T15:21:53.998Z</time></trkpt><trkpt lat="49.1827952094193" lon="2.5747245287784666"><ele>64.4</ele><time>2026-03-27T15:21:55.998Z</time></trkpt><trkpt lat="49.18269533835043" lon="2.574705997928754"><ele>64.6</ele><time>2026-03-27T15:21:57.998Z</time></trkpt><trkpt lat="49.18260681789411" lon="2.574710170406242"><ele>64.8</ele><time>2026-03-27T15:21:59.998Z</time></trkpt><trkpt lat="49.18250905529538" lon="2.574725654540869"><ele>65.0</ele><time>2026-03-27T15:22:01.998Z</time></trkpt><trkpt lat="49.18241123813536" lon="2.57473749570648"><ele>64.6</ele><time>2026-03-27T15:22:03.997Z</time></trkpt><trkpt lat="49.18232200742947" lon="2.574715924673781"><ele>64.2</ele><time>2026-03-27T15:22:05.997Z</time></trkpt><trkpt lat="49.1822456379415" lon="2.5746489244735162"><ele>63.8</ele><time>2026-03-27T15:22:07.997Z</time></trkpt><trkpt lat="49.18216582166751" lon="2.5745953368483536"><ele>63.4</ele><time>2026-03-27T15:22:09.997Z</time></trkpt><trkpt lat="49.18208384232716" lon="2.5745380336033294"><ele>63.0</ele><time>2026-03-27T15:22:11.997Z</time></trkpt><trkpt lat="49.18199691911652" lon="2.574478737616636"><ele>63.0</ele><time>2026-03-27T15:22:13.997Z</time></trkpt><trkpt lat="49.1819167198432" lon="2.574424169499767"><ele>63.0</ele><time>2026-03-27T15:22:15.997Z</time></trkpt><trkpt lat="49.1818359410455" lon="2.574365627029315"><ele>63.0</ele><time>2026-03-27T15:22:17.997Z</time></trkpt><trkpt lat="49.18175641495692" lon="2.5743124917861056"><ele>63.0</ele><time>2026-03-27T15:22:19.997Z</time></trkpt><trkpt lat="49.1816768454369" lon="2.5742606086941713"><ele>63.0</ele><time>2026-03-27T15:22:21.997Z</time></trkpt><trkpt lat="49.18159479859786" lon="2.574205453229426"><ele>63.0</ele><time>2026-03-27T15:22:23.997Z</time></trkpt><trkpt lat="49.18151442807539" lon="2.574154584129825"><ele>62.333333333333336</ele><time>2026-03-27T15:22:25.997Z</time></trkpt><trkpt lat="49.18143232400323" lon="2.574097438940803"><ele>61.66666666666667</ele><time>2026-03-27T15:22:27.997Z</time></trkpt><trkpt lat="49.18135671032854" lon="2.5740443684172933"><ele>61.0</ele><time>2026-03-27T15:22:29.997Z</time></trkpt><trkpt lat="49.181277298147805" lon="2.573987784750965"><ele>60.333333333333336</ele><time>2026-03-27T15:22:31.997Z</time></trkpt><trkpt lat="49.18119559531778" lon="2.5739302037841028"><ele>59.66666666666667</ele><time>2026-03-27T15:22:33.997Z</time></trkpt><trkpt lat="49.18111218069845" lon="2.5738747516774523"><ele>59.0</ele><time>2026-03-27T15:22:35.997Z</time></trkpt><trkpt lat="49.18103295495757" lon="2.573818983192292"><ele>59.00000000000001</ele><time>2026-03-27T15:22:37.997Z</time></trkpt><trkpt lat="49.180946820463674" lon="2.5737626187555875"><ele>59.0</ele><time>2026-03-27T15:22:39.996Z</time></trkpt><trkpt lat="49.18086129597208" lon="2.5737005425770767"><ele>59.0</ele><time>2026-03-27T15:22:41.999Z</time></trkpt><trkpt lat="49.180774204681065" lon="2.573637325334259"><ele>59.0</ele><time>2026-03-27T15:22:43.999Z</time></trkpt><trkpt lat="49.180695329582065" lon="2.5735930491428762"><ele>59.00000000000001</ele><time>2026-03-27T15:22:45.999Z</time></trkpt><trkpt lat="49.18062469419648" lon="2.5735511149488066"><ele>59.0</ele><time>2026-03-27T15:22:47.999Z</time></trkpt><trkpt lat="49.180554099618725" lon="2.573524555681249"><ele>59.57142857142857</ele><time>2026-03-27T15:22:49.999Z</time></trkpt><trkpt lat="49.18048913661886" lon="2.5734909372553436"><ele>60.142857142857146</ele><time>2026-03-27T15:22:52Z</time></trkpt><trkpt lat="49.180429976700374" lon="2.5734514706529756"><ele>60.714285714285715</ele><time>2026-03-27T15:22:54Z</time></trkpt><trkpt lat="49.18037353220434" lon="2.573408200761481"><ele>61.285714285714285</ele><time>2026-03-27T15:22:55.999Z</time></trkpt><trkpt lat="49.18031295390114" lon="2.5733279162869396"><ele>61.85714285714286</ele><time>2026-03-27T15:22:58.999Z</time></trkpt><trkpt lat="49.18022558434008" lon="2.573278681341698"><ele>62.42857142857143</ele><time>2026-03-27T15:23:01.999Z</time></trkpt><trkpt lat="49.180173048929824" lon="2.5731966849431274"><ele>63.0</ele><time>2026-03-27T15:23:03.999Z</time></trkpt><trkpt lat="49.180098309226274" lon="2.5731596388027347"><ele>63.0</ele><time>2026-03-27T15:23:05.999Z</time></trkpt><trkpt lat="49.18002453997075" lon="2.5731071050074603"><ele>63.0</ele><time>2026-03-27T15:23:07.999Z</time></trkpt><trkpt lat="49.17993789013605" lon="2.57303843696426"><ele>63.0</ele><time>2026-03-27T15:23:09.999Z</time></trkpt><trkpt lat="49.1798560971403" lon="2.5729897849683208"><ele>63.0</ele><time>2026-03-27T15:23:11.999Z</time></trkpt><trkpt lat="49.17977432268495" lon="2.5729376106334434"><ele>63.0</ele><time>2026-03-27T15:23:13.999Z</time></trkpt><trkpt lat="49.17968928700319" lon="2.572878139887825"><ele>63.0</ele><time>2026-03-27T15:23:15.999Z</time></trkpt><trkpt lat="49.17960036000926" lon="2.572816570484632"><ele>63.0</ele><time>2026-03-27T15:23:17.999Z</time></trkpt><trkpt lat="49.179505137968086" lon="2.5727517571168055"><ele>63.0</ele><time>2026-03-27T15:23:19.999Z</time></trkpt><trkpt lat="49.179426448605746" lon="2.5726986497177857"><ele>63.0</ele><time>2026-03-27T15:23:21.999Z</time></trkpt><trkpt lat="49.179355733724215" lon="2.5726466138148254"><ele>63.0</ele><time>2026-03-27T15:23:23.999Z</time></trkpt><trkpt lat="49.1792933164987" lon="2.572601793327954"><ele>63.0</ele><time>2026-03-27T15:23:25.999Z</time></trkpt><trkpt lat="49.17921971724517" lon="2.5725521833017706"><ele>63.0</ele><time>2026-03-27T15:23:27.999Z</time></trkpt><trkpt lat="49.17912938288262" lon="2.5724892018744785"><ele>63.0</ele><time>2026-03-27T15:23:29.999Z</time></trkpt><trkpt lat="49.179053996223786" lon="2.5724328501746676"><ele>63.0</ele><time>2026-03-27T15:23:31.999Z</time></trkpt><trkpt lat="49.17896452958909" lon="2.5723764282819417"><ele>63.0</ele><time>2026-03-27T15:23:33.999Z</time></trkpt><trkpt lat="49.17888394106791" lon="2.572312304085471"><ele>63.0</ele><time>2026-03-27T15:23:35.998Z</time></trkpt><trkpt lat="49.178798656335005" lon="2.5722404656269275"><ele>63.0</ele><time>2026-03-27T15:23:37.998Z</time></trkpt><trkpt lat="49.17871305316924" lon="2.5721944412040174"><ele>63.0</ele><time>2026-03-27T15:23:39.998Z</time></trkpt><trkpt lat="49.1786344494494" lon="2.5721393819992255"><ele>63.0</ele><time>2026-03-27T15:23:41.998Z</time></trkpt><trkpt lat="49.17855825298467" lon="2.57209022736289"><ele>63.0</ele><time>2026-03-27T15:23:43.998Z</time></trkpt><trkpt lat="49.17848870206276" lon="2.5720491971292265"><ele>63.0</ele><time>2026-03-27T15:23:45.998Z</time></trkpt><trkpt lat="49.178421625991774" lon="2.572003012913151"><ele>63.0</ele><time>2026-03-27T15:23:47.998Z</time></trkpt><trkpt lat="49.17836073549947" lon="2.5719564206725734"><ele>63.0</ele><time>2026-03-27T15:23:49.998Z</time></trkpt><trkpt lat="49.17830264767271" lon="2.571908845339483"><ele>63.166666666666664</ele><time>2026-03-27T15:23:51.998Z</time></trkpt><trkpt lat="49.178236835407276" lon="2.571868578362504"><ele>63.33333333333333</ele><time>2026-03-27T15:23:53.998Z</time></trkpt><trkpt lat="49.17817378453734" lon="2.571823457806216"><ele>63.5</ele><time>2026-03-27T15:23:55.998Z</time></trkpt><trkpt lat="49.17808097472759" lon="2.5717605835402795"><ele>63.666666666666664</ele><time>2026-03-27T15:23:58.998Z</time></trkpt><trkpt lat="49.178002929794715" lon="2.5717042910681616"><ele>63.83333333333333</ele><time>2026-03-27T15:24:00.998Z</time></trkpt><trkpt lat="49.17792172834981" lon="2.571646291219471"><ele>64.0</ele><time>2026-03-27T15:24:02.998Z</time></trkpt><trkpt lat="49.177835620892395" lon="2.571587632723334"><ele>63.2</ele><time>2026-03-27T15:24:04.998Z</time></trkpt><trkpt lat="49.17775457472552" lon="2.5715241796076764"><ele>62.400000000000006</ele><time>2026-03-27T15:24:06.998Z</time></trkpt><trkpt lat="49.17765957711243" lon="2.571459811138186"><ele>61.6</ele><time>2026-03-27T15:24:08.998Z</time></trkpt><trkpt lat="49.17757002497671" lon="2.5713987160983223"><ele>60.8</ele><time>2026-03-27T15:24:10.997Z</time></trkpt><trkpt lat="49.17747441756676" lon="2.571338966392728"><ele>60.0</ele><time>2026-03-27T15:24:12.997Z</time></trkpt><trkpt lat="49.177406962176356" lon="2.5712840835709794"><ele>60.0</ele><time>2026-03-27T15:24:14.997Z</time></trkpt><trkpt lat="49.177329476524605" lon="2.5712257958021163"><ele>60.0</ele><time>2026-03-27T15:24:16.997Z</time></trkpt><trkpt lat="49.177240822757256" lon="2.5711663236273115"><ele>60.0</ele><time>2026-03-27T15:24:18.997Z</time></trkpt><trkpt lat="49.177154238605304" lon="2.5711037019804563"><ele>60.0</ele><time>2026-03-27T15:24:20.997Z</time></trkpt><trkpt lat="49.17706908262324" lon="2.5710457870724746"><ele>60.0</ele><time>2026-03-27T15:24:22.997Z</time></trkpt><trkpt lat="49.17698422266908" lon="2.5709781362330784"><ele>60.0</ele><time>2026-03-27T15:24:24.997Z</time></trkpt><trkpt lat="49.176892689935684" lon="2.570908131626089"><ele>60.0</ele><time>2026-03-27T15:24:26.997Z</time></trkpt><trkpt lat="49.17680562184818" lon="2.57086804526463"><ele>60.0</ele><time>2026-03-27T15:24:28.997Z</time></trkpt><trkpt lat="49.17672329504999" lon="2.5708105920919415"><ele>60.0</ele><time>2026-03-27T15:24:30.997Z</time></trkpt><trkpt lat="49.1766441715897" lon="2.5707453488155494"><ele>60.0</ele><time>2026-03-27T15:24:32.997Z</time></trkpt><trkpt lat="49.1765706272814" lon="2.5706901083522244"><ele>60.6</ele><time>2026-03-27T15:24:34.997Z</time></trkpt><trkpt lat="49.17648780354328" lon="2.570632927319288"><ele>61.2</ele><time>2026-03-27T15:24:36.997Z</time></trkpt><trkpt lat="49.17640546579252" lon="2.5705746405028718"><ele>61.8</ele><time>2026-03-27T15:24:38.997Z</time></trkpt><trkpt lat="49.176326663042225" lon="2.570503960709777"><ele>62.4</ele><time>2026-03-27T15:24:40.997Z</time></trkpt><trkpt lat="49.17624200332601" lon="2.5704609240057454"><ele>63.0</ele><time>2026-03-27T15:24:42.997Z</time></trkpt><trkpt lat="49.17615346787329" lon="2.5703950447112702"><ele>63.0</ele><time>2026-03-27T15:24:44.997Z</time></trkpt><trkpt lat="49.176069694717725" lon="2.5703375608514323"><ele>63.0</ele><time>2026-03-27T15:24:47Z</time></trkpt><trkpt lat="49.175982285621444" lon="2.5702742833619894"><ele>63.0</ele><time>2026-03-27T15:24:49Z</time></trkpt><trkpt lat="49.1759062572943" lon="2.5702133084170073"><ele>63.0</ele><time>2026-03-27T15:24:51Z</time></trkpt><trkpt lat="49.17582180186801" lon="2.570155487431779"><ele>63.0</ele><time>2026-03-27T15:24:53Z</time></trkpt><trkpt lat="49.17573896800257" lon="2.570097841041753"><ele>63.8</ele><time>2026-03-27T15:24:55Z</time></trkpt><trkpt lat="49.175650511095775" lon="2.5700435864101214"><ele>64.6</ele><time>2026-03-27T15:24:57Z</time></trkpt><trkpt lat="49.17555520677749" lon="2.569973186233138"><ele>65.4</ele><time>2026-03-27T15:24:59Z</time></trkpt><trkpt lat="49.17547163022384" lon="2.5699123304081453"><ele>66.2</ele><time>2026-03-27T15:25:01Z</time></trkpt><trkpt lat="49.175388009938914" lon="2.569853176325896"><ele>67.0</ele><time>2026-03-27T15:25:03Z</time></trkpt><trkpt lat="49.17528757647739" lon="2.5697902388099743"><ele>67.0</ele><time>2026-03-27T15:25:05Z</time></trkpt><trkpt lat="49.17519170274018" lon="2.569729819673812"><ele>67.0</ele><time>2026-03-27T15:25:06.999Z</time></trkpt><trkpt lat="49.17510475301333" lon="2.569662873952473"><ele>67.0</ele><time>2026-03-27T15:25:08.999Z</time></trkpt><trkpt lat="49.17501001919454" lon="2.5695985995066204"><ele>67.0</ele><time>2026-03-27T15:25:10.999Z</time></trkpt><trkpt lat="49.1749071362654" lon="2.5695192795719337"><ele>67.0</ele><time>2026-03-27T15:25:12.999Z</time></trkpt><trkpt lat="49.174821382394036" lon="2.5694611932318203"><ele>67.2</ele><time>2026-03-27T15:25:14.999Z</time></trkpt><trkpt lat="49.17473113496984" lon="2.5693876487675533"><ele>67.4</ele><time>2026-03-27T15:25:16.999Z</time></trkpt><trkpt lat="49.17463674156902" lon="2.569327950761752"><ele>67.6</ele><time>2026-03-27T15:25:18.999Z</time></trkpt><trkpt lat="49.174541405029125" lon="2.5692597078033717"><ele>67.8</ele><time>2026-03-27T15:25:20.999Z</time></trkpt><trkpt lat="49.174446176572204" lon="2.5691933862878957"><ele>68.0</ele><time>2026-03-27T15:25:22.999Z</time></trkpt><trkpt lat="49.174340072277175" lon="2.5691308840426923"><ele>68.0</ele><time>2026-03-27T15:25:24.999Z</time></trkpt><trkpt lat="49.174260480573956" lon="2.5690655402986073"><ele>68.0</ele><time>2026-03-27T15:25:26.999Z</time></trkpt><trkpt lat="49.17418088389927" lon="2.569015146341723"><ele>68.0</ele><time>2026-03-27T15:25:28.999Z</time></trkpt><trkpt lat="49.174120265040756" lon="2.568954092150783"><ele>68.0</ele><time>2026-03-27T15:25:30.999Z</time></trkpt><trkpt lat="49.17405263314667" lon="2.5689151363468"><ele>68.0</ele><time>2026-03-27T15:25:32.999Z</time></trkpt><trkpt lat="49.173966446763124" lon="2.568856944474255"><ele>68.0</ele><time>2026-03-27T15:25:35.999Z</time></trkpt><trkpt lat="49.17390591814211" lon="2.5688208594238113"><ele>68.0</ele><time>2026-03-27T15:25:37.999Z</time></trkpt><trkpt lat="49.173833032786156" lon="2.568773778764598"><ele>68.0</ele><time>2026-03-27T15:25:40.999Z</time></trkpt><trkpt lat="49.173760173803004" lon="2.5687100156061233"><ele>68.0</ele><time>2026-03-27T15:25:43.998Z</time></trkpt><trkpt lat="49.17369619153839" lon="2.5686625862783545"><ele>68.0</ele><time>2026-03-27T15:25:45.998Z</time></trkpt><trkpt lat="49.17362712354513" lon="2.5686136176468155"><ele>68.0</ele><time>2026-03-27T15:25:47.998Z</time></trkpt><trkpt lat="49.17355973273543" lon="2.5685654795261517"><ele>68.0</ele><time>2026-03-27T15:25:49.998Z</time></trkpt><trkpt lat="49.17349139868402" lon="2.5685210383132975"><ele>68.0</ele><time>2026-03-27T15:25:51.998Z</time></trkpt><trkpt lat="49.1734281854984" lon="2.5684667891752735"><ele>68.0</ele><time>2026-03-27T15:25:53.998Z</time></trkpt><trkpt lat="49.17335560840878" lon="2.5684198703940675"><ele>68.0</ele><time>2026-03-27T15:25:55.998Z</time></trkpt><trkpt lat="49.173283194803815" lon="2.5683644963920105"><ele>68.0</ele><time>2026-03-27T15:25:57.998Z</time></trkpt><trkpt lat="49.173213006757265" lon="2.5683167985543127"><ele>68.0</ele><time>2026-03-27T15:25:59.998Z</time></trkpt><trkpt lat="49.17314071153538" lon="2.5682669941799463"><ele>68.0</ele><time>2026-03-27T15:26:01.998Z</time></trkpt><trkpt lat="49.173069903570614" lon="2.568220085237008"><ele>68.0</ele><time>2026-03-27T15:26:03.998Z</time></trkpt><trkpt lat="49.17300205490107" lon="2.5681717193596025"><ele>68.0</ele><time>2026-03-27T15:26:05.998Z</time></trkpt><trkpt lat="49.17294195587138" lon="2.568126848865309"><ele>68.0</ele><time>2026-03-27T15:26:07.998Z</time></trkpt><trkpt lat="49.17286238090127" lon="2.5680821015767603"><ele>68.0</ele><time>2026-03-27T15:26:09.998Z</time></trkpt><trkpt lat="49.17280285752965" lon="2.568034263829378"><ele>68.0</ele><time>2026-03-27T15:26:11.998Z</time></trkpt><trkpt lat="49.17271775897328" lon="2.5679729084217535"><ele>68.0</ele><time>2026-03-27T15:26:14.998Z</time></trkpt><trkpt lat="49.172649734628614" lon="2.5679227276045355"><ele>68.0</ele><time>2026-03-27T15:26:16.998Z</time></trkpt><trkpt lat="49.17255616579416" lon="2.567856861448827"><ele>68.0</ele><time>2026-03-27T15:26:19.997Z</time></trkpt><trkpt lat="49.172491549112905" lon="2.5678039385170868"><ele>68.0</ele><time>2026-03-27T15:26:21.997Z</time></trkpt><trkpt lat="49.17242126189061" lon="2.5677551411259767"><ele>68.0</ele><time>2026-03-27T15:26:23.997Z</time></trkpt><trkpt lat="49.1723571450314" lon="2.5677170018327615"><ele>68.0</ele><time>2026-03-27T15:26:25.997Z</time></trkpt><trkpt lat="49.17229639760379" lon="2.5676647039883895"><ele>68.0</ele><time>2026-03-27T15:26:27.997Z</time></trkpt><trkpt lat="49.172212744110745" lon="2.567615048343796"><ele>68.28571428571428</ele><time>2026-03-27T15:26:30.997Z</time></trkpt><trkpt lat="49.17213799945598" lon="2.567555147068065"><ele>68.57142857142857</ele><time>2026-03-27T15:26:33.997Z</time></trkpt><trkpt lat="49.17207896932505" lon="2.567516796718056"><ele>68.85714285714286</ele><time>2026-03-27T15:26:35.997Z</time></trkpt><trkpt lat="49.17200242895335" lon="2.567459161552507"><ele>69.14285714285714</ele><time>2026-03-27T15:26:38.997Z</time></trkpt><trkpt lat="49.17194089797178" lon="2.567415362839667"><ele>69.42857142857143</ele><time>2026-03-27T15:26:40.997Z</time></trkpt><trkpt lat="49.171879461509015" lon="2.5673751282213773"><ele>69.71428571428571</ele><time>2026-03-27T15:26:42.997Z</time></trkpt><trkpt lat="49.17181293239553" lon="2.5673275333970174"><ele>70.0</ele><time>2026-03-27T15:26:44.997Z</time></trkpt><trkpt lat="49.17175633056533" lon="2.5672835095355304"><ele>70.0</ele><time>2026-03-27T15:26:46.997Z</time></trkpt><trkpt lat="49.17170050510346" lon="2.567231927423842"><ele>70.0</ele><time>2026-03-27T15:26:48.997Z</time></trkpt><trkpt lat="49.171635211677284" lon="2.567189577911643"><ele>70.0</ele><time>2026-03-27T15:26:50.997Z</time></trkpt><trkpt lat="49.171573112613515" lon="2.5671437516770017"><ele>70.0</ele><time>2026-03-27T15:26:53Z</time></trkpt><trkpt lat="49.17149098912596" lon="2.5670741259577112"><ele>70.0</ele><time>2026-03-27T15:26:56Z</time></trkpt><trkpt lat="49.17141961043441" lon="2.567028458266162"><ele>70.0</ele><time>2026-03-27T15:26:58Z</time></trkpt><trkpt lat="49.17134516044443" lon="2.5669781588833356"><ele>70.33333333333333</ele><time>2026-03-27T15:27:01Z</time></trkpt><trkpt lat="49.17127241791895" lon="2.5669135796981686"><ele>70.66666666666666</ele><time>2026-03-27T15:27:03Z</time></trkpt><trkpt lat="49.17119153940803" lon="2.5668750189074143"><ele>71.0</ele><time>2026-03-27T15:27:06Z</time></trkpt><trkpt lat="49.1711237809095" lon="2.566821426425413"><ele>71.33333333333333</ele><time>2026-03-27T15:27:08Z</time></trkpt><trkpt lat="49.171059897256605" lon="2.5667894585615323"><ele>71.66666666666667</ele><time>2026-03-27T15:27:10Z</time></trkpt><trkpt lat="49.17099730249834" lon="2.56673004445466"><ele>72.0</ele><time>2026-03-27T15:27:12Z</time></trkpt><trkpt lat="49.170934797721145" lon="2.5666700889600387"><ele>72.0</ele><time>2026-03-27T15:27:13.999Z</time></trkpt><trkpt lat="49.17085476100077" lon="2.566627914379291"><ele>72.0</ele><time>2026-03-27T15:27:15.999Z</time></trkpt><trkpt lat="49.17078048518593" lon="2.566579056078835"><ele>72.0</ele><time>2026-03-27T15:27:17.999Z</time></trkpt><trkpt lat="49.17070494460032" lon="2.5665264195572974"><ele>72.0</ele><time>2026-03-27T15:27:19.999Z</time></trkpt><trkpt lat="49.17062929748707" lon="2.5664693490462698"><ele>72.0</ele><time>2026-03-27T15:27:21.999Z</time></trkpt><trkpt lat="49.17055194356808" lon="2.566414172738355"><ele>72.0</ele><time>2026-03-27T15:27:23.999Z</time></trkpt><trkpt lat="49.170473916496384" lon="2.566352088241519"><ele>72.0</ele><time>2026-03-27T15:27:25.999Z</time></trkpt><trkpt lat="49.17039152396378" lon="2.5663090307853818"><ele>72.0</ele><time>2026-03-27T15:27:27.999Z</time></trkpt><trkpt lat="49.17031189762045" lon="2.566263376155364"><ele>72.0</ele><time>2026-03-27T15:27:29.999Z</time></trkpt><trkpt lat="49.17022719096291" lon="2.5662020771525857"><ele>72.0</ele><time>2026-03-27T15:27:31.999Z</time></trkpt><trkpt lat="49.170160656061896" lon="2.566142610137432"><ele>72.0</ele><time>2026-03-27T15:27:33.999Z</time></trkpt><trkpt lat="49.170088608776176" lon="2.5660874137021192"><ele>72.0</ele><time>2026-03-27T15:27:35.999Z</time></trkpt><trkpt lat="49.17001732817167" lon="2.566035805276149"><ele>72.0</ele><time>2026-03-27T15:27:37.999Z</time></trkpt><trkpt lat="49.169934436341734" lon="2.565978199124166"><ele>72.0</ele><time>2026-03-27T15:27:39.999Z</time></trkpt><trkpt lat="49.16986447594374" lon="2.5659210517211606"><ele>72.0</ele><time>2026-03-27T15:27:41.999Z</time></trkpt><trkpt lat="49.16976592063644" lon="2.565843952666157"><ele>72.0</ele><time>2026-03-27T15:27:43.999Z</time></trkpt><trkpt lat="49.16968608292691" lon="2.5657721068756465"><ele>72.0</ele><time>2026-03-27T15:27:45.999Z</time></trkpt><trkpt lat="49.16959572220079" lon="2.5656958876544333"><ele>71.66666666666667</ele><time>2026-03-27T15:27:47.998Z</time></trkpt><trkpt lat="49.16951176771946" lon="2.565628855054738"><ele>71.33333333333333</ele><time>2026-03-27T15:27:49.998Z</time></trkpt><trkpt lat="49.169451832916394" lon="2.5655920182402063"><ele>71.0</ele><time>2026-03-27T15:27:50.998Z</time></trkpt><trkpt lat="49.169368285409625" lon="2.565528202247021"><ele>70.66666666666666</ele><time>2026-03-27T15:27:52.998Z</time></trkpt><trkpt lat="49.169275671869975" lon="2.565480387678807"><ele>70.33333333333333</ele><time>2026-03-27T15:27:54.998Z</time></trkpt><trkpt lat="49.169214430214815" lon="2.5654549470812436"><ele>70.0</ele><time>2026-03-27T15:27:55.998Z</time></trkpt><trkpt lat="49.169107819724964" lon="2.5653706804099525"><ele>70.6</ele><time>2026-03-27T15:27:57.998Z</time></trkpt><trkpt lat="49.16901934034777" lon="2.5653075712213433"><ele>71.2</ele><time>2026-03-27T15:27:59.998Z</time></trkpt><trkpt lat="49.168921008216124" lon="2.565238036541438"><ele>71.8</ele><time>2026-03-27T15:28:01.998Z</time></trkpt><trkpt lat="49.16882559684811" lon="2.5651659336596664"><ele>72.4</ele><time>2026-03-27T15:28:03.998Z</time></trkpt><trkpt lat="49.168725579195964" lon="2.565090315915529"><ele>73.0</ele><time>2026-03-27T15:28:05.998Z</time></trkpt><trkpt lat="49.16862944186816" lon="2.5650253395058393"><ele>73.0</ele><time>2026-03-27T15:28:07.998Z</time></trkpt><trkpt lat="49.16853178167119" lon="2.564950031043521"><ele>73.0</ele><time>2026-03-27T15:28:09.998Z</time></trkpt><trkpt lat="49.16843804481095" lon="2.5648869945063524"><ele>73.0</ele><time>2026-03-27T15:28:11.998Z</time></trkpt><trkpt lat="49.16834098929355" lon="2.564816054638413"><ele>73.0</ele><time>2026-03-27T15:28:13.998Z</time></trkpt><trkpt lat="49.16825433756977" lon="2.564760008365814"><ele>73.0</ele><time>2026-03-27T15:28:15.998Z</time></trkpt><trkpt lat="49.168194116978235" lon="2.5647174032233964"><ele>72.6</ele><time>2026-03-27T15:28:16.998Z</time></trkpt><trkpt lat="49.168105744554396" lon="2.564656000176249"><ele>72.19999999999999</ele><time>2026-03-27T15:28:18.998Z</time></trkpt><trkpt lat="49.16801067947084" lon="2.5645856879342483"><ele>71.8</ele><time>2026-03-27T15:28:20.998Z</time></trkpt><trkpt lat="49.167914113492394" lon="2.564518422919056"><ele>71.39999999999999</ele><time>2026-03-27T15:28:22.998Z</time></trkpt><trkpt lat="49.167812537633374" lon="2.5644449230235273"><ele>71.0</ele><time>2026-03-27T15:28:24.997Z</time></trkpt><trkpt lat="49.16772010664986" lon="2.564380256572648"><ele>71.0</ele><time>2026-03-27T15:28:26.997Z</time></trkpt><trkpt lat="49.16762149772987" lon="2.5642983911869788"><ele>71.0</ele><time>2026-03-27T15:28:28.997Z</time></trkpt><trkpt lat="49.16751771828131" lon="2.564232026786988"><ele>71.0</ele><time>2026-03-27T15:28:30.997Z</time></trkpt><trkpt lat="49.16742299445964" lon="2.564156703748254"><ele>71.0</ele><time>2026-03-27T15:28:32.997Z</time></trkpt><trkpt lat="49.16732106854467" lon="2.5640849111820585"><ele>71.0</ele><time>2026-03-27T15:28:34.997Z</time></trkpt><trkpt lat="49.16722499552245" lon="2.5640216455536686"><ele>71.0</ele><time>2026-03-27T15:28:36.997Z</time></trkpt><trkpt lat="49.16713486698063" lon="2.5639546733600276"><ele>71.0</ele><time>2026-03-27T15:28:38.997Z</time></trkpt><trkpt lat="49.16703516277683" lon="2.563885664586371"><ele>71.0</ele><time>2026-03-27T15:28:40.997Z</time></trkpt><trkpt lat="49.1669375902406" lon="2.5638161308284553"><ele>71.0</ele><time>2026-03-27T15:28:42.997Z</time></trkpt><trkpt lat="49.16683815795124" lon="2.563744242963407"><ele>71.0</ele><time>2026-03-27T15:28:44.997Z</time></trkpt><trkpt lat="49.16673801842745" lon="2.563676406258644"><ele>71.2</ele><time>2026-03-27T15:28:46.997Z</time></trkpt><trkpt lat="49.16663668725616" lon="2.5636095201991798"><ele>71.39999999999999</ele><time>2026-03-27T15:28:48.997Z</time></trkpt><trkpt lat="49.166552977648735" lon="2.5635434603947957"><ele>71.6</ele><time>2026-03-27T15:28:50.997Z</time></trkpt><trkpt lat="49.16646224472907" lon="2.563480185606135"><ele>71.8</ele><time>2026-03-27T15:28:52.997Z</time></trkpt><trkpt lat="49.166372632829784" lon="2.563415278194654"><ele>72.0</ele><time>2026-03-27T15:28:54.997Z</time></trkpt><trkpt lat="49.16627740496366" lon="2.5633476728501545"><ele>72.0</ele><time>2026-03-27T15:28:56.997Z</time></trkpt><trkpt lat="49.16619451751743" lon="2.563281762712652"><ele>72.0</ele><time>2026-03-27T15:28:59Z</time></trkpt><trkpt lat="49.166095966596636" lon="2.5632137519906264"><ele>72.0</ele><time>2026-03-27T15:29:01Z</time></trkpt><trkpt lat="49.16600401454364" lon="2.5631432745619067"><ele>72.0</ele><time>2026-03-27T15:29:03Z</time></trkpt><trkpt lat="49.165910696417995" lon="2.5630778208822362"><ele>72.0</ele><time>2026-03-27T15:29:05Z</time></trkpt><trkpt lat="49.16582181815228" lon="2.5630100071507167"><ele>72.0</ele><time>2026-03-27T15:29:07Z</time></trkpt><trkpt lat="49.165736012154085" lon="2.5629496054299548"><ele>72.0</ele><time>2026-03-27T15:29:09Z</time></trkpt><trkpt lat="49.1656485788656" lon="2.562887723111638"><ele>72.0</ele><time>2026-03-27T15:29:11Z</time></trkpt><trkpt lat="49.16556717914105" lon="2.5628240001488964"><ele>72.0</ele><time>2026-03-27T15:29:13Z</time></trkpt><trkpt lat="49.16547865588734" lon="2.5627679205017264"><ele>72.0</ele><time>2026-03-27T15:29:15Z</time></trkpt><trkpt lat="49.1653952702819" lon="2.562700952954611"><ele>71.8</ele><time>2026-03-27T15:29:16.999Z</time></trkpt><trkpt lat="49.16531488230524" lon="2.5626388173870582"><ele>71.6</ele><time>2026-03-27T15:29:18.999Z</time></trkpt><trkpt lat="49.16523170282073" lon="2.562583558671442"><ele>71.39999999999999</ele><time>2026-03-27T15:29:20.999Z</time></trkpt><trkpt lat="49.16514938246422" lon="2.5625254370681794"><ele>71.2</ele><time>2026-03-27T15:29:22.999Z</time></trkpt><trkpt lat="49.165067517589065" lon="2.5624587704435355"><ele>71.0</ele><time>2026-03-27T15:29:24.999Z</time></trkpt><trkpt lat="49.16497976755324" lon="2.562403074140331"><ele>71.0</ele><time>2026-03-27T15:29:26.999Z</time></trkpt><trkpt lat="49.16489828772062" lon="2.562344373006667"><ele>71.0</ele><time>2026-03-27T15:29:28.999Z</time></trkpt><trkpt lat="49.16481504613097" lon="2.5622844249384897"><ele>71.0</ele><time>2026-03-27T15:29:30.999Z</time></trkpt><trkpt lat="49.1647280765905" lon="2.56222088466739"><ele>71.0</ele><time>2026-03-27T15:29:32.999Z</time></trkpt><trkpt lat="49.16463870405602" lon="2.5621614421633905"><ele>71.0</ele><time>2026-03-27T15:29:34.999Z</time></trkpt><trkpt lat="49.16453801673334" lon="2.5620919622204466"><ele>70.8</ele><time>2026-03-27T15:29:36.999Z</time></trkpt><trkpt lat="49.164451179293174" lon="2.56202420265907"><ele>70.6</ele><time>2026-03-27T15:29:38.999Z</time></trkpt><trkpt lat="49.16435938312122" lon="2.561960303189581"><ele>70.4</ele><time>2026-03-27T15:29:40.999Z</time></trkpt><trkpt lat="49.16426477676929" lon="2.5618944351518227"><ele>70.2</ele><time>2026-03-27T15:29:42.999Z</time></trkpt><trkpt lat="49.16417564990057" lon="2.561831613370465"><ele>70.0</ele><time>2026-03-27T15:29:44.999Z</time></trkpt><trkpt lat="49.16409285506474" lon="2.5617509725563004"><ele>70.0</ele><time>2026-03-27T15:29:46.999Z</time></trkpt><trkpt lat="49.16402730860681" lon="2.5616416028255418"><ele>70.0</ele><time>2026-03-27T15:29:48.999Z</time></trkpt><trkpt lat="49.164009166080056" lon="2.561466954566371"><ele>70.0</ele><time>2026-03-27T15:29:50.999Z</time></trkpt><trkpt lat="49.1639982474415" lon="2.561313892121152"><ele>70.0</ele><time>2026-03-27T15:29:52.998Z</time></trkpt><trkpt lat="49.16396655791845" lon="2.5611705038398402"><ele>70.0</ele><time>2026-03-27T15:29:54.998Z</time></trkpt><trkpt lat="49.16391664598919" lon="2.5611044824802764"><ele>70.0</ele><time>2026-03-27T15:29:55.998Z</time></trkpt><trkpt lat="49.1638033624798" lon="2.561055918158304"><ele>70.0</ele><time>2026-03-27T15:29:57.998Z</time></trkpt><trkpt lat="49.163679626680214" lon="2.5610579547530428"><ele>70.0</ele><time>2026-03-27T15:29:59.998Z</time></trkpt><trkpt lat="49.16355143658595" lon="2.5610694996974677"><ele>70.0</ele><time>2026-03-27T15:30:01.998Z</time></trkpt><trkpt lat="49.16345210782832" lon="2.561103254254352"><ele>70.0</ele><time>2026-03-27T15:30:03.998Z</time></trkpt><trkpt lat="49.163368993389405" lon="2.5611261261293734"><ele>70.0</ele><time>2026-03-27T15:30:05.998Z</time></trkpt><trkpt lat="49.16327472423963" lon="2.5611458331538417"><ele>70.0</ele><time>2026-03-27T15:30:07.998Z</time></trkpt><trkpt lat="49.1631980174645" lon="2.5611231438503044"><ele>70.0</ele><time>2026-03-27T15:30:09.998Z</time></trkpt><trkpt lat="49.163124409204706" lon="2.5610880874313167"><ele>70.0</ele><time>2026-03-27T15:30:11.998Z</time></trkpt><trkpt lat="49.163048393869644" lon="2.5610340473278423"><ele>70.0</ele><time>2026-03-27T15:30:13.998Z</time></trkpt><trkpt lat="49.162968158577144" lon="2.560973834848677"><ele>69.4</ele><time>2026-03-27T15:30:15.998Z</time></trkpt><trkpt lat="49.16288986266512" lon="2.560913411414308"><ele>68.8</ele><time>2026-03-27T15:30:17.998Z</time></trkpt><trkpt lat="49.16282036967749" lon="2.5608478308518206"><ele>68.2</ele><time>2026-03-27T15:30:19.998Z</time></trkpt><trkpt lat="49.16273105969447" lon="2.5607979981529203"><ele>67.6</ele><time>2026-03-27T15:30:21.998Z</time></trkpt><trkpt lat="49.162645809384" lon="2.560746516807295"><ele>67.0</ele><time>2026-03-27T15:30:23.998Z</time></trkpt><trkpt lat="49.16256181503435" lon="2.560680306495399"><ele>67.0</ele><time>2026-03-27T15:30:25.998Z</time></trkpt><trkpt lat="49.162489291828614" lon="2.5606232368570847"><ele>67.0</ele><time>2026-03-27T15:30:27.998Z</time></trkpt><trkpt lat="49.162404973364275" lon="2.5605694813235362"><ele>67.0</ele><time>2026-03-27T15:30:29.997Z</time></trkpt><trkpt lat="49.162324912568316" lon="2.5605101317292296"><ele>67.0</ele><time>2026-03-27T15:30:31.997Z</time></trkpt><trkpt lat="49.16224521238441" lon="2.5604513555680843"><ele>67.0</ele><time>2026-03-27T15:30:33.997Z</time></trkpt><trkpt lat="49.16216350164576" lon="2.560395130349353"><ele>67.0</ele><time>2026-03-27T15:30:35.997Z</time></trkpt><trkpt lat="49.16208343354746" lon="2.560336549848402"><ele>66.8</ele><time>2026-03-27T15:30:37.997Z</time></trkpt><trkpt lat="49.16199805987888" lon="2.5602753926594315"><ele>66.6</ele><time>2026-03-27T15:30:39.997Z</time></trkpt><trkpt lat="49.16191756924436" lon="2.560215688236629"><ele>66.39999999999999</ele><time>2026-03-27T15:30:41.997Z</time></trkpt><trkpt lat="49.161833695547806" lon="2.560160446826282"><ele>66.2</ele><time>2026-03-27T15:30:43.997Z</time></trkpt><trkpt lat="49.161750178054255" lon="2.5601027212099163"><ele>66.0</ele><time>2026-03-27T15:30:45.997Z</time></trkpt><trkpt lat="49.16166775015204" lon="2.560042188046455"><ele>66.0</ele><time>2026-03-27T15:30:47.997Z</time></trkpt><trkpt lat="49.16158364040503" lon="2.5599759482041606"><ele>66.0</ele><time>2026-03-27T15:30:49.997Z</time></trkpt><trkpt lat="49.161494207324075" lon="2.559910049837835"><ele>66.0</ele><time>2026-03-27T15:30:51.997Z</time></trkpt><trkpt lat="49.161408174424764" lon="2.5598590813688773"><ele>66.0</ele><time>2026-03-27T15:30:53.997Z</time></trkpt><trkpt lat="49.161326239027424" lon="2.5597913370910184"><ele>66.0</ele><time>2026-03-27T15:30:55.997Z</time></trkpt><trkpt lat="49.16123786588431" lon="2.5597278643102723"><ele>65.8</ele><time>2026-03-27T15:30:57.997Z</time></trkpt><trkpt lat="49.16114921319801" lon="2.5596662246003894"><ele>65.6</ele><time>2026-03-27T15:30:59.997Z</time></trkpt><trkpt lat="49.161062772841774" lon="2.559602916043116"><ele>65.4</ele><time>2026-03-27T15:31:01.997Z</time></trkpt><trkpt lat="49.160973352779564" lon="2.559543603968998"><ele>65.2</ele><time>2026-03-27T15:31:04Z</time></trkpt><trkpt lat="49.160879518724485" lon="2.5594800571291128"><ele>65.0</ele><time>2026-03-27T15:31:05.999Z</time></trkpt><trkpt lat="49.1607944791117" lon="2.5594156484825663"><ele>65.5</ele><time>2026-03-27T15:31:08Z</time></trkpt><trkpt lat="49.160708065486034" lon="2.559360522978928"><ele>66.0</ele><time>2026-03-27T15:31:09.999Z</time></trkpt><trkpt lat="49.16063575408569" lon="2.5592997352234206"><ele>66.5</ele><time>2026-03-27T15:31:11.999Z</time></trkpt><trkpt lat="49.1605633543141" lon="2.559231091434455"><ele>67.0</ele><time>2026-03-27T15:31:14Z</time></trkpt><trkpt lat="49.160500448059175" lon="2.5591725538214027"><ele>67.5</ele><time>2026-03-27T15:31:15.999Z</time></trkpt><trkpt lat="49.16042718857939" lon="2.5591242416779565"><ele>68.0</ele><time>2026-03-27T15:31:17.999Z</time></trkpt><trkpt lat="49.16036421255832" lon="2.559053923635529"><ele>68.33333333333334</ele><time>2026-03-27T15:31:19.999Z</time></trkpt><trkpt lat="49.16027513558439" lon="2.5590030988998382"><ele>68.66666666666667</ele><time>2026-03-27T15:31:21.999Z</time></trkpt><trkpt lat="49.16019511936231" lon="2.5589668123386704"><ele>69.0</ele><time>2026-03-27T15:31:23.999Z</time></trkpt><trkpt lat="49.16012443535339" lon="2.5588996447808325"><ele>69.33333333333333</ele><time>2026-03-27T15:31:25.999Z</time></trkpt><trkpt lat="49.16007386628607" lon="2.558815368231395"><ele>69.66666666666666</ele><time>2026-03-27T15:31:27.999Z</time></trkpt><trkpt lat="49.16003775285433" lon="2.5586942413398504"><ele>70.0</ele><time>2026-03-27T15:31:29.999Z</time></trkpt><trkpt lat="49.16002280285534" lon="2.5585593357745977"><ele>70.16666666666666</ele><time>2026-03-27T15:31:31.999Z</time></trkpt><trkpt lat="49.15998921905352" lon="2.558437604886642"><ele>70.33333333333333</ele><time>2026-03-27T15:31:33.999Z</time></trkpt><trkpt lat="49.15995715008942" lon="2.5583234523717273"><ele>70.5</ele><time>2026-03-27T15:31:35.999Z</time></trkpt><trkpt lat="49.15991296908187" lon="2.5582228031894205"><ele>70.66666666666667</ele><time>2026-03-27T15:31:37.999Z</time></trkpt><trkpt lat="49.15986548832185" lon="2.5581129293586518"><ele>70.83333333333334</ele><time>2026-03-27T15:31:39.999Z</time></trkpt><trkpt lat="49.159827630662626" lon="2.558001812488487"><ele>71.0</ele><time>2026-03-27T15:31:41.999Z</time></trkpt><trkpt lat="49.15979838070727" lon="2.5578887373350665"><ele>71.0</ele><time>2026-03-27T15:31:43.999Z</time></trkpt><trkpt lat="49.159767073383144" lon="2.557761817329348"><ele>71.0</ele><time>2026-03-27T15:31:45.999Z</time></trkpt><trkpt lat="49.159752826632" lon="2.557628795688334"><ele>71.0</ele><time>2026-03-27T15:31:47.999Z</time></trkpt><trkpt lat="49.159744871927614" lon="2.5575027005350712"><ele>71.0</ele><time>2026-03-27T15:31:49.999Z</time></trkpt><trkpt lat="49.159719077871046" lon="2.557363164292438"><ele>71.0</ele><time>2026-03-27T15:31:51.999Z</time></trkpt><trkpt lat="49.159698857423244" lon="2.5572331168882556"><ele>71.0</ele><time>2026-03-27T15:31:53.999Z</time></trkpt><trkpt lat="49.15967561126011" lon="2.557104746023046"><ele>70.6</ele><time>2026-03-27T15:31:55.998Z</time></trkpt><trkpt lat="49.159632913763176" lon="2.5569796919272476"><ele>70.19999999999999</ele><time>2026-03-27T15:31:57.998Z</time></trkpt><trkpt lat="49.15959308163967" lon="2.5568609233628723"><ele>69.80000000000001</ele><time>2026-03-27T15:31:59.998Z</time></trkpt><trkpt lat="49.15956744693211" lon="2.5567128922718134"><ele>69.4</ele><time>2026-03-27T15:32:01.998Z</time></trkpt><trkpt lat="49.15954368055218" lon="2.556576484563205"><ele>69.0</ele><time>2026-03-27T15:32:03.998Z</time></trkpt><trkpt lat="49.15953650177699" lon="2.5564438972172447"><ele>69.0</ele><time>2026-03-27T15:32:05.998Z</time></trkpt><trkpt lat="49.15953046176042" lon="2.556309485041803"><ele>69.0</ele><time>2026-03-27T15:32:07.998Z</time></trkpt><trkpt lat="49.15952812453209" lon="2.5561780177811855"><ele>69.0</ele><time>2026-03-27T15:32:09.998Z</time></trkpt><trkpt lat="49.159513575604606" lon="2.5560697281453564"><ele>69.0</ele><time>2026-03-27T15:32:11.998Z</time></trkpt><trkpt lat="49.159513404979464" lon="2.5559516983276445"><ele>69.0</ele><time>2026-03-27T15:32:13.998Z</time></trkpt><trkpt lat="49.15950067625944" lon="2.555818910234451"><ele>69.0</ele><time>2026-03-27T15:32:15.998Z</time></trkpt><trkpt lat="49.15946070142898" lon="2.5556828349367287"><ele>69.0</ele><time>2026-03-27T15:32:18.998Z</time></trkpt><trkpt lat="49.15942723914399" lon="2.555584269722615"><ele>69.0</ele><time>2026-03-27T15:32:20.998Z</time></trkpt><trkpt lat="49.15939528084598" lon="2.5554718583801512"><ele>69.0</ele><time>2026-03-27T15:32:22.998Z</time></trkpt><trkpt lat="49.15934971021832" lon="2.55534104292431"><ele>69.0</ele><time>2026-03-27T15:32:24.998Z</time></trkpt><trkpt lat="49.15931281727451" lon="2.5552145953070178"><ele>69.0</ele><time>2026-03-27T15:32:26.998Z</time></trkpt><trkpt lat="49.159290241192394" lon="2.5550869175937576"><ele>69.0</ele><time>2026-03-27T15:32:28.998Z</time></trkpt><trkpt lat="49.15925459565816" lon="2.554970406226386"><ele>69.16666666666667</ele><time>2026-03-27T15:32:30.997Z</time></trkpt><trkpt lat="49.159230801531194" lon="2.554861700348802"><ele>69.33333333333333</ele><time>2026-03-27T15:32:32.997Z</time></trkpt><trkpt lat="49.15917698195707" lon="2.5547574533575657"><ele>69.5</ele><time>2026-03-27T15:32:34.997Z</time></trkpt><trkpt lat="49.1591124761245" lon="2.5546637589856536"><ele>69.66666666666666</ele><time>2026-03-27T15:32:36.997Z</time></trkpt><trkpt lat="49.159053367057766" lon="2.5545820537474024"><ele>69.83333333333333</ele><time>2026-03-27T15:32:38.997Z</time></trkpt><trkpt lat="49.15898428595284" lon="2.5544802977107186"><ele>70.0</ele><time>2026-03-27T15:32:40.997Z</time></trkpt><trkpt lat="49.15892776630728" lon="2.5543950364854595"><ele>69.4</ele><time>2026-03-27T15:32:42.997Z</time></trkpt><trkpt lat="49.158861449139465" lon="2.5542940377136247"><ele>68.8</ele><time>2026-03-27T15:32:44.997Z</time></trkpt><trkpt lat="49.15879468242345" lon="2.554187735199829"><ele>68.2</ele><time>2026-03-27T15:32:46.997Z</time></trkpt><trkpt lat="49.15874119037495" lon="2.554084037173333"><ele>67.6</ele><time>2026-03-27T15:32:48.997Z</time></trkpt><trkpt lat="49.15867400996383" lon="2.553976313308569"><ele>67.0</ele><time>2026-03-27T15:32:50.997Z</time></trkpt><trkpt lat="49.1586147840129" lon="2.5538758503492973"><ele>67.0</ele><time>2026-03-27T15:32:52.997Z</time></trkpt><trkpt lat="49.158560610515686" lon="2.5537632679201594"><ele>67.0</ele><time>2026-03-27T15:32:54.997Z</time></trkpt><trkpt lat="49.15851193396223" lon="2.5536420985121246"><ele>67.0</ele><time>2026-03-27T15:32:56.997Z</time></trkpt><trkpt lat="49.15844832350731" lon="2.553526891907091"><ele>67.0</ele><time>2026-03-27T15:32:58.997Z</time></trkpt><trkpt lat="49.15838917287644" lon="2.5534034973604958"><ele>67.0</ele><time>2026-03-27T15:33:00.997Z</time></trkpt><trkpt lat="49.158351980793" lon="2.5532708772051587"><ele>67.0</ele><time>2026-03-27T15:33:02.997Z</time></trkpt><trkpt lat="49.15831110248873" lon="2.5531339730489058"><ele>67.0</ele><time>2026-03-27T15:33:04.997Z</time></trkpt><trkpt lat="49.158263043276406" lon="2.5530015437675955"><ele>67.0</ele><time>2026-03-27T15:33:06.997Z</time></trkpt><trkpt lat="49.15821935280285" lon="2.5528712439448467"><ele>67.0</ele><time>2026-03-27T15:33:08.996Z</time></trkpt><trkpt lat="49.15815992565657" lon="2.5527313730703245"><ele>67.0</ele><time>2026-03-27T15:33:10.999Z</time></trkpt><trkpt lat="49.15808268304947" lon="2.5526263703745413"><ele>66.4</ele><time>2026-03-27T15:33:12.999Z</time></trkpt><trkpt lat="49.157991926978646" lon="2.552550096450062"><ele>65.80000000000001</ele><time>2026-03-27T15:33:14.999Z</time></trkpt><trkpt lat="49.1578956000902" lon="2.55247568378314"><ele>65.2</ele><time>2026-03-27T15:33:16.999Z</time></trkpt><trkpt lat="49.157810799296776" lon="2.552388744115697"><ele>64.60000000000001</ele><time>2026-03-27T15:33:18.999Z</time></trkpt><trkpt lat="49.15773112818009" lon="2.552306830078632"><ele>64.0</ele><time>2026-03-27T15:33:20.999Z</time></trkpt><trkpt lat="49.1576516245842" lon="2.552241832012044"><ele>63.99999999999999</ele><time>2026-03-27T15:33:22.999Z</time></trkpt><trkpt lat="49.157574071793356" lon="2.55215909103363"><ele>64.0</ele><time>2026-03-27T15:33:24.999Z</time></trkpt><trkpt lat="49.157513132356925" lon="2.5520860728370454"><ele>64.0</ele><time>2026-03-27T15:33:26.999Z</time></trkpt><trkpt lat="49.15743955061464" lon="2.552027112590143"><ele>64.0</ele><time>2026-03-27T15:33:28.999Z</time></trkpt><trkpt lat="49.15736416308807" lon="2.551970383634371"><ele>63.99999999999999</ele><time>2026-03-27T15:33:30.999Z</time></trkpt><trkpt lat="49.15728603342902" lon="2.5519257721259985"><ele>64.0</ele><time>2026-03-27T15:33:32.999Z</time></trkpt><trkpt lat="49.157203890646656" lon="2.551863558184854"><ele>62.83333333333333</ele><time>2026-03-27T15:33:34.999Z</time></trkpt><trkpt lat="49.15713416897019" lon="2.551789659066253"><ele>61.666666666666664</ele><time>2026-03-27T15:33:36.999Z</time></trkpt><trkpt lat="49.15715332064397" lon="2.551665960913489"><ele>60.5</ele><time>2026-03-27T15:33:38.999Z</time></trkpt><trkpt lat="49.15717415243823" lon="2.5515349741377324"><ele>59.33333333333333</ele><time>2026-03-27T15:33:41.999Z</time></trkpt><trkpt lat="49.15711115945879" lon="2.551454116296507"><ele>58.166666666666664</ele><time>2026-03-27T15:33:44Z</time></trkpt><trkpt lat="49.157066377839385" lon="2.5513076695929082"><ele>57.0</ele><time>2026-03-27T15:33:46Z</time></trkpt><trkpt lat="49.156994554636185" lon="2.5512790370295644"><ele>57.0</ele><time>2026-03-27T15:33:49Z</time></trkpt><trkpt lat="49.156933392282184" lon="2.551254654448043"><ele>57.0</ele><time>2026-03-27T15:33:51Z</time></trkpt><trkpt lat="49.15685807977352" lon="2.551224630861932"><ele>57.0</ele><time>2026-03-27T15:33:54Z</time></trkpt><trkpt lat="49.15679008115861" lon="2.5511975229822554"><ele>57.0</ele><time>2026-03-27T15:33:57Z</time></trkpt><trkpt lat="49.156724280690206" lon="2.551171291402106"><ele>57.0</ele><time>2026-03-27T15:33:59.999Z</time></trkpt><trkpt lat="49.15664943854928" lon="2.5511414553302814"><ele>57.0</ele><time>2026-03-27T15:34:02.999Z</time></trkpt><trkpt lat="49.15657014893904" lon="2.5510618799248674"><ele>56.666666666666664</ele><time>2026-03-27T15:34:09.999Z</time></trkpt><trkpt lat="49.15650976616633" lon="2.550988413606778"><ele>56.33333333333333</ele><time>2026-03-27T15:34:11.999Z</time></trkpt><trkpt lat="49.15653084300619" lon="2.550857283197219"><ele>56.0</ele><time>2026-03-27T15:34:13.999Z</time></trkpt><trkpt lat="49.156513752089936" lon="2.5507439415733524"><ele>55.666666666666664</ele><time>2026-03-27T15:34:15.999Z</time></trkpt><trkpt lat="49.156495264929205" lon="2.5506375324176096"><ele>55.33333333333333</ele><time>2026-03-27T15:35:56Z</time></trkpt><trkpt lat="49.15647030430497" lon="2.550507537821286"><ele>55.0</ele><time>2026-03-27T15:36:00Z</time></trkpt><trkpt lat="49.15644695152248" lon="2.550387843086459"><ele>55.49999999999999</ele><time>2026-03-27T15:36:03Z</time></trkpt><trkpt lat="49.15642810071086" lon="2.5502875072954625"><ele>56.0</ele><time>2026-03-27T15:36:04.999Z</time></trkpt><trkpt lat="49.1564085464373" lon="2.550180024534063"><ele>56.5</ele><time>2026-03-27T15:36:06.999Z</time></trkpt><trkpt lat="49.156389317180945" lon="2.550068454736124"><ele>57.0</ele><time>2026-03-27T15:36:08.999Z</time></trkpt><trkpt lat="49.156370750754746" lon="2.5499504620240274"><ele>57.49999999999999</ele><time>2026-03-27T15:36:10.999Z</time></trkpt><trkpt lat="49.15635213400033" lon="2.5498308806843766"><ele>58.0</ele><time>2026-03-27T15:36:12.999Z</time></trkpt><trkpt lat="49.15633127297675" lon="2.5497088646934816"><ele>57.99999999999999</ele><time>2026-03-27T15:36:14.999Z</time></trkpt><trkpt lat="49.15630875412378" lon="2.5495801356612136"><ele>58.0</ele><time>2026-03-27T15:36:16.999Z</time></trkpt><trkpt lat="49.15628580003341" lon="2.549452349656142"><ele>58.0</ele><time>2026-03-27T15:36:18.999Z</time></trkpt><trkpt lat="49.15626225562996" lon="2.5493221309938416"><ele>58.0</ele><time>2026-03-27T15:36:20.999Z</time></trkpt><trkpt lat="49.15623882592125" lon="2.5491925466804894"><ele>57.99999999999999</ele><time>2026-03-27T15:36:22.999Z</time></trkpt><trkpt lat="49.156215163083516" lon="2.5490660698383296"><ele>58.0</ele><time>2026-03-27T15:36:24.999Z</time></trkpt><trkpt lat="49.15619138753754" lon="2.5489396596165816"><ele>57.83333333333333</ele><time>2026-03-27T15:36:26.999Z</time></trkpt><trkpt lat="49.15616735484348" lon="2.548812198656707"><ele>57.666666666666664</ele><time>2026-03-27T15:36:28.999Z</time></trkpt><trkpt lat="49.15614335333754" lon="2.5486890200859946"><ele>57.5</ele><time>2026-03-27T15:36:30.999Z</time></trkpt><trkpt lat="49.15611759352014" lon="2.548560600196654"><ele>57.33333333333333</ele><time>2026-03-27T15:36:32.999Z</time></trkpt><trkpt lat="49.15608925450893" lon="2.548431697307275"><ele>57.166666666666664</ele><time>2026-03-27T15:36:34.999Z</time></trkpt><trkpt lat="49.15605648538442" lon="2.5483026425008846"><ele>57.0</ele><time>2026-03-27T15:36:36.999Z</time></trkpt><trkpt lat="49.15602121885741" lon="2.5481746727094063"><ele>56.6</ele><time>2026-03-27T15:36:38.999Z</time></trkpt><trkpt lat="49.155976148921766" lon="2.548047907666091"><ele>56.2</ele><time>2026-03-27T15:36:40.998Z</time></trkpt><trkpt lat="49.155928274640104" lon="2.547925485657823"><ele>55.8</ele><time>2026-03-27T15:36:42.998Z</time></trkpt><trkpt lat="49.1558729047826" lon="2.5478052064802954"><ele>55.4</ele><time>2026-03-27T15:36:44.998Z</time></trkpt><trkpt lat="49.15578925494595" lon="2.547698085288449"><ele>55.0</ele><time>2026-03-27T15:36:46.998Z</time></trkpt><trkpt lat="49.1556818012855" lon="2.5475719263299044"><ele>54.99999999999999</ele><time>2026-03-27T15:36:49.998Z</time></trkpt><trkpt lat="49.1556219760065" lon="2.5474540015036395"><ele>55.0</ele><time>2026-03-27T15:36:51.998Z</time></trkpt><trkpt lat="49.15557758335174" lon="2.547348260878411"><ele>55.0</ele><time>2026-03-27T15:36:53.998Z</time></trkpt><trkpt lat="49.15552793051042" lon="2.547226177562179"><ele>55.0</ele><time>2026-03-27T15:36:55.998Z</time></trkpt><trkpt lat="49.15549167779961" lon="2.5471087730262063"><ele>54.99999999999999</ele><time>2026-03-27T15:36:57.998Z</time></trkpt><trkpt lat="49.155454897502885" lon="2.546993471074519"><ele>55.0</ele><time>2026-03-27T15:36:59.998Z</time></trkpt><trkpt lat="49.15542392898934" lon="2.5468778444488143"><ele>54.99999999999999</ele><time>2026-03-27T15:37:01.998Z</time></trkpt><trkpt lat="49.15539009631737" lon="2.546745880690148"><ele>55.0</ele><time>2026-03-27T15:37:03.998Z</time></trkpt><trkpt lat="49.15535918761155" lon="2.546625321809666"><ele>55.0</ele><time>2026-03-27T15:37:05.998Z</time></trkpt><trkpt lat="49.15533026653542" lon="2.5465127748076206"><ele>55.0</ele><time>2026-03-27T15:37:07.998Z</time></trkpt><trkpt lat="49.15530705608975" lon="2.5463939380451244"><ele>54.99999999999999</ele><time>2026-03-27T15:37:09.998Z</time></trkpt><trkpt lat="49.15528837957836" lon="2.546263821577524"><ele>55.0</ele><time>2026-03-27T15:37:11.998Z</time></trkpt><trkpt lat="49.155272684576225" lon="2.5461544768269393"><ele>55.42857142857142</ele><time>2026-03-27T15:37:13.998Z</time></trkpt><trkpt lat="49.15525800141124" lon="2.546052181384661"><ele>55.85714285714286</ele><time>2026-03-27T15:37:15.998Z</time></trkpt><trkpt lat="49.15524152422997" lon="2.5459458592586386"><ele>56.28571428571429</ele><time>2026-03-27T15:37:17.998Z</time></trkpt><trkpt lat="49.15523524544212" lon="2.545820547683393"><ele>56.714285714285715</ele><time>2026-03-27T15:37:19.997Z</time></trkpt><trkpt lat="49.15523080688273" lon="2.5457071235848225"><ele>57.142857142857146</ele><time>2026-03-27T15:37:22.001Z</time></trkpt><trkpt lat="49.155227274043526" lon="2.5456075625847103"><ele>57.57142857142858</ele><time>2026-03-27T15:37:24.001Z</time></trkpt><trkpt lat="49.15522465209736" lon="2.5455078560035456"><ele>58.00000000000001</ele><time>2026-03-27T15:37:26.001Z</time></trkpt><trkpt lat="49.15523683503507" lon="2.5454002121526074"><ele>58.14285714285715</ele><time>2026-03-27T15:37:28.001Z</time></trkpt><trkpt lat="49.15521988584535" lon="2.5452908800663696"><ele>58.28571428571429</ele><time>2026-03-27T15:37:30.001Z</time></trkpt><trkpt lat="49.15521612596328" lon="2.545181044626652"><ele>58.42857142857143</ele><time>2026-03-27T15:37:32.001Z</time></trkpt><trkpt lat="49.155229232358245" lon="2.5450656624445784"><ele>58.57142857142858</ele><time>2026-03-27T15:37:34.001Z</time></trkpt><trkpt lat="49.15522781760495" lon="2.544953961251695"><ele>58.71428571428572</ele><time>2026-03-27T15:37:36.001Z</time></trkpt><trkpt lat="49.15521260693704" lon="2.544841233041685"><ele>58.857142857142854</ele><time>2026-03-27T15:37:38.001Z</time></trkpt><trkpt lat="49.155224922552264" lon="2.5447253836749066"><ele>59.0</ele><time>2026-03-27T15:37:40.001Z</time></trkpt><trkpt lat="49.15521195409283" lon="2.544607900361233"><ele>58.66666666666667</ele><time>2026-03-27T15:37:42Z</time></trkpt><trkpt lat="49.15520752928632" lon="2.544485096327215"><ele>58.333333333333336</ele><time>2026-03-27T15:37:44Z</time></trkpt><trkpt lat="49.15521449770262" lon="2.5443566658642833"><ele>58.0</ele><time>2026-03-27T15:37:46Z</time></trkpt><trkpt lat="49.15521735286251" lon="2.544237808162711"><ele>57.66666666666667</ele><time>2026-03-27T15:37:48Z</time></trkpt><trkpt lat="49.15522287718833" lon="2.5441035609613065"><ele>57.333333333333336</ele><time>2026-03-27T15:37:50Z</time></trkpt><trkpt lat="49.15522505827524" lon="2.543969297560298"><ele>57.0</ele><time>2026-03-27T15:37:52Z</time></trkpt><trkpt lat="49.15522879430243" lon="2.5438328234750824"><ele>57.2</ele><time>2026-03-27T15:37:54Z</time></trkpt><trkpt lat="49.15522683085666" lon="2.543695025092449"><ele>57.400000000000006</ele><time>2026-03-27T15:37:56Z</time></trkpt><trkpt lat="49.15521272104468" lon="2.5435534928565353"><ele>57.599999999999994</ele><time>2026-03-27T15:37:58Z</time></trkpt><trkpt lat="49.15519771090224" lon="2.5434088106637947"><ele>57.8</ele><time>2026-03-27T15:38:00Z</time></trkpt><trkpt lat="49.15517937488431" lon="2.543266008780892"><ele>58.0</ele><time>2026-03-27T15:38:02Z</time></trkpt><trkpt lat="49.155159461493625" lon="2.543119773066002"><ele>58.0</ele><time>2026-03-27T15:38:04Z</time></trkpt><trkpt lat="49.155160108438785" lon="2.5429669496583824"><ele>58.0</ele><time>2026-03-27T15:38:06Z</time></trkpt><trkpt lat="49.15514590563789" lon="2.5428193843704516"><ele>58.0</ele><time>2026-03-27T15:38:08Z</time></trkpt><trkpt lat="49.15511616018905" lon="2.5426737849891268"><ele>58.0</ele><time>2026-03-27T15:38:10Z</time></trkpt><trkpt lat="49.15510332857742" lon="2.5425071444445084"><ele>58.0</ele><time>2026-03-27T15:38:12Z</time></trkpt><trkpt lat="49.15509989771204" lon="2.542341313707207"><ele>58.2</ele><time>2026-03-27T15:38:14Z</time></trkpt><trkpt lat="49.15508970400669" lon="2.542181269772097"><ele>58.4</ele><time>2026-03-27T15:38:15.999Z</time></trkpt><trkpt lat="49.15508343507008" lon="2.542023374085005"><ele>58.60000000000001</ele><time>2026-03-27T15:38:17.999Z</time></trkpt><trkpt lat="49.155077868857354" lon="2.541882790262555"><ele>58.800000000000004</ele><time>2026-03-27T15:38:19.999Z</time></trkpt><trkpt lat="49.155060512893606" lon="2.541718291519085"><ele>59.0</ele><time>2026-03-27T15:38:21.999Z</time></trkpt><trkpt lat="49.155073464984135" lon="2.5415532773231106"><ele>59.0</ele><time>2026-03-27T15:38:23.999Z</time></trkpt><trkpt lat="49.15506261965244" lon="2.5413894413913076"><ele>59.00000000000001</ele><time>2026-03-27T15:38:25.999Z</time></trkpt><trkpt lat="49.15506366038396" lon="2.541213834342361"><ele>59.00000000000001</ele><time>2026-03-27T15:38:27.999Z</time></trkpt><trkpt lat="49.155064620633134" lon="2.54105496959013"><ele>59.0</ele><time>2026-03-27T15:38:29.999Z</time></trkpt><trkpt lat="49.15506918590261" lon="2.5408761697485853"><ele>59.0</ele><time>2026-03-27T15:38:31.999Z</time></trkpt><trkpt lat="49.155067505721654" lon="2.5407208177080887"><ele>59.0</ele><time>2026-03-27T15:38:33.999Z</time></trkpt><trkpt lat="49.155082873880886" lon="2.5405503409189554"><ele>59.00000000000001</ele><time>2026-03-27T15:38:35.999Z</time></trkpt><trkpt lat="49.15509343954338" lon="2.5403915091157216"><ele>59.00000000000001</ele><time>2026-03-27T15:38:37.999Z</time></trkpt><trkpt lat="49.155103319228935" lon="2.5402332372222443"><ele>59.0</ele><time>2026-03-27T15:38:39.999Z</time></trkpt><trkpt lat="49.15512259703809" lon="2.5400846515746474"><ele>59.0</ele><time>2026-03-27T15:38:41.999Z</time></trkpt><trkpt lat="49.15512943855182" lon="2.5399422048030766"><ele>58.66666666666667</ele><time>2026-03-27T15:38:43.999Z</time></trkpt><trkpt lat="49.155137815871065" lon="2.539793880652994"><ele>58.333333333333336</ele><time>2026-03-27T15:38:45.999Z</time></trkpt><trkpt lat="49.15514416346132" lon="2.539670186960622"><ele>58.0</ele><time>2026-03-27T15:38:47.999Z</time></trkpt><trkpt lat="49.15516666726647" lon="2.539533427146355"><ele>57.66666666666667</ele><time>2026-03-27T15:38:49.999Z</time></trkpt><trkpt lat="49.155169486863024" lon="2.5393970158195707"><ele>57.333333333333336</ele><time>2026-03-27T15:38:51.998Z</time></trkpt><trkpt lat="49.155172078231345" lon="2.539271646201232"><ele>57.0</ele><time>2026-03-27T15:38:53.998Z</time></trkpt><trkpt lat="49.15517391244316" lon="2.539125924035188"><ele>57.0</ele><time>2026-03-27T15:38:55.998Z</time></trkpt><trkpt lat="49.15517494127942" lon="2.53899003859431"><ele>57.0</ele><time>2026-03-27T15:38:57.998Z</time></trkpt><trkpt lat="49.15516329028045" lon="2.5388429555465777"><ele>57.0</ele><time>2026-03-27T15:38:59.998Z</time></trkpt><trkpt lat="49.15516483319108" lon="2.53870694198842"><ele>57.0</ele><time>2026-03-27T15:39:01.998Z</time></trkpt><trkpt lat="49.15515598921012" lon="2.5385808860806818"><ele>57.0</ele><time>2026-03-27T15:39:03.998Z</time></trkpt><trkpt lat="49.155161165079534" lon="2.538423517203001"><ele>57.8</ele><time>2026-03-27T15:39:05.998Z</time></trkpt><trkpt lat="49.15516156363361" lon="2.53826728404523"><ele>58.6</ele><time>2026-03-27T15:39:07.998Z</time></trkpt><trkpt lat="49.15516244303554" lon="2.5381103406519014"><ele>59.39999999999999</ele><time>2026-03-27T15:39:09.998Z</time></trkpt><trkpt lat="49.15516475481834" lon="2.5379574762423305"><ele>60.199999999999996</ele><time>2026-03-27T15:39:11.998Z</time></trkpt><trkpt lat="49.15516853007112" lon="2.537797862154489"><ele>61.0</ele><time>2026-03-27T15:39:13.998Z</time></trkpt><trkpt lat="49.155176023681" lon="2.5376419923560034"><ele>61.49999999999999</ele><time>2026-03-27T15:39:15.998Z</time></trkpt><trkpt lat="49.155188583878406" lon="2.5374967588696986"><ele>62.0</ele><time>2026-03-27T15:39:17.998Z</time></trkpt><trkpt lat="49.15521067034015" lon="2.5373603126191706"><ele>62.5</ele><time>2026-03-27T15:39:19.998Z</time></trkpt><trkpt lat="49.15524717423538" lon="2.5372360160019003"><ele>63.0</ele><time>2026-03-27T15:39:21.998Z</time></trkpt><trkpt lat="49.15528222474332" lon="2.53712574473272"><ele>63.49999999999999</ele><time>2026-03-27T15:39:23.998Z</time></trkpt><trkpt lat="49.15534377344384" lon="2.5370388746479424"><ele>64.0</ele><time>2026-03-27T15:39:25.998Z</time></trkpt><trkpt lat="49.15539391965126" lon="2.5369104694527156"><ele>64.14285714285714</ele><time>2026-03-27T15:39:29.001Z</time></trkpt><trkpt lat="49.155423954921844" lon="2.5368114169465303"><ele>64.28571428571428</ele><time>2026-03-27T15:39:31.001Z</time></trkpt><trkpt lat="49.155451496142554" lon="2.5367004239956352"><ele>64.42857142857143</ele><time>2026-03-27T15:39:33.001Z</time></trkpt><trkpt lat="49.1554738245592" lon="2.53660687970218"><ele>64.57142857142857</ele><time>2026-03-27T15:39:35.001Z</time></trkpt><trkpt lat="49.15550112797742" lon="2.5364924927575805"><ele>64.71428571428572</ele><time>2026-03-27T15:39:37.001Z</time></trkpt><trkpt lat="49.1555261953176" lon="2.5363810341873383"><ele>64.85714285714286</ele><time>2026-03-27T15:39:39.001Z</time></trkpt><trkpt lat="49.15554837194129" lon="2.5362808755042234"><ele>65.0</ele><time>2026-03-27T15:39:41.001Z</time></trkpt><trkpt lat="49.155573518850964" lon="2.5361654163314262"><ele>65.33333333333334</ele><time>2026-03-27T15:39:43.001Z</time></trkpt><trkpt lat="49.15559827859246" lon="2.536048416897248"><ele>65.66666666666667</ele><time>2026-03-27T15:39:45.001Z</time></trkpt><trkpt lat="49.15562328890241" lon="2.5359299901573307"><ele>66.0</ele><time>2026-03-27T15:39:47.001Z</time></trkpt><trkpt lat="49.1556427642108" lon="2.5358321322534016"><ele>66.33333333333333</ele><time>2026-03-27T15:39:49.001Z</time></trkpt><trkpt lat="49.155664679182934" lon="2.5357220156978313"><ele>66.66666666666666</ele><time>2026-03-27T15:39:51Z</time></trkpt><trkpt lat="49.155685949351934" lon="2.535610527621876"><ele>67.0</ele><time>2026-03-27T15:39:53Z</time></trkpt><trkpt lat="49.15570688874314" lon="2.5354963539948936"><ele>66.83333333333333</ele><time>2026-03-27T15:39:55Z</time></trkpt><trkpt lat="49.15572643221235" lon="2.5353818354387627"><ele>66.66666666666666</ele><time>2026-03-27T15:39:57Z</time></trkpt><trkpt lat="49.155751948855226" lon="2.535227637181537"><ele>66.5</ele><time>2026-03-27T15:40:00Z</time></trkpt><trkpt lat="49.15577046459393" lon="2.5351086577143653"><ele>66.33333333333333</ele><time>2026-03-27T15:40:02Z</time></trkpt><trkpt lat="49.15578548569328" lon="2.5350014105600644"><ele>66.16666666666667</ele><time>2026-03-27T15:40:04Z</time></trkpt><trkpt lat="49.15579942947845" lon="2.5348907258583004"><ele>66.0</ele><time>2026-03-27T15:40:06Z</time></trkpt><trkpt lat="49.155809816539765" lon="2.5347808828251215"><ele>66.0</ele><time>2026-03-27T15:40:08Z</time></trkpt><trkpt lat="49.15581643613226" lon="2.5346836421248686"><ele>66.0</ele><time>2026-03-27T15:40:10Z</time></trkpt><trkpt lat="49.15582339862033" lon="2.534548777535824"><ele>66.0</ele><time>2026-03-27T15:40:12Z</time></trkpt><trkpt lat="49.15582678662866" lon="2.534425249422005"><ele>66.0</ele><time>2026-03-27T15:40:14Z</time></trkpt><trkpt lat="49.1558287620337" lon="2.5343067252442064"><ele>66.0</ele><time>2026-03-27T15:40:16Z</time></trkpt><trkpt lat="49.15582977819464" lon="2.534195455676574"><ele>66.0</ele><time>2026-03-27T15:40:18Z</time></trkpt><trkpt lat="49.155829384925056" lon="2.534071624513565"><ele>65.83333333333333</ele><time>2026-03-27T15:40:20Z</time></trkpt><trkpt lat="49.15582735711506" lon="2.533947509252422"><ele>65.66666666666667</ele><time>2026-03-27T15:40:22Z</time></trkpt><trkpt lat="49.15582373912645" lon="2.5338075208547304"><ele>65.5</ele><time>2026-03-27T15:40:23.999Z</time></trkpt><trkpt lat="49.15581836797623" lon="2.5336806940116348"><ele>65.33333333333334</ele><time>2026-03-27T15:40:25.999Z</time></trkpt><trkpt lat="49.15581240469345" lon="2.533549672016072"><ele>65.16666666666667</ele><time>2026-03-27T15:40:27.999Z</time></trkpt><trkpt lat="49.15580365801154" lon="2.53341954777739"><ele>65.0</ele><time>2026-03-27T15:40:29.999Z</time></trkpt><trkpt lat="49.15577885969439" lon="2.533298414781494"><ele>64.4</ele><time>2026-03-27T15:40:31.999Z</time></trkpt><trkpt lat="49.155766585011435" lon="2.533159739681772"><ele>63.8</ele><time>2026-03-27T15:40:33.999Z</time></trkpt><trkpt lat="49.155763680097486" lon="2.5330309918445577"><ele>63.2</ele><time>2026-03-27T15:40:35.999Z</time></trkpt><trkpt lat="49.15574239938586" lon="2.532900684071236"><ele>62.6</ele><time>2026-03-27T15:40:37.999Z</time></trkpt><trkpt lat="49.155701440696866" lon="2.5327743454181624"><ele>62.0</ele><time>2026-03-27T15:40:39.999Z</time></trkpt><trkpt lat="49.15568637946213" lon="2.5326157456407876"><ele>61.6</ele><time>2026-03-27T15:40:41.999Z</time></trkpt><trkpt lat="49.155655456329086" lon="2.5324660776220234"><ele>61.2</ele><time>2026-03-27T15:40:43.999Z</time></trkpt><trkpt lat="49.15562512291407" lon="2.5323161150394564"><ele>60.8</ele><time>2026-03-27T15:40:45.999Z</time></trkpt><trkpt lat="49.15558781294069" lon="2.532190389492094"><ele>60.4</ele><time>2026-03-27T15:40:47.999Z</time></trkpt><trkpt lat="49.155575072941566" lon="2.532060477104502"><ele>60.0</ele><time>2026-03-27T15:40:49.999Z</time></trkpt><trkpt lat="49.1555665188154" lon="2.531924471438743"><ele>59.6</ele><time>2026-03-27T15:40:51.999Z</time></trkpt><trkpt lat="49.155548905490164" lon="2.531803943047835"><ele>59.2</ele><time>2026-03-27T15:40:53.999Z</time></trkpt><trkpt lat="49.15554079368845" lon="2.5316680796119413"><ele>58.8</ele><time>2026-03-27T15:40:55.999Z</time></trkpt><trkpt lat="49.15553979368805" lon="2.5315263436355147"><ele>58.4</ele><time>2026-03-27T15:40:57.998Z</time></trkpt><trkpt lat="49.15554261954403" lon="2.5313818779022763"><ele>58.0</ele><time>2026-03-27T15:40:59.998Z</time></trkpt><trkpt lat="49.15554933629324" lon="2.531226810931874"><ele>58.0</ele><time>2026-03-27T15:41:01.998Z</time></trkpt><trkpt lat="49.15555346350241" lon="2.5310757551628864"><ele>58.0</ele><time>2026-03-27T15:41:03.998Z</time></trkpt><trkpt lat="49.15556978362955" lon="2.530940313039701"><ele>58.0</ele><time>2026-03-27T15:41:05.998Z</time></trkpt><trkpt lat="49.15556186112866" lon="2.530782084166727"><ele>58.0</ele><time>2026-03-27T15:41:07.998Z</time></trkpt><trkpt lat="49.155560870977155" lon="2.530622354701202"><ele>58.0</ele><time>2026-03-27T15:41:09.998Z</time></trkpt><trkpt lat="49.1555577872419" lon="2.5304621132939986"><ele>57.8</ele><time>2026-03-27T15:41:11.998Z</time></trkpt><trkpt lat="49.155562739954604" lon="2.5302976746006287"><ele>57.599999999999994</ele><time>2026-03-27T15:41:13.998Z</time></trkpt><trkpt lat="49.1555670153625" lon="2.5301996521193897"><ele>57.400000000000006</ele><time>2026-03-27T15:41:14.998Z</time></trkpt><trkpt lat="49.155535196872286" lon="2.5300477603868843"><ele>57.2</ele><time>2026-03-27T15:41:16.998Z</time></trkpt><trkpt lat="49.15548845860647" lon="2.5299080809053893"><ele>57.0</ele><time>2026-03-27T15:41:18.998Z</time></trkpt><trkpt lat="49.15547422665271" lon="2.529756954046006"><ele>57.0</ele><time>2026-03-27T15:41:20.998Z</time></trkpt><trkpt lat="49.15544511040897" lon="2.529618107055063"><ele>57.0</ele><time>2026-03-27T15:41:22.998Z</time></trkpt><trkpt lat="49.15541460501072" lon="2.529472631069975"><ele>57.0</ele><time>2026-03-27T15:41:24.998Z</time></trkpt><trkpt lat="49.15538573049628" lon="2.5293349326032266"><ele>57.0</ele><time>2026-03-27T15:41:26.998Z</time></trkpt><trkpt lat="49.15535972658363" lon="2.5292109235199365"><ele>57.0</ele><time>2026-03-27T15:41:28.998Z</time></trkpt><trkpt lat="49.155335616213485" lon="2.529096794604052"><ele>56.666666666666664</ele><time>2026-03-27T15:41:30.998Z</time></trkpt><trkpt lat="49.15531133901164" lon="2.528983661545935"><ele>56.33333333333333</ele><time>2026-03-27T15:41:33.001Z</time></trkpt><trkpt lat="49.155180310143336" lon="2.5290115477169537"><ele>56.0</ele><time>2026-03-27T15:41:38.001Z</time></trkpt><trkpt lat="49.155107464005546" lon="2.529091808454291"><ele>55.666666666666664</ele><time>2026-03-27T15:41:41.001Z</time></trkpt><trkpt lat="49.15505236641735" lon="2.5291636232692363"><ele>55.33333333333333</ele><time>2026-03-27T15:42:17Z</time></trkpt><trkpt lat="49.155073426122485" lon="2.5290713367937774"><ele>55.0</ele><time>2026-03-27T15:44:06Z</time></trkpt><trkpt lat="49.15513113723643" lon="2.5290157389991843"><ele>54.99999999999999</ele><time>2026-03-27T15:45:57Z</time></trkpt><trkpt lat="49.15518682768582" lon="2.5289579867046137"><ele>55.0</ele><time>2026-03-27T15:46:02Z</time></trkpt><trkpt lat="49.1552407192873" lon="2.528900084460001"><ele>55.0</ele><time>2026-03-27T15:46:06Z</time></trkpt><trkpt lat="49.15525514140757" lon="2.5288063197770514"><ele>55.0</ele><time>2026-03-27T15:46:10Z</time></trkpt><trkpt lat="49.15525370045227" lon="2.5286837022895714"><ele>55.0</ele><time>2026-03-27T15:46:13Z</time></trkpt><trkpt lat="49.15524470215953" lon="2.5285712750114433"><ele>54.99999999999999</ele><time>2026-03-27T15:46:16Z</time></trkpt><trkpt lat="49.15521829333579" lon="2.5284472952028825"><ele>55.0</ele><time>2026-03-27T15:46:19Z</time></trkpt><trkpt lat="49.155226107605024" lon="2.5283407911368756"><ele>54.42857142857142</ele><time>2026-03-27T15:46:21Z</time></trkpt><trkpt lat="49.155217401684" lon="2.5282352891298245"><ele>53.857142857142854</ele><time>2026-03-27T15:46:23Z</time></trkpt><trkpt lat="49.155208187863686" lon="2.5281235861921147"><ele>53.285714285714285</ele><time>2026-03-27T15:46:24.999Z</time></trkpt><trkpt lat="49.15518399122152" lon="2.5280199376808774"><ele>52.71428571428571</ele><time>2026-03-27T15:46:26.999Z</time></trkpt><trkpt lat="49.15519340426118" lon="2.5279208296931297"><ele>52.142857142857146</ele><time>2026-03-27T15:46:28.999Z</time></trkpt><trkpt lat="49.15518613104283" lon="2.527815145802316"><ele>51.57142857142857</ele><time>2026-03-27T15:46:30.999Z</time></trkpt><trkpt lat="49.155175863424205" lon="2.52766595152945"><ele>51.0</ele><time>2026-03-27T15:46:33.999Z</time></trkpt><trkpt lat="49.15515564057011" lon="2.527565043434913"><ele>51.0</ele><time>2026-03-27T15:46:35.999Z</time></trkpt><trkpt lat="49.15514892588221" lon="2.5274640935658845"><ele>51.0</ele><time>2026-03-27T15:46:37.999Z</time></trkpt><trkpt lat="49.155145134562915" lon="2.527355780189215"><ele>51.0</ele><time>2026-03-27T15:46:39.999Z</time></trkpt><trkpt lat="49.15515487430907" lon="2.5272506632621616"><ele>51.0</ele><time>2026-03-27T15:46:41.999Z</time></trkpt><trkpt lat="49.15513602981651" lon="2.5271499655912786"><ele>51.0</ele><time>2026-03-27T15:46:43.999Z</time></trkpt><trkpt lat="49.15514979530513" lon="2.527044346846167"><ele>51.0</ele><time>2026-03-27T15:46:45.999Z</time></trkpt><trkpt lat="49.15514716078154" lon="2.526937328771407"><ele>51.0</ele><time>2026-03-27T15:46:47.999Z</time></trkpt><trkpt lat="49.15513172690698" lon="2.526831200097187"><ele>51.0</ele><time>2026-03-27T15:46:49.999Z</time></trkpt><trkpt lat="49.15514320743277" lon="2.5267169831898064"><ele>51.0</ele><time>2026-03-27T15:46:51.999Z</time></trkpt><trkpt lat="49.155131815870305" lon="2.5266125081049196"><ele>51.0</ele><time>2026-03-27T15:46:53.999Z</time></trkpt><trkpt lat="49.155129829012154" lon="2.5264663107009007"><ele>51.0</ele><time>2026-03-27T15:46:56.998Z</time></trkpt><trkpt lat="49.155141773646505" lon="2.526359572424"><ele>51.0</ele><time>2026-03-27T15:46:58.998Z</time></trkpt><trkpt lat="49.15513050644207" lon="2.5262609816232873"><ele>51.0</ele><time>2026-03-27T15:47:00.998Z</time></trkpt><trkpt lat="49.15512697022689" lon="2.5261568078793126"><ele>51.0</ele><time>2026-03-27T15:47:02.998Z</time></trkpt><trkpt lat="49.15512819683881" lon="2.5260571074898146"><ele>51.166666666666664</ele><time>2026-03-27T15:47:04.998Z</time></trkpt><trkpt lat="49.15512817595036" lon="2.525950957920455"><ele>51.33333333333333</ele><time>2026-03-27T15:47:06.998Z</time></trkpt><trkpt lat="49.155123727688306" lon="2.525851942471691"><ele>51.5</ele><time>2026-03-27T15:47:08.998Z</time></trkpt><trkpt lat="49.15512334710255" lon="2.525738402691779"><ele>51.666666666666664</ele><time>2026-03-27T15:47:10.998Z</time></trkpt><trkpt lat="49.15513946466266" lon="2.5255965217389003"><ele>51.83333333333333</ele><time>2026-03-27T15:47:13.998Z</time></trkpt><trkpt lat="49.15512929671332" lon="2.5254995784200283"><ele>52.0</ele><time>2026-03-27T15:47:15.998Z</time></trkpt><trkpt lat="49.15512277421408" lon="2.5253473674198874"><ele>52.33333333333333</ele><time>2026-03-27T15:47:18.998Z</time></trkpt><trkpt lat="49.15513900262767" lon="2.5252471687079354"><ele>52.666666666666664</ele><time>2026-03-27T15:47:20.998Z</time></trkpt><trkpt lat="49.155135229323584" lon="2.525108929695795"><ele>53.0</ele><time>2026-03-27T15:47:23.998Z</time></trkpt><trkpt lat="49.155135750044316" lon="2.5250118252082414"><ele>53.33333333333333</ele><time>2026-03-27T15:47:25.998Z</time></trkpt><trkpt lat="49.15514488703959" lon="2.524880822577926"><ele>53.666666666666664</ele><time>2026-03-27T15:47:28.998Z</time></trkpt><trkpt lat="49.155157799746995" lon="2.5247536137175035"><ele>54.0</ele><time>2026-03-27T15:47:31.997Z</time></trkpt><trkpt lat="49.15516963890381" lon="2.524635583872333"><ele>54.14285714285714</ele><time>2026-03-27T15:47:34.997Z</time></trkpt><trkpt lat="49.15517797253086" lon="2.524539521319549"><ele>54.285714285714285</ele><time>2026-03-27T15:47:36.997Z</time></trkpt><trkpt lat="49.15517527081013" lon="2.524404329257951"><ele>54.42857142857143</ele><time>2026-03-27T15:47:39.997Z</time></trkpt><trkpt lat="49.155162115811365" lon="2.5243085672320276"><ele>54.57142857142857</ele><time>2026-03-27T15:47:41.997Z</time></trkpt><trkpt lat="49.155153077281746" lon="2.524208022319665"><ele>54.714285714285715</ele><time>2026-03-27T15:47:43.997Z</time></trkpt><trkpt lat="49.155141576418686" lon="2.524081653310275"><ele>54.857142857142854</ele><time>2026-03-27T15:47:46.997Z</time></trkpt><trkpt lat="49.15514482705564" lon="2.5239642999140344"><ele>55.0</ele><time>2026-03-27T15:47:50Z</time></trkpt><trkpt lat="49.15513700855404" lon="2.5238291140484814"><ele>54.99999999999999</ele><time>2026-03-27T15:47:53Z</time></trkpt><trkpt lat="49.15512937919912" lon="2.5237328369015617"><ele>55.0</ele><time>2026-03-27T15:47:55Z</time></trkpt><trkpt lat="49.155120971457954" lon="2.5236352548176777"><ele>55.0</ele><time>2026-03-27T15:47:57Z</time></trkpt><trkpt lat="49.155109908235374" lon="2.523494412549914"><ele>55.0</ele><time>2026-03-27T15:48:00Z</time></trkpt><trkpt lat="49.15510352609456" lon="2.5233753564493875"><ele>54.99999999999999</ele><time>2026-03-27T15:48:03Z</time></trkpt><trkpt lat="49.155097414151655" lon="2.5232364116078436"><ele>55.0</ele><time>2026-03-27T15:48:06Z</time></trkpt><trkpt lat="49.15509375943788" lon="2.523139513174575"><ele>54.99999999999999</ele><time>2026-03-27T15:48:08Z</time></trkpt><trkpt lat="49.155093955892305" lon="2.5230127881281676"><ele>55.0</ele><time>2026-03-27T15:48:11Z</time></trkpt><trkpt lat="49.15509611508426" lon="2.522905908008357"><ele>55.0</ele><time>2026-03-27T15:48:13Z</time></trkpt><trkpt lat="49.155101847795734" lon="2.522808116867962"><ele>55.0</ele><time>2026-03-27T15:48:15Z</time></trkpt><trkpt lat="49.15510884732909" lon="2.522707637229523"><ele>54.99999999999999</ele><time>2026-03-27T15:48:17Z</time></trkpt><trkpt lat="49.15511909718787" lon="2.5225749605469603"><ele>55.0</ele><time>2026-03-27T15:48:20Z</time></trkpt><trkpt lat="49.15513111486038" lon="2.5224350836266156"><ele>55.28571428571428</ele><time>2026-03-27T15:48:23Z</time></trkpt><trkpt lat="49.15512255263021" lon="2.5223360340689127"><ele>55.57142857142857</ele><time>2026-03-27T15:48:25Z</time></trkpt><trkpt lat="49.15513305745046" lon="2.522193487160462"><ele>55.857142857142854</ele><time>2026-03-27T15:48:27.999Z</time></trkpt><trkpt lat="49.15513584379255" lon="2.5220946079194797"><ele>56.14285714285714</ele><time>2026-03-27T15:48:29.999Z</time></trkpt><trkpt lat="49.155158876795234" lon="2.5219819452615497"><ele>56.42857142857142</ele><time>2026-03-27T15:48:31.999Z</time></trkpt><trkpt lat="49.155148966348705" lon="2.5218700490643133"><ele>56.71428571428571</ele><time>2026-03-27T15:48:33.999Z</time></trkpt><trkpt lat="49.15515739429711" lon="2.521759904564596"><ele>57.0</ele><time>2026-03-27T15:48:35.999Z</time></trkpt><trkpt lat="49.15516461185553" lon="2.5216474753471956"><ele>57.400000000000006</ele><time>2026-03-27T15:48:37.999Z</time></trkpt><trkpt lat="49.155162983428035" lon="2.521530645842229"><ele>57.800000000000004</ele><time>2026-03-27T15:48:39.999Z</time></trkpt><trkpt lat="49.155178056209465" lon="2.5213988058428116"><ele>58.2</ele><time>2026-03-27T15:48:41.999Z</time></trkpt><trkpt lat="49.15515327275526" lon="2.521261431895285"><ele>58.6</ele><time>2026-03-27T15:48:43.999Z</time></trkpt><trkpt lat="49.15513391025674" lon="2.521094014720329"><ele>59.0</ele><time>2026-03-27T15:48:45.999Z</time></trkpt><trkpt lat="49.15510025841528" lon="2.5209691363582913"><ele>59.0</ele><time>2026-03-27T15:48:47.999Z</time></trkpt><trkpt lat="49.15506972051169" lon="2.5208406563200656"><ele>59.00000000000001</ele><time>2026-03-27T15:48:50.999Z</time></trkpt><trkpt lat="49.15504517680252" lon="2.520719241479192"><ele>59.00000000000001</ele><time>2026-03-27T15:48:53.999Z</time></trkpt><trkpt lat="49.15509785146547" lon="2.520582215426836"><ele>59.0</ele><time>2026-03-27T15:48:55.999Z</time></trkpt><trkpt lat="49.15508760839733" lon="2.5204792963995715"><ele>59.0</ele><time>2026-03-27T15:48:57.999Z</time></trkpt><trkpt lat="49.15509356925399" lon="2.5202896391612417"><ele>58.0</ele><time>2026-03-27T15:49:01.998Z</time></trkpt><trkpt lat="49.15509533628169" lon="2.520145797801884"><ele>58.0</ele><time>2026-03-27T15:49:04.998Z</time></trkpt></trkseg></trk></gpx>